<?xml version="1.0" encoding="UTF-8" standalone="no" ?>
<gpx xmlns="http://www.topografix.com/GPX/1/1" xmlns:xsi="http://www.w3.org/2001/XMLSchema-instance" xsi:schemaLocation="http://www.topografix.com/GPX/1/1 http://www.topografix.com/GPX/1/1/gpx.xsd" version="1.1" creator="VisuGPX - https://www.visugpx.com">
  <metadata>
    <name>Trail des Reculées 2023 - Les Laves - 53 km sur TraceDeTrail.fr</name>
  </metadata>
  <trk>
    <name><![CDATA[Trail des Reculées 2022 - Les Laves - 50 km sur TraceDeTrail.fr]]></name>
    <extensions>
      <line xmlns="http://www.topografix.com/GPX/gpx_style/0/2">
        <color>0000FF</color>
        <width>4</width>
      </line>
    </extensions>
    <trkseg>
      <trkpt lat="46.6746" lon="5.55348">
        <ele>269</ele>
        <time>2019-07-29T04:28:24.000Z</time>
        <extensions>
          <visugpx:TrkExtension xmlns:visugpx="https://www.visugpx.com/editgpx/">
            <visugpx:node>3</visugpx:node>
            </visugpx:TrkExtension>
        </extensions>
      </trkpt>
      <trkpt lat="46.67466" lon="5.5535">
        <ele>254.9</ele>
        <time>2019-07-29T04:28:34.000Z</time>
      </trkpt>
      <trkpt lat="46.67495" lon="5.55368">
        <ele>262</ele>
        <time>2019-07-29T04:29:04.000Z</time>
      </trkpt>
      <trkpt lat="46.675" lon="5.55369">
        <ele>255</ele>
        <time>2019-07-29T04:29:14.000Z</time>
      </trkpt>
      <trkpt lat="46.6751" lon="5.55374">
        <ele>255</ele>
        <time>2019-07-29T04:29:24.000Z</time>
      </trkpt>
      <trkpt lat="46.6753" lon="5.55388">
        <ele>262</ele>
        <time>2019-07-29T04:29:32.000Z</time>
      </trkpt>
      <trkpt lat="46.67533" lon="5.55394">
        <ele>255.3</ele>
        <time>2019-07-29T04:29:42.000Z</time>
      </trkpt>
      <trkpt lat="46.67532" lon="5.55405">
        <ele>255.6</ele>
        <time>2019-07-29T04:29:52.000Z</time>
      </trkpt>
      <trkpt lat="46.67524" lon="5.55425">
        <ele>262</ele>
        <time>2019-07-29T04:30:02.000Z</time>
      </trkpt>
      <trkpt lat="46.67522" lon="5.55433">
        <ele>255.9</ele>
        <time>2019-07-29T04:30:12.000Z</time>
      </trkpt>
      <trkpt lat="46.67519" lon="5.55441">
        <ele>256</ele>
        <time>2019-07-29T04:30:22.000Z</time>
      </trkpt>
      <trkpt lat="46.67517" lon="5.55455">
        <ele>268</ele>
        <time>2019-07-29T04:30:32.000Z</time>
      </trkpt>
      <trkpt lat="46.67514" lon="5.55459">
        <ele>256</ele>
        <time>2019-07-29T04:30:42.000Z</time>
      </trkpt>
      <trkpt lat="46.67513" lon="5.55468">
        <ele>256</ele>
        <time>2019-07-29T04:30:52.000Z</time>
      </trkpt>
      <trkpt lat="46.67511" lon="5.55477">
        <ele>256</ele>
        <time>2019-07-29T04:31:02.000Z</time>
      </trkpt>
      <trkpt lat="46.67507" lon="5.5549">
        <ele>268</ele>
        <time>2019-07-29T04:31:12.000Z</time>
      </trkpt>
      <trkpt lat="46.67501" lon="5.55498">
        <ele>256</ele>
        <time>2019-07-29T04:31:22.000Z</time>
      </trkpt>
      <trkpt lat="46.67498" lon="5.55526">
        <ele>262</ele>
        <time>2019-07-29T04:31:42.000Z</time>
      </trkpt>
      <trkpt lat="46.67494" lon="5.55537">
        <ele>257</ele>
        <time>2019-07-29T04:31:52.000Z</time>
      </trkpt>
      <trkpt lat="46.67491" lon="5.55543">
        <ele>257</ele>
        <time>2019-07-29T04:32:02.000Z</time>
      </trkpt>
      <trkpt lat="46.67484" lon="5.55541">
        <ele>262</ele>
        <time>2019-07-29T04:32:12.000Z</time>
      </trkpt>
      <trkpt lat="46.67476" lon="5.55534">
        <ele>257</ele>
        <time>2019-07-29T04:32:22.000Z</time>
      </trkpt>
      <trkpt lat="46.6747" lon="5.55534">
        <ele>257</ele>
        <time>2019-07-29T04:32:32.000Z</time>
      </trkpt>
      <trkpt lat="46.67463" lon="5.55532">
        <ele>262</ele>
        <time>2019-07-29T04:32:42.000Z</time>
      </trkpt>
      <trkpt lat="46.67456" lon="5.55527">
        <ele>257</ele>
        <time>2019-07-29T04:32:52.000Z</time>
      </trkpt>
      <trkpt lat="46.6745" lon="5.55524">
        <ele>256.9</ele>
        <time>2019-07-29T04:33:02.000Z</time>
      </trkpt>
      <trkpt lat="46.67446" lon="5.5552">
        <ele>266</ele>
        <time>2019-07-29T04:33:12.000Z</time>
      </trkpt>
      <trkpt lat="46.67441" lon="5.55517">
        <ele>256.7</ele>
        <time>2019-07-29T04:33:22.000Z</time>
      </trkpt>
      <trkpt lat="46.67431" lon="5.55515">
        <ele>256.8</ele>
        <time>2019-07-29T04:33:32.000Z</time>
      </trkpt>
      <trkpt lat="46.67425" lon="5.55512">
        <ele>266</ele>
        <time>2019-07-29T04:33:42.000Z</time>
      </trkpt>
      <trkpt lat="46.67411" lon="5.55503">
        <ele>257</ele>
        <time>2019-07-29T04:33:52.000Z</time>
      </trkpt>
      <trkpt lat="46.674" lon="5.55497">
        <ele>262</ele>
        <time>2019-07-29T04:34:02.000Z</time>
      </trkpt>
      <trkpt lat="46.67393" lon="5.55495">
        <ele>256.8</ele>
        <time>2019-07-29T04:34:12.000Z</time>
      </trkpt>
      <trkpt lat="46.67376" lon="5.55481">
        <ele>258</ele>
        <time>2019-07-29T04:34:22.000Z</time>
      </trkpt>
      <trkpt lat="46.67367" lon="5.55482">
        <ele>256.4</ele>
        <time>2019-07-29T04:34:32.000Z</time>
      </trkpt>
      <trkpt lat="46.67352" lon="5.55485">
        <ele>258</ele>
        <time>2019-07-29T04:34:42.000Z</time>
      </trkpt>
      <trkpt lat="46.67341" lon="5.55492">
        <ele>256.2</ele>
        <time>2019-07-29T04:34:52.000Z</time>
      </trkpt>
      <trkpt lat="46.67337" lon="5.55491">
        <ele>256.1</ele>
        <time>2019-07-29T04:35:02.000Z</time>
      </trkpt>
      <trkpt lat="46.67332" lon="5.55491">
        <ele>259</ele>
        <time>2019-07-29T04:35:12.000Z</time>
      </trkpt>
      <trkpt lat="46.67322" lon="5.55481">
        <ele>256</ele>
        <time>2019-07-29T04:35:22.000Z</time>
      </trkpt>
      <trkpt lat="46.67317" lon="5.5548">
        <ele>256</ele>
        <time>2019-07-29T04:35:32.000Z</time>
      </trkpt>
      <trkpt lat="46.67314" lon="5.55477">
        <ele>260</ele>
        <time>2019-07-29T04:35:42.000Z</time>
      </trkpt>
      <trkpt lat="46.67298" lon="5.55471">
        <ele>256</ele>
        <time>2019-07-29T04:35:52.000Z</time>
      </trkpt>
      <trkpt lat="46.67277" lon="5.55469">
        <ele>262</ele>
        <time>2019-07-29T04:36:02.000Z</time>
      </trkpt>
      <trkpt lat="46.67271" lon="5.55467">
        <ele>256.2</ele>
        <time>2019-07-29T04:36:12.000Z</time>
      </trkpt>
      <trkpt lat="46.67259" lon="5.55466">
        <ele>256.5</ele>
        <time>2019-07-29T04:36:22.000Z</time>
      </trkpt>
      <trkpt lat="46.67259" lon="5.55477">
        <ele>262</ele>
        <time>2019-07-29T04:36:32.000Z</time>
      </trkpt>
      <trkpt lat="46.6726" lon="5.55485">
        <ele>256.5</ele>
        <time>2019-07-29T04:36:42.000Z</time>
      </trkpt>
      <trkpt lat="46.67256" lon="5.55493">
        <ele>256.4</ele>
        <time>2019-07-29T04:36:52.000Z</time>
      </trkpt>
      <trkpt lat="46.67253" lon="5.55508">
        <ele>261</ele>
        <time>2019-07-29T04:37:02.000Z</time>
      </trkpt>
      <trkpt lat="46.67256" lon="5.55531">
        <ele>256.2</ele>
        <time>2019-07-29T04:37:12.000Z</time>
      </trkpt>
      <trkpt lat="46.67255" lon="5.55541">
        <ele>260</ele>
        <time>2019-07-29T04:37:32.000Z</time>
      </trkpt>
      <trkpt lat="46.67256" lon="5.55557">
        <ele>256</ele>
        <time>2019-07-29T04:37:42.000Z</time>
      </trkpt>
      <trkpt lat="46.67256" lon="5.5557">
        <ele>259</ele>
        <time>2019-07-29T04:37:52.000Z</time>
      </trkpt>
      <trkpt lat="46.6726" lon="5.55582">
        <ele>256</ele>
        <time>2019-07-29T04:38:02.000Z</time>
      </trkpt>
      <trkpt lat="46.67265" lon="5.55591">
        <ele>256</ele>
        <time>2019-07-29T04:38:12.000Z</time>
      </trkpt>
      <trkpt lat="46.67267" lon="5.55597">
        <ele>260</ele>
        <time>2019-07-29T04:38:32.000Z</time>
      </trkpt>
      <trkpt lat="46.6727" lon="5.5561">
        <ele>256</ele>
        <time>2019-07-29T04:38:42.000Z</time>
      </trkpt>
      <trkpt lat="46.67278" lon="5.55633">
        <ele>262</ele>
        <time>2019-07-29T04:39:02.000Z</time>
      </trkpt>
      <trkpt lat="46.67279" lon="5.55644">
        <ele>256.2</ele>
        <time>2019-07-29T04:39:12.000Z</time>
      </trkpt>
      <trkpt lat="46.67282" lon="5.55655">
        <ele>256.7</ele>
        <time>2019-07-29T04:39:22.000Z</time>
      </trkpt>
      <trkpt lat="46.67287" lon="5.55687">
        <ele>265</ele>
        <time>2019-07-29T04:39:52.000Z</time>
      </trkpt>
      <trkpt lat="46.67287" lon="5.557">
        <ele>257.3</ele>
        <time>2019-07-29T04:40:02.000Z</time>
      </trkpt>
      <trkpt lat="46.67283" lon="5.55757">
        <ele>265</ele>
        <time>2019-07-29T04:34:32.000Z</time>
      </trkpt>
      <trkpt lat="46.67283" lon="5.55773">
        <ele>257.9</ele>
        <time>2019-07-29T04:34:42.000Z</time>
      </trkpt>
      <trkpt lat="46.67281" lon="5.55813">
        <ele>266</ele>
        <time>2019-07-29T04:34:49.000Z</time>
      </trkpt>
      <trkpt lat="46.67281" lon="5.55826">
        <ele>258.1</ele>
        <time>2019-07-29T04:34:59.000Z</time>
      </trkpt>
      <trkpt lat="46.67286" lon="5.55846">
        <ele>265</ele>
        <time>2019-07-29T04:35:29.000Z</time>
      </trkpt>
      <trkpt lat="46.67288" lon="5.55865">
        <ele>259.1</ele>
        <time>2019-07-29T04:35:39.000Z</time>
      </trkpt>
      <trkpt lat="46.67284" lon="5.55876">
        <ele>264</ele>
        <time>2019-07-29T04:35:59.000Z</time>
      </trkpt>
      <trkpt lat="46.67279" lon="5.55883">
        <ele>259.8</ele>
        <time>2019-07-29T04:36:09.000Z</time>
      </trkpt>
      <trkpt lat="46.67275" lon="5.55891">
        <ele>260</ele>
        <time>2019-07-29T04:36:19.000Z</time>
      </trkpt>
      <trkpt lat="46.67263" lon="5.55905">
        <ele>257</ele>
        <time>2019-07-29T04:36:29.000Z</time>
      </trkpt>
      <trkpt lat="46.67253" lon="5.55922">
        <ele>260</ele>
        <time>2019-07-29T04:36:39.000Z</time>
      </trkpt>
      <trkpt lat="46.6725" lon="5.5593">
        <ele>257</ele>
        <time>2019-07-29T04:36:59.000Z</time>
      </trkpt>
      <trkpt lat="46.67248" lon="5.55939">
        <ele>260</ele>
        <time>2019-07-29T04:37:09.000Z</time>
      </trkpt>
      <trkpt lat="46.67246" lon="5.55957">
        <ele>258</ele>
        <time>2019-07-29T04:37:19.000Z</time>
      </trkpt>
      <trkpt lat="46.67242" lon="5.55975">
        <ele>260</ele>
        <time>2019-07-29T04:37:29.000Z</time>
      </trkpt>
      <trkpt lat="46.67242" lon="5.55986">
        <ele>259</ele>
        <time>2019-07-29T04:37:39.000Z</time>
      </trkpt>
      <trkpt lat="46.67243" lon="5.55996">
        <ele>260</ele>
        <time>2019-07-29T04:37:49.000Z</time>
      </trkpt>
      <trkpt lat="46.67241" lon="5.56015">
        <ele>261</ele>
        <time>2019-07-29T04:38:09.000Z</time>
      </trkpt>
      <trkpt lat="46.67237" lon="5.56024">
        <ele>260.4</ele>
        <time>2019-07-29T04:38:19.000Z</time>
      </trkpt>
      <trkpt lat="46.67236" lon="5.56031">
        <ele>260.5</ele>
        <time>2019-07-29T04:38:29.000Z</time>
      </trkpt>
      <trkpt lat="46.6723" lon="5.56045">
        <ele>260</ele>
        <time>2019-07-29T04:38:39.000Z</time>
      </trkpt>
      <trkpt lat="46.67226" lon="5.56058">
        <ele>260.9</ele>
        <time>2019-07-29T04:38:49.000Z</time>
      </trkpt>
      <trkpt lat="46.67223" lon="5.56072">
        <ele>260</ele>
        <time>2019-07-29T04:38:59.000Z</time>
      </trkpt>
      <trkpt lat="46.67216" lon="5.56095">
        <ele>261.2</ele>
        <time>2019-07-29T04:39:09.000Z</time>
      </trkpt>
      <trkpt lat="46.67199" lon="5.56107">
        <ele>265</ele>
        <time>2019-07-29T04:39:39.000Z</time>
      </trkpt>
      <trkpt lat="46.67194" lon="5.56112">
        <ele>262</ele>
        <time>2019-07-29T04:39:49.000Z</time>
      </trkpt>
      <trkpt lat="46.67191" lon="5.56118">
        <ele>262</ele>
        <time>2019-07-29T04:39:59.000Z</time>
      </trkpt>
      <trkpt lat="46.67188" lon="5.56128">
        <ele>264</ele>
        <time>2019-07-29T04:40:09.000Z</time>
      </trkpt>
      <trkpt lat="46.67189" lon="5.56139">
        <ele>261.8</ele>
        <time>2019-07-29T04:40:19.000Z</time>
      </trkpt>
      <trkpt lat="46.67193" lon="5.56157">
        <ele>264</ele>
        <time>2019-07-29T04:40:29.000Z</time>
      </trkpt>
      <trkpt lat="46.67194" lon="5.56168">
        <ele>261</ele>
        <time>2019-07-29T04:40:39.000Z</time>
      </trkpt>
      <trkpt lat="46.67194" lon="5.56179">
        <ele>261.4</ele>
        <time>2019-07-29T04:40:49.000Z</time>
      </trkpt>
      <trkpt lat="46.67193" lon="5.5619">
        <ele>263</ele>
        <time>2019-07-29T04:40:59.000Z</time>
      </trkpt>
      <trkpt lat="46.67187" lon="5.5622">
        <ele>263</ele>
        <time>2019-07-29T04:37:15.000Z</time>
      </trkpt>
      <trkpt lat="46.67185" lon="5.56227">
        <ele>262</ele>
        <time>2019-07-29T04:37:25.000Z</time>
      </trkpt>
      <trkpt lat="46.67179" lon="5.56231">
        <ele>262</ele>
        <time>2019-07-29T04:37:35.000Z</time>
      </trkpt>
      <trkpt lat="46.67171" lon="5.56232">
        <ele>263</ele>
        <time>2019-07-29T04:37:45.000Z</time>
      </trkpt>
      <trkpt lat="46.67164" lon="5.56236">
        <ele>262</ele>
        <time>2019-07-29T04:37:55.000Z</time>
      </trkpt>
      <trkpt lat="46.67153" lon="5.56246">
        <ele>265</ele>
        <time>2019-07-29T04:38:05.000Z</time>
      </trkpt>
      <trkpt lat="46.67145" lon="5.56258">
        <ele>262.6</ele>
        <time>2019-07-29T04:38:15.000Z</time>
      </trkpt>
      <trkpt lat="46.67141" lon="5.56265">
        <ele>262.5</ele>
        <time>2019-07-29T04:38:25.000Z</time>
      </trkpt>
      <trkpt lat="46.67137" lon="5.56279">
        <ele>267</ele>
        <time>2019-07-29T04:38:35.000Z</time>
      </trkpt>
      <trkpt lat="46.67134" lon="5.56295">
        <ele>262.7</ele>
        <time>2019-07-29T04:38:45.000Z</time>
      </trkpt>
      <trkpt lat="46.67134" lon="5.56319">
        <ele>270</ele>
        <time>2019-07-29T04:38:55.000Z</time>
      </trkpt>
      <trkpt lat="46.67132" lon="5.56328">
        <ele>263</ele>
        <time>2019-07-29T04:39:05.000Z</time>
      </trkpt>
      <trkpt lat="46.6713" lon="5.56344">
        <ele>263.1</ele>
        <time>2019-07-29T04:39:15.000Z</time>
      </trkpt>
      <trkpt lat="46.67126" lon="5.56358">
        <ele>273</ele>
        <time>2019-07-29T04:39:25.000Z</time>
      </trkpt>
      <trkpt lat="46.67121" lon="5.5638">
        <ele>263.9</ele>
        <time>2019-07-29T04:39:35.000Z</time>
      </trkpt>
      <trkpt lat="46.6712" lon="5.56388">
        <ele>272</ele>
        <time>2019-07-29T04:39:45.000Z</time>
      </trkpt>
      <trkpt lat="46.6712" lon="5.56395">
        <ele>264</ele>
        <time>2019-07-29T04:39:55.000Z</time>
      </trkpt>
      <trkpt lat="46.67118" lon="5.56403">
        <ele>264</ele>
        <time>2019-07-29T04:40:05.000Z</time>
      </trkpt>
      <trkpt lat="46.67117" lon="5.56411">
        <ele>264</ele>
        <time>2019-07-29T04:40:15.000Z</time>
      </trkpt>
      <trkpt lat="46.67118" lon="5.56419">
        <ele>272</ele>
        <time>2019-07-29T04:40:25.000Z</time>
      </trkpt>
      <trkpt lat="46.67118" lon="5.56431">
        <ele>264</ele>
        <time>2019-07-29T04:40:35.000Z</time>
      </trkpt>
      <trkpt lat="46.67119" lon="5.56438">
        <ele>264</ele>
        <time>2019-07-29T04:40:45.000Z</time>
      </trkpt>
      <trkpt lat="46.67114" lon="5.56465">
        <ele>268</ele>
        <time>2019-07-29T04:39:12.000Z</time>
      </trkpt>
      <trkpt lat="46.67114" lon="5.56479">
        <ele>265</ele>
        <time>2019-07-29T04:39:22.000Z</time>
      </trkpt>
      <trkpt lat="46.67107" lon="5.56519">
        <ele>267</ele>
        <time>2019-07-29T04:39:36.000Z</time>
      </trkpt>
      <trkpt lat="46.67104" lon="5.56526">
        <ele>265</ele>
        <time>2019-07-29T04:39:46.000Z</time>
      </trkpt>
      <trkpt lat="46.67097" lon="5.56539">
        <ele>265.4</ele>
        <time>2019-07-29T04:39:56.000Z</time>
      </trkpt>
      <trkpt lat="46.67092" lon="5.56552">
        <ele>266</ele>
        <time>2019-07-29T04:40:06.000Z</time>
      </trkpt>
      <trkpt lat="46.67088" lon="5.56557">
        <ele>266</ele>
        <time>2019-07-29T04:40:16.000Z</time>
      </trkpt>
      <trkpt lat="46.67082" lon="5.56569">
        <ele>266</ele>
        <time>2019-07-29T04:40:26.000Z</time>
      </trkpt>
      <trkpt lat="46.67074" lon="5.5658">
        <ele>265</ele>
        <time>2019-07-29T04:40:07.000Z</time>
      </trkpt>
      <trkpt lat="46.67062" lon="5.56601">
        <ele>265</ele>
        <time>2019-07-29T04:40:37.000Z</time>
      </trkpt>
      <trkpt lat="46.67055" lon="5.56622">
        <ele>266</ele>
        <time>2019-07-29T04:40:47.000Z</time>
      </trkpt>
      <trkpt lat="46.67048" lon="5.56659">
        <ele>265</ele>
        <time>2019-07-29T04:41:17.000Z</time>
      </trkpt>
      <trkpt lat="46.67025" lon="5.56706">
        <ele>269</ele>
        <time>2019-07-29T04:41:10.000Z</time>
      </trkpt>
      <trkpt lat="46.67021" lon="5.56718">
        <ele>267</ele>
        <time>2019-07-29T04:41:20.000Z</time>
      </trkpt>
      <trkpt lat="46.6702" lon="5.56724">
        <ele>267</ele>
        <time>2019-07-29T04:41:30.000Z</time>
      </trkpt>
      <trkpt lat="46.6702" lon="5.5673">
        <ele>267.1</ele>
        <time>2019-07-29T04:41:40.000Z</time>
      </trkpt>
      <trkpt lat="46.67021" lon="5.56736">
        <ele>272</ele>
        <time>2019-07-29T04:41:50.000Z</time>
      </trkpt>
      <trkpt lat="46.67029" lon="5.56753">
        <ele>267.1</ele>
        <time>2019-07-29T04:42:00.000Z</time>
      </trkpt>
      <trkpt lat="46.67035" lon="5.56762">
        <ele>275</ele>
        <time>2019-07-29T04:42:20.000Z</time>
      </trkpt>
      <trkpt lat="46.67041" lon="5.56773">
        <ele>267.4</ele>
        <time>2019-07-29T04:42:30.000Z</time>
      </trkpt>
      <trkpt lat="46.67041" lon="5.56778">
        <ele>267.5</ele>
        <time>2019-07-29T04:42:40.000Z</time>
      </trkpt>
      <trkpt lat="46.67037" lon="5.56784">
        <ele>277</ele>
        <time>2019-07-29T04:43:00.000Z</time>
      </trkpt>
      <trkpt lat="46.67028" lon="5.56794">
        <ele>267.4</ele>
        <time>2019-07-29T04:43:10.000Z</time>
      </trkpt>
      <trkpt lat="46.67022" lon="5.56799">
        <ele>267.6</ele>
        <time>2019-07-29T04:43:20.000Z</time>
      </trkpt>
      <trkpt lat="46.67009" lon="5.56815">
        <ele>277</ele>
        <time>2019-07-29T04:43:30.000Z</time>
      </trkpt>
      <trkpt lat="46.67006" lon="5.56814">
        <ele>268.7</ele>
        <time>2019-07-29T04:43:40.000Z</time>
      </trkpt>
      <trkpt lat="46.66997" lon="5.56804">
        <ele>269</ele>
        <time>2019-07-29T04:43:50.000Z</time>
      </trkpt>
      <trkpt lat="46.66983" lon="5.56781">
        <ele>277</ele>
        <time>2019-07-29T04:44:10.000Z</time>
      </trkpt>
      <trkpt lat="46.66981" lon="5.56775">
        <ele>268.6</ele>
        <time>2019-07-29T04:44:20.000Z</time>
      </trkpt>
      <trkpt lat="46.66978" lon="5.5677">
        <ele>268.6</ele>
        <time>2019-07-29T04:44:30.000Z</time>
      </trkpt>
      <trkpt lat="46.66972" lon="5.56757">
        <ele>273</ele>
        <time>2019-07-29T04:44:40.000Z</time>
      </trkpt>
      <trkpt lat="46.66964" lon="5.56744">
        <ele>268.3</ele>
        <time>2019-07-29T04:44:50.000Z</time>
      </trkpt>
      <trkpt lat="46.6696" lon="5.5674">
        <ele>268.4</ele>
        <time>2019-07-29T04:45:00.000Z</time>
      </trkpt>
      <trkpt lat="46.66956" lon="5.5674">
        <ele>270</ele>
        <time>2019-07-29T04:45:10.000Z</time>
      </trkpt>
      <trkpt lat="46.66952" lon="5.56743">
        <ele>268.7</ele>
        <time>2019-07-29T04:45:20.000Z</time>
      </trkpt>
      <trkpt lat="46.66949" lon="5.56747">
        <ele>268.8</ele>
        <time>2019-07-29T04:45:30.000Z</time>
      </trkpt>
      <trkpt lat="46.66945" lon="5.56748">
        <ele>269</ele>
        <time>2019-07-29T04:45:40.000Z</time>
      </trkpt>
      <trkpt lat="46.66933" lon="5.56746">
        <ele>270</ele>
        <time>2019-07-29T04:46:00.000Z</time>
      </trkpt>
      <trkpt lat="46.66926" lon="5.56744">
        <ele>270</ele>
        <time>2019-07-29T04:46:10.000Z</time>
      </trkpt>
      <trkpt lat="46.66904" lon="5.56741">
        <ele>269</ele>
        <time>2019-07-29T04:43:26.000Z</time>
      </trkpt>
      <trkpt lat="46.66898" lon="5.56737">
        <ele>271.4</ele>
        <time>2019-07-29T04:43:36.000Z</time>
      </trkpt>
      <trkpt lat="46.66894" lon="5.56733">
        <ele>271.4</ele>
        <time>2019-07-29T04:43:46.000Z</time>
      </trkpt>
      <trkpt lat="46.66886" lon="5.56717">
        <ele>269</ele>
        <time>2019-07-29T04:43:41.000Z</time>
      </trkpt>
      <trkpt lat="46.66883" lon="5.56714">
        <ele>270.9</ele>
        <time>2019-07-29T04:43:51.000Z</time>
      </trkpt>
      <trkpt lat="46.66878" lon="5.56707">
        <ele>270.9</ele>
        <time>2019-07-29T04:44:01.000Z</time>
      </trkpt>
      <trkpt lat="46.66872" lon="5.56702">
        <ele>271.2</ele>
        <time>2019-07-29T04:44:11.000Z</time>
      </trkpt>
      <trkpt lat="46.66847" lon="5.56695">
        <ele>271</ele>
        <time>2019-07-29T04:44:09.000Z</time>
      </trkpt>
      <trkpt lat="46.66842" lon="5.56695">
        <ele>272.7</ele>
        <time>2019-07-29T04:44:19.000Z</time>
      </trkpt>
      <trkpt lat="46.66835" lon="5.56697">
        <ele>272.9</ele>
        <time>2019-07-29T04:44:29.000Z</time>
      </trkpt>
      <trkpt lat="46.6682" lon="5.56716">
        <ele>276</ele>
        <time>2019-07-29T04:44:24.000Z</time>
      </trkpt>
      <trkpt lat="46.66814" lon="5.5672">
        <ele>272.3</ele>
        <time>2019-07-29T04:44:34.000Z</time>
      </trkpt>
      <trkpt lat="46.66788" lon="5.56729">
        <ele>276</ele>
        <time>2019-07-29T04:45:04.000Z</time>
      </trkpt>
      <trkpt lat="46.66777" lon="5.56731">
        <ele>274</ele>
        <time>2019-07-29T04:45:14.000Z</time>
      </trkpt>
      <trkpt lat="46.66772" lon="5.56731">
        <ele>274.1</ele>
        <time>2019-07-29T04:45:24.000Z</time>
      </trkpt>
      <trkpt lat="46.6676" lon="5.56728">
        <ele>277</ele>
        <time>2019-07-29T04:45:34.000Z</time>
      </trkpt>
      <trkpt lat="46.66753" lon="5.56728">
        <ele>274.2</ele>
        <time>2019-07-29T04:45:44.000Z</time>
      </trkpt>
      <trkpt lat="46.66745" lon="5.56721">
        <ele>274.1</ele>
        <time>2019-07-29T04:45:54.000Z</time>
      </trkpt>
      <trkpt lat="46.66741" lon="5.56708">
        <ele>279</ele>
        <time>2019-07-29T04:46:04.000Z</time>
      </trkpt>
      <trkpt lat="46.66735" lon="5.56685">
        <ele>275.1</ele>
        <time>2019-07-29T04:46:14.000Z</time>
      </trkpt>
      <trkpt lat="46.66732" lon="5.56679">
        <ele>282</ele>
        <time>2019-07-29T04:46:24.000Z</time>
      </trkpt>
      <trkpt lat="46.66727" lon="5.56677">
        <ele>275.6</ele>
        <time>2019-07-29T04:46:34.000Z</time>
      </trkpt>
      <trkpt lat="46.66722" lon="5.56678">
        <ele>276.3</ele>
        <time>2019-07-29T04:46:44.000Z</time>
      </trkpt>
      <trkpt lat="46.66717" lon="5.56676">
        <ele>276.8</ele>
        <time>2019-07-29T04:46:54.000Z</time>
      </trkpt>
      <trkpt lat="46.66711" lon="5.56672">
        <ele>282</ele>
        <time>2019-07-29T04:47:04.000Z</time>
      </trkpt>
      <trkpt lat="46.66707" lon="5.56663">
        <ele>277.3</ele>
        <time>2019-07-29T04:47:14.000Z</time>
      </trkpt>
      <trkpt lat="46.66703" lon="5.56644">
        <ele>280</ele>
        <time>2019-07-29T04:47:34.000Z</time>
      </trkpt>
      <trkpt lat="46.66704" lon="5.56626">
        <ele>278</ele>
        <time>2019-07-29T04:47:44.000Z</time>
      </trkpt>
      <trkpt lat="46.66701" lon="5.56617">
        <ele>278</ele>
        <time>2019-07-29T04:47:54.000Z</time>
      </trkpt>
      <trkpt lat="46.66696" lon="5.56611">
        <ele>277.9</ele>
        <time>2019-07-29T04:48:04.000Z</time>
      </trkpt>
      <trkpt lat="46.6669" lon="5.56605">
        <ele>278.2</ele>
        <time>2019-07-29T04:48:14.000Z</time>
      </trkpt>
      <trkpt lat="46.66683" lon="5.56602">
        <ele>278</ele>
        <time>2019-07-29T04:48:24.000Z</time>
      </trkpt>
      <trkpt lat="46.66666" lon="5.56601">
        <ele>279.9</ele>
        <time>2019-07-29T04:48:34.000Z</time>
      </trkpt>
      <trkpt lat="46.66658" lon="5.56598">
        <ele>273</ele>
        <time>2019-07-29T04:48:44.000Z</time>
      </trkpt>
      <trkpt lat="46.66648" lon="5.56598">
        <ele>280.3</ele>
        <time>2019-07-29T04:48:54.000Z</time>
      </trkpt>
      <trkpt lat="46.66634" lon="5.56594">
        <ele>273</ele>
        <time>2019-07-29T04:49:04.000Z</time>
      </trkpt>
      <trkpt lat="46.66625" lon="5.56583">
        <ele>281</ele>
        <time>2019-07-29T04:49:14.000Z</time>
      </trkpt>
      <trkpt lat="46.66621" lon="5.56579">
        <ele>281.5</ele>
        <time>2019-07-29T04:49:24.000Z</time>
      </trkpt>
      <trkpt lat="46.66616" lon="5.56576">
        <ele>274</ele>
        <time>2019-07-29T04:49:34.000Z</time>
      </trkpt>
      <trkpt lat="46.66603" lon="5.5657">
        <ele>283.1</ele>
        <time>2019-07-29T04:49:44.000Z</time>
      </trkpt>
      <trkpt lat="46.66598" lon="5.56567">
        <ele>279</ele>
        <time>2019-07-29T04:47:36.000Z</time>
      </trkpt>
      <trkpt lat="46.66594" lon="5.56563">
        <ele>283.8</ele>
        <time>2019-07-29T04:47:46.000Z</time>
      </trkpt>
      <trkpt lat="46.6659" lon="5.56553">
        <ele>284.2</ele>
        <time>2019-07-29T04:47:56.000Z</time>
      </trkpt>
      <trkpt lat="46.66588" lon="5.56542">
        <ele>281</ele>
        <time>2019-07-29T04:48:06.000Z</time>
      </trkpt>
      <trkpt lat="46.66586" lon="5.56535">
        <ele>284</ele>
        <time>2019-07-29T04:48:16.000Z</time>
      </trkpt>
      <trkpt lat="46.66583" lon="5.56533">
        <ele>284.2</ele>
        <time>2019-07-29T04:48:26.000Z</time>
      </trkpt>
      <trkpt lat="46.66574" lon="5.56536">
        <ele>285.3</ele>
        <time>2019-07-29T04:48:36.000Z</time>
      </trkpt>
      <trkpt lat="46.66569" lon="5.5654">
        <ele>285</ele>
        <time>2019-07-29T04:49:06.000Z</time>
      </trkpt>
      <trkpt lat="46.66557" lon="5.56552">
        <ele>286.2</ele>
        <time>2019-07-29T04:49:16.000Z</time>
      </trkpt>
      <trkpt lat="46.66542" lon="5.56577">
        <ele>290</ele>
        <time>2019-07-29T04:48:22.000Z</time>
      </trkpt>
      <trkpt lat="46.66537" lon="5.56589">
        <ele>287.9</ele>
        <time>2019-07-29T04:48:32.000Z</time>
      </trkpt>
      <trkpt lat="46.66533" lon="5.56601">
        <ele>290</ele>
        <time>2019-07-29T04:48:42.000Z</time>
      </trkpt>
      <trkpt lat="46.66529" lon="5.56618">
        <ele>288.2</ele>
        <time>2019-07-29T04:48:52.000Z</time>
      </trkpt>
      <trkpt lat="46.66525" lon="5.56651">
        <ele>290</ele>
        <time>2019-07-29T04:49:02.000Z</time>
      </trkpt>
      <trkpt lat="46.66523" lon="5.56661">
        <ele>290.2</ele>
        <time>2019-07-29T04:49:12.000Z</time>
      </trkpt>
      <trkpt lat="46.66514" lon="5.56692">
        <ele>291</ele>
        <time>2019-07-29T04:49:22.000Z</time>
      </trkpt>
      <trkpt lat="46.66497" lon="5.56734">
        <ele>292</ele>
        <time>2019-07-29T04:49:40.000Z</time>
      </trkpt>
      <trkpt lat="46.6649" lon="5.56769">
        <ele>294</ele>
        <time>2019-07-29T04:49:56.000Z</time>
      </trkpt>
      <trkpt lat="46.66487" lon="5.56785">
        <ele>295.2</ele>
        <time>2019-07-29T04:50:06.000Z</time>
      </trkpt>
      <trkpt lat="46.66481" lon="5.56826">
        <ele>299</ele>
        <time>2019-07-29T04:50:23.000Z</time>
      </trkpt>
      <trkpt lat="46.66479" lon="5.5685">
        <ele>297.8</ele>
        <time>2019-07-29T04:50:33.000Z</time>
      </trkpt>
      <trkpt lat="46.66478" lon="5.56891">
        <ele>300</ele>
        <time>2019-07-29T04:50:53.000Z</time>
      </trkpt>
      <trkpt lat="46.66473" lon="5.56899">
        <ele>300.4</ele>
        <time>2019-07-29T04:51:03.000Z</time>
      </trkpt>
      <trkpt lat="46.66467" lon="5.56903">
        <ele>301</ele>
        <time>2019-07-29T04:51:13.000Z</time>
      </trkpt>
      <trkpt lat="46.6646" lon="5.56906">
        <ele>302</ele>
        <time>2019-07-29T04:51:23.000Z</time>
      </trkpt>
      <trkpt lat="46.66442" lon="5.56909">
        <ele>301.5</ele>
        <time>2019-07-29T04:51:33.000Z</time>
      </trkpt>
      <trkpt lat="46.66427" lon="5.56908">
        <ele>305</ele>
        <time>2019-07-29T04:51:43.000Z</time>
      </trkpt>
      <trkpt lat="46.66417" lon="5.56902">
        <ele>301.9</ele>
        <time>2019-07-29T04:51:53.000Z</time>
      </trkpt>
      <trkpt lat="46.66403" lon="5.56889">
        <ele>305</ele>
        <time>2019-07-29T04:52:13.000Z</time>
      </trkpt>
      <trkpt lat="46.66387" lon="5.56862">
        <ele>306</ele>
        <time>2019-07-29T04:52:07.000Z</time>
      </trkpt>
      <trkpt lat="46.66375" lon="5.56848">
        <ele>307.6</ele>
        <time>2019-07-29T04:52:17.000Z</time>
      </trkpt>
      <trkpt lat="46.66367" lon="5.56847">
        <ele>311</ele>
        <time>2019-07-29T04:52:27.000Z</time>
      </trkpt>
      <trkpt lat="46.66357" lon="5.56851">
        <ele>311.6</ele>
        <time>2019-07-29T04:52:37.000Z</time>
      </trkpt>
      <trkpt lat="46.66346" lon="5.56852">
        <ele>315</ele>
        <time>2019-07-29T04:52:47.000Z</time>
      </trkpt>
      <trkpt lat="46.66336" lon="5.56849">
        <ele>314.7</ele>
        <time>2019-07-29T04:52:57.000Z</time>
      </trkpt>
      <trkpt lat="46.66317" lon="5.56846">
        <ele>317</ele>
        <time>2019-07-29T04:53:07.000Z</time>
      </trkpt>
      <trkpt lat="46.663" lon="5.56837">
        <ele>319.3</ele>
        <time>2019-07-29T04:53:17.000Z</time>
      </trkpt>
      <trkpt lat="46.66294" lon="5.56831">
        <ele>322</ele>
        <time>2019-07-29T04:53:37.000Z</time>
      </trkpt>
      <trkpt lat="46.66286" lon="5.56826">
        <ele>321.3</ele>
        <time>2019-07-29T04:53:47.000Z</time>
      </trkpt>
      <trkpt lat="46.66278" lon="5.56822">
        <ele>322.6</ele>
        <time>2019-07-29T04:53:57.000Z</time>
      </trkpt>
      <trkpt lat="46.66263" lon="5.56816">
        <ele>335</ele>
        <time>2019-07-29T04:53:58.000Z</time>
      </trkpt>
      <trkpt lat="46.66253" lon="5.5681">
        <ele>327.7</ele>
        <time>2019-07-29T04:54:08.000Z</time>
      </trkpt>
      <trkpt lat="46.66245" lon="5.56804">
        <ele>335</ele>
        <time>2019-07-29T04:54:18.000Z</time>
      </trkpt>
      <trkpt lat="46.66236" lon="5.56795">
        <ele>331.1</ele>
        <time>2019-07-29T04:54:28.000Z</time>
      </trkpt>
      <trkpt lat="46.66229" lon="5.56785">
        <ele>339</ele>
        <time>2019-07-29T04:54:38.000Z</time>
      </trkpt>
      <trkpt lat="46.66225" lon="5.56771">
        <ele>333.3</ele>
        <time>2019-07-29T04:54:48.000Z</time>
      </trkpt>
      <trkpt lat="46.66223" lon="5.56756">
        <ele>343</ele>
        <time>2019-07-29T04:54:50.000Z</time>
      </trkpt>
      <trkpt lat="46.6622" lon="5.56741">
        <ele>334.5</ele>
        <time>2019-07-29T04:55:00.000Z</time>
      </trkpt>
      <trkpt lat="46.66219" lon="5.56727">
        <ele>346</ele>
        <time>2019-07-29T04:55:10.000Z</time>
      </trkpt>
      <trkpt lat="46.66224" lon="5.56714">
        <ele>335.1</ele>
        <time>2019-07-29T04:55:20.000Z</time>
      </trkpt>
      <trkpt lat="46.66224" lon="5.56687">
        <ele>347</ele>
        <time>2019-07-29T04:55:40.000Z</time>
      </trkpt>
      <trkpt lat="46.66215" lon="5.5666">
        <ele>350</ele>
        <time>2019-07-29T04:55:55.000Z</time>
      </trkpt>
      <trkpt lat="46.66207" lon="5.56652">
        <ele>348.8</ele>
        <time>2019-07-29T04:56:05.000Z</time>
      </trkpt>
      <trkpt lat="46.66197" lon="5.56649">
        <ele>355</ele>
        <time>2019-07-29T04:56:15.000Z</time>
      </trkpt>
      <trkpt lat="46.66186" lon="5.5665">
        <ele>353.5</ele>
        <time>2019-07-29T04:56:25.000Z</time>
      </trkpt>
      <trkpt lat="46.66175" lon="5.56648">
        <ele>363</ele>
        <time>2019-07-29T04:56:35.000Z</time>
      </trkpt>
      <trkpt lat="46.66155" lon="5.56647">
        <ele>370</ele>
        <time>2019-07-29T04:57:12.000Z</time>
      </trkpt>
      <trkpt lat="46.66145" lon="5.56644">
        <ele>362.6</ele>
        <time>2019-07-29T04:57:22.000Z</time>
      </trkpt>
      <trkpt lat="46.66125" lon="5.56637">
        <ele>382</ele>
        <time>2019-07-29T04:57:47.000Z</time>
      </trkpt>
      <trkpt lat="46.66116" lon="5.56629">
        <ele>371.4</ele>
        <time>2019-07-29T04:57:57.000Z</time>
      </trkpt>
      <trkpt lat="46.6611" lon="5.56616">
        <ele>382</ele>
        <time>2019-07-29T04:58:07.000Z</time>
      </trkpt>
      <trkpt lat="46.66108" lon="5.56602">
        <ele>375.6</ele>
        <time>2019-07-29T04:58:17.000Z</time>
      </trkpt>
      <trkpt lat="46.66109" lon="5.56574">
        <ele>382</ele>
        <time>2019-07-29T04:58:27.000Z</time>
      </trkpt>
      <trkpt lat="46.66111" lon="5.5656">
        <ele>377.7</ele>
        <time>2019-07-29T04:58:37.000Z</time>
      </trkpt>
      <trkpt lat="46.66115" lon="5.56547">
        <ele>383</ele>
        <time>2019-07-29T04:58:47.000Z</time>
      </trkpt>
      <trkpt lat="46.66117" lon="5.56534">
        <ele>377.9</ele>
        <time>2019-07-29T04:58:57.000Z</time>
      </trkpt>
      <trkpt lat="46.6611" lon="5.56526">
        <ele>380.7</ele>
        <time>2019-07-29T04:59:07.000Z</time>
      </trkpt>
      <trkpt lat="46.66103" lon="5.56525">
        <ele>383</ele>
        <time>2019-07-29T04:59:17.000Z</time>
      </trkpt>
      <trkpt lat="46.66097" lon="5.56528">
        <ele>385.1</ele>
        <time>2019-07-29T04:59:27.000Z</time>
      </trkpt>
      <trkpt lat="46.66086" lon="5.56538">
        <ele>394</ele>
        <time>2019-07-29T04:59:34.000Z</time>
      </trkpt>
      <trkpt lat="46.66081" lon="5.56544">
        <ele>389.2</ele>
        <time>2019-07-29T04:59:44.000Z</time>
      </trkpt>
      <trkpt lat="46.66073" lon="5.56557">
        <ele>390.6</ele>
        <time>2019-07-29T04:59:54.000Z</time>
      </trkpt>
      <trkpt lat="46.66062" lon="5.56583">
        <ele>394</ele>
        <time>2019-07-29T05:00:06.000Z</time>
      </trkpt>
      <trkpt lat="46.66059" lon="5.56596">
        <ele>391</ele>
        <time>2019-07-29T05:00:16.000Z</time>
      </trkpt>
      <trkpt lat="46.66054" lon="5.56608">
        <ele>394</ele>
        <time>2019-07-29T05:00:26.000Z</time>
      </trkpt>
      <trkpt lat="46.66048" lon="5.56636">
        <ele>401</ele>
        <time>2019-07-29T05:00:37.000Z</time>
      </trkpt>
      <trkpt lat="46.6604" lon="5.56647">
        <ele>391.9</ele>
        <time>2019-07-29T05:00:47.000Z</time>
      </trkpt>
      <trkpt lat="46.66036" lon="5.5666">
        <ele>401</ele>
        <time>2019-07-29T05:00:57.000Z</time>
      </trkpt>
      <trkpt lat="46.66029" lon="5.56671">
        <ele>394.2</ele>
        <time>2019-07-29T05:01:07.000Z</time>
      </trkpt>
      <trkpt lat="46.66025" lon="5.56685">
        <ele>405</ele>
        <time>2019-07-29T05:01:17.000Z</time>
      </trkpt>
      <trkpt lat="46.66023" lon="5.56699">
        <ele>394.9</ele>
        <time>2019-07-29T05:01:27.000Z</time>
      </trkpt>
      <trkpt lat="46.66018" lon="5.56713">
        <ele>410</ele>
        <time>2019-07-29T05:01:29.000Z</time>
      </trkpt>
      <trkpt lat="46.66016" lon="5.56726">
        <ele>401.6</ele>
        <time>2019-07-29T05:01:39.000Z</time>
      </trkpt>
      <trkpt lat="46.66006" lon="5.56751">
        <ele>410</ele>
        <time>2019-07-29T05:01:52.000Z</time>
      </trkpt>
      <trkpt lat="46.65999" lon="5.56774">
        <ele>409.6</ele>
        <time>2019-07-29T05:02:02.000Z</time>
      </trkpt>
      <trkpt lat="46.65993" lon="5.56785">
        <ele>410</ele>
        <time>2019-07-29T05:02:12.000Z</time>
      </trkpt>
      <trkpt lat="46.65985" lon="5.56792">
        <ele>412.6</ele>
        <time>2019-07-29T05:02:22.000Z</time>
      </trkpt>
      <trkpt lat="46.65978" lon="5.56797">
        <ele>414.9</ele>
        <time>2019-07-29T05:02:32.000Z</time>
      </trkpt>
      <trkpt lat="46.65978" lon="5.5681">
        <ele>410</ele>
        <time>2019-07-29T05:02:33.000Z</time>
      </trkpt>
      <trkpt lat="46.65985" lon="5.56831">
        <ele>413.6</ele>
        <time>2019-07-29T05:02:43.000Z</time>
      </trkpt>
      <trkpt lat="46.65997" lon="5.56849">
        <ele>410</ele>
        <time>2019-07-29T05:02:57.000Z</time>
      </trkpt>
      <trkpt lat="46.66001" lon="5.56862">
        <ele>415.9</ele>
        <time>2019-07-29T05:03:07.000Z</time>
      </trkpt>
      <trkpt lat="46.65998" lon="5.56885">
        <ele>412</ele>
        <time>2019-07-29T05:03:27.000Z</time>
      </trkpt>
      <trkpt lat="46.65999" lon="5.569">
        <ele>420.5</ele>
        <time>2019-07-29T05:03:37.000Z</time>
      </trkpt>
      <trkpt lat="46.65997" lon="5.56913">
        <ele>414</ele>
        <time>2019-07-29T05:03:47.000Z</time>
      </trkpt>
      <trkpt lat="46.65978" lon="5.56919">
        <ele>417</ele>
        <time>2019-07-29T05:03:48.000Z</time>
      </trkpt>
      <trkpt lat="46.65973" lon="5.56926">
        <ele>421.6</ele>
        <time>2019-07-29T05:03:58.000Z</time>
      </trkpt>
      <trkpt lat="46.65966" lon="5.56931">
        <ele>421.8</ele>
        <time>2019-07-29T05:04:08.000Z</time>
      </trkpt>
      <trkpt lat="46.6596" lon="5.56928">
        <ele>423</ele>
        <time>2019-07-29T05:04:18.000Z</time>
      </trkpt>
      <trkpt lat="46.65936" lon="5.56893">
        <ele>426</ele>
        <time>2019-07-29T05:04:24.000Z</time>
      </trkpt>
      <trkpt lat="46.65929" lon="5.56888">
        <ele>423.5</ele>
        <time>2019-07-29T05:04:34.000Z</time>
      </trkpt>
      <trkpt lat="46.65923" lon="5.56887">
        <ele>423.8</ele>
        <time>2019-07-29T05:04:44.000Z</time>
      </trkpt>
      <trkpt lat="46.65918" lon="5.56889">
        <ele>426</ele>
        <time>2019-07-29T05:04:54.000Z</time>
      </trkpt>
      <trkpt lat="46.65904" lon="5.56902">
        <ele>424.5</ele>
        <time>2019-07-29T05:05:04.000Z</time>
      </trkpt>
      <trkpt lat="46.65908" lon="5.56911">
        <ele>427</ele>
        <time>2019-07-29T05:05:24.000Z</time>
      </trkpt>
      <trkpt lat="46.65923" lon="5.56937">
        <ele>428</ele>
        <time>2019-07-29T05:05:11.000Z</time>
      </trkpt>
      <trkpt lat="46.65932" lon="5.56957">
        <ele>423.9</ele>
        <time>2019-07-29T05:05:21.000Z</time>
      </trkpt>
      <trkpt lat="46.65934" lon="5.56966">
        <ele>428</ele>
        <time>2019-07-29T05:05:41.000Z</time>
      </trkpt>
      <trkpt lat="46.65931" lon="5.56994">
        <ele>429</ele>
        <time>2019-07-29T05:05:51.000Z</time>
      </trkpt>
      <trkpt lat="46.65931" lon="5.5701">
        <ele>424.4</ele>
        <time>2019-07-29T05:06:01.000Z</time>
      </trkpt>
      <trkpt lat="46.65922" lon="5.57016">
        <ele>429</ele>
        <time>2019-07-29T05:06:11.000Z</time>
      </trkpt>
      <trkpt lat="46.65916" lon="5.57014">
        <ele>425.5</ele>
        <time>2019-07-29T05:06:21.000Z</time>
      </trkpt>
      <trkpt lat="46.6591" lon="5.57006">
        <ele>426</ele>
        <time>2019-07-29T05:06:31.000Z</time>
      </trkpt>
      <trkpt lat="46.65904" lon="5.57">
        <ele>430</ele>
        <time>2019-07-29T05:06:41.000Z</time>
      </trkpt>
      <trkpt lat="46.65897" lon="5.57005">
        <ele>426.5</ele>
        <time>2019-07-29T05:06:51.000Z</time>
      </trkpt>
      <trkpt lat="46.65892" lon="5.57016">
        <ele>426.3</ele>
        <time>2019-07-29T05:07:01.000Z</time>
      </trkpt>
      <trkpt lat="46.65891" lon="5.5703">
        <ele>429</ele>
        <time>2019-07-29T05:07:11.000Z</time>
      </trkpt>
      <trkpt lat="46.65884" lon="5.57051">
        <ele>423.8</ele>
        <time>2019-07-29T05:07:21.000Z</time>
      </trkpt>
      <trkpt lat="46.6588" lon="5.57058">
        <ele>428</ele>
        <time>2019-07-29T05:07:31.000Z</time>
      </trkpt>
      <trkpt lat="46.65874" lon="5.57061">
        <ele>423.1</ele>
        <time>2019-07-29T05:07:41.000Z</time>
      </trkpt>
      <trkpt lat="46.65867" lon="5.57064">
        <ele>423.1</ele>
        <time>2019-07-29T05:07:51.000Z</time>
      </trkpt>
      <trkpt lat="46.65859" lon="5.57063">
        <ele>428</ele>
        <time>2019-07-29T05:08:01.000Z</time>
      </trkpt>
      <trkpt lat="46.65842" lon="5.57066">
        <ele>424.3</ele>
        <time>2019-07-29T05:08:11.000Z</time>
      </trkpt>
      <trkpt lat="46.65773" lon="5.57102">
        <ele>421</ele>
        <time>2019-07-29T05:08:07.000Z</time>
      </trkpt>
      <trkpt lat="46.6576" lon="5.57112">
        <ele>427.6</ele>
        <time>2019-07-29T05:08:17.000Z</time>
      </trkpt>
      <trkpt lat="46.6574" lon="5.57122">
        <ele>415</ele>
        <time>2019-07-29T05:08:27.000Z</time>
      </trkpt>
      <trkpt lat="46.65731" lon="5.57129">
        <ele>428.7</ele>
        <time>2019-07-29T05:08:37.000Z</time>
      </trkpt>
      <trkpt lat="46.65722" lon="5.57129">
        <ele>415</ele>
        <time>2019-07-29T05:08:47.000Z</time>
      </trkpt>
      <trkpt lat="46.65698" lon="5.57126">
        <ele>416</ele>
        <time>2019-07-29T05:09:10.000Z</time>
      </trkpt>
      <trkpt lat="46.65694" lon="5.57126">
        <ele>427</ele>
        <time>2019-07-29T05:09:20.000Z</time>
      </trkpt>
      <trkpt lat="46.65688" lon="5.57128">
        <ele>426.8</ele>
        <time>2019-07-29T05:09:30.000Z</time>
      </trkpt>
      <trkpt lat="46.65686" lon="5.57135">
        <ele>426.9</ele>
        <time>2019-07-29T05:09:40.000Z</time>
      </trkpt>
      <trkpt lat="46.65685" lon="5.57151">
        <ele>417</ele>
        <time>2019-07-29T05:09:50.000Z</time>
      </trkpt>
      <trkpt lat="46.65686" lon="5.57167">
        <ele>424.9</ele>
        <time>2019-07-29T05:10:00.000Z</time>
      </trkpt>
      <trkpt lat="46.65686" lon="5.5719">
        <ele>416</ele>
        <time>2019-07-29T05:10:16.000Z</time>
      </trkpt>
      <trkpt lat="46.65685" lon="5.57201">
        <ele>422.6</ele>
        <time>2019-07-29T05:10:26.000Z</time>
      </trkpt>
      <trkpt lat="46.65683" lon="5.57246">
        <ele>416</ele>
        <time>2019-07-29T05:10:41.000Z</time>
      </trkpt>
      <trkpt lat="46.6568" lon="5.57266">
        <ele>422.7</ele>
        <time>2019-07-29T05:10:51.000Z</time>
      </trkpt>
      <trkpt lat="46.65678" lon="5.57274">
        <ele>416</ele>
        <time>2019-07-29T05:11:01.000Z</time>
      </trkpt>
      <trkpt lat="46.65674" lon="5.57282">
        <ele>424.6</ele>
        <time>2019-07-29T05:11:11.000Z</time>
      </trkpt>
      <trkpt lat="46.65668" lon="5.57292">
        <ele>425.6</ele>
        <time>2019-07-29T05:11:21.000Z</time>
      </trkpt>
      <trkpt lat="46.6566" lon="5.573">
        <ele>416</ele>
        <time>2019-07-29T05:11:41.000Z</time>
      </trkpt>
      <trkpt lat="46.65644" lon="5.57307">
        <ele>428.4</ele>
        <time>2019-07-29T05:11:51.000Z</time>
      </trkpt>
      <trkpt lat="46.65623" lon="5.57306">
        <ele>419</ele>
        <time>2019-07-29T05:12:01.000Z</time>
      </trkpt>
      <trkpt lat="46.65601" lon="5.57311">
        <ele>419</ele>
        <time>2019-07-29T05:12:11.000Z</time>
      </trkpt>
      <trkpt lat="46.6559" lon="5.57322">
        <ele>433.4</ele>
        <time>2019-07-29T05:12:21.000Z</time>
      </trkpt>
      <trkpt lat="46.65578" lon="5.57343">
        <ele>421</ele>
        <time>2019-07-29T05:12:31.000Z</time>
      </trkpt>
      <trkpt lat="46.65572" lon="5.57355">
        <ele>437.5</ele>
        <time>2019-07-29T05:12:41.000Z</time>
      </trkpt>
      <trkpt lat="46.65601" lon="5.5736">
        <ele>429</ele>
        <time>2019-07-29T05:12:51.000Z</time>
      </trkpt>
      <trkpt lat="46.65609" lon="5.57363">
        <ele>441.2</ele>
        <time>2019-07-29T05:13:01.000Z</time>
      </trkpt>
      <trkpt lat="46.65617" lon="5.57377">
        <ele>429</ele>
        <time>2019-07-29T05:13:11.000Z</time>
      </trkpt>
      <trkpt lat="46.65617" lon="5.57392">
        <ele>446.3</ele>
        <time>2019-07-29T05:13:21.000Z</time>
      </trkpt>
      <trkpt lat="46.65612" lon="5.57455">
        <ele>457</ele>
        <time>2019-07-29T05:13:51.000Z</time>
      </trkpt>
      <trkpt lat="46.65609" lon="5.57469">
        <ele>455.8</ele>
        <time>2019-07-29T05:14:01.000Z</time>
      </trkpt>
      <trkpt lat="46.65608" lon="5.57486">
        <ele>456</ele>
        <time>2019-07-29T05:14:11.000Z</time>
      </trkpt>
      <trkpt lat="46.65606" lon="5.57498">
        <ele>459.4</ele>
        <time>2019-07-29T05:14:21.000Z</time>
      </trkpt>
      <trkpt lat="46.65596" lon="5.57522">
        <ele>455</ele>
        <time>2019-07-29T05:14:41.000Z</time>
      </trkpt>
      <trkpt lat="46.65591" lon="5.57532">
        <ele>462.2</ele>
        <time>2019-07-29T05:14:51.000Z</time>
      </trkpt>
      <trkpt lat="46.6559" lon="5.5755">
        <ele>455</ele>
        <time>2019-07-29T05:15:01.000Z</time>
      </trkpt>
      <trkpt lat="46.65592" lon="5.57564">
        <ele>462.6</ele>
        <time>2019-07-29T05:15:11.000Z</time>
      </trkpt>
      <trkpt lat="46.65591" lon="5.57579">
        <ele>457</ele>
        <time>2019-07-29T05:15:21.000Z</time>
      </trkpt>
      <trkpt lat="46.65587" lon="5.57594">
        <ele>463.7</ele>
        <time>2019-07-29T05:15:31.000Z</time>
      </trkpt>
      <trkpt lat="46.65573" lon="5.5763">
        <ele>459</ele>
        <time>2019-07-29T05:20:24.000Z</time>
      </trkpt>
      <trkpt lat="46.65563" lon="5.57635">
        <ele>463.5</ele>
        <time>2019-07-29T05:20:34.000Z</time>
      </trkpt>
      <trkpt lat="46.65553" lon="5.57638">
        <ele>460</ele>
        <time>2019-07-29T05:20:44.000Z</time>
      </trkpt>
      <trkpt lat="46.65538" lon="5.57655">
        <ele>462</ele>
        <time>2019-07-29T05:21:04.000Z</time>
      </trkpt>
      <trkpt lat="46.65533" lon="5.57668">
        <ele>467.9</ele>
        <time>2019-07-29T05:21:14.000Z</time>
      </trkpt>
      <trkpt lat="46.6553" lon="5.5768">
        <ele>464</ele>
        <time>2019-07-29T05:22:39.000Z</time>
      </trkpt>
      <trkpt lat="46.65536" lon="5.57692">
        <ele>461.2</ele>
        <time>2019-07-29T05:22:49.000Z</time>
      </trkpt>
      <trkpt lat="46.65519" lon="5.5771">
        <ele>471</ele>
        <time>2019-07-29T05:23:09.000Z</time>
      </trkpt>
      <trkpt lat="46.6551" lon="5.57706">
        <ele>475.3</ele>
        <time>2019-07-29T05:23:19.000Z</time>
      </trkpt>
      <trkpt lat="46.65506" lon="5.57719">
        <ele>471</ele>
        <time>2019-07-29T05:23:29.000Z</time>
      </trkpt>
      <trkpt lat="46.65498" lon="5.57728">
        <ele>481.8</ele>
        <time>2019-07-29T05:23:39.000Z</time>
      </trkpt>
      <trkpt lat="46.65492" lon="5.57739">
        <ele>471</ele>
        <time>2019-07-29T05:25:34.000Z</time>
      </trkpt>
      <trkpt lat="46.65488" lon="5.57753">
        <ele>480</ele>
        <time>2019-07-29T05:25:44.000Z</time>
      </trkpt>
      <trkpt lat="46.6548" lon="5.5776">
        <ele>469</ele>
        <time>2019-07-29T05:25:54.000Z</time>
      </trkpt>
      <trkpt lat="46.65466" lon="5.57782">
        <ele>472</ele>
        <time>2019-07-29T05:26:04.000Z</time>
      </trkpt>
      <trkpt lat="46.65457" lon="5.5779">
        <ele>486.9</ele>
        <time>2019-07-29T05:26:14.000Z</time>
      </trkpt>
      <trkpt lat="46.65449" lon="5.57819">
        <ele>476</ele>
        <time>2019-07-29T05:26:24.000Z</time>
      </trkpt>
      <trkpt lat="46.65435" lon="5.57837">
        <ele>489</ele>
        <time>2019-07-29T05:26:34.000Z</time>
      </trkpt>
      <trkpt lat="46.65431" lon="5.57848">
        <ele>488</ele>
        <time>2019-07-29T05:26:44.000Z</time>
      </trkpt>
      <trkpt lat="46.65425" lon="5.57859">
        <ele>488.9</ele>
        <time>2019-07-29T05:26:54.000Z</time>
      </trkpt>
      <trkpt lat="46.65423" lon="5.57871">
        <ele>490</ele>
        <time>2019-07-29T05:27:04.000Z</time>
      </trkpt>
      <trkpt lat="46.6541" lon="5.57887">
        <ele>492</ele>
        <time>2019-07-29T05:27:14.000Z</time>
      </trkpt>
      <trkpt lat="46.65409" lon="5.57902">
        <ele>490</ele>
        <time>2019-07-29T05:27:24.000Z</time>
      </trkpt>
      <trkpt lat="46.65409" lon="5.57914">
        <ele>490.9</ele>
        <time>2019-07-29T05:27:34.000Z</time>
      </trkpt>
      <trkpt lat="46.65408" lon="5.57925">
        <ele>488.9</ele>
        <time>2019-07-29T05:27:44.000Z</time>
      </trkpt>
      <trkpt lat="46.65403" lon="5.57936">
        <ele>492</ele>
        <time>2019-07-29T05:27:54.000Z</time>
      </trkpt>
      <trkpt lat="46.65395" lon="5.57946">
        <ele>488.3</ele>
        <time>2019-07-29T05:28:04.000Z</time>
      </trkpt>
      <trkpt lat="46.65378" lon="5.57962">
        <ele>495</ele>
        <time>2019-07-29T05:28:14.000Z</time>
      </trkpt>
      <trkpt lat="46.65361" lon="5.57976">
        <ele>495</ele>
        <time>2019-07-29T05:28:34.000Z</time>
      </trkpt>
      <trkpt lat="46.65355" lon="5.5797">
        <ele>493.9</ele>
        <time>2019-07-29T05:28:44.000Z</time>
      </trkpt>
      <trkpt lat="46.65352" lon="5.57981">
        <ele>492.4</ele>
        <time>2019-07-29T05:28:54.000Z</time>
      </trkpt>
      <trkpt lat="46.65342" lon="5.5798">
        <ele>494</ele>
        <time>2019-07-29T05:29:04.000Z</time>
      </trkpt>
      <trkpt lat="46.65337" lon="5.57992">
        <ele>495.1</ele>
        <time>2019-07-29T05:29:14.000Z</time>
      </trkpt>
      <trkpt lat="46.65328" lon="5.58003">
        <ele>494</ele>
        <time>2019-07-29T05:29:24.000Z</time>
      </trkpt>
      <trkpt lat="46.65319" lon="5.5801">
        <ele>496.4</ele>
        <time>2019-07-29T05:29:34.000Z</time>
      </trkpt>
      <trkpt lat="46.65312" lon="5.5802">
        <ele>495</ele>
        <time>2019-07-29T05:29:44.000Z</time>
      </trkpt>
      <trkpt lat="46.65312" lon="5.58035">
        <ele>493.4</ele>
        <time>2019-07-29T05:29:54.000Z</time>
      </trkpt>
      <trkpt lat="46.65305" lon="5.58057">
        <ele>495</ele>
        <time>2019-07-29T05:30:04.000Z</time>
      </trkpt>
      <trkpt lat="46.65301" lon="5.58066">
        <ele>493.7</ele>
        <time>2019-07-29T05:30:14.000Z</time>
      </trkpt>
      <trkpt lat="46.65288" lon="5.58102">
        <ele>495</ele>
        <time>2019-07-29T05:33:28.000Z</time>
      </trkpt>
      <trkpt lat="46.65285" lon="5.58116">
        <ele>494.3</ele>
        <time>2019-07-29T05:33:38.000Z</time>
      </trkpt>
      <trkpt lat="46.65277" lon="5.58144">
        <ele>494</ele>
        <time>2019-07-29T05:33:51.000Z</time>
      </trkpt>
      <trkpt lat="46.65268" lon="5.58172">
        <ele>492</ele>
        <time>2019-07-29T05:34:01.000Z</time>
      </trkpt>
      <trkpt lat="46.65254" lon="5.58209">
        <ele>492</ele>
        <time>2019-07-29T05:34:26.000Z</time>
      </trkpt>
      <trkpt lat="46.65246" lon="5.58233">
        <ele>500.4</ele>
        <time>2019-07-29T05:34:36.000Z</time>
      </trkpt>
      <trkpt lat="46.65238" lon="5.58242">
        <ele>495</ele>
        <time>2019-07-29T05:34:46.000Z</time>
      </trkpt>
      <trkpt lat="46.65229" lon="5.58249">
        <ele>504.1</ele>
        <time>2019-07-29T05:34:56.000Z</time>
      </trkpt>
      <trkpt lat="46.65215" lon="5.58271">
        <ele>496</ele>
        <time>2019-07-29T05:35:08.000Z</time>
      </trkpt>
      <trkpt lat="46.65207" lon="5.58289">
        <ele>502.3</ele>
        <time>2019-07-29T05:35:18.000Z</time>
      </trkpt>
      <trkpt lat="46.65191" lon="5.58313">
        <ele>498</ele>
        <time>2019-07-29T05:35:39.000Z</time>
      </trkpt>
      <trkpt lat="46.65186" lon="5.58326">
        <ele>504.3</ele>
        <time>2019-07-29T05:35:49.000Z</time>
      </trkpt>
      <trkpt lat="46.6518" lon="5.58356">
        <ele>498</ele>
        <time>2019-07-29T05:36:13.000Z</time>
      </trkpt>
      <trkpt lat="46.65176" lon="5.5837">
        <ele>503.9</ele>
        <time>2019-07-29T05:36:23.000Z</time>
      </trkpt>
      <trkpt lat="46.6517" lon="5.58385">
        <ele>498</ele>
        <time>2019-07-29T05:36:33.000Z</time>
      </trkpt>
      <trkpt lat="46.65162" lon="5.58399">
        <ele>505.8</ele>
        <time>2019-07-29T05:36:43.000Z</time>
      </trkpt>
      <trkpt lat="46.65156" lon="5.58414">
        <ele>499</ele>
        <time>2019-07-29T05:36:53.000Z</time>
      </trkpt>
      <trkpt lat="46.65149" lon="5.58428">
        <ele>503.8</ele>
        <time>2019-07-29T05:37:03.000Z</time>
      </trkpt>
      <trkpt lat="46.65123" lon="5.58476">
        <ele>500</ele>
        <time>2019-07-29T05:37:17.000Z</time>
      </trkpt>
      <trkpt lat="46.65115" lon="5.58487">
        <ele>506.3</ele>
        <time>2019-07-29T05:37:27.000Z</time>
      </trkpt>
      <trkpt lat="46.65101" lon="5.58513">
        <ele>501</ele>
        <time>2019-07-29T05:37:35.000Z</time>
      </trkpt>
      <trkpt lat="46.65096" lon="5.58526">
        <ele>504.5</ele>
        <time>2019-07-29T05:37:45.000Z</time>
      </trkpt>
      <trkpt lat="46.65094" lon="5.58542">
        <ele>501</ele>
        <time>2019-07-29T05:37:55.000Z</time>
      </trkpt>
      <trkpt lat="46.65086" lon="5.5857">
        <ele>501</ele>
        <time>2019-07-29T05:38:05.000Z</time>
      </trkpt>
      <trkpt lat="46.65083" lon="5.58585">
        <ele>502.7</ele>
        <time>2019-07-29T05:38:15.000Z</time>
      </trkpt>
      <trkpt lat="46.65081" lon="5.586">
        <ele>498</ele>
        <time>2019-07-29T05:38:25.000Z</time>
      </trkpt>
      <trkpt lat="46.65083" lon="5.58616">
        <ele>496.5</ele>
        <time>2019-07-29T05:38:35.000Z</time>
      </trkpt>
      <trkpt lat="46.65087" lon="5.58631">
        <ele>497</ele>
        <time>2019-07-29T05:38:45.000Z</time>
      </trkpt>
      <trkpt lat="46.65091" lon="5.58643">
        <ele>487.4</ele>
        <time>2019-07-29T05:38:55.000Z</time>
      </trkpt>
      <trkpt lat="46.65091" lon="5.58659">
        <ele>497</ele>
        <time>2019-07-29T05:38:36.000Z</time>
      </trkpt>
      <trkpt lat="46.65087" lon="5.58674">
        <ele>488.2</ele>
        <time>2019-07-29T05:38:46.000Z</time>
      </trkpt>
      <trkpt lat="46.65089" lon="5.58708">
        <ele>497</ele>
        <time>2019-07-29T05:38:55.000Z</time>
      </trkpt>
      <trkpt lat="46.65089" lon="5.58721">
        <ele>487.3</ele>
        <time>2019-07-29T05:39:05.000Z</time>
      </trkpt>
      <trkpt lat="46.65094" lon="5.58735">
        <ele>497</ele>
        <time>2019-07-29T05:39:15.000Z</time>
      </trkpt>
      <trkpt lat="46.65102" lon="5.58749">
        <ele>488.1</ele>
        <time>2019-07-29T05:39:25.000Z</time>
      </trkpt>
      <trkpt lat="46.65112" lon="5.58776">
        <ele>503</ele>
        <time>2019-07-29T05:39:35.000Z</time>
      </trkpt>
      <trkpt lat="46.65118" lon="5.58789">
        <ele>489.9</ele>
        <time>2019-07-29T05:39:45.000Z</time>
      </trkpt>
      <trkpt lat="46.65127" lon="5.58797">
        <ele>503</ele>
        <time>2019-07-29T05:39:55.000Z</time>
      </trkpt>
      <trkpt lat="46.65135" lon="5.58808">
        <ele>490.9</ele>
        <time>2019-07-29T05:40:05.000Z</time>
      </trkpt>
      <trkpt lat="46.65138" lon="5.58821">
        <ele>502</ele>
        <time>2019-07-29T05:40:15.000Z</time>
      </trkpt>
      <trkpt lat="46.65139" lon="5.58837">
        <ele>493.8</ele>
        <time>2019-07-29T05:40:25.000Z</time>
      </trkpt>
      <trkpt lat="46.65137" lon="5.58853">
        <ele>501</ele>
        <time>2019-07-29T05:40:35.000Z</time>
      </trkpt>
      <trkpt lat="46.6513" lon="5.58867">
        <ele>492.1</ele>
        <time>2019-07-29T05:40:45.000Z</time>
      </trkpt>
      <trkpt lat="46.65116" lon="5.58889">
        <ele>501</ele>
        <time>2019-07-29T05:41:15.000Z</time>
      </trkpt>
      <trkpt lat="46.65103" lon="5.58918">
        <ele>503</ele>
        <time>2019-07-29T05:41:25.000Z</time>
      </trkpt>
      <trkpt lat="46.65096" lon="5.58929">
        <ele>491.2</ele>
        <time>2019-07-29T05:41:35.000Z</time>
      </trkpt>
      <trkpt lat="46.65084" lon="5.58955">
        <ele>503</ele>
        <time>2019-07-29T05:41:55.000Z</time>
      </trkpt>
      <trkpt lat="46.6508" lon="5.58985">
        <ele>503</ele>
        <time>2019-07-29T05:40:54.000Z</time>
      </trkpt>
      <trkpt lat="46.65079" lon="5.58999">
        <ele>496.5</ele>
        <time>2019-07-29T05:41:04.000Z</time>
      </trkpt>
      <trkpt lat="46.65082" lon="5.59014">
        <ele>379</ele>
        <time>2019-07-29T05:41:14.000Z</time>
      </trkpt>
      <trkpt lat="46.65086" lon="5.59027">
        <ele>496.8</ele>
        <time>2019-07-29T05:41:24.000Z</time>
      </trkpt>
      <trkpt lat="46.65121" lon="5.59064">
        <ele>440</ele>
        <time>2019-07-29T05:41:51.000Z</time>
      </trkpt>
      <trkpt lat="46.65133" lon="5.59089">
        <ele>502</ele>
        <time>2019-07-29T05:42:11.000Z</time>
      </trkpt>
      <trkpt lat="46.65149" lon="5.59117">
        <ele>507</ele>
        <time>2019-07-29T05:42:22.000Z</time>
      </trkpt>
      <trkpt lat="46.65157" lon="5.59134">
        <ele>495.5</ele>
        <time>2019-07-29T05:42:32.000Z</time>
      </trkpt>
      <trkpt lat="46.6516" lon="5.59142">
        <ele>510</ele>
        <time>2019-07-29T05:42:42.000Z</time>
      </trkpt>
      <trkpt lat="46.65157" lon="5.59162">
        <ele>494.2</ele>
        <time>2019-07-29T05:42:52.000Z</time>
      </trkpt>
      <trkpt lat="46.65154" lon="5.59172">
        <ele>507</ele>
        <time>2019-07-29T05:43:12.000Z</time>
      </trkpt>
      <trkpt lat="46.65147" lon="5.59185">
        <ele>496.7</ele>
        <time>2019-07-29T05:43:22.000Z</time>
      </trkpt>
      <trkpt lat="46.65139" lon="5.59213">
        <ele>515</ele>
        <time>2019-07-29T05:43:32.000Z</time>
      </trkpt>
      <trkpt lat="46.65126" lon="5.59238">
        <ele>518</ele>
        <time>2019-07-29T05:43:42.000Z</time>
      </trkpt>
      <trkpt lat="46.6512" lon="5.59251">
        <ele>502.3</ele>
        <time>2019-07-29T05:43:52.000Z</time>
      </trkpt>
      <trkpt lat="46.65112" lon="5.59261">
        <ele>519</ele>
        <time>2019-07-29T05:44:02.000Z</time>
      </trkpt>
      <trkpt lat="46.65104" lon="5.59273">
        <ele>504.9</ele>
        <time>2019-07-29T05:44:12.000Z</time>
      </trkpt>
      <trkpt lat="46.65089" lon="5.59292">
        <ele>515</ele>
        <time>2019-07-29T05:44:22.000Z</time>
      </trkpt>
      <trkpt lat="46.65073" lon="5.59315">
        <ele>520</ele>
        <time>2019-07-29T05:44:32.000Z</time>
      </trkpt>
      <trkpt lat="46.65064" lon="5.59324">
        <ele>499.5</ele>
        <time>2019-07-29T05:44:42.000Z</time>
      </trkpt>
      <trkpt lat="46.65044" lon="5.59342">
        <ele>519</ele>
        <time>2019-07-29T05:44:52.000Z</time>
      </trkpt>
      <trkpt lat="46.65035" lon="5.59353">
        <ele>501.9</ele>
        <time>2019-07-29T05:45:02.000Z</time>
      </trkpt>
      <trkpt lat="46.65024" lon="5.59361">
        <ele>525</ele>
        <time>2019-07-29T05:45:12.000Z</time>
      </trkpt>
      <trkpt lat="46.65003" lon="5.59373">
        <ele>528</ele>
        <time>2019-07-29T05:44:48.000Z</time>
      </trkpt>
      <trkpt lat="46.64985" lon="5.59388">
        <ele>531</ele>
        <time>2019-07-29T05:45:08.000Z</time>
      </trkpt>
      <trkpt lat="46.64976" lon="5.59397">
        <ele>504.3</ele>
        <time>2019-07-29T05:45:18.000Z</time>
      </trkpt>
      <trkpt lat="46.64964" lon="5.59404">
        <ele>531</ele>
        <time>2019-07-29T05:45:28.000Z</time>
      </trkpt>
      <trkpt lat="46.64944" lon="5.59411">
        <ele>525</ele>
        <time>2019-07-29T05:45:14.000Z</time>
      </trkpt>
      <trkpt lat="46.64934" lon="5.59416">
        <ele>504.3</ele>
        <time>2019-07-29T05:45:24.000Z</time>
      </trkpt>
      <trkpt lat="46.64925" lon="5.59418">
        <ele>523</ele>
        <time>2019-07-29T05:45:34.000Z</time>
      </trkpt>
      <trkpt lat="46.64913" lon="5.59417">
        <ele>505.9</ele>
        <time>2019-07-29T05:45:44.000Z</time>
      </trkpt>
      <trkpt lat="46.64904" lon="5.59412">
        <ele>521</ele>
        <time>2019-07-29T05:45:54.000Z</time>
      </trkpt>
      <trkpt lat="46.64892" lon="5.59411">
        <ele>508.7</ele>
        <time>2019-07-29T05:46:04.000Z</time>
      </trkpt>
      <trkpt lat="46.64882" lon="5.59411">
        <ele>521</ele>
        <time>2019-07-29T05:46:14.000Z</time>
      </trkpt>
      <trkpt lat="46.64872" lon="5.59416">
        <ele>512.6</ele>
        <time>2019-07-29T05:46:24.000Z</time>
      </trkpt>
      <trkpt lat="46.64863" lon="5.59423">
        <ele>524</ele>
        <time>2019-07-29T05:46:34.000Z</time>
      </trkpt>
      <trkpt lat="46.64855" lon="5.59436">
        <ele>509.8</ele>
        <time>2019-07-29T05:46:44.000Z</time>
      </trkpt>
      <trkpt lat="46.64845" lon="5.59446">
        <ele>527</ele>
        <time>2019-07-29T05:47:04.000Z</time>
      </trkpt>
      <trkpt lat="46.64824" lon="5.59459">
        <ele>527</ele>
        <time>2019-07-29T05:47:24.000Z</time>
      </trkpt>
      <trkpt lat="46.64793" lon="5.59468">
        <ele>528</ele>
        <time>2019-07-29T05:46:47.000Z</time>
      </trkpt>
      <trkpt lat="46.6477" lon="5.59479">
        <ele>529</ele>
        <time>2019-07-29T05:46:59.000Z</time>
      </trkpt>
      <trkpt lat="46.64762" lon="5.59481">
        <ele>513.3</ele>
        <time>2019-07-29T05:47:09.000Z</time>
      </trkpt>
      <trkpt lat="46.64751" lon="5.5948">
        <ele>529</ele>
        <time>2019-07-29T05:47:19.000Z</time>
      </trkpt>
      <trkpt lat="46.64741" lon="5.59483">
        <ele>515.7</ele>
        <time>2019-07-29T05:47:29.000Z</time>
      </trkpt>
      <trkpt lat="46.6473" lon="5.59492">
        <ele>530</ele>
        <time>2019-07-29T05:47:39.000Z</time>
      </trkpt>
      <trkpt lat="46.6472" lon="5.59499">
        <ele>512.6</ele>
        <time>2019-07-29T05:47:49.000Z</time>
      </trkpt>
      <trkpt lat="46.64708" lon="5.59499">
        <ele>530</ele>
        <time>2019-07-29T05:47:59.000Z</time>
      </trkpt>
      <trkpt lat="46.64675" lon="5.59492">
        <ele>532</ele>
        <time>2019-07-29T05:48:19.000Z</time>
      </trkpt>
      <trkpt lat="46.64655" lon="5.59483">
        <ele>537</ele>
        <time>2019-07-29T05:48:29.000Z</time>
      </trkpt>
      <trkpt lat="46.64645" lon="5.5948">
        <ele>521.7</ele>
        <time>2019-07-29T05:48:39.000Z</time>
      </trkpt>
      <trkpt lat="46.64634" lon="5.59481">
        <ele>537</ele>
        <time>2019-07-29T05:48:49.000Z</time>
      </trkpt>
      <trkpt lat="46.64624" lon="5.59489">
        <ele>521.4</ele>
        <time>2019-07-29T05:48:59.000Z</time>
      </trkpt>
      <trkpt lat="46.64615" lon="5.59492">
        <ele>537</ele>
        <time>2019-07-29T05:49:09.000Z</time>
      </trkpt>
      <trkpt lat="46.6458" lon="5.59509">
        <ele>537</ele>
        <time>2019-07-29T05:48:48.000Z</time>
      </trkpt>
      <trkpt lat="46.64563" lon="5.59515">
        <ele>523.9</ele>
        <time>2019-07-29T05:48:58.000Z</time>
      </trkpt>
      <trkpt lat="46.64545" lon="5.59531">
        <ele>537</ele>
        <time>2019-07-29T05:49:04.000Z</time>
      </trkpt>
      <trkpt lat="46.64534" lon="5.59535">
        <ele>524</ele>
        <time>2019-07-29T05:49:14.000Z</time>
      </trkpt>
      <trkpt lat="46.64513" lon="5.59532">
        <ele>539</ele>
        <time>2019-07-29T05:49:34.000Z</time>
      </trkpt>
      <trkpt lat="46.64482" lon="5.59523">
        <ele>541</ele>
        <time>2019-07-29T05:49:41.000Z</time>
      </trkpt>
      <trkpt lat="46.6447" lon="5.59518">
        <ele>532.1</ele>
        <time>2019-07-29T05:49:51.000Z</time>
      </trkpt>
      <trkpt lat="46.6446" lon="5.59516">
        <ele>543</ele>
        <time>2019-07-29T05:50:01.000Z</time>
      </trkpt>
      <trkpt lat="46.6442" lon="5.59494">
        <ele>543</ele>
        <time>2019-07-29T05:50:31.000Z</time>
      </trkpt>
      <trkpt lat="46.6441" lon="5.59491">
        <ele>536.5</ele>
        <time>2019-07-29T05:50:41.000Z</time>
      </trkpt>
      <trkpt lat="46.64399" lon="5.59494">
        <ele>544</ele>
        <time>2019-07-29T05:50:51.000Z</time>
      </trkpt>
      <trkpt lat="46.64389" lon="5.59495">
        <ele>535.1</ele>
        <time>2019-07-29T05:51:01.000Z</time>
      </trkpt>
      <trkpt lat="46.64379" lon="5.59492">
        <ele>546</ele>
        <time>2019-07-29T05:50:45.000Z</time>
      </trkpt>
      <trkpt lat="46.64369" lon="5.59501">
        <ele>536.2</ele>
        <time>2019-07-29T05:50:55.000Z</time>
      </trkpt>
      <trkpt lat="46.64359" lon="5.59507">
        <ele>546</ele>
        <time>2019-07-29T05:51:05.000Z</time>
      </trkpt>
      <trkpt lat="46.64348" lon="5.5951">
        <ele>530</ele>
        <time>2019-07-29T05:51:15.000Z</time>
      </trkpt>
      <trkpt lat="46.64326" lon="5.59506">
        <ele>547</ele>
        <time>2019-07-29T05:51:25.000Z</time>
      </trkpt>
      <trkpt lat="46.64316" lon="5.59506">
        <ele>530.8</ele>
        <time>2019-07-29T05:51:35.000Z</time>
      </trkpt>
      <trkpt lat="46.64306" lon="5.595">
        <ele>549</ele>
        <time>2019-07-29T05:51:45.000Z</time>
      </trkpt>
      <trkpt lat="46.64285" lon="5.59494">
        <ele>551</ele>
        <time>2019-07-29T05:51:34.000Z</time>
      </trkpt>
      <trkpt lat="46.64263" lon="5.5949">
        <ele>556</ele>
        <time>2019-07-29T05:51:54.000Z</time>
      </trkpt>
      <trkpt lat="46.64251" lon="5.5949">
        <ele>531.8</ele>
        <time>2019-07-29T05:52:04.000Z</time>
      </trkpt>
      <trkpt lat="46.64241" lon="5.59486">
        <ele>556</ele>
        <time>2019-07-29T05:52:14.000Z</time>
      </trkpt>
      <trkpt lat="46.64231" lon="5.5948">
        <ele>534.8</ele>
        <time>2019-07-29T05:52:24.000Z</time>
      </trkpt>
      <trkpt lat="46.6422" lon="5.59479">
        <ele>554</ele>
        <time>2019-07-29T05:52:08.000Z</time>
      </trkpt>
      <trkpt lat="46.6421" lon="5.59475">
        <ele>535.2</ele>
        <time>2019-07-29T05:52:18.000Z</time>
      </trkpt>
      <trkpt lat="46.64189" lon="5.59472">
        <ele>541</ele>
        <time>2019-07-29T05:52:38.000Z</time>
      </trkpt>
      <trkpt lat="46.64179" lon="5.59469">
        <ele>534.2</ele>
        <time>2019-07-29T05:52:48.000Z</time>
      </trkpt>
      <trkpt lat="46.64167" lon="5.59468">
        <ele>541</ele>
        <time>2019-07-29T05:52:58.000Z</time>
      </trkpt>
      <trkpt lat="46.64135" lon="5.59463">
        <ele>540</ele>
        <time>2019-07-29T05:52:56.000Z</time>
      </trkpt>
      <trkpt lat="46.64113" lon="5.59462">
        <ele>541</ele>
        <time>2019-07-29T05:53:06.000Z</time>
      </trkpt>
      <trkpt lat="46.64102" lon="5.59463">
        <ele>529.6</ele>
        <time>2019-07-29T05:53:16.000Z</time>
      </trkpt>
      <trkpt lat="46.6408" lon="5.59462">
        <ele>543</ele>
        <time>2019-07-29T05:53:26.000Z</time>
      </trkpt>
      <trkpt lat="46.64066" lon="5.59463">
        <ele>528.2</ele>
        <time>2019-07-29T05:53:36.000Z</time>
      </trkpt>
      <trkpt lat="46.64057" lon="5.59462">
        <ele>544</ele>
        <time>2019-07-29T05:53:46.000Z</time>
      </trkpt>
      <trkpt lat="46.64049" lon="5.59455">
        <ele>528.9</ele>
        <time>2019-07-29T05:53:56.000Z</time>
      </trkpt>
      <trkpt lat="46.64041" lon="5.59444">
        <ele>544</ele>
        <time>2019-07-29T05:54:06.000Z</time>
      </trkpt>
      <trkpt lat="46.64034" lon="5.59433">
        <ele>530</ele>
        <time>2019-07-29T05:54:16.000Z</time>
      </trkpt>
      <trkpt lat="46.64018" lon="5.59412">
        <ele>544</ele>
        <time>2019-07-29T05:54:36.000Z</time>
      </trkpt>
      <trkpt lat="46.64005" lon="5.59389">
        <ele>543</ele>
        <time>2019-07-29T05:54:56.000Z</time>
      </trkpt>
      <trkpt lat="46.64001" lon="5.59374">
        <ele>528.3</ele>
        <time>2019-07-29T05:55:06.000Z</time>
      </trkpt>
      <trkpt lat="46.63999" lon="5.59359">
        <ele>542</ele>
        <time>2019-07-29T05:54:19.000Z</time>
      </trkpt>
      <trkpt lat="46.63995" lon="5.59345">
        <ele>529.7</ele>
        <time>2019-07-29T05:54:29.000Z</time>
      </trkpt>
      <trkpt lat="46.63987" lon="5.59335">
        <ele>536</ele>
        <time>2019-07-29T05:54:39.000Z</time>
      </trkpt>
      <trkpt lat="46.63978" lon="5.59327">
        <ele>528.8</ele>
        <time>2019-07-29T05:54:49.000Z</time>
      </trkpt>
      <trkpt lat="46.63968" lon="5.59323">
        <ele>536</ele>
        <time>2019-07-29T05:54:59.000Z</time>
      </trkpt>
      <trkpt lat="46.6396" lon="5.59314">
        <ele>523.5</ele>
        <time>2019-07-29T05:55:09.000Z</time>
      </trkpt>
      <trkpt lat="46.63954" lon="5.59298">
        <ele>526</ele>
        <time>2019-07-29T05:54:55.000Z</time>
      </trkpt>
      <trkpt lat="46.63943" lon="5.59263">
        <ele>526</ele>
        <time>2019-07-29T05:55:05.000Z</time>
      </trkpt>
      <trkpt lat="46.6394" lon="5.59255">
        <ele>517.4</ele>
        <time>2019-07-29T05:55:15.000Z</time>
      </trkpt>
      <trkpt lat="46.63932" lon="5.59244">
        <ele>511.4</ele>
        <time>2019-07-29T05:55:25.000Z</time>
      </trkpt>
      <trkpt lat="46.63922" lon="5.59234">
        <ele>522</ele>
        <time>2019-07-29T05:55:45.000Z</time>
      </trkpt>
      <trkpt lat="46.63912" lon="5.59227">
        <ele>507.9</ele>
        <time>2019-07-29T05:55:55.000Z</time>
      </trkpt>
      <trkpt lat="46.63907" lon="5.59217">
        <ele>523</ele>
        <time>2019-07-29T05:56:05.000Z</time>
      </trkpt>
      <trkpt lat="46.63904" lon="5.59201">
        <ele>511.4</ele>
        <time>2019-07-29T05:56:15.000Z</time>
      </trkpt>
      <trkpt lat="46.63902" lon="5.59186">
        <ele>524</ele>
        <time>2019-07-29T05:56:25.000Z</time>
      </trkpt>
      <trkpt lat="46.63899" lon="5.59171">
        <ele>511.1</ele>
        <time>2019-07-29T05:56:35.000Z</time>
      </trkpt>
      <trkpt lat="46.63889" lon="5.59167">
        <ele>524</ele>
        <time>2019-07-29T05:56:45.000Z</time>
      </trkpt>
      <trkpt lat="46.63877" lon="5.59166">
        <ele>511.4</ele>
        <time>2019-07-29T05:56:55.000Z</time>
      </trkpt>
      <trkpt lat="46.63866" lon="5.59164">
        <ele>524</ele>
        <time>2019-07-29T05:57:05.000Z</time>
      </trkpt>
      <trkpt lat="46.63845" lon="5.59166">
        <ele>526</ele>
        <time>2019-07-29T05:56:32.000Z</time>
      </trkpt>
      <trkpt lat="46.63822" lon="5.59165">
        <ele>526</ele>
        <time>2019-07-29T05:56:42.000Z</time>
      </trkpt>
      <trkpt lat="46.63812" lon="5.59162">
        <ele>513.9</ele>
        <time>2019-07-29T05:56:52.000Z</time>
      </trkpt>
      <trkpt lat="46.63801" lon="5.59157">
        <ele>523</ele>
        <time>2019-07-29T05:57:02.000Z</time>
      </trkpt>
      <trkpt lat="46.63792" lon="5.59151">
        <ele>513.4</ele>
        <time>2019-07-29T05:57:12.000Z</time>
      </trkpt>
      <trkpt lat="46.63773" lon="5.59134">
        <ele>525</ele>
        <time>2019-07-29T05:57:32.000Z</time>
      </trkpt>
      <trkpt lat="46.63766" lon="5.59121">
        <ele>519.2</ele>
        <time>2019-07-29T05:57:42.000Z</time>
      </trkpt>
      <trkpt lat="46.63751" lon="5.59105">
        <ele>527</ele>
        <time>2019-07-29T05:58:02.000Z</time>
      </trkpt>
      <trkpt lat="46.63742" lon="5.59099">
        <ele>521.9</ele>
        <time>2019-07-29T05:58:12.000Z</time>
      </trkpt>
      <trkpt lat="46.63731" lon="5.59097">
        <ele>528</ele>
        <time>2019-07-29T05:58:22.000Z</time>
      </trkpt>
      <trkpt lat="46.63702" lon="5.59084">
        <ele>531</ele>
        <time>2019-07-29T05:58:42.000Z</time>
      </trkpt>
      <trkpt lat="46.63683" lon="5.59077">
        <ele>530</ele>
        <time>2019-07-29T05:58:52.000Z</time>
      </trkpt>
      <trkpt lat="46.63674" lon="5.5907">
        <ele>520.2</ele>
        <time>2019-07-29T05:59:02.000Z</time>
      </trkpt>
      <trkpt lat="46.63663" lon="5.59065">
        <ele>530</ele>
        <time>2019-07-29T05:59:12.000Z</time>
      </trkpt>
      <trkpt lat="46.63629" lon="5.59052">
        <ele>530</ele>
        <time>2019-07-29T05:58:52.000Z</time>
      </trkpt>
      <trkpt lat="46.63594" lon="5.59045">
        <ele>523</ele>
        <time>2019-07-29T05:59:07.000Z</time>
      </trkpt>
      <trkpt lat="46.63556" lon="5.59034">
        <ele>523</ele>
        <time>2019-07-29T05:59:23.000Z</time>
      </trkpt>
      <trkpt lat="46.63549" lon="5.59033">
        <ele>522.3</ele>
        <time>2019-07-29T05:59:33.000Z</time>
      </trkpt>
      <trkpt lat="46.63538" lon="5.59033">
        <ele>521.7</ele>
        <time>2019-07-29T05:59:43.000Z</time>
      </trkpt>
      <trkpt lat="46.63533" lon="5.59032">
        <ele>523</ele>
        <time>2019-07-29T05:59:53.000Z</time>
      </trkpt>
      <trkpt lat="46.63527" lon="5.59029">
        <ele>521.8</ele>
        <time>2019-07-29T06:00:03.000Z</time>
      </trkpt>
      <trkpt lat="46.63518" lon="5.59022">
        <ele>523.2</ele>
        <time>2019-07-29T06:00:13.000Z</time>
      </trkpt>
      <trkpt lat="46.63512" lon="5.59012">
        <ele>525</ele>
        <time>2019-07-29T06:00:23.000Z</time>
      </trkpt>
      <trkpt lat="46.63505" lon="5.59004">
        <ele>526.2</ele>
        <time>2019-07-29T06:00:33.000Z</time>
      </trkpt>
      <trkpt lat="46.63497" lon="5.59003">
        <ele>526.5</ele>
        <time>2019-07-29T06:00:43.000Z</time>
      </trkpt>
      <trkpt lat="46.63491" lon="5.59">
        <ele>525</ele>
        <time>2019-07-29T06:00:53.000Z</time>
      </trkpt>
      <trkpt lat="46.63485" lon="5.59001">
        <ele>526.4</ele>
        <time>2019-07-29T06:01:03.000Z</time>
      </trkpt>
      <trkpt lat="46.63477" lon="5.59009">
        <ele>525.4</ele>
        <time>2019-07-29T06:01:13.000Z</time>
      </trkpt>
      <trkpt lat="46.63472" lon="5.59016">
        <ele>525</ele>
        <time>2019-07-29T06:01:23.000Z</time>
      </trkpt>
      <trkpt lat="46.63465" lon="5.59031">
        <ele>523.5</ele>
        <time>2019-07-29T06:01:33.000Z</time>
      </trkpt>
      <trkpt lat="46.63461" lon="5.59041">
        <ele>524</ele>
        <time>2019-07-29T06:01:43.000Z</time>
      </trkpt>
      <trkpt lat="46.63452" lon="5.59052">
        <ele>521.5</ele>
        <time>2019-07-29T06:01:53.000Z</time>
      </trkpt>
      <trkpt lat="46.6344" lon="5.59064">
        <ele>524</ele>
        <time>2019-07-29T06:02:03.000Z</time>
      </trkpt>
      <trkpt lat="46.63425" lon="5.59082">
        <ele>524</ele>
        <time>2019-07-29T06:02:13.000Z</time>
      </trkpt>
      <trkpt lat="46.63417" lon="5.5909">
        <ele>520</ele>
        <time>2019-07-29T06:02:23.000Z</time>
      </trkpt>
      <trkpt lat="46.63407" lon="5.59098">
        <ele>523</ele>
        <time>2019-07-29T06:02:33.000Z</time>
      </trkpt>
      <trkpt lat="46.63364" lon="5.5912">
        <ele>523</ele>
        <time>2019-07-29T06:01:36.000Z</time>
      </trkpt>
      <trkpt lat="46.63347" lon="5.59133">
        <ele>524</ele>
        <time>2019-07-29T06:01:46.000Z</time>
      </trkpt>
      <trkpt lat="46.6334" lon="5.59143">
        <ele>522.5</ele>
        <time>2019-07-29T06:01:56.000Z</time>
      </trkpt>
      <trkpt lat="46.63333" lon="5.59156">
        <ele>524</ele>
        <time>2019-07-29T06:02:06.000Z</time>
      </trkpt>
      <trkpt lat="46.63317" lon="5.59175">
        <ele>532</ele>
        <time>2019-07-29T06:02:09.000Z</time>
      </trkpt>
      <trkpt lat="46.63282" lon="5.59195">
        <ele>532</ele>
        <time>2019-07-29T06:02:25.000Z</time>
      </trkpt>
      <trkpt lat="46.63265" lon="5.59207">
        <ele>531</ele>
        <time>2019-07-29T06:02:45.000Z</time>
      </trkpt>
      <trkpt lat="46.63256" lon="5.59216">
        <ele>524.2</ele>
        <time>2019-07-29T06:02:55.000Z</time>
      </trkpt>
      <trkpt lat="46.63238" lon="5.59231">
        <ele>531</ele>
        <time>2019-07-29T06:03:05.000Z</time>
      </trkpt>
      <trkpt lat="46.63223" lon="5.59249">
        <ele>536</ele>
        <time>2019-07-29T06:03:25.000Z</time>
      </trkpt>
      <trkpt lat="46.63215" lon="5.5926">
        <ele>531.1</ele>
        <time>2019-07-29T06:03:35.000Z</time>
      </trkpt>
      <trkpt lat="46.6321" lon="5.59274">
        <ele>537</ele>
        <time>2019-07-29T06:03:33.000Z</time>
      </trkpt>
      <trkpt lat="46.63206" lon="5.59288">
        <ele>530.4</ele>
        <time>2019-07-29T06:03:43.000Z</time>
      </trkpt>
      <trkpt lat="46.632" lon="5.59301">
        <ele>535</ele>
        <time>2019-07-29T06:03:53.000Z</time>
      </trkpt>
      <trkpt lat="46.63197" lon="5.59319">
        <ele>529.7</ele>
        <time>2019-07-29T06:04:03.000Z</time>
      </trkpt>
      <trkpt lat="46.6319" lon="5.59346">
        <ele>533</ele>
        <time>2019-07-29T06:04:23.000Z</time>
      </trkpt>
      <trkpt lat="46.63183" lon="5.59357">
        <ele>527.7</ele>
        <time>2019-07-29T06:04:33.000Z</time>
      </trkpt>
      <trkpt lat="46.63179" lon="5.59373">
        <ele>531</ele>
        <time>2019-07-29T06:04:43.000Z</time>
      </trkpt>
      <trkpt lat="46.63172" lon="5.59387">
        <ele>524.8</ele>
        <time>2019-07-29T06:04:53.000Z</time>
      </trkpt>
      <trkpt lat="46.63169" lon="5.59401">
        <ele>530</ele>
        <time>2019-07-29T06:05:03.000Z</time>
      </trkpt>
      <trkpt lat="46.63162" lon="5.59417">
        <ele>522.5</ele>
        <time>2019-07-29T06:05:13.000Z</time>
      </trkpt>
      <trkpt lat="46.63157" lon="5.59428">
        <ele>530</ele>
        <time>2019-07-29T06:05:23.000Z</time>
      </trkpt>
      <trkpt lat="46.63143" lon="5.5945">
        <ele>530</ele>
        <time>2019-07-29T06:04:55.000Z</time>
      </trkpt>
      <trkpt lat="46.63141" lon="5.59465">
        <ele>514.3</ele>
        <time>2019-07-29T06:05:05.000Z</time>
      </trkpt>
      <trkpt lat="46.63148" lon="5.59476">
        <ele>528</ele>
        <time>2019-07-29T06:05:15.000Z</time>
      </trkpt>
      <trkpt lat="46.63157" lon="5.59484">
        <ele>510.4</ele>
        <time>2019-07-29T06:05:25.000Z</time>
      </trkpt>
      <trkpt lat="46.63167" lon="5.59487">
        <ele>527</ele>
        <time>2019-07-29T06:05:35.000Z</time>
      </trkpt>
      <trkpt lat="46.63177" lon="5.59489">
        <ele>502.7</ele>
        <time>2019-07-29T06:05:45.000Z</time>
      </trkpt>
      <trkpt lat="46.63188" lon="5.59489">
        <ele>527</ele>
        <time>2019-07-29T06:05:44.000Z</time>
      </trkpt>
      <trkpt lat="46.63196" lon="5.59497">
        <ele>492.1</ele>
        <time>2019-07-29T06:05:54.000Z</time>
      </trkpt>
      <trkpt lat="46.63199" lon="5.59516">
        <ele>519</ele>
        <time>2019-07-29T06:06:04.000Z</time>
      </trkpt>
      <trkpt lat="46.63202" lon="5.59531">
        <ele>485.8</ele>
        <time>2019-07-29T06:06:14.000Z</time>
      </trkpt>
      <trkpt lat="46.63204" lon="5.59546">
        <ele>511</ele>
        <time>2019-07-29T06:06:24.000Z</time>
      </trkpt>
      <trkpt lat="46.63198" lon="5.5959">
        <ele>500</ele>
        <time>2019-07-29T06:06:40.000Z</time>
      </trkpt>
      <trkpt lat="46.632" lon="5.59595">
        <ele>478.8</ele>
        <time>2019-07-29T06:06:50.000Z</time>
      </trkpt>
      <trkpt lat="46.63205" lon="5.59603">
        <ele>476.7</ele>
        <time>2019-07-29T06:07:00.000Z</time>
      </trkpt>
      <trkpt lat="46.63216" lon="5.59611">
        <ele>490</ele>
        <time>2019-07-29T06:07:10.000Z</time>
      </trkpt>
      <trkpt lat="46.63226" lon="5.59615">
        <ele>470.8</ele>
        <time>2019-07-29T06:07:20.000Z</time>
      </trkpt>
      <trkpt lat="46.63236" lon="5.59616">
        <ele>490</ele>
        <time>2019-07-29T06:07:30.000Z</time>
      </trkpt>
      <trkpt lat="46.63246" lon="5.59612">
        <ele>464.3</ele>
        <time>2019-07-29T06:07:40.000Z</time>
      </trkpt>
      <trkpt lat="46.63256" lon="5.59606">
        <ele>483</ele>
        <time>2019-07-29T06:07:50.000Z</time>
      </trkpt>
      <trkpt lat="46.63264" lon="5.596">
        <ele>458.7</ele>
        <time>2019-07-29T06:08:00.000Z</time>
      </trkpt>
      <trkpt lat="46.63275" lon="5.59595">
        <ele>479</ele>
        <time>2019-07-29T06:08:10.000Z</time>
      </trkpt>
      <trkpt lat="46.63285" lon="5.59592">
        <ele>452.8</ele>
        <time>2019-07-29T06:08:20.000Z</time>
      </trkpt>
      <trkpt lat="46.63296" lon="5.59597">
        <ele>479</ele>
        <time>2019-07-29T06:08:30.000Z</time>
      </trkpt>
      <trkpt lat="46.63305" lon="5.59605">
        <ele>447.4</ele>
        <time>2019-07-29T06:08:40.000Z</time>
      </trkpt>
      <trkpt lat="46.63313" lon="5.59616">
        <ele>468</ele>
        <time>2019-07-29T06:08:50.000Z</time>
      </trkpt>
      <trkpt lat="46.63314" lon="5.59631">
        <ele>442.6</ele>
        <time>2019-07-29T06:09:00.000Z</time>
      </trkpt>
      <trkpt lat="46.63319" lon="5.59644">
        <ele>465</ele>
        <time>2019-07-29T06:09:10.000Z</time>
      </trkpt>
      <trkpt lat="46.63328" lon="5.59653">
        <ele>436.3</ele>
        <time>2019-07-29T06:09:20.000Z</time>
      </trkpt>
      <trkpt lat="46.63335" lon="5.59663">
        <ele>461</ele>
        <time>2019-07-29T06:09:30.000Z</time>
      </trkpt>
      <trkpt lat="46.63341" lon="5.59675">
        <ele>432.3</ele>
        <time>2019-07-29T06:09:40.000Z</time>
      </trkpt>
      <trkpt lat="46.63351" lon="5.59682">
        <ele>458</ele>
        <time>2019-07-29T06:09:50.000Z</time>
      </trkpt>
      <trkpt lat="46.63383" lon="5.59691">
        <ele>449</ele>
        <time>2019-07-29T06:09:11.000Z</time>
      </trkpt>
      <trkpt lat="46.63393" lon="5.59696">
        <ele>422.4</ele>
        <time>2019-07-29T06:09:21.000Z</time>
      </trkpt>
      <trkpt lat="46.63404" lon="5.597">
        <ele>449</ele>
        <time>2019-07-29T06:09:31.000Z</time>
      </trkpt>
      <trkpt lat="46.63424" lon="5.59711">
        <ele>440</ele>
        <time>2019-07-29T06:09:38.000Z</time>
      </trkpt>
      <trkpt lat="46.63442" lon="5.59725">
        <ele>428</ele>
        <time>2019-07-29T06:09:58.000Z</time>
      </trkpt>
      <trkpt lat="46.63452" lon="5.5973">
        <ele>410.1</ele>
        <time>2019-07-29T06:10:08.000Z</time>
      </trkpt>
      <trkpt lat="46.63474" lon="5.59734">
        <ele>417</ele>
        <time>2019-07-29T06:10:18.000Z</time>
      </trkpt>
      <trkpt lat="46.63484" lon="5.5973">
        <ele>401.5</ele>
        <time>2019-07-29T06:10:28.000Z</time>
      </trkpt>
      <trkpt lat="46.63496" lon="5.5973">
        <ele>406</ele>
        <time>2019-07-29T06:10:38.000Z</time>
      </trkpt>
      <trkpt lat="46.63517" lon="5.59738">
        <ele>406</ele>
        <time>2019-07-29T06:10:57.000Z</time>
      </trkpt>
      <trkpt lat="46.63535" lon="5.59752">
        <ele>402</ele>
        <time>2019-07-29T06:11:07.000Z</time>
      </trkpt>
      <trkpt lat="46.63544" lon="5.59762">
        <ele>389.1</ele>
        <time>2019-07-29T06:11:17.000Z</time>
      </trkpt>
      <trkpt lat="46.63553" lon="5.59768">
        <ele>400</ele>
        <time>2019-07-29T06:11:27.000Z</time>
      </trkpt>
      <trkpt lat="46.63567" lon="5.59793">
        <ele>399</ele>
        <time>2019-07-29T06:11:49.000Z</time>
      </trkpt>
      <trkpt lat="46.63572" lon="5.59806">
        <ele>381</ele>
        <time>2019-07-29T06:11:59.000Z</time>
      </trkpt>
      <trkpt lat="46.63575" lon="5.5982">
        <ele>389</ele>
        <time>2019-07-29T06:12:09.000Z</time>
      </trkpt>
      <trkpt lat="46.63582" lon="5.59832">
        <ele>375.5</ele>
        <time>2019-07-29T06:12:19.000Z</time>
      </trkpt>
      <trkpt lat="46.6359" lon="5.59842">
        <ele>388</ele>
        <time>2019-07-29T06:12:29.000Z</time>
      </trkpt>
      <trkpt lat="46.63601" lon="5.59849">
        <ele>371.3</ele>
        <time>2019-07-29T06:12:39.000Z</time>
      </trkpt>
      <trkpt lat="46.63604" lon="5.59864">
        <ele>373</ele>
        <time>2019-07-29T06:12:49.000Z</time>
      </trkpt>
      <trkpt lat="46.63609" lon="5.59877">
        <ele>368.2</ele>
        <time>2019-07-29T06:12:59.000Z</time>
      </trkpt>
      <trkpt lat="46.63612" lon="5.59892">
        <ele>373</ele>
        <time>2019-07-29T06:13:09.000Z</time>
      </trkpt>
      <trkpt lat="46.63614" lon="5.59907">
        <ele>364.1</ele>
        <time>2019-07-29T06:13:19.000Z</time>
      </trkpt>
      <trkpt lat="46.63613" lon="5.59922">
        <ele>373</ele>
        <time>2019-07-29T06:13:29.000Z</time>
      </trkpt>
      <trkpt lat="46.63614" lon="5.59936">
        <ele>360.2</ele>
        <time>2019-07-29T06:13:39.000Z</time>
      </trkpt>
      <trkpt lat="46.63617" lon="5.59951">
        <ele>365</ele>
        <time>2019-07-29T06:13:49.000Z</time>
      </trkpt>
      <trkpt lat="46.63627" lon="5.59963">
        <ele>358</ele>
        <time>2019-07-29T06:13:59.000Z</time>
      </trkpt>
      <trkpt lat="46.63664" lon="5.59999">
        <ele>358</ele>
        <time>2019-07-29T06:14:02.000Z</time>
      </trkpt>
      <trkpt lat="46.63673" lon="5.60006">
        <ele>353</ele>
        <time>2019-07-29T06:14:12.000Z</time>
      </trkpt>
      <trkpt lat="46.63682" lon="5.6001">
        <ele>358</ele>
        <time>2019-07-29T06:14:22.000Z</time>
      </trkpt>
      <trkpt lat="46.63687" lon="5.60015">
        <ele>352.8</ele>
        <time>2019-07-29T06:14:32.000Z</time>
      </trkpt>
      <trkpt lat="46.63691" lon="5.60021">
        <ele>352.5</ele>
        <time>2019-07-29T06:14:42.000Z</time>
      </trkpt>
      <trkpt lat="46.63701" lon="5.6004">
        <ele>357</ele>
        <time>2019-07-29T06:15:02.000Z</time>
      </trkpt>
      <trkpt lat="46.6371" lon="5.60064">
        <ele>356</ele>
        <time>2019-07-29T06:15:12.000Z</time>
      </trkpt>
      <trkpt lat="46.63716" lon="5.60088">
        <ele>349.6</ele>
        <time>2019-07-29T06:15:22.000Z</time>
      </trkpt>
      <trkpt lat="46.63719" lon="5.60112">
        <ele>345</ele>
        <time>2019-07-29T06:15:32.000Z</time>
      </trkpt>
      <trkpt lat="46.6372" lon="5.60127">
        <ele>345.7</ele>
        <time>2019-07-29T06:15:42.000Z</time>
      </trkpt>
      <trkpt lat="46.6372" lon="5.60156">
        <ele>344</ele>
        <time>2019-07-29T06:16:02.000Z</time>
      </trkpt>
      <trkpt lat="46.63726" lon="5.60185">
        <ele>344</ele>
        <time>2019-07-29T06:16:22.000Z</time>
      </trkpt>
      <trkpt lat="46.63728" lon="5.602">
        <ele>346.2</ele>
        <time>2019-07-29T06:16:32.000Z</time>
      </trkpt>
      <trkpt lat="46.6372" lon="5.60208">
        <ele>345</ele>
        <time>2019-07-29T06:16:42.000Z</time>
      </trkpt>
      <trkpt lat="46.63688" lon="5.60216">
        <ele>345</ele>
        <time>2019-07-29T06:15:32.000Z</time>
      </trkpt>
      <trkpt lat="46.63676" lon="5.6022">
        <ele>347</ele>
        <time>2019-07-29T06:15:42.000Z</time>
      </trkpt>
      <trkpt lat="46.63664" lon="5.60226">
        <ele>345</ele>
        <time>2019-07-29T06:15:41.000Z</time>
      </trkpt>
      <trkpt lat="46.63656" lon="5.60236">
        <ele>347.7</ele>
        <time>2019-07-29T06:15:51.000Z</time>
      </trkpt>
      <trkpt lat="46.63646" lon="5.60263">
        <ele>345</ele>
        <time>2019-07-29T06:15:53.000Z</time>
      </trkpt>
      <trkpt lat="46.63639" lon="5.60277">
        <ele>349</ele>
        <time>2019-07-29T06:16:03.000Z</time>
      </trkpt>
      <trkpt lat="46.63604" lon="5.60317">
        <ele>346</ele>
        <time>2019-07-29T06:16:16.000Z</time>
      </trkpt>
      <trkpt lat="46.63598" lon="5.60331">
        <ele>349.5</ele>
        <time>2019-07-29T06:16:26.000Z</time>
      </trkpt>
      <trkpt lat="46.63594" lon="5.60346">
        <ele>349</ele>
        <time>2019-07-29T06:16:36.000Z</time>
      </trkpt>
      <trkpt lat="46.63583" lon="5.60372">
        <ele>349</ele>
        <time>2019-07-29T06:16:46.000Z</time>
      </trkpt>
      <trkpt lat="46.63582" lon="5.60388">
        <ele>350.1</ele>
        <time>2019-07-29T06:16:56.000Z</time>
      </trkpt>
      <trkpt lat="46.63583" lon="5.60403">
        <ele>347</ele>
        <time>2019-07-29T06:17:06.000Z</time>
      </trkpt>
      <trkpt lat="46.63582" lon="5.60417">
        <ele>351.1</ele>
        <time>2019-07-29T06:17:16.000Z</time>
      </trkpt>
      <trkpt lat="46.63583" lon="5.60432">
        <ele>349</ele>
        <time>2019-07-29T06:17:26.000Z</time>
      </trkpt>
      <trkpt lat="46.63591" lon="5.60436">
        <ele>352.7</ele>
        <time>2019-07-29T06:17:36.000Z</time>
      </trkpt>
      <trkpt lat="46.63598" lon="5.60442">
        <ele>353.4</ele>
        <time>2019-07-29T06:17:46.000Z</time>
      </trkpt>
      <trkpt lat="46.63603" lon="5.60465">
        <ele>352</ele>
        <time>2019-07-29T06:17:56.000Z</time>
      </trkpt>
      <trkpt lat="46.63611" lon="5.60491">
        <ele>359</ele>
        <time>2019-07-29T06:18:06.000Z</time>
      </trkpt>
      <trkpt lat="46.63616" lon="5.60504">
        <ele>365.8</ele>
        <time>2019-07-29T06:18:16.000Z</time>
      </trkpt>
      <trkpt lat="46.63628" lon="5.6054">
        <ele>365</ele>
        <time>2019-07-29T06:18:36.000Z</time>
      </trkpt>
      <trkpt lat="46.63633" lon="5.6055">
        <ele>373.7</ele>
        <time>2019-07-29T06:18:46.000Z</time>
      </trkpt>
      <trkpt lat="46.63635" lon="5.60562">
        <ele>375.8</ele>
        <time>2019-07-29T06:18:56.000Z</time>
      </trkpt>
      <trkpt lat="46.63639" lon="5.6057">
        <ele>374</ele>
        <time>2019-07-29T06:19:06.000Z</time>
      </trkpt>
      <trkpt lat="46.63645" lon="5.60569">
        <ele>377.9</ele>
        <time>2019-07-29T06:19:16.000Z</time>
      </trkpt>
      <trkpt lat="46.63652" lon="5.60569">
        <ele>378.4</ele>
        <time>2019-07-29T06:19:26.000Z</time>
      </trkpt>
      <trkpt lat="46.63658" lon="5.6057">
        <ele>374</ele>
        <time>2019-07-29T06:19:36.000Z</time>
      </trkpt>
      <trkpt lat="46.6366" lon="5.60579">
        <ele>380.2</ele>
        <time>2019-07-29T06:19:46.000Z</time>
      </trkpt>
      <trkpt lat="46.63656" lon="5.60589">
        <ele>381.7</ele>
        <time>2019-07-29T06:19:56.000Z</time>
      </trkpt>
      <trkpt lat="46.6365" lon="5.60599">
        <ele>380</ele>
        <time>2019-07-29T06:20:06.000Z</time>
      </trkpt>
      <trkpt lat="46.63642" lon="5.60608">
        <ele>382.4</ele>
        <time>2019-07-29T06:20:16.000Z</time>
      </trkpt>
      <trkpt lat="46.63634" lon="5.60614">
        <ele>382</ele>
        <time>2019-07-29T06:20:26.000Z</time>
      </trkpt>
      <trkpt lat="46.63627" lon="5.60623">
        <ele>384.1</ele>
        <time>2019-07-29T06:20:36.000Z</time>
      </trkpt>
      <trkpt lat="46.63608" lon="5.60634">
        <ele>380</ele>
        <time>2019-07-29T06:19:41.000Z</time>
      </trkpt>
      <trkpt lat="46.63601" lon="5.60642">
        <ele>383.1</ele>
        <time>2019-07-29T06:19:51.000Z</time>
      </trkpt>
      <trkpt lat="46.63591" lon="5.60647">
        <ele>382</ele>
        <time>2019-07-29T06:20:01.000Z</time>
      </trkpt>
      <trkpt lat="46.63581" lon="5.60655">
        <ele>382.7</ele>
        <time>2019-07-29T06:20:11.000Z</time>
      </trkpt>
      <trkpt lat="46.63573" lon="5.60664">
        <ele>379</ele>
        <time>2019-07-29T06:20:21.000Z</time>
      </trkpt>
      <trkpt lat="46.63563" lon="5.60671">
        <ele>383.5</ele>
        <time>2019-07-29T06:20:31.000Z</time>
      </trkpt>
      <trkpt lat="46.63552" lon="5.60677">
        <ele>377</ele>
        <time>2019-07-29T06:20:24.000Z</time>
      </trkpt>
      <trkpt lat="46.63543" lon="5.60683">
        <ele>382.9</ele>
        <time>2019-07-29T06:20:34.000Z</time>
      </trkpt>
      <trkpt lat="46.63533" lon="5.60694">
        <ele>377</ele>
        <time>2019-07-29T06:20:44.000Z</time>
      </trkpt>
      <trkpt lat="46.63526" lon="5.60703">
        <ele>384.8</ele>
        <time>2019-07-29T06:20:54.000Z</time>
      </trkpt>
      <trkpt lat="46.6352" lon="5.60714">
        <ele>374</ele>
        <time>2019-07-29T06:21:04.000Z</time>
      </trkpt>
      <trkpt lat="46.6351" lon="5.60723">
        <ele>385.7</ele>
        <time>2019-07-29T06:21:14.000Z</time>
      </trkpt>
      <trkpt lat="46.63502" lon="5.60735">
        <ele>374</ele>
        <time>2019-07-29T06:21:24.000Z</time>
      </trkpt>
      <trkpt lat="46.63497" lon="5.60746">
        <ele>387.1</ele>
        <time>2019-07-29T06:21:34.000Z</time>
      </trkpt>
      <trkpt lat="46.63492" lon="5.60759">
        <ele>376</ele>
        <time>2019-07-29T06:21:44.000Z</time>
      </trkpt>
      <trkpt lat="46.63479" lon="5.60786">
        <ele>379</ele>
        <time>2019-07-29T06:21:35.000Z</time>
      </trkpt>
      <trkpt lat="46.6347" lon="5.60813">
        <ele>382</ele>
        <time>2019-07-29T06:21:45.000Z</time>
      </trkpt>
      <trkpt lat="46.63463" lon="5.60843">
        <ele>386</ele>
        <time>2019-07-29T06:22:03.000Z</time>
      </trkpt>
      <trkpt lat="46.63458" lon="5.60901">
        <ele>386</ele>
        <time>2019-07-29T06:22:33.000Z</time>
      </trkpt>
      <trkpt lat="46.63456" lon="5.60911">
        <ele>391.8</ele>
        <time>2019-07-29T06:22:43.000Z</time>
      </trkpt>
      <trkpt lat="46.63453" lon="5.60941">
        <ele>395</ele>
        <time>2019-07-29T06:22:45.000Z</time>
      </trkpt>
      <trkpt lat="46.63452" lon="5.60959">
        <ele>392.9</ele>
        <time>2019-07-29T06:22:55.000Z</time>
      </trkpt>
      <trkpt lat="46.63456" lon="5.60982">
        <ele>396</ele>
        <time>2019-07-29T06:23:03.000Z</time>
      </trkpt>
      <trkpt lat="46.63458" lon="5.61007">
        <ele>394.6</ele>
        <time>2019-07-29T06:23:13.000Z</time>
      </trkpt>
      <trkpt lat="46.63463" lon="5.61038">
        <ele>399</ele>
        <time>2019-07-29T06:23:28.000Z</time>
      </trkpt>
      <trkpt lat="46.63464" lon="5.61051">
        <ele>395.5</ele>
        <time>2019-07-29T06:23:38.000Z</time>
      </trkpt>
      <trkpt lat="46.63468" lon="5.61067">
        <ele>400</ele>
        <time>2019-07-29T06:23:48.000Z</time>
      </trkpt>
      <trkpt lat="46.63469" lon="5.61083">
        <ele>396.1</ele>
        <time>2019-07-29T06:23:58.000Z</time>
      </trkpt>
      <trkpt lat="46.63468" lon="5.61098">
        <ele>401</ele>
        <time>2019-07-29T06:24:08.000Z</time>
      </trkpt>
      <trkpt lat="46.63469" lon="5.61128">
        <ele>401</ele>
        <time>2019-07-29T06:24:12.000Z</time>
      </trkpt>
      <trkpt lat="46.63473" lon="5.61156">
        <ele>401</ele>
        <time>2019-07-29T06:24:22.000Z</time>
      </trkpt>
      <trkpt lat="46.63476" lon="5.61171">
        <ele>399.5</ele>
        <time>2019-07-29T06:24:32.000Z</time>
      </trkpt>
      <trkpt lat="46.63481" lon="5.61185">
        <ele>401</ele>
        <time>2019-07-29T06:24:42.000Z</time>
      </trkpt>
      <trkpt lat="46.63494" lon="5.61211">
        <ele>403</ele>
        <time>2019-07-29T06:24:57.000Z</time>
      </trkpt>
      <trkpt lat="46.635" lon="5.61221">
        <ele>400.2</ele>
        <time>2019-07-29T06:25:07.000Z</time>
      </trkpt>
      <trkpt lat="46.63518" lon="5.61241">
        <ele>405</ele>
        <time>2019-07-29T06:25:22.000Z</time>
      </trkpt>
      <trkpt lat="46.6353" lon="5.61267">
        <ele>410</ele>
        <time>2019-07-29T06:25:32.000Z</time>
      </trkpt>
      <trkpt lat="46.63536" lon="5.61278">
        <ele>403.2</ele>
        <time>2019-07-29T06:25:42.000Z</time>
      </trkpt>
      <trkpt lat="46.63551" lon="5.61336">
        <ele>416</ele>
        <time>2019-07-29T06:26:02.000Z</time>
      </trkpt>
      <trkpt lat="46.63563" lon="5.61362">
        <ele>417</ele>
        <time>2019-07-29T06:26:12.000Z</time>
      </trkpt>
      <trkpt lat="46.63572" lon="5.61373">
        <ele>407.5</ele>
        <time>2019-07-29T06:26:22.000Z</time>
      </trkpt>
      <trkpt lat="46.63578" lon="5.61385">
        <ele>421</ele>
        <time>2019-07-29T06:26:32.000Z</time>
      </trkpt>
      <trkpt lat="46.63584" lon="5.61399">
        <ele>407.1</ele>
        <time>2019-07-29T06:26:42.000Z</time>
      </trkpt>
      <trkpt lat="46.63587" lon="5.61413">
        <ele>425</ele>
        <time>2019-07-29T06:26:52.000Z</time>
      </trkpt>
      <trkpt lat="46.63603" lon="5.61433">
        <ele>426</ele>
        <time>2019-07-29T06:27:12.000Z</time>
      </trkpt>
      <trkpt lat="46.6361" lon="5.61443">
        <ele>409.8</ele>
        <time>2019-07-29T06:27:22.000Z</time>
      </trkpt>
      <trkpt lat="46.63616" lon="5.61457">
        <ele>421</ele>
        <time>2019-07-29T06:27:32.000Z</time>
      </trkpt>
      <trkpt lat="46.6363" lon="5.61499">
        <ele>417</ele>
        <time>2019-07-29T06:27:40.000Z</time>
      </trkpt>
      <trkpt lat="46.63635" lon="5.61512">
        <ele>409.4</ele>
        <time>2019-07-29T06:27:50.000Z</time>
      </trkpt>
      <trkpt lat="46.63641" lon="5.61523">
        <ele>416</ele>
        <time>2019-07-29T06:28:00.000Z</time>
      </trkpt>
      <trkpt lat="46.63649" lon="5.61533">
        <ele>410.6</ele>
        <time>2019-07-29T06:28:10.000Z</time>
      </trkpt>
      <trkpt lat="46.63658" lon="5.61541">
        <ele>416</ele>
        <time>2019-07-29T06:28:20.000Z</time>
      </trkpt>
      <trkpt lat="46.63668" lon="5.61548">
        <ele>413.3</ele>
        <time>2019-07-29T06:28:30.000Z</time>
      </trkpt>
      <trkpt lat="46.63689" lon="5.6156">
        <ele>423</ele>
        <time>2019-07-29T06:28:41.000Z</time>
      </trkpt>
      <trkpt lat="46.63713" lon="5.6157">
        <ele>430</ele>
        <time>2019-07-29T06:28:51.000Z</time>
      </trkpt>
      <trkpt lat="46.6374" lon="5.61582">
        <ele>430</ele>
        <time>2019-07-29T06:29:27.000Z</time>
      </trkpt>
      <trkpt lat="46.63751" lon="5.61584">
        <ele>415</ele>
        <time>2019-07-29T06:29:37.000Z</time>
      </trkpt>
      <trkpt lat="46.63769" lon="5.61595">
        <ele>432</ele>
        <time>2019-07-29T06:29:41.000Z</time>
      </trkpt>
      <trkpt lat="46.63779" lon="5.61599">
        <ele>415.6</ele>
        <time>2019-07-29T06:29:51.000Z</time>
      </trkpt>
      <trkpt lat="46.63789" lon="5.61605">
        <ele>439</ele>
        <time>2019-07-29T06:30:01.000Z</time>
      </trkpt>
      <trkpt lat="46.63799" lon="5.61609">
        <ele>417.8</ele>
        <time>2019-07-29T06:30:11.000Z</time>
      </trkpt>
      <trkpt lat="46.63808" lon="5.61619">
        <ele>449</ele>
        <time>2019-07-29T06:30:21.000Z</time>
      </trkpt>
      <trkpt lat="46.63817" lon="5.61627">
        <ele>417.7</ele>
        <time>2019-07-29T06:30:31.000Z</time>
      </trkpt>
      <trkpt lat="46.63827" lon="5.6163">
        <ele>449</ele>
        <time>2019-07-29T06:30:18.000Z</time>
      </trkpt>
      <trkpt lat="46.63846" lon="5.61643">
        <ele>449</ele>
        <time>2019-07-29T06:30:38.000Z</time>
      </trkpt>
      <trkpt lat="46.63856" lon="5.61647">
        <ele>422.2</ele>
        <time>2019-07-29T06:30:48.000Z</time>
      </trkpt>
      <trkpt lat="46.63876" lon="5.61658">
        <ele>452</ele>
        <time>2019-07-29T06:30:58.000Z</time>
      </trkpt>
      <trkpt lat="46.63887" lon="5.6166">
        <ele>426.2</ele>
        <time>2019-07-29T06:31:08.000Z</time>
      </trkpt>
      <trkpt lat="46.63907" lon="5.61666">
        <ele>455</ele>
        <time>2019-07-29T06:31:28.000Z</time>
      </trkpt>
      <trkpt lat="46.63936" lon="5.61687">
        <ele>455</ele>
        <time>2019-07-29T06:31:40.000Z</time>
      </trkpt>
      <trkpt lat="46.63946" lon="5.61696">
        <ele>427.7</ele>
        <time>2019-07-29T06:31:50.000Z</time>
      </trkpt>
      <trkpt lat="46.63953" lon="5.61709">
        <ele>456</ele>
        <time>2019-07-29T06:32:00.000Z</time>
      </trkpt>
      <trkpt lat="46.63957" lon="5.61722">
        <ele>427.6</ele>
        <time>2019-07-29T06:32:10.000Z</time>
      </trkpt>
      <trkpt lat="46.63968" lon="5.61748">
        <ele>465</ele>
        <time>2019-07-29T06:32:11.000Z</time>
      </trkpt>
      <trkpt lat="46.63972" lon="5.61763">
        <ele>428</ele>
        <time>2019-07-29T06:32:21.000Z</time>
      </trkpt>
      <trkpt lat="46.63972" lon="5.61778">
        <ele>471</ele>
        <time>2019-07-29T06:32:31.000Z</time>
      </trkpt>
      <trkpt lat="46.63976" lon="5.61803">
        <ele>427.7</ele>
        <time>2019-07-29T06:32:41.000Z</time>
      </trkpt>
      <trkpt lat="46.63973" lon="5.61818">
        <ele>474</ele>
        <time>2019-07-29T06:33:01.000Z</time>
      </trkpt>
      <trkpt lat="46.63946" lon="5.61808">
        <ele>468</ele>
        <time>2019-07-29T06:33:11.000Z</time>
      </trkpt>
      <trkpt lat="46.63907" lon="5.61794">
        <ele>463</ele>
        <time>2019-07-29T06:33:21.000Z</time>
      </trkpt>
      <trkpt lat="46.63884" lon="5.61786">
        <ele>463</ele>
        <time>2019-07-29T06:33:31.000Z</time>
      </trkpt>
      <trkpt lat="46.63859" lon="5.61778">
        <ele>458</ele>
        <time>2019-07-29T06:33:31.000Z</time>
      </trkpt>
      <trkpt lat="46.63832" lon="5.61768">
        <ele>454</ele>
        <time>2019-07-29T06:33:41.000Z</time>
      </trkpt>
      <trkpt lat="46.6379" lon="5.61753">
        <ele>455</ele>
        <time>2019-07-29T06:33:51.000Z</time>
      </trkpt>
      <trkpt lat="46.63764" lon="5.61744">
        <ele>444</ele>
        <time>2019-07-29T06:34:01.000Z</time>
      </trkpt>
      <trkpt lat="46.63726" lon="5.61731">
        <ele>441</ele>
        <time>2019-07-29T06:37:39.000Z</time>
      </trkpt>
      <trkpt lat="46.63717" lon="5.61722">
        <ele>435.5</ele>
        <time>2019-07-29T06:37:49.000Z</time>
      </trkpt>
      <trkpt lat="46.63706" lon="5.61721">
        <ele>445</ele>
        <time>2019-07-29T06:37:59.000Z</time>
      </trkpt>
      <trkpt lat="46.63696" lon="5.61726">
        <ele>435.8</ele>
        <time>2019-07-29T06:38:09.000Z</time>
      </trkpt>
      <trkpt lat="46.63692" lon="5.61727">
        <ele>436.5</ele>
        <time>2019-07-29T06:38:19.000Z</time>
      </trkpt>
      <trkpt lat="46.63686" lon="5.61728">
        <ele>449</ele>
        <time>2019-07-29T06:38:29.000Z</time>
      </trkpt>
      <trkpt lat="46.63675" lon="5.61728">
        <ele>439.7</ele>
        <time>2019-07-29T06:38:39.000Z</time>
      </trkpt>
      <trkpt lat="46.63664" lon="5.61729">
        <ele>449</ele>
        <time>2019-07-29T06:38:49.000Z</time>
      </trkpt>
      <trkpt lat="46.63632" lon="5.61721">
        <ele>453</ele>
        <time>2019-07-29T06:38:51.000Z</time>
      </trkpt>
      <trkpt lat="46.6361" lon="5.61717">
        <ele>454</ele>
        <time>2019-07-29T06:39:01.000Z</time>
      </trkpt>
      <trkpt lat="46.63592" lon="5.61702">
        <ele>456</ele>
        <time>2019-07-29T06:39:11.000Z</time>
      </trkpt>
      <trkpt lat="46.63581" lon="5.617">
        <ele>445.9</ele>
        <time>2019-07-29T06:39:21.000Z</time>
      </trkpt>
      <trkpt lat="46.63571" lon="5.61695">
        <ele>456</ele>
        <time>2019-07-29T06:39:31.000Z</time>
      </trkpt>
      <trkpt lat="46.63561" lon="5.61688">
        <ele>447.4</ele>
        <time>2019-07-29T06:39:41.000Z</time>
      </trkpt>
      <trkpt lat="46.63542" lon="5.61677">
        <ele>456</ele>
        <time>2019-07-29T06:39:51.000Z</time>
      </trkpt>
      <trkpt lat="46.63523" lon="5.61668">
        <ele>456</ele>
        <time>2019-07-29T06:40:01.000Z</time>
      </trkpt>
      <trkpt lat="46.63515" lon="5.61658">
        <ele>447.8</ele>
        <time>2019-07-29T06:40:11.000Z</time>
      </trkpt>
      <trkpt lat="46.63505" lon="5.61653">
        <ele>456</ele>
        <time>2019-07-29T06:40:21.000Z</time>
      </trkpt>
      <trkpt lat="46.63494" lon="5.61654">
        <ele>452.6</ele>
        <time>2019-07-29T06:40:31.000Z</time>
      </trkpt>
      <trkpt lat="46.63483" lon="5.61657">
        <ele>456</ele>
        <time>2019-07-29T06:40:41.000Z</time>
      </trkpt>
      <trkpt lat="46.63462" lon="5.61659">
        <ele>456</ele>
        <time>2019-07-29T06:41:08.000Z</time>
      </trkpt>
      <trkpt lat="46.63434" lon="5.61676">
        <ele>450</ele>
        <time>2019-07-29T06:41:32.000Z</time>
      </trkpt>
      <trkpt lat="46.63423" lon="5.6168">
        <ele>451.5</ele>
        <time>2019-07-29T06:41:42.000Z</time>
      </trkpt>
      <trkpt lat="46.63408" lon="5.61677">
        <ele>449.8</ele>
      </trkpt>
      <trkpt lat="46.63407" lon="5.6168">
        <ele>449.8</ele>
      </trkpt>
      <trkpt lat="46.63407" lon="5.61683">
        <ele>449.8</ele>
      </trkpt>
      <trkpt lat="46.63406" lon="5.61687">
        <ele>450</ele>
      </trkpt>
      <trkpt lat="46.63404" lon="5.61689">
        <ele>450.4</ele>
      </trkpt>
      <trkpt lat="46.63404" lon="5.61694">
        <ele>450.6</ele>
      </trkpt>
      <trkpt lat="46.63404" lon="5.61697">
        <ele>451</ele>
      </trkpt>
      <trkpt lat="46.63404" lon="5.61701">
        <ele>451.2</ele>
      </trkpt>
      <trkpt lat="46.63403" lon="5.61705">
        <ele>451.4</ele>
      </trkpt>
      <trkpt lat="46.63402" lon="5.61708">
        <ele>451.4</ele>
      </trkpt>
      <trkpt lat="46.63401" lon="5.61712">
        <ele>451.8</ele>
      </trkpt>
      <trkpt lat="46.63401" lon="5.61716">
        <ele>452.2</ele>
      </trkpt>
      <trkpt lat="46.634" lon="5.6172">
        <ele>452.4</ele>
      </trkpt>
      <trkpt lat="46.634" lon="5.61724">
        <ele>452.6</ele>
      </trkpt>
      <trkpt lat="46.63401" lon="5.61728">
        <ele>452.8</ele>
      </trkpt>
      <trkpt lat="46.63403" lon="5.6173">
        <ele>453</ele>
      </trkpt>
      <trkpt lat="46.63404" lon="5.61732">
        <ele>453.4</ele>
      </trkpt>
      <trkpt lat="46.63405" lon="5.61736">
        <ele>453.6</ele>
      </trkpt>
      <trkpt lat="46.63404" lon="5.61739">
        <ele>454</ele>
      </trkpt>
      <trkpt lat="46.63404" lon="5.61743">
        <ele>454</ele>
      </trkpt>
      <trkpt lat="46.63403" lon="5.61747">
        <ele>454.2</ele>
      </trkpt>
      <trkpt lat="46.63401" lon="5.61749">
        <ele>454.4</ele>
      </trkpt>
      <trkpt lat="46.63401" lon="5.61752">
        <ele>454.8</ele>
      </trkpt>
      <trkpt lat="46.63399" lon="5.61758">
        <ele>455</ele>
      </trkpt>
      <trkpt lat="46.63398" lon="5.61763">
        <ele>455.4</ele>
      </trkpt>
      <trkpt lat="46.63397" lon="5.61766">
        <ele>455.6</ele>
      </trkpt>
      <trkpt lat="46.63398" lon="5.61768">
        <ele>456.6</ele>
      </trkpt>
      <trkpt lat="46.634" lon="5.61771">
        <ele>458</ele>
      </trkpt>
      <trkpt lat="46.63402" lon="5.61769">
        <ele>458.8</ele>
      </trkpt>
      <trkpt lat="46.63404" lon="5.61768">
        <ele>459.8</ele>
      </trkpt>
      <trkpt lat="46.63406" lon="5.61767">
        <ele>460.4</ele>
      </trkpt>
      <trkpt lat="46.63407" lon="5.6177">
        <ele>461.4</ele>
      </trkpt>
      <trkpt lat="46.63409" lon="5.61768">
        <ele>462.6</ele>
      </trkpt>
      <trkpt lat="46.63411" lon="5.61766">
        <ele>463</ele>
      </trkpt>
      <trkpt lat="46.63412" lon="5.61764">
        <ele>463.4</ele>
      </trkpt>
      <trkpt lat="46.63414" lon="5.61762">
        <ele>463.8</ele>
      </trkpt>
      <trkpt lat="46.63417" lon="5.61761">
        <ele>464</ele>
      </trkpt>
      <trkpt lat="46.63418" lon="5.61759">
        <ele>464.4</ele>
      </trkpt>
      <trkpt lat="46.6342" lon="5.61759">
        <ele>464.4</ele>
      </trkpt>
      <trkpt lat="46.63422" lon="5.61759">
        <ele>464.6</ele>
      </trkpt>
      <trkpt lat="46.63424" lon="5.61757">
        <ele>465</ele>
      </trkpt>
      <trkpt lat="46.63426" lon="5.61755">
        <ele>465.2</ele>
      </trkpt>
      <trkpt lat="46.63426" lon="5.61758">
        <ele>466.2</ele>
      </trkpt>
      <trkpt lat="46.63428" lon="5.61758">
        <ele>466.4</ele>
      </trkpt>
      <trkpt lat="46.63428" lon="5.61761">
        <ele>466.6</ele>
      </trkpt>
      <trkpt lat="46.63428" lon="5.61764">
        <ele>466.8</ele>
      </trkpt>
      <trkpt lat="46.63428" lon="5.61767">
        <ele>467</ele>
      </trkpt>
      <trkpt lat="46.63428" lon="5.6177">
        <ele>467</ele>
      </trkpt>
      <trkpt lat="46.63427" lon="5.61772">
        <ele>467.6</ele>
      </trkpt>
      <trkpt lat="46.63425" lon="5.61771">
        <ele>467.8</ele>
      </trkpt>
      <trkpt lat="46.63423" lon="5.61773">
        <ele>469</ele>
      </trkpt>
      <trkpt lat="46.63422" lon="5.61776">
        <ele>469.4</ele>
      </trkpt>
      <trkpt lat="46.63421" lon="5.61778">
        <ele>469.8</ele>
      </trkpt>
      <trkpt lat="46.63419" lon="5.61779">
        <ele>470.4</ele>
      </trkpt>
      <trkpt lat="46.63417" lon="5.61779">
        <ele>471</ele>
      </trkpt>
      <trkpt lat="46.63415" lon="5.6178">
        <ele>471.6</ele>
      </trkpt>
      <trkpt lat="46.63415" lon="5.61784">
        <ele>472.2</ele>
      </trkpt>
      <trkpt lat="46.63413" lon="5.61786">
        <ele>472.4</ele>
      </trkpt>
      <trkpt lat="46.63411" lon="5.61788">
        <ele>472.4</ele>
      </trkpt>
      <trkpt lat="46.63409" lon="5.61791">
        <ele>472.8</ele>
      </trkpt>
      <trkpt lat="46.63406" lon="5.61793">
        <ele>473.2</ele>
      </trkpt>
      <trkpt lat="46.63405" lon="5.61796">
        <ele>473.8</ele>
      </trkpt>
      <trkpt lat="46.63404" lon="5.618">
        <ele>474.4</ele>
      </trkpt>
      <trkpt lat="46.63403" lon="5.61804">
        <ele>475</ele>
      </trkpt>
      <trkpt lat="46.63401" lon="5.61806">
        <ele>475.6</ele>
      </trkpt>
      <trkpt lat="46.634" lon="5.61809">
        <ele>476</ele>
      </trkpt>
      <trkpt lat="46.63398" lon="5.61812">
        <ele>476.6</ele>
      </trkpt>
      <trkpt lat="46.63398" lon="5.61815">
        <ele>477.2</ele>
      </trkpt>
      <trkpt lat="46.63397" lon="5.61819">
        <ele>477.6</ele>
      </trkpt>
      <trkpt lat="46.63396" lon="5.61822">
        <ele>478</ele>
      </trkpt>
      <trkpt lat="46.63394" lon="5.61825">
        <ele>478.4</ele>
      </trkpt>
      <trkpt lat="46.63392" lon="5.61829">
        <ele>479.2</ele>
      </trkpt>
      <trkpt lat="46.6339" lon="5.61833">
        <ele>480.6</ele>
      </trkpt>
      <trkpt lat="46.63389" lon="5.61835">
        <ele>481</ele>
      </trkpt>
      <trkpt lat="46.63388" lon="5.61837">
        <ele>482.2</ele>
      </trkpt>
      <trkpt lat="46.63388" lon="5.61841">
        <ele>483</ele>
      </trkpt>
      <trkpt lat="46.63387" lon="5.61844">
        <ele>483.6</ele>
      </trkpt>
      <trkpt lat="46.63387" lon="5.61847">
        <ele>484.4</ele>
      </trkpt>
      <trkpt lat="46.63386" lon="5.6185">
        <ele>484.8</ele>
      </trkpt>
      <trkpt lat="46.63384" lon="5.61852">
        <ele>485.8</ele>
      </trkpt>
      <trkpt lat="46.63382" lon="5.61854">
        <ele>486</ele>
      </trkpt>
      <trkpt lat="46.63381" lon="5.61857">
        <ele>486.4</ele>
      </trkpt>
      <trkpt lat="46.6338" lon="5.61859">
        <ele>486.8</ele>
      </trkpt>
      <trkpt lat="46.63377" lon="5.61863">
        <ele>494.2</ele>
      </trkpt>
      <trkpt lat="46.63377" lon="5.61862">
        <ele>487.6</ele>
      </trkpt>
      <trkpt lat="46.63374" lon="5.61863">
        <ele>488.4</ele>
      </trkpt>
      <trkpt lat="46.63372" lon="5.61865">
        <ele>488.8</ele>
      </trkpt>
      <trkpt lat="46.63373" lon="5.61868">
        <ele>490</ele>
      </trkpt>
      <trkpt lat="46.63373" lon="5.61871">
        <ele>491</ele>
      </trkpt>
      <trkpt lat="46.63372" lon="5.61874">
        <ele>492</ele>
      </trkpt>
      <trkpt lat="46.6337" lon="5.61876">
        <ele>492.4</ele>
      </trkpt>
      <trkpt lat="46.63369" lon="5.61879">
        <ele>492.8</ele>
      </trkpt>
      <trkpt lat="46.63367" lon="5.61881">
        <ele>493.2</ele>
      </trkpt>
      <trkpt lat="46.63366" lon="5.61884">
        <ele>493.4</ele>
      </trkpt>
      <trkpt lat="46.63366" lon="5.61887">
        <ele>493.8</ele>
      </trkpt>
      <trkpt lat="46.63365" lon="5.6189">
        <ele>494.4</ele>
      </trkpt>
      <trkpt lat="46.63364" lon="5.61892">
        <ele>495</ele>
      </trkpt>
      <trkpt lat="46.63363" lon="5.61894">
        <ele>496.2</ele>
      </trkpt>
      <trkpt lat="46.63361" lon="5.61896">
        <ele>496.6</ele>
      </trkpt>
      <trkpt lat="46.6336" lon="5.61899">
        <ele>497.2</ele>
      </trkpt>
      <trkpt lat="46.63359" lon="5.61901">
        <ele>497.6</ele>
      </trkpt>
      <trkpt lat="46.63357" lon="5.61904">
        <ele>498.6</ele>
      </trkpt>
      <trkpt lat="46.63356" lon="5.61907">
        <ele>499</ele>
      </trkpt>
      <trkpt lat="46.63355" lon="5.6191">
        <ele>499.2</ele>
      </trkpt>
      <trkpt lat="46.63353" lon="5.61916">
        <ele>499.4</ele>
      </trkpt>
      <trkpt lat="46.6335" lon="5.61922">
        <ele>499.6</ele>
      </trkpt>
      <trkpt lat="46.63349" lon="5.61926">
        <ele>499.8</ele>
      </trkpt>
      <trkpt lat="46.63349" lon="5.6193">
        <ele>500.6</ele>
      </trkpt>
      <trkpt lat="46.63349" lon="5.61933">
        <ele>500.8</ele>
      </trkpt>
      <trkpt lat="46.63349" lon="5.61936">
        <ele>501</ele>
      </trkpt>
      <trkpt lat="46.63349" lon="5.61938">
        <ele>501.2</ele>
      </trkpt>
      <trkpt lat="46.63347" lon="5.61941">
        <ele>501.4</ele>
      </trkpt>
      <trkpt lat="46.63347" lon="5.61944">
        <ele>502</ele>
      </trkpt>
      <trkpt lat="46.63345" lon="5.61946">
        <ele>503</ele>
      </trkpt>
      <trkpt lat="46.63345" lon="5.61948">
        <ele>503.4</ele>
      </trkpt>
      <trkpt lat="46.63346" lon="5.61951">
        <ele>504.2</ele>
      </trkpt>
      <trkpt lat="46.63347" lon="5.61953">
        <ele>505.2</ele>
      </trkpt>
      <trkpt lat="46.63347" lon="5.61958">
        <ele>506.6</ele>
      </trkpt>
      <trkpt lat="46.63348" lon="5.61962">
        <ele>507.2</ele>
      </trkpt>
      <trkpt lat="46.63349" lon="5.61966">
        <ele>508</ele>
      </trkpt>
      <trkpt lat="46.6335" lon="5.61969">
        <ele>508.4</ele>
      </trkpt>
      <trkpt lat="46.6335" lon="5.61971">
        <ele>509.4</ele>
      </trkpt>
      <trkpt lat="46.63351" lon="5.61974">
        <ele>510</ele>
      </trkpt>
      <trkpt lat="46.63352" lon="5.61977">
        <ele>510.2</ele>
      </trkpt>
      <trkpt lat="46.63353" lon="5.6198">
        <ele>510.6</ele>
      </trkpt>
      <trkpt lat="46.63354" lon="5.61983">
        <ele>510.8</ele>
      </trkpt>
      <trkpt lat="46.63356" lon="5.61988">
        <ele>511.2</ele>
      </trkpt>
      <trkpt lat="46.63357" lon="5.6199">
        <ele>511.4</ele>
      </trkpt>
      <trkpt lat="46.63359" lon="5.61993">
        <ele>511.6</ele>
      </trkpt>
      <trkpt lat="46.6336" lon="5.61996">
        <ele>511.8</ele>
      </trkpt>
      <trkpt lat="46.63364" lon="5.61986">
        <ele>528</ele>
        <time>2019-07-29T06:52:26.000Z</time>
      </trkpt>
      <trkpt lat="46.63368" lon="5.61975">
        <ele>528</ele>
        <time>2019-07-29T06:52:36.000Z</time>
      </trkpt>
      <trkpt lat="46.63382" lon="5.6196">
        <ele>528</ele>
        <time>2019-07-29T06:52:51.000Z</time>
      </trkpt>
      <trkpt lat="46.63388" lon="5.61955">
        <ele>530</ele>
        <time>2019-07-29T06:53:01.000Z</time>
      </trkpt>
      <trkpt lat="46.63394" lon="5.61953">
        <ele>530.6</ele>
        <time>2019-07-29T06:53:11.000Z</time>
      </trkpt>
      <trkpt lat="46.634" lon="5.61949">
        <ele>528</ele>
        <time>2019-07-29T06:53:21.000Z</time>
      </trkpt>
      <trkpt lat="46.63421" lon="5.61916">
        <ele>527</ele>
        <time>2019-07-29T06:53:51.000Z</time>
      </trkpt>
      <trkpt lat="46.63427" lon="5.61915">
        <ele>532.4</ele>
        <time>2019-07-29T06:54:01.000Z</time>
      </trkpt>
      <trkpt lat="46.63433" lon="5.61915">
        <ele>533.5</ele>
        <time>2019-07-29T06:54:11.000Z</time>
      </trkpt>
      <trkpt lat="46.63443" lon="5.61907">
        <ele>527</ele>
        <time>2019-07-29T06:54:21.000Z</time>
      </trkpt>
      <trkpt lat="46.63451" lon="5.61898">
        <ele>534.2</ele>
        <time>2019-07-29T06:54:31.000Z</time>
      </trkpt>
      <trkpt lat="46.63467" lon="5.61885">
        <ele>527</ele>
        <time>2019-07-29T06:54:41.000Z</time>
      </trkpt>
      <trkpt lat="46.63473" lon="5.61876">
        <ele>536.2</ele>
        <time>2019-07-29T06:54:51.000Z</time>
      </trkpt>
      <trkpt lat="46.63476" lon="5.61866">
        <ele>535</ele>
        <time>2019-07-29T06:55:01.000Z</time>
      </trkpt>
      <trkpt lat="46.6348" lon="5.61858">
        <ele>527</ele>
        <time>2019-07-29T06:55:11.000Z</time>
      </trkpt>
      <trkpt lat="46.63486" lon="5.61849">
        <ele>534.4</ele>
        <time>2019-07-29T06:55:21.000Z</time>
      </trkpt>
      <trkpt lat="46.6352" lon="5.61809">
        <ele>527</ele>
        <time>2019-07-29T06:55:10.000Z</time>
      </trkpt>
      <trkpt lat="46.63529" lon="5.61805">
        <ele>536.2</ele>
        <time>2019-07-29T06:55:20.000Z</time>
      </trkpt>
      <trkpt lat="46.63539" lon="5.61807">
        <ele>526</ele>
        <time>2019-07-29T06:55:30.000Z</time>
      </trkpt>
      <trkpt lat="46.63563" lon="5.61819">
        <ele>526</ele>
        <time>2019-07-29T06:55:33.000Z</time>
      </trkpt>
      <trkpt lat="46.63596" lon="5.61828">
        <ele>531</ele>
        <time>2019-07-29T06:55:49.000Z</time>
      </trkpt>
      <trkpt lat="46.63601" lon="5.61835">
        <ele>532.7</ele>
        <time>2019-07-29T06:55:59.000Z</time>
      </trkpt>
      <trkpt lat="46.63607" lon="5.6184">
        <ele>532.2</ele>
        <time>2019-07-29T06:56:09.000Z</time>
      </trkpt>
      <trkpt lat="46.63615" lon="5.61842">
        <ele>530</ele>
        <time>2019-07-29T06:56:19.000Z</time>
      </trkpt>
      <trkpt lat="46.63623" lon="5.61848">
        <ele>527.1</ele>
        <time>2019-07-29T06:56:29.000Z</time>
      </trkpt>
      <trkpt lat="46.63633" lon="5.61859">
        <ele>529</ele>
        <time>2019-07-29T06:56:39.000Z</time>
      </trkpt>
      <trkpt lat="46.63648" lon="5.61867">
        <ele>527.7</ele>
        <time>2019-07-29T06:56:49.000Z</time>
      </trkpt>
      <trkpt lat="46.63654" lon="5.61872">
        <ele>529</ele>
        <time>2019-07-29T06:56:59.000Z</time>
      </trkpt>
      <trkpt lat="46.63681" lon="5.61867">
        <ele>518</ele>
        <time>2019-07-29T06:56:52.000Z</time>
      </trkpt>
      <trkpt lat="46.63688" lon="5.61868">
        <ele>527.3</ele>
        <time>2019-07-29T06:57:02.000Z</time>
      </trkpt>
      <trkpt lat="46.63694" lon="5.61864">
        <ele>526.6</ele>
        <time>2019-07-29T06:57:12.000Z</time>
      </trkpt>
      <trkpt lat="46.63699" lon="5.61859">
        <ele>518</ele>
        <time>2019-07-29T06:57:22.000Z</time>
      </trkpt>
      <trkpt lat="46.63706" lon="5.61854">
        <ele>522.7</ele>
        <time>2019-07-29T06:57:32.000Z</time>
      </trkpt>
      <trkpt lat="46.63713" lon="5.61852">
        <ele>523.5</ele>
        <time>2019-07-29T06:57:42.000Z</time>
      </trkpt>
      <trkpt lat="46.63724" lon="5.61852">
        <ele>512</ele>
        <time>2019-07-29T06:57:52.000Z</time>
      </trkpt>
      <trkpt lat="46.63733" lon="5.61849">
        <ele>527</ele>
        <time>2019-07-29T06:58:02.000Z</time>
      </trkpt>
      <trkpt lat="46.63742" lon="5.61848">
        <ele>528.4</ele>
        <time>2019-07-29T06:58:12.000Z</time>
      </trkpt>
      <trkpt lat="46.63745" lon="5.61847">
        <ele>506</ele>
        <time>2019-07-29T06:58:22.000Z</time>
      </trkpt>
      <trkpt lat="46.63749" lon="5.61844">
        <ele>528.8</ele>
        <time>2019-07-29T06:58:32.000Z</time>
      </trkpt>
      <trkpt lat="46.63761" lon="5.61841">
        <ele>529.8</ele>
        <time>2019-07-29T06:58:42.000Z</time>
      </trkpt>
      <trkpt lat="46.63764" lon="5.61841">
        <ele>506</ele>
        <time>2019-07-29T06:58:52.000Z</time>
      </trkpt>
      <trkpt lat="46.63775" lon="5.61847">
        <ele>532.2</ele>
        <time>2019-07-29T06:59:02.000Z</time>
      </trkpt>
      <trkpt lat="46.63783" lon="5.61858">
        <ele>529</ele>
        <time>2019-07-29T06:59:22.000Z</time>
      </trkpt>
      <trkpt lat="46.63787" lon="5.61868">
        <ele>529.3</ele>
        <time>2019-07-29T06:59:32.000Z</time>
      </trkpt>
      <trkpt lat="46.63791" lon="5.61881">
        <ele>529</ele>
        <time>2019-07-29T06:59:42.000Z</time>
      </trkpt>
      <trkpt lat="46.63797" lon="5.61893">
        <ele>530</ele>
        <time>2019-07-29T06:59:52.000Z</time>
      </trkpt>
      <trkpt lat="46.63805" lon="5.61898">
        <ele>528.7</ele>
        <time>2019-07-29T07:00:02.000Z</time>
      </trkpt>
      <trkpt lat="46.63814" lon="5.61902">
        <ele>529.6</ele>
        <time>2019-07-29T07:00:12.000Z</time>
      </trkpt>
      <trkpt lat="46.63822" lon="5.619">
        <ele>531</ele>
        <time>2019-07-29T07:00:22.000Z</time>
      </trkpt>
      <trkpt lat="46.6383" lon="5.619">
        <ele>529.7</ele>
        <time>2019-07-29T07:00:32.000Z</time>
      </trkpt>
      <trkpt lat="46.63839" lon="5.61898">
        <ele>530.5</ele>
        <time>2019-07-29T07:00:42.000Z</time>
      </trkpt>
      <trkpt lat="46.63852" lon="5.61893">
        <ele>532</ele>
        <time>2019-07-29T07:00:52.000Z</time>
      </trkpt>
      <trkpt lat="46.63857" lon="5.61892">
        <ele>533.9</ele>
        <time>2019-07-29T07:01:02.000Z</time>
      </trkpt>
      <trkpt lat="46.63882" lon="5.61893">
        <ele>537</ele>
        <time>2019-07-29T07:01:22.000Z</time>
      </trkpt>
      <trkpt lat="46.63895" lon="5.61896">
        <ele>533.7</ele>
        <time>2019-07-29T07:01:32.000Z</time>
      </trkpt>
      <trkpt lat="46.63909" lon="5.61903">
        <ele>537</ele>
        <time>2019-07-29T07:01:52.000Z</time>
      </trkpt>
      <trkpt lat="46.6392" lon="5.61916">
        <ele>533.2</ele>
        <time>2019-07-29T07:02:02.000Z</time>
      </trkpt>
      <trkpt lat="46.63925" lon="5.61923">
        <ele>538</ele>
        <time>2019-07-29T07:02:22.000Z</time>
      </trkpt>
      <trkpt lat="46.63943" lon="5.61952">
        <ele>536</ele>
        <time>2019-07-29T06:59:56.000Z</time>
      </trkpt>
      <trkpt lat="46.63951" lon="5.61955">
        <ele>531.6</ele>
        <time>2019-07-29T07:00:06.000Z</time>
      </trkpt>
      <trkpt lat="46.63959" lon="5.61955">
        <ele>530.8</ele>
        <time>2019-07-29T07:00:16.000Z</time>
      </trkpt>
      <trkpt lat="46.63966" lon="5.61957">
        <ele>536</ele>
        <time>2019-07-29T07:00:26.000Z</time>
      </trkpt>
      <trkpt lat="46.63973" lon="5.61958">
        <ele>529.8</ele>
        <time>2019-07-29T07:00:36.000Z</time>
      </trkpt>
      <trkpt lat="46.63978" lon="5.61961">
        <ele>529.5</ele>
        <time>2019-07-29T07:00:46.000Z</time>
      </trkpt>
      <trkpt lat="46.63984" lon="5.61967">
        <ele>532</ele>
        <time>2019-07-29T07:00:56.000Z</time>
      </trkpt>
      <trkpt lat="46.6399" lon="5.61971">
        <ele>531.8</ele>
        <time>2019-07-29T07:01:06.000Z</time>
      </trkpt>
      <trkpt lat="46.63995" lon="5.61977">
        <ele>532.3</ele>
        <time>2019-07-29T07:01:16.000Z</time>
      </trkpt>
      <trkpt lat="46.64012" lon="5.61988">
        <ele>528</ele>
        <time>2019-07-29T07:01:36.000Z</time>
      </trkpt>
      <trkpt lat="46.64036" lon="5.61991">
        <ele>524</ele>
        <time>2019-07-29T07:01:56.000Z</time>
      </trkpt>
      <trkpt lat="46.64042" lon="5.61991">
        <ele>530.3</ele>
        <time>2019-07-29T07:02:06.000Z</time>
      </trkpt>
      <trkpt lat="46.64051" lon="5.61986">
        <ele>527.2</ele>
        <time>2019-07-29T07:02:16.000Z</time>
      </trkpt>
      <trkpt lat="46.64061" lon="5.61978">
        <ele>519</ele>
        <time>2019-07-29T07:02:26.000Z</time>
      </trkpt>
      <trkpt lat="46.64066" lon="5.61975">
        <ele>526.3</ele>
        <time>2019-07-29T07:02:36.000Z</time>
      </trkpt>
      <trkpt lat="46.64071" lon="5.61968">
        <ele>526.6</ele>
        <time>2019-07-29T07:02:46.000Z</time>
      </trkpt>
      <trkpt lat="46.6408" lon="5.61948">
        <ele>515</ele>
        <time>2019-07-29T07:01:46.000Z</time>
      </trkpt>
      <trkpt lat="46.64082" lon="5.6194">
        <ele>533.5</ele>
        <time>2019-07-29T07:01:56.000Z</time>
      </trkpt>
      <trkpt lat="46.64086" lon="5.61914">
        <ele>519</ele>
        <time>2019-07-29T07:02:06.000Z</time>
      </trkpt>
      <trkpt lat="46.64088" lon="5.61904">
        <ele>522.4</ele>
        <time>2019-07-29T07:02:16.000Z</time>
      </trkpt>
      <trkpt lat="46.64092" lon="5.61895">
        <ele>517</ele>
        <time>2019-07-29T07:02:26.000Z</time>
      </trkpt>
      <trkpt lat="46.64115" lon="5.6186">
        <ele>524</ele>
        <time>2019-07-29T07:02:21.000Z</time>
      </trkpt>
      <trkpt lat="46.64129" lon="5.61843">
        <ele>530.5</ele>
        <time>2019-07-29T07:02:31.000Z</time>
      </trkpt>
      <trkpt lat="46.64137" lon="5.61829">
        <ele>529</ele>
        <time>2019-07-29T07:02:41.000Z</time>
      </trkpt>
      <trkpt lat="46.64142" lon="5.61818">
        <ele>534</ele>
        <time>2019-07-29T07:02:51.000Z</time>
      </trkpt>
      <trkpt lat="46.64147" lon="5.61804">
        <ele>534</ele>
        <time>2019-07-29T07:03:01.000Z</time>
      </trkpt>
      <trkpt lat="46.64147" lon="5.61797">
        <ele>533.5</ele>
        <time>2019-07-29T07:03:11.000Z</time>
      </trkpt>
      <trkpt lat="46.64148" lon="5.61787">
        <ele>533.1</ele>
        <time>2019-07-29T07:03:21.000Z</time>
      </trkpt>
      <trkpt lat="46.6414" lon="5.61775">
        <ele>538</ele>
        <time>2019-07-29T07:03:31.000Z</time>
      </trkpt>
      <trkpt lat="46.64131" lon="5.61767">
        <ele>531.4</ele>
        <time>2019-07-29T07:03:41.000Z</time>
      </trkpt>
      <trkpt lat="46.64122" lon="5.61756">
        <ele>539</ele>
        <time>2019-07-29T07:03:51.000Z</time>
      </trkpt>
      <trkpt lat="46.64106" lon="5.61719">
        <ele>547</ele>
        <time>2019-07-29T07:03:15.000Z</time>
      </trkpt>
      <trkpt lat="46.64091" lon="5.6169">
        <ele>548</ele>
        <time>2019-07-29T07:03:25.000Z</time>
      </trkpt>
      <trkpt lat="46.64079" lon="5.61672">
        <ele>524.8</ele>
        <time>2019-07-29T07:03:35.000Z</time>
      </trkpt>
      <trkpt lat="46.64074" lon="5.6166">
        <ele>548</ele>
        <time>2019-07-29T07:03:45.000Z</time>
      </trkpt>
      <trkpt lat="46.64057" lon="5.61635">
        <ele>547</ele>
        <time>2019-07-29T07:03:55.000Z</time>
      </trkpt>
      <trkpt lat="46.6405" lon="5.61628">
        <ele>517.6</ele>
        <time>2019-07-29T07:04:05.000Z</time>
      </trkpt>
      <trkpt lat="46.64031" lon="5.61615">
        <ele>546</ele>
        <time>2019-07-29T07:04:15.000Z</time>
      </trkpt>
      <trkpt lat="46.64014" lon="5.616">
        <ele>537</ele>
        <time>2019-07-29T07:04:25.000Z</time>
      </trkpt>
      <trkpt lat="46.64006" lon="5.61591">
        <ele>510</ele>
        <time>2019-07-29T07:04:35.000Z</time>
      </trkpt>
      <trkpt lat="46.63996" lon="5.61585">
        <ele>537</ele>
        <time>2019-07-29T07:04:45.000Z</time>
      </trkpt>
      <trkpt lat="46.63971" lon="5.61566">
        <ele>538</ele>
        <time>2019-07-29T07:04:34.000Z</time>
      </trkpt>
      <trkpt lat="46.63963" lon="5.61561">
        <ele>504.6</ele>
        <time>2019-07-29T07:04:44.000Z</time>
      </trkpt>
      <trkpt lat="46.63949" lon="5.61549">
        <ele>529</ele>
        <time>2019-07-29T07:04:43.000Z</time>
      </trkpt>
      <trkpt lat="46.63942" lon="5.61542">
        <ele>507.7</ele>
        <time>2019-07-29T07:04:53.000Z</time>
      </trkpt>
      <trkpt lat="46.63928" lon="5.61532">
        <ele>533</ele>
        <time>2019-07-29T07:05:03.000Z</time>
      </trkpt>
      <trkpt lat="46.63916" lon="5.61522">
        <ele>509.6</ele>
        <time>2019-07-29T07:05:13.000Z</time>
      </trkpt>
      <trkpt lat="46.63897" lon="5.61509">
        <ele>538</ele>
        <time>2019-07-29T07:05:23.000Z</time>
      </trkpt>
      <trkpt lat="46.63881" lon="5.61493">
        <ele>538</ele>
        <time>2019-07-29T07:05:33.000Z</time>
      </trkpt>
      <trkpt lat="46.63869" lon="5.61483">
        <ele>511.2</ele>
        <time>2019-07-29T07:05:43.000Z</time>
      </trkpt>
      <trkpt lat="46.63861" lon="5.61477">
        <ele>538</ele>
        <time>2019-07-29T07:05:53.000Z</time>
      </trkpt>
      <trkpt lat="46.63853" lon="5.61472">
        <ele>508.9</ele>
        <time>2019-07-29T07:06:03.000Z</time>
      </trkpt>
      <trkpt lat="46.63842" lon="5.61469">
        <ele>535</ele>
        <time>2019-07-29T07:06:13.000Z</time>
      </trkpt>
      <trkpt lat="46.63831" lon="5.61455">
        <ele>503.3</ele>
        <time>2019-07-29T07:06:23.000Z</time>
      </trkpt>
      <trkpt lat="46.6383" lon="5.61452">
        <ele>504.2</ele>
        <time>2019-07-29T07:06:33.000Z</time>
      </trkpt>
      <trkpt lat="46.63825" lon="5.61443">
        <ele>537</ele>
        <time>2019-07-29T07:06:43.000Z</time>
      </trkpt>
      <trkpt lat="46.63823" lon="5.61428">
        <ele>508.3</ele>
        <time>2019-07-29T07:06:53.000Z</time>
      </trkpt>
      <trkpt lat="46.63809" lon="5.614">
        <ele>537</ele>
        <time>2019-07-29T07:05:47.000Z</time>
      </trkpt>
      <trkpt lat="46.63798" lon="5.61376">
        <ele>537</ele>
        <time>2019-07-29T07:05:57.000Z</time>
      </trkpt>
      <trkpt lat="46.63785" lon="5.61352">
        <ele>537</ele>
        <time>2019-07-29T07:06:17.000Z</time>
      </trkpt>
      <trkpt lat="46.63777" lon="5.61341">
        <ele>508.5</ele>
        <time>2019-07-29T07:06:27.000Z</time>
      </trkpt>
      <trkpt lat="46.63769" lon="5.61334">
        <ele>537</ele>
        <time>2019-07-29T07:06:16.000Z</time>
      </trkpt>
      <trkpt lat="46.6376" lon="5.61336">
        <ele>506.8</ele>
        <time>2019-07-29T07:06:26.000Z</time>
      </trkpt>
      <trkpt lat="46.63751" lon="5.61329">
        <ele>537</ele>
        <time>2019-07-29T07:06:36.000Z</time>
      </trkpt>
      <trkpt lat="46.63746" lon="5.61317">
        <ele>511.6</ele>
        <time>2019-07-29T07:06:46.000Z</time>
      </trkpt>
      <trkpt lat="46.63737" lon="5.61308">
        <ele>538</ele>
        <time>2019-07-29T07:06:56.000Z</time>
      </trkpt>
      <trkpt lat="46.63732" lon="5.61295">
        <ele>517.8</ele>
        <time>2019-07-29T07:07:06.000Z</time>
      </trkpt>
      <trkpt lat="46.63724" lon="5.6129">
        <ele>540</ele>
        <time>2019-07-29T07:07:11.000Z</time>
      </trkpt>
      <trkpt lat="46.63718" lon="5.61281">
        <ele>518.4</ele>
        <time>2019-07-29T07:07:21.000Z</time>
      </trkpt>
      <trkpt lat="46.63713" lon="5.61272">
        <ele>518.1</ele>
        <time>2019-07-29T07:07:31.000Z</time>
      </trkpt>
      <trkpt lat="46.63714" lon="5.61262">
        <ele>544</ele>
        <time>2019-07-29T07:07:41.000Z</time>
      </trkpt>
      <trkpt lat="46.63723" lon="5.61255">
        <ele>529</ele>
        <time>2019-07-29T07:07:51.000Z</time>
      </trkpt>
      <trkpt lat="46.63731" lon="5.61262">
        <ele>544</ele>
        <time>2019-07-29T07:08:01.000Z</time>
      </trkpt>
      <trkpt lat="46.6374" lon="5.61256">
        <ele>534.4</ele>
        <time>2019-07-29T07:08:11.000Z</time>
      </trkpt>
      <trkpt lat="46.63742" lon="5.61242">
        <ele>542</ele>
        <time>2019-07-29T07:08:21.000Z</time>
      </trkpt>
      <trkpt lat="46.63741" lon="5.61227">
        <ele>537.3</ele>
        <time>2019-07-29T07:08:31.000Z</time>
      </trkpt>
      <trkpt lat="46.63737" lon="5.61198">
        <ele>540</ele>
        <time>2019-07-29T07:09:11.000Z</time>
      </trkpt>
      <trkpt lat="46.63738" lon="5.61188">
        <ele>536.6</ele>
        <time>2019-07-29T07:09:21.000Z</time>
      </trkpt>
      <trkpt lat="46.63736" lon="5.61175">
        <ele>534.7</ele>
        <time>2019-07-29T07:09:31.000Z</time>
      </trkpt>
      <trkpt lat="46.63738" lon="5.61162">
        <ele>538</ele>
        <time>2019-07-29T07:09:41.000Z</time>
      </trkpt>
      <trkpt lat="46.6374" lon="5.61131">
        <ele>538</ele>
        <time>2019-07-29T07:10:01.000Z</time>
      </trkpt>
      <trkpt lat="46.63739" lon="5.61116">
        <ele>535.8</ele>
        <time>2019-07-29T07:10:11.000Z</time>
      </trkpt>
      <trkpt lat="46.6373" lon="5.61087">
        <ele>543</ele>
        <time>2019-07-29T07:10:21.000Z</time>
      </trkpt>
      <trkpt lat="46.63726" lon="5.6107">
        <ele>533.8</ele>
        <time>2019-07-29T07:10:31.000Z</time>
      </trkpt>
      <trkpt lat="46.63722" lon="5.6104">
        <ele>546</ele>
        <time>2019-07-29T07:10:51.000Z</time>
      </trkpt>
      <trkpt lat="46.63717" lon="5.61026">
        <ele>535.6</ele>
        <time>2019-07-29T07:11:01.000Z</time>
      </trkpt>
      <trkpt lat="46.63713" lon="5.61011">
        <ele>546</ele>
        <time>2019-07-29T07:11:11.000Z</time>
      </trkpt>
      <trkpt lat="46.6371" lon="5.60986">
        <ele>536.1</ele>
        <time>2019-07-29T07:11:21.000Z</time>
      </trkpt>
      <trkpt lat="46.6371" lon="5.60975">
        <ele>546</ele>
        <time>2019-07-29T07:11:41.000Z</time>
      </trkpt>
      <trkpt lat="46.63722" lon="5.6095">
        <ele>545</ele>
        <time>2019-07-29T07:11:51.000Z</time>
      </trkpt>
      <trkpt lat="46.63729" lon="5.60938">
        <ele>536.7</ele>
        <time>2019-07-29T07:12:01.000Z</time>
      </trkpt>
      <trkpt lat="46.63737" lon="5.6093">
        <ele>544</ele>
        <time>2019-07-29T07:12:11.000Z</time>
      </trkpt>
      <trkpt lat="46.63755" lon="5.60909">
        <ele>544</ele>
        <time>2019-07-29T07:11:54.000Z</time>
      </trkpt>
      <trkpt lat="46.63771" lon="5.60895">
        <ele>541</ele>
        <time>2019-07-29T07:12:04.000Z</time>
      </trkpt>
      <trkpt lat="46.63797" lon="5.60878">
        <ele>533</ele>
        <time>2019-07-29T07:12:24.000Z</time>
      </trkpt>
      <trkpt lat="46.63819" lon="5.60867">
        <ele>533</ele>
        <time>2019-07-29T07:12:34.000Z</time>
      </trkpt>
      <trkpt lat="46.63842" lon="5.6086">
        <ele>535</ele>
        <time>2019-07-29T07:12:54.000Z</time>
      </trkpt>
      <trkpt lat="46.63861" lon="5.60847">
        <ele>538</ele>
        <time>2019-07-29T07:13:04.000Z</time>
      </trkpt>
      <trkpt lat="46.63882" lon="5.6084">
        <ele>540</ele>
        <time>2019-07-29T07:13:14.000Z</time>
      </trkpt>
      <trkpt lat="46.63904" lon="5.60834">
        <ele>540</ele>
        <time>2019-07-29T07:13:16.000Z</time>
      </trkpt>
      <trkpt lat="46.63917" lon="5.60835">
        <ele>538.3</ele>
        <time>2019-07-29T07:13:26.000Z</time>
      </trkpt>
      <trkpt lat="46.63942" lon="5.60831">
        <ele>543</ele>
        <time>2019-07-29T07:13:36.000Z</time>
      </trkpt>
      <trkpt lat="46.63949" lon="5.60829">
        <ele>539.1</ele>
        <time>2019-07-29T07:13:46.000Z</time>
      </trkpt>
      <trkpt lat="46.6396" lon="5.60824">
        <ele>543</ele>
        <time>2019-07-29T07:13:56.000Z</time>
      </trkpt>
      <trkpt lat="46.63986" lon="5.60818">
        <ele>544</ele>
        <time>2019-07-29T07:14:06.000Z</time>
      </trkpt>
      <trkpt lat="46.64018" lon="5.6081">
        <ele>544</ele>
        <time>2019-07-29T07:14:08.000Z</time>
      </trkpt>
      <trkpt lat="46.64038" lon="5.60803">
        <ele>544</ele>
        <time>2019-07-29T07:14:18.000Z</time>
      </trkpt>
      <trkpt lat="46.64074" lon="5.60805">
        <ele>531</ele>
        <time>2019-07-29T07:14:32.000Z</time>
      </trkpt>
      <trkpt lat="46.64085" lon="5.60804">
        <ele>530.5</ele>
        <time>2019-07-29T07:14:42.000Z</time>
      </trkpt>
      <trkpt lat="46.64106" lon="5.608">
        <ele>530</ele>
        <time>2019-07-29T07:14:44.000Z</time>
      </trkpt>
      <trkpt lat="46.64143" lon="5.60801">
        <ele>530</ele>
        <time>2019-07-29T07:14:59.000Z</time>
      </trkpt>
      <trkpt lat="46.64163" lon="5.608">
        <ele>528</ele>
        <time>2019-07-29T07:15:09.000Z</time>
      </trkpt>
      <trkpt lat="46.64196" lon="5.608">
        <ele>526</ele>
        <time>2019-07-29T07:15:19.000Z</time>
      </trkpt>
      <trkpt lat="46.64207" lon="5.60799">
        <ele>524</ele>
        <time>2019-07-29T07:15:29.000Z</time>
      </trkpt>
      <trkpt lat="46.6424" lon="5.60799">
        <ele>526</ele>
        <time>2019-07-29T07:15:36.000Z</time>
      </trkpt>
      <trkpt lat="46.64262" lon="5.60798">
        <ele>527</ele>
        <time>2019-07-29T07:15:46.000Z</time>
      </trkpt>
      <trkpt lat="46.64278" lon="5.60801">
        <ele>520.4</ele>
        <time>2019-07-29T07:15:56.000Z</time>
      </trkpt>
      <trkpt lat="46.6429" lon="5.60801">
        <ele>525</ele>
        <time>2019-07-29T07:16:06.000Z</time>
      </trkpt>
      <trkpt lat="46.64305" lon="5.608">
        <ele>521</ele>
        <time>2019-07-29T07:16:16.000Z</time>
      </trkpt>
      <trkpt lat="46.64336" lon="5.60794">
        <ele>523</ele>
        <time>2019-07-29T07:16:36.000Z</time>
      </trkpt>
      <trkpt lat="46.64359" lon="5.60793">
        <ele>524</ele>
        <time>2019-07-29T07:16:46.000Z</time>
      </trkpt>
      <trkpt lat="46.64391" lon="5.60793">
        <ele>524</ele>
        <time>2019-07-29T07:16:47.000Z</time>
      </trkpt>
      <trkpt lat="46.64414" lon="5.60789">
        <ele>525</ele>
        <time>2019-07-29T07:16:57.000Z</time>
      </trkpt>
      <trkpt lat="46.64436" lon="5.60788">
        <ele>525</ele>
        <time>2019-07-29T07:17:07.000Z</time>
      </trkpt>
      <trkpt lat="46.64457" lon="5.60793">
        <ele>526</ele>
        <time>2019-07-29T07:17:27.000Z</time>
      </trkpt>
      <trkpt lat="46.64477" lon="5.60803">
        <ele>528</ele>
        <time>2019-07-29T07:17:26.000Z</time>
      </trkpt>
      <trkpt lat="46.64509" lon="5.60814">
        <ele>527</ele>
        <time>2019-07-29T07:17:46.000Z</time>
      </trkpt>
      <trkpt lat="46.6452" lon="5.60819">
        <ele>516.8</ele>
        <time>2019-07-29T07:17:56.000Z</time>
      </trkpt>
      <trkpt lat="46.64531" lon="5.60827">
        <ele>527</ele>
        <time>2019-07-29T07:18:06.000Z</time>
      </trkpt>
      <trkpt lat="46.64551" lon="5.60844">
        <ele>523</ele>
        <time>2019-07-29T07:18:02.000Z</time>
      </trkpt>
      <trkpt lat="46.64571" lon="5.60863">
        <ele>523</ele>
        <time>2019-07-29T07:18:12.000Z</time>
      </trkpt>
      <trkpt lat="46.64589" lon="5.60886">
        <ele>523</ele>
        <time>2019-07-29T07:18:16.000Z</time>
      </trkpt>
      <trkpt lat="46.64596" lon="5.60896">
        <ele>519.1</ele>
        <time>2019-07-29T07:18:26.000Z</time>
      </trkpt>
      <trkpt lat="46.64599" lon="5.60911">
        <ele>523</ele>
        <time>2019-07-29T07:18:36.000Z</time>
      </trkpt>
      <trkpt lat="46.64608" lon="5.60919">
        <ele>517.5</ele>
        <time>2019-07-29T07:18:46.000Z</time>
      </trkpt>
      <trkpt lat="46.64639" lon="5.60934">
        <ele>522</ele>
        <time>2019-07-29T07:18:48.000Z</time>
      </trkpt>
      <trkpt lat="46.64649" lon="5.6094">
        <ele>509.5</ele>
        <time>2019-07-29T07:18:58.000Z</time>
      </trkpt>
      <trkpt lat="46.64661" lon="5.60945">
        <ele>522</ele>
        <time>2019-07-29T07:19:08.000Z</time>
      </trkpt>
      <trkpt lat="46.64671" lon="5.60948">
        <ele>506.7</ele>
        <time>2019-07-29T07:19:18.000Z</time>
      </trkpt>
      <trkpt lat="46.64682" lon="5.60948">
        <ele>522</ele>
        <time>2019-07-29T07:19:28.000Z</time>
      </trkpt>
      <trkpt lat="46.64684" lon="5.60947">
        <ele>507.1</ele>
        <time>2019-07-29T07:19:38.000Z</time>
      </trkpt>
      <trkpt lat="46.64692" lon="5.60942">
        <ele>506</ele>
        <time>2019-07-29T07:19:48.000Z</time>
      </trkpt>
      <trkpt lat="46.647" lon="5.6093">
        <ele>510</ele>
        <time>2019-07-29T07:19:58.000Z</time>
      </trkpt>
      <trkpt lat="46.64706" lon="5.60916">
        <ele>500.9</ele>
        <time>2019-07-29T07:20:08.000Z</time>
      </trkpt>
      <trkpt lat="46.64727" lon="5.60879">
        <ele>496</ele>
        <time>2019-07-29T07:19:39.000Z</time>
      </trkpt>
      <trkpt lat="46.64738" lon="5.60852">
        <ele>496</ele>
        <time>2019-07-29T07:19:48.000Z</time>
      </trkpt>
      <trkpt lat="46.64739" lon="5.60837">
        <ele>493</ele>
        <time>2019-07-29T07:19:58.000Z</time>
      </trkpt>
      <trkpt lat="46.64742" lon="5.60822">
        <ele>489</ele>
        <time>2019-07-29T07:20:08.000Z</time>
      </trkpt>
      <trkpt lat="46.64746" lon="5.6081">
        <ele>489.2</ele>
        <time>2019-07-29T07:20:18.000Z</time>
      </trkpt>
      <trkpt lat="46.64749" lon="5.60796">
        <ele>482</ele>
        <time>2019-07-29T07:20:28.000Z</time>
      </trkpt>
      <trkpt lat="46.64761" lon="5.60773">
        <ele>482</ele>
        <time>2019-07-29T07:20:19.000Z</time>
      </trkpt>
      <trkpt lat="46.64753" lon="5.60784">
        <ele>484.4</ele>
        <time>2019-07-29T07:20:29.000Z</time>
      </trkpt>
      <trkpt lat="46.64749" lon="5.608">
        <ele>482</ele>
        <time>2019-07-29T07:20:39.000Z</time>
      </trkpt>
      <trkpt lat="46.64743" lon="5.60814">
        <ele>488.9</ele>
        <time>2019-07-29T07:20:49.000Z</time>
      </trkpt>
      <trkpt lat="46.6474" lon="5.60843">
        <ele>488</ele>
        <time>2019-07-29T07:20:59.000Z</time>
      </trkpt>
      <trkpt lat="46.64733" lon="5.60854">
        <ele>495.5</ele>
        <time>2019-07-29T07:21:09.000Z</time>
      </trkpt>
      <trkpt lat="46.64721" lon="5.60858">
        <ele>491</ele>
        <time>2019-07-29T07:21:19.000Z</time>
      </trkpt>
      <trkpt lat="46.6471" lon="5.60856">
        <ele>483.9</ele>
        <time>2019-07-29T07:21:29.000Z</time>
      </trkpt>
      <trkpt lat="46.64701" lon="5.60852">
        <ele>489</ele>
        <time>2019-07-29T07:21:39.000Z</time>
      </trkpt>
      <trkpt lat="46.64695" lon="5.60839">
        <ele>470</ele>
        <time>2019-07-29T07:21:49.000Z</time>
      </trkpt>
      <trkpt lat="46.64695" lon="5.60825">
        <ele>488</ele>
        <time>2019-07-29T07:22:09.000Z</time>
      </trkpt>
      <trkpt lat="46.64686" lon="5.60821">
        <ele>469.5</ele>
        <time>2019-07-29T07:22:19.000Z</time>
      </trkpt>
      <trkpt lat="46.6468" lon="5.60761">
        <ele>454</ele>
        <time>2019-07-29T07:23:29.000Z</time>
      </trkpt>
      <trkpt lat="46.64677" lon="5.60702">
        <ele>444</ele>
        <time>2019-07-29T07:23:30.000Z</time>
      </trkpt>
      <trkpt lat="46.64686" lon="5.60702">
        <ele>435.3</ele>
        <time>2019-07-29T07:23:40.000Z</time>
      </trkpt>
      <trkpt lat="46.64693" lon="5.60689">
        <ele>435</ele>
        <time>2019-07-29T07:23:50.000Z</time>
      </trkpt>
      <trkpt lat="46.64698" lon="5.60676">
        <ele>429.8</ele>
        <time>2019-07-29T07:24:00.000Z</time>
      </trkpt>
      <trkpt lat="46.647" lon="5.60661">
        <ele>435</ele>
        <time>2019-07-29T07:24:10.000Z</time>
      </trkpt>
      <trkpt lat="46.64707" lon="5.60645">
        <ele>423.8</ele>
        <time>2019-07-29T07:24:20.000Z</time>
      </trkpt>
      <trkpt lat="46.64711" lon="5.60637">
        <ele>432</ele>
        <time>2019-07-29T07:24:30.000Z</time>
      </trkpt>
      <trkpt lat="46.64731" lon="5.60606">
        <ele>430</ele>
        <time>2019-07-29T07:24:57.000Z</time>
      </trkpt>
      <trkpt lat="46.6474" lon="5.60595">
        <ele>415.2</ele>
        <time>2019-07-29T07:25:07.000Z</time>
      </trkpt>
      <trkpt lat="46.64749" lon="5.6059">
        <ele>423</ele>
        <time>2019-07-29T07:25:17.000Z</time>
      </trkpt>
      <trkpt lat="46.64758" lon="5.60588">
        <ele>413.9</ele>
        <time>2019-07-29T07:25:27.000Z</time>
      </trkpt>
      <trkpt lat="46.64764" lon="5.60579">
        <ele>411.2</ele>
        <time>2019-07-29T07:25:37.000Z</time>
      </trkpt>
      <trkpt lat="46.64783" lon="5.60545">
        <ele>413</ele>
        <time>2019-07-29T07:25:57.000Z</time>
      </trkpt>
      <trkpt lat="46.64793" lon="5.60538">
        <ele>399.3</ele>
        <time>2019-07-29T07:26:07.000Z</time>
      </trkpt>
      <trkpt lat="46.64802" lon="5.60533">
        <ele>403</ele>
        <time>2019-07-29T07:26:17.000Z</time>
      </trkpt>
      <trkpt lat="46.64811" lon="5.60527">
        <ele>396.8</ele>
        <time>2019-07-29T07:26:27.000Z</time>
      </trkpt>
      <trkpt lat="46.64831" lon="5.60509">
        <ele>403</ele>
        <time>2019-07-29T07:26:10.000Z</time>
      </trkpt>
      <trkpt lat="46.64852" lon="5.60492">
        <ele>403</ele>
        <time>2019-07-29T07:26:20.000Z</time>
      </trkpt>
      <trkpt lat="46.64862" lon="5.60488">
        <ele>388.3</ele>
        <time>2019-07-29T07:26:30.000Z</time>
      </trkpt>
      <trkpt lat="46.64872" lon="5.60481">
        <ele>388</ele>
        <time>2019-07-29T07:26:40.000Z</time>
      </trkpt>
      <trkpt lat="46.64906" lon="5.6047">
        <ele>388</ele>
        <time>2019-07-29T07:26:43.000Z</time>
      </trkpt>
      <trkpt lat="46.64916" lon="5.60462">
        <ele>385.9</ele>
        <time>2019-07-29T07:26:53.000Z</time>
      </trkpt>
      <trkpt lat="46.64925" lon="5.60457">
        <ele>383</ele>
        <time>2019-07-29T07:27:03.000Z</time>
      </trkpt>
      <trkpt lat="46.64946" lon="5.60451">
        <ele>379</ele>
        <time>2019-07-29T07:27:02.000Z</time>
      </trkpt>
      <trkpt lat="46.64955" lon="5.60442">
        <ele>380.9</ele>
        <time>2019-07-29T07:27:12.000Z</time>
      </trkpt>
      <trkpt lat="46.64974" lon="5.6043">
        <ele>382</ele>
        <time>2019-07-29T07:27:32.000Z</time>
      </trkpt>
      <trkpt lat="46.65004" lon="5.60417">
        <ele>386</ele>
        <time>2019-07-29T07:27:31.000Z</time>
      </trkpt>
      <trkpt lat="46.65014" lon="5.60412">
        <ele>380.3</ele>
        <time>2019-07-29T07:27:41.000Z</time>
      </trkpt>
      <trkpt lat="46.65025" lon="5.60405">
        <ele>387</ele>
        <time>2019-07-29T07:27:51.000Z</time>
      </trkpt>
      <trkpt lat="46.65047" lon="5.60396">
        <ele>387</ele>
        <time>2019-07-29T07:27:51.000Z</time>
      </trkpt>
      <trkpt lat="46.65056" lon="5.60391">
        <ele>376.9</ele>
        <time>2019-07-29T07:28:01.000Z</time>
      </trkpt>
      <trkpt lat="46.65083" lon="5.60369">
        <ele>388</ele>
        <time>2019-07-29T07:28:31.000Z</time>
      </trkpt>
      <trkpt lat="46.65092" lon="5.60364">
        <ele>373.6</ele>
        <time>2019-07-29T07:28:41.000Z</time>
      </trkpt>
      <trkpt lat="46.65109" lon="5.60351">
        <ele>385</ele>
        <time>2019-07-29T07:28:18.000Z</time>
      </trkpt>
      <trkpt lat="46.6513" lon="5.60338">
        <ele>384</ele>
        <time>2019-07-29T07:28:28.000Z</time>
      </trkpt>
      <trkpt lat="46.65139" lon="5.60331">
        <ele>369.5</ele>
        <time>2019-07-29T07:28:38.000Z</time>
      </trkpt>
      <trkpt lat="46.65148" lon="5.60323">
        <ele>384</ele>
        <time>2019-07-29T07:28:48.000Z</time>
      </trkpt>
      <trkpt lat="46.65162" lon="5.60305">
        <ele>381</ele>
        <time>2019-07-29T07:29:08.000Z</time>
      </trkpt>
      <trkpt lat="46.65164" lon="5.60292">
        <ele>363.2</ele>
        <time>2019-07-29T07:29:18.000Z</time>
      </trkpt>
      <trkpt lat="46.65168" lon="5.60277">
        <ele>366</ele>
        <time>2019-07-29T07:29:28.000Z</time>
      </trkpt>
      <trkpt lat="46.65175" lon="5.60268">
        <ele>358</ele>
        <time>2019-07-29T07:29:38.000Z</time>
      </trkpt>
      <trkpt lat="46.65194" lon="5.60248">
        <ele>362</ele>
        <time>2019-07-29T07:29:48.000Z</time>
      </trkpt>
      <trkpt lat="46.65202" lon="5.60237">
        <ele>353.3</ele>
        <time>2019-07-29T07:29:58.000Z</time>
      </trkpt>
      <trkpt lat="46.65208" lon="5.60224">
        <ele>347</ele>
        <time>2019-07-29T07:30:08.000Z</time>
      </trkpt>
      <trkpt lat="46.65219" lon="5.60196">
        <ele>336</ele>
        <time>2019-07-29T07:30:28.000Z</time>
      </trkpt>
      <trkpt lat="46.65221" lon="5.60193">
        <ele>344.7</ele>
        <time>2019-07-29T07:30:38.000Z</time>
      </trkpt>
      <trkpt lat="46.65246" lon="5.60166">
        <ele>331</ele>
        <time>2019-07-29T07:31:08.000Z</time>
      </trkpt>
      <trkpt lat="46.65266" lon="5.6015">
        <ele>328</ele>
        <time>2019-07-29T07:29:55.000Z</time>
      </trkpt>
      <trkpt lat="46.65274" lon="5.60141">
        <ele>335.7</ele>
        <time>2019-07-29T07:30:05.000Z</time>
      </trkpt>
      <trkpt lat="46.65282" lon="5.60128">
        <ele>325</ele>
        <time>2019-07-29T07:30:15.000Z</time>
      </trkpt>
      <trkpt lat="46.65288" lon="5.60121">
        <ele>332.7</ele>
        <time>2019-07-29T07:30:25.000Z</time>
      </trkpt>
      <trkpt lat="46.65298" lon="5.60113">
        <ele>325</ele>
        <time>2019-07-29T07:30:35.000Z</time>
      </trkpt>
      <trkpt lat="46.65308" lon="5.60113">
        <ele>329.9</ele>
        <time>2019-07-29T07:30:45.000Z</time>
      </trkpt>
      <trkpt lat="46.65317" lon="5.60119">
        <ele>320</ele>
        <time>2019-07-29T07:30:55.000Z</time>
      </trkpt>
      <trkpt lat="46.65337" lon="5.60125">
        <ele>320</ele>
        <time>2019-07-29T07:31:05.000Z</time>
      </trkpt>
      <trkpt lat="46.65347" lon="5.60125">
        <ele>325.8</ele>
        <time>2019-07-29T07:31:15.000Z</time>
      </trkpt>
      <trkpt lat="46.65357" lon="5.60127">
        <ele>321</ele>
        <time>2019-07-29T07:31:25.000Z</time>
      </trkpt>
      <trkpt lat="46.65364" lon="5.60139">
        <ele>324.9</ele>
        <time>2019-07-29T07:31:35.000Z</time>
      </trkpt>
      <trkpt lat="46.65378" lon="5.60175">
        <ele>323</ele>
        <time>2019-07-29T07:31:21.000Z</time>
      </trkpt>
      <trkpt lat="46.65387" lon="5.60196">
        <ele>328.4</ele>
        <time>2019-07-29T07:31:31.000Z</time>
      </trkpt>
      <trkpt lat="46.65393" lon="5.60205">
        <ele>323</ele>
        <time>2019-07-29T07:31:41.000Z</time>
      </trkpt>
      <trkpt lat="46.65419" lon="5.60237">
        <ele>324</ele>
        <time>2019-07-29T07:32:11.000Z</time>
      </trkpt>
      <trkpt lat="46.65431" lon="5.60245">
        <ele>330</ele>
        <time>2019-07-29T07:32:21.000Z</time>
      </trkpt>
      <trkpt lat="46.65453" lon="5.60271">
        <ele>332</ele>
        <time>2019-07-29T07:32:31.000Z</time>
      </trkpt>
      <trkpt lat="46.65474" lon="5.60305">
        <ele>332</ele>
        <time>2019-07-29T07:32:41.000Z</time>
      </trkpt>
      <trkpt lat="46.6549" lon="5.60351">
        <ele>332</ele>
        <time>2019-07-29T07:32:51.000Z</time>
      </trkpt>
      <trkpt lat="46.65511" lon="5.604">
        <ele>335</ele>
        <time>2019-07-29T07:33:01.000Z</time>
      </trkpt>
      <trkpt lat="46.65524" lon="5.60434">
        <ele>337</ele>
        <time>2019-07-29T07:33:11.000Z</time>
      </trkpt>
      <trkpt lat="46.6554" lon="5.60477">
        <ele>336</ele>
        <time>2019-07-29T07:33:21.000Z</time>
      </trkpt>
      <trkpt lat="46.65558" lon="5.60499">
        <ele>337</ele>
        <time>2019-07-29T07:33:31.000Z</time>
      </trkpt>
      <trkpt lat="46.65576" lon="5.60522">
        <ele>338</ele>
        <time>2019-07-29T07:33:41.000Z</time>
      </trkpt>
      <trkpt lat="46.65587" lon="5.6054">
        <ele>338.1</ele>
        <time>2019-07-29T07:33:51.000Z</time>
      </trkpt>
      <trkpt lat="46.65601" lon="5.60586">
        <ele>343</ele>
        <time>2019-07-29T07:34:01.000Z</time>
      </trkpt>
      <trkpt lat="46.65612" lon="5.60621">
        <ele>342</ele>
        <time>2019-07-29T07:34:11.000Z</time>
      </trkpt>
      <trkpt lat="46.6562" lon="5.60641">
        <ele>346.6</ele>
        <time>2019-07-29T07:34:21.000Z</time>
        <extensions>
          <visugpx:TrkExtension xmlns:visugpx="https://www.visugpx.com/editgpx/">
            <visugpx:node>4</visugpx:node>
            </visugpx:TrkExtension>
        </extensions>
      </trkpt>
      <trkpt lat="46.65613" lon="5.6066">
        <ele>348.5</ele>
      </trkpt>
      <trkpt lat="46.65609" lon="5.60682">
        <ele>350.9</ele>
      </trkpt>
      <trkpt lat="46.65604" lon="5.60703">
        <ele>353.9</ele>
      </trkpt>
      <trkpt lat="46.65599" lon="5.60723">
        <ele>356.9</ele>
      </trkpt>
      <trkpt lat="46.65593" lon="5.60745">
        <ele>359.2</ele>
      </trkpt>
      <trkpt lat="46.65588" lon="5.60769">
        <ele>359.4</ele>
      </trkpt>
      <trkpt lat="46.65584" lon="5.60789">
        <ele>361.6</ele>
      </trkpt>
      <trkpt lat="46.65578" lon="5.60811">
        <ele>364.2</ele>
      </trkpt>
      <trkpt lat="46.65581" lon="5.60818">
        <ele>363.9</ele>
      </trkpt>
      <trkpt lat="46.65579" lon="5.60867">
        <ele>370.5</ele>
      </trkpt>
      <trkpt lat="46.65578" lon="5.60924">
        <ele>379.1</ele>
      </trkpt>
      <trkpt lat="46.65567" lon="5.60988">
        <ele>386.1</ele>
      </trkpt>
      <trkpt lat="46.65547" lon="5.61039">
        <ele>393.1</ele>
      </trkpt>
      <trkpt lat="46.6552" lon="5.61122">
        <ele>406.4</ele>
      </trkpt>
      <trkpt lat="46.6551" lon="5.6118">
        <ele>417.5</ele>
      </trkpt>
      <trkpt lat="46.65512" lon="5.61216">
        <ele>425.2</ele>
      </trkpt>
      <trkpt lat="46.65524" lon="5.61236">
        <ele>432.5</ele>
      </trkpt>
      <trkpt lat="46.65522" lon="5.6127">
        <ele>440.1</ele>
      </trkpt>
      <trkpt lat="46.65518" lon="5.6129">
        <ele>443.5</ele>
      </trkpt>
      <trkpt lat="46.65514" lon="5.61297">
        <ele>444.4</ele>
      </trkpt>
      <trkpt lat="46.65516" lon="5.61304">
        <ele>444.9</ele>
        <extensions>
          <visugpx:TrkExtension xmlns:visugpx="https://www.visugpx.com/editgpx/">
            <visugpx:node>5</visugpx:node>
            </visugpx:TrkExtension>
        </extensions>
      </trkpt>
      <trkpt lat="46.65521" lon="5.61304">
        <ele>444.8</ele>
      </trkpt>
      <trkpt lat="46.65523" lon="5.61306">
        <ele>445</ele>
      </trkpt>
      <trkpt lat="46.65524" lon="5.61313">
        <ele>445.6</ele>
      </trkpt>
      <trkpt lat="46.65514" lon="5.61325">
        <ele>446.7</ele>
      </trkpt>
      <trkpt lat="46.65503" lon="5.6133">
        <ele>447.5</ele>
      </trkpt>
      <trkpt lat="46.65503" lon="5.61341">
        <ele>449.8</ele>
      </trkpt>
      <trkpt lat="46.65497" lon="5.6135">
        <ele>452.9</ele>
      </trkpt>
      <trkpt lat="46.65473" lon="5.61331">
        <ele>457.1</ele>
      </trkpt>
      <trkpt lat="46.65463" lon="5.61339">
        <ele>466.1</ele>
      </trkpt>
      <trkpt lat="46.65471" lon="5.61368">
        <ele>470.3</ele>
      </trkpt>
      <trkpt lat="46.65488" lon="5.61407">
        <ele>477.4</ele>
      </trkpt>
      <trkpt lat="46.65505" lon="5.61442">
        <ele>483.2</ele>
      </trkpt>
      <trkpt lat="46.6553" lon="5.61468">
        <ele>492.7</ele>
      </trkpt>
      <trkpt lat="46.6555" lon="5.61479">
        <ele>496.7</ele>
      </trkpt>
      <trkpt lat="46.65562" lon="5.61483">
        <ele>499.6</ele>
      </trkpt>
      <trkpt lat="46.65569" lon="5.61486">
        <ele>502.4</ele>
      </trkpt>
      <trkpt lat="46.65576" lon="5.61481">
        <ele>503.6</ele>
      </trkpt>
      <trkpt lat="46.65582" lon="5.6146">
        <ele>507.4</ele>
      </trkpt>
      <trkpt lat="46.65585" lon="5.61458">
        <ele>509.7</ele>
      </trkpt>
      <trkpt lat="46.65602" lon="5.61478">
        <ele>518.8</ele>
      </trkpt>
      <trkpt lat="46.65602" lon="5.61479">
        <ele>518.8</ele>
        <extensions>
          <visugpx:TrkExtension xmlns:visugpx="https://www.visugpx.com/editgpx/">
            <visugpx:node>6</visugpx:node>
            </visugpx:TrkExtension>
        </extensions>
      </trkpt>
      <trkpt lat="46.65602" lon="5.61478">
        <ele>518.8</ele>
      </trkpt>
      <trkpt lat="46.65608" lon="5.61475">
        <ele>522.9</ele>
      </trkpt>
      <trkpt lat="46.65611" lon="5.6145">
        <ele>528.1</ele>
      </trkpt>
      <trkpt lat="46.65614" lon="5.61429">
        <ele>530.3</ele>
      </trkpt>
      <trkpt lat="46.65619" lon="5.61419">
        <ele>531.2</ele>
      </trkpt>
      <trkpt lat="46.65623" lon="5.61404">
        <ele>531.1</ele>
      </trkpt>
      <trkpt lat="46.65628" lon="5.61388">
        <ele>531.4</ele>
      </trkpt>
      <trkpt lat="46.65626" lon="5.61375">
        <ele>530.4</ele>
      </trkpt>
      <trkpt lat="46.65619" lon="5.61367">
        <ele>528.8</ele>
      </trkpt>
      <trkpt lat="46.65618" lon="5.61362">
        <ele>528.3</ele>
      </trkpt>
      <trkpt lat="46.65619" lon="5.61357">
        <ele>527.6</ele>
      </trkpt>
      <trkpt lat="46.65623" lon="5.61355">
        <ele>528.1</ele>
      </trkpt>
      <trkpt lat="46.65637" lon="5.61329">
        <ele>528.9</ele>
      </trkpt>
      <trkpt lat="46.65637" lon="5.61316">
        <ele>527.8</ele>
      </trkpt>
      <trkpt lat="46.65636" lon="5.61305">
        <ele>526.1</ele>
      </trkpt>
      <trkpt lat="46.65644" lon="5.61292">
        <ele>525</ele>
      </trkpt>
      <trkpt lat="46.65654" lon="5.61287">
        <ele>526.7</ele>
      </trkpt>
      <trkpt lat="46.6567" lon="5.61285">
        <ele>530.5</ele>
      </trkpt>
      <trkpt lat="46.65687" lon="5.61256">
        <ele>526</ele>
      </trkpt>
      <trkpt lat="46.65729" lon="5.61225">
        <ele>524.3</ele>
      </trkpt>
      <trkpt lat="46.65752" lon="5.61219">
        <ele>523.2</ele>
      </trkpt>
      <trkpt lat="46.65769" lon="5.61205">
        <ele>519.6</ele>
      </trkpt>
      <trkpt lat="46.65794" lon="5.61188">
        <ele>512.8</ele>
      </trkpt>
      <trkpt lat="46.65829" lon="5.61189">
        <ele>512.2</ele>
      </trkpt>
      <trkpt lat="46.65858" lon="5.61195">
        <ele>513.5</ele>
      </trkpt>
      <trkpt lat="46.65873" lon="5.61196">
        <ele>512.9</ele>
        <extensions>
          <visugpx:TrkExtension xmlns:visugpx="https://www.visugpx.com/editgpx/">
            <visugpx:node>7</visugpx:node>
            </visugpx:TrkExtension>
        </extensions>
      </trkpt>
      <trkpt lat="46.65923" lon="5.61199">
        <ele>510.8</ele>
      </trkpt>
      <trkpt lat="46.65995" lon="5.61199">
        <ele>508.4</ele>
      </trkpt>
      <trkpt lat="46.66018" lon="5.61202">
        <ele>507.9</ele>
      </trkpt>
      <trkpt lat="46.6605" lon="5.61215">
        <ele>509.7</ele>
      </trkpt>
      <trkpt lat="46.66077" lon="5.61233">
        <ele>513.8</ele>
      </trkpt>
      <trkpt lat="46.66088" lon="5.61233">
        <ele>511.3</ele>
      </trkpt>
      <trkpt lat="46.66102" lon="5.61229">
        <ele>506.1</ele>
      </trkpt>
      <trkpt lat="46.66115" lon="5.61237">
        <ele>504.8</ele>
      </trkpt>
      <trkpt lat="46.66119" lon="5.61257">
        <ele>506.7</ele>
      </trkpt>
      <trkpt lat="46.66118" lon="5.61283">
        <ele>507.6</ele>
      </trkpt>
      <trkpt lat="46.66113" lon="5.61298">
        <ele>509.1</ele>
      </trkpt>
      <trkpt lat="46.66122" lon="5.61315">
        <ele>506.1</ele>
      </trkpt>
      <trkpt lat="46.66137" lon="5.61328">
        <ele>504.6</ele>
      </trkpt>
      <trkpt lat="46.66155" lon="5.61331">
        <ele>503.8</ele>
      </trkpt>
      <trkpt lat="46.66196" lon="5.61333">
        <ele>502.6</ele>
      </trkpt>
      <trkpt lat="46.66226" lon="5.61341">
        <ele>504.7</ele>
      </trkpt>
      <trkpt lat="46.66261" lon="5.61364">
        <ele>514.2</ele>
      </trkpt>
      <trkpt lat="46.66301" lon="5.61372">
        <ele>517.3</ele>
      </trkpt>
      <trkpt lat="46.66324" lon="5.61373">
        <ele>517.3</ele>
      </trkpt>
      <trkpt lat="46.66344" lon="5.61368">
        <ele>516</ele>
      </trkpt>
      <trkpt lat="46.66362" lon="5.61358">
        <ele>513</ele>
      </trkpt>
      <trkpt lat="46.66379" lon="5.61345">
        <ele>507.9</ele>
      </trkpt>
      <trkpt lat="46.66399" lon="5.61336">
        <ele>509.6</ele>
      </trkpt>
      <trkpt lat="46.6642" lon="5.61312">
        <ele>510.5</ele>
      </trkpt>
      <trkpt lat="46.66446" lon="5.61281">
        <ele>516</ele>
      </trkpt>
      <trkpt lat="46.66462" lon="5.61256">
        <ele>517.1</ele>
      </trkpt>
      <trkpt lat="46.66468" lon="5.61242">
        <ele>517.1</ele>
      </trkpt>
      <trkpt lat="46.66476" lon="5.61233">
        <ele>519.8</ele>
      </trkpt>
      <trkpt lat="46.66485" lon="5.61228">
        <ele>524.6</ele>
        <extensions>
          <visugpx:TrkExtension xmlns:visugpx="https://www.visugpx.com/editgpx/">
            <visugpx:node>8</visugpx:node>
            </visugpx:TrkExtension>
        </extensions>
      </trkpt>
      <trkpt lat="46.66493" lon="5.61223">
        <ele>529.6</ele>
      </trkpt>
      <trkpt lat="46.66509" lon="5.61188">
        <ele>533.8</ele>
      </trkpt>
      <trkpt lat="46.66525" lon="5.61145">
        <ele>530.4</ele>
      </trkpt>
      <trkpt lat="46.6653" lon="5.61124">
        <ele>528.6</ele>
      </trkpt>
      <trkpt lat="46.66536" lon="5.61096">
        <ele>524.1</ele>
      </trkpt>
      <trkpt lat="46.6653" lon="5.61077">
        <ele>517.8</ele>
      </trkpt>
      <trkpt lat="46.66512" lon="5.61063">
        <ele>509</ele>
      </trkpt>
      <trkpt lat="46.66508" lon="5.61059">
        <ele>507.1</ele>
      </trkpt>
      <trkpt lat="46.66502" lon="5.61049">
        <ele>504.7</ele>
        <extensions>
          <visugpx:TrkExtension xmlns:visugpx="https://www.visugpx.com/editgpx/">
            <visugpx:node>9</visugpx:node>
            </visugpx:TrkExtension>
        </extensions>
      </trkpt>
      <trkpt lat="46.66499" lon="5.61042">
        <ele>530</ele>
        <time>2019-07-29T08:00:33.000Z</time>
      </trkpt>
      <trkpt lat="46.66496" lon="5.61029">
        <ele>501.6</ele>
        <time>2019-07-29T08:00:43.000Z</time>
      </trkpt>
      <trkpt lat="46.66494" lon="5.61014">
        <ele>519</ele>
        <time>2019-07-29T08:00:53.000Z</time>
      </trkpt>
      <trkpt lat="46.66491" lon="5.61">
        <ele>499.9</ele>
        <time>2019-07-29T08:01:03.000Z</time>
      </trkpt>
      <trkpt lat="46.66486" lon="5.60987">
        <ele>517</ele>
        <time>2019-07-29T08:02:25.000Z</time>
      </trkpt>
      <trkpt lat="46.66481" lon="5.60958">
        <ele>521</ele>
        <time>2019-07-29T08:02:35.000Z</time>
      </trkpt>
      <trkpt lat="46.66475" lon="5.60944">
        <ele>500.4</ele>
        <time>2019-07-29T08:02:45.000Z</time>
      </trkpt>
      <trkpt lat="46.66472" lon="5.60931">
        <ele>525</ele>
        <time>2019-07-29T08:03:05.000Z</time>
      </trkpt>
      <trkpt lat="46.6647" lon="5.60916">
        <ele>503.7</ele>
        <time>2019-07-29T08:03:15.000Z</time>
      </trkpt>
      <trkpt lat="46.66465" lon="5.60905">
        <ele>525</ele>
        <time>2019-07-29T08:03:15.000Z</time>
      </trkpt>
      <trkpt lat="46.66459" lon="5.60899">
        <ele>502.6</ele>
        <time>2019-07-29T08:03:25.000Z</time>
      </trkpt>
      <trkpt lat="46.66447" lon="5.6086">
        <ele>523</ele>
        <time>2019-07-29T08:03:55.000Z</time>
      </trkpt>
      <trkpt lat="46.66446" lon="5.60848">
        <ele>508.2</ele>
        <time>2019-07-29T08:04:05.000Z</time>
      </trkpt>
      <trkpt lat="46.66442" lon="5.60839">
        <ele>506.1</ele>
        <time>2019-07-29T08:04:15.000Z</time>
      </trkpt>
      <trkpt lat="46.66429" lon="5.60802">
        <ele>527</ele>
        <time>2019-07-29T08:04:12.000Z</time>
      </trkpt>
      <trkpt lat="46.66427" lon="5.60791">
        <ele>502.6</ele>
        <time>2019-07-29T08:04:22.000Z</time>
      </trkpt>
      <trkpt lat="46.66428" lon="5.60777">
        <ele>506.4</ele>
        <time>2019-07-29T08:04:32.000Z</time>
      </trkpt>
      <trkpt lat="46.66425" lon="5.60755">
        <ele>531</ele>
        <time>2019-07-29T08:04:42.000Z</time>
      </trkpt>
      <trkpt lat="46.66419" lon="5.60744">
        <ele>507.1</ele>
        <time>2019-07-29T08:04:52.000Z</time>
      </trkpt>
      <trkpt lat="46.66409" lon="5.60721">
        <ele>531</ele>
        <time>2019-07-29T08:05:12.000Z</time>
      </trkpt>
      <trkpt lat="46.66397" lon="5.60699">
        <ele>543</ele>
        <time>2019-07-29T08:05:22.000Z</time>
      </trkpt>
      <trkpt lat="46.66388" lon="5.60676">
        <ele>506.7</ele>
        <time>2019-07-29T08:05:32.000Z</time>
      </trkpt>
      <trkpt lat="46.66381" lon="5.60666">
        <ele>544</ele>
        <time>2019-07-29T08:05:42.000Z</time>
      </trkpt>
      <trkpt lat="46.66375" lon="5.60655">
        <ele>507.5</ele>
        <time>2019-07-29T08:05:52.000Z</time>
      </trkpt>
      <trkpt lat="46.66368" lon="5.60648">
        <ele>506.7</ele>
        <time>2019-07-29T08:06:02.000Z</time>
      </trkpt>
      <trkpt lat="46.6636" lon="5.60638">
        <ele>546</ele>
        <time>2019-07-29T08:06:12.000Z</time>
      </trkpt>
      <trkpt lat="46.66345" lon="5.60628">
        <ele>504.9</ele>
        <time>2019-07-29T08:06:22.000Z</time>
      </trkpt>
      <trkpt lat="46.66338" lon="5.60622">
        <ele>541</ele>
        <time>2019-07-29T08:06:32.000Z</time>
      </trkpt>
      <trkpt lat="46.66321" lon="5.60615">
        <ele>500.4</ele>
        <time>2019-07-29T08:06:42.000Z</time>
      </trkpt>
      <trkpt lat="46.66313" lon="5.60614">
        <ele>537</ele>
        <time>2019-07-29T08:06:52.000Z</time>
      </trkpt>
      <trkpt lat="46.66305" lon="5.60611">
        <ele>496.9</ele>
        <time>2019-07-29T08:07:02.000Z</time>
      </trkpt>
      <trkpt lat="46.66293" lon="5.60598">
        <ele>534</ele>
        <time>2019-07-29T08:07:12.000Z</time>
      </trkpt>
      <trkpt lat="46.66273" lon="5.60586">
        <ele>534</ele>
        <time>2019-07-29T08:07:22.000Z</time>
      </trkpt>
      <trkpt lat="46.66268" lon="5.6058">
        <ele>503</ele>
        <time>2019-07-29T08:07:32.000Z</time>
      </trkpt>
      <trkpt lat="46.66265" lon="5.60566">
        <ele>508.5</ele>
        <time>2019-07-29T08:07:42.000Z</time>
      </trkpt>
      <trkpt lat="46.66239" lon="5.60539">
        <ele>532</ele>
        <time>2019-07-29T08:09:05.000Z</time>
      </trkpt>
      <trkpt lat="46.66229" lon="5.60536">
        <ele>509.5</ele>
        <time>2019-07-29T08:09:15.000Z</time>
      </trkpt>
      <trkpt lat="46.66218" lon="5.60537">
        <ele>532</ele>
        <time>2019-07-29T08:09:25.000Z</time>
      </trkpt>
      <trkpt lat="46.66208" lon="5.60539">
        <ele>496.8</ele>
        <time>2019-07-29T08:09:35.000Z</time>
      </trkpt>
      <trkpt lat="46.66187" lon="5.60529">
        <ele>528</ele>
        <time>2019-07-29T08:09:56.000Z</time>
      </trkpt>
      <trkpt lat="46.6617" lon="5.6051">
        <ele>527</ele>
        <time>2019-07-29T08:10:06.000Z</time>
      </trkpt>
      <trkpt lat="46.6614" lon="5.60485">
        <ele>527</ele>
        <time>2019-07-29T08:10:26.000Z</time>
      </trkpt>
      <trkpt lat="46.66131" lon="5.60475">
        <ele>498.5</ele>
        <time>2019-07-29T08:10:36.000Z</time>
      </trkpt>
      <trkpt lat="46.66125" lon="5.60464">
        <ele>529</ele>
        <time>2019-07-29T08:10:46.000Z</time>
      </trkpt>
      <trkpt lat="46.66117" lon="5.60453">
        <ele>502.6</ele>
        <time>2019-07-29T08:10:56.000Z</time>
      </trkpt>
      <trkpt lat="46.66108" lon="5.60446">
        <ele>532</ele>
        <time>2019-07-29T08:11:06.000Z</time>
      </trkpt>
      <trkpt lat="46.66098" lon="5.60437">
        <ele>502.2</ele>
        <time>2019-07-29T08:11:16.000Z</time>
      </trkpt>
      <trkpt lat="46.66078" lon="5.60428">
        <ele>525</ele>
        <time>2019-07-29T08:11:26.000Z</time>
      </trkpt>
      <trkpt lat="46.66056" lon="5.6042">
        <ele>518</ele>
        <time>2019-07-29T08:11:46.000Z</time>
      </trkpt>
      <trkpt lat="46.66047" lon="5.60414">
        <ele>488.7</ele>
        <time>2019-07-29T08:11:56.000Z</time>
      </trkpt>
      <trkpt lat="46.66037" lon="5.60404">
        <ele>501</ele>
        <time>2019-07-29T08:12:06.000Z</time>
      </trkpt>
      <trkpt lat="46.66022" lon="5.60383">
        <ele>501</ele>
        <time>2019-07-29T08:12:16.000Z</time>
      </trkpt>
      <trkpt lat="46.66015" lon="5.60364">
        <ele>492.6</ele>
        <time>2019-07-29T08:12:26.000Z</time>
      </trkpt>
      <trkpt lat="46.66012" lon="5.60352">
        <ele>508</ele>
        <time>2019-07-29T08:12:36.000Z</time>
      </trkpt>
      <trkpt lat="46.6601" lon="5.60338">
        <ele>496.8</ele>
        <time>2019-07-29T08:12:46.000Z</time>
      </trkpt>
      <trkpt lat="46.65997" lon="5.60295">
        <ele>502</ele>
        <time>2019-07-29T08:13:06.000Z</time>
      </trkpt>
      <trkpt lat="46.65988" lon="5.60268">
        <ele>496</ele>
        <time>2019-07-29T08:13:16.000Z</time>
      </trkpt>
      <trkpt lat="46.65982" lon="5.60231">
        <ele>492</ele>
        <time>2019-07-29T08:13:36.000Z</time>
      </trkpt>
      <trkpt lat="46.65984" lon="5.6022">
        <ele>493.7</ele>
        <time>2019-07-29T08:13:46.000Z</time>
      </trkpt>
      <trkpt lat="46.6599" lon="5.60204">
        <ele>491</ele>
        <time>2019-07-29T08:13:56.000Z</time>
      </trkpt>
      <trkpt lat="46.65992" lon="5.60191">
        <ele>499.1</ele>
        <time>2019-07-29T08:14:06.000Z</time>
      </trkpt>
      <trkpt lat="46.65994" lon="5.60182">
        <ele>497.6</ele>
        <time>2019-07-29T08:14:16.000Z</time>
      </trkpt>
      <trkpt lat="46.66007" lon="5.60164">
        <ele>491</ele>
        <time>2019-07-29T08:13:21.000Z</time>
      </trkpt>
      <trkpt lat="46.66012" lon="5.60161">
        <ele>499.4</ele>
        <time>2019-07-29T08:13:31.000Z</time>
      </trkpt>
      <trkpt lat="46.66022" lon="5.6015">
        <ele>498.1</ele>
        <time>2019-07-29T08:13:41.000Z</time>
      </trkpt>
      <trkpt lat="46.66029" lon="5.60146">
        <ele>490</ele>
        <time>2019-07-29T08:13:51.000Z</time>
      </trkpt>
      <trkpt lat="46.66041" lon="5.60137">
        <ele>501.6</ele>
        <time>2019-07-29T08:14:01.000Z</time>
      </trkpt>
      <trkpt lat="46.66053" lon="5.60125">
        <ele>496</ele>
        <time>2019-07-29T08:14:11.000Z</time>
      </trkpt>
      <trkpt lat="46.66067" lon="5.60122">
        <ele>506.8</ele>
        <time>2019-07-29T08:14:21.000Z</time>
      </trkpt>
      <trkpt lat="46.66074" lon="5.60127">
        <ele>502</ele>
        <time>2019-07-29T08:14:31.000Z</time>
      </trkpt>
      <trkpt lat="46.66077" lon="5.60138">
        <ele>516.8</ele>
        <time>2019-07-29T08:14:41.000Z</time>
      </trkpt>
      <trkpt lat="46.66083" lon="5.6014">
        <ele>519.3</ele>
        <time>2019-07-29T08:14:51.000Z</time>
      </trkpt>
      <trkpt lat="46.66089" lon="5.60133">
        <ele>504</ele>
        <time>2019-07-29T08:15:01.000Z</time>
      </trkpt>
      <trkpt lat="46.66096" lon="5.60128">
        <ele>518.5</ele>
        <time>2019-07-29T08:15:11.000Z</time>
      </trkpt>
      <trkpt lat="46.66103" lon="5.60127">
        <ele>520.1</ele>
        <time>2019-07-29T08:15:21.000Z</time>
      </trkpt>
      <trkpt lat="46.66116" lon="5.60122">
        <ele>506</ele>
        <time>2019-07-29T08:15:41.000Z</time>
      </trkpt>
      <trkpt lat="46.66128" lon="5.60121">
        <ele>521.3</ele>
        <time>2019-07-29T08:15:51.000Z</time>
      </trkpt>
      <trkpt lat="46.66141" lon="5.60124">
        <ele>515</ele>
        <time>2019-07-29T08:16:01.000Z</time>
      </trkpt>
      <trkpt lat="46.66148" lon="5.60127">
        <ele>524.9</ele>
        <time>2019-07-29T08:16:11.000Z</time>
      </trkpt>
      <trkpt lat="46.66154" lon="5.60131">
        <ele>526.6</ele>
        <time>2019-07-29T08:16:21.000Z</time>
      </trkpt>
      <trkpt lat="46.66168" lon="5.60138">
        <ele>527</ele>
        <time>2019-07-29T08:16:41.000Z</time>
      </trkpt>
      <trkpt lat="46.66173" lon="5.60158">
        <ele>534.6</ele>
        <time>2019-07-29T08:16:51.000Z</time>
      </trkpt>
      <trkpt lat="46.66181" lon="5.60178">
        <ele>538</ele>
        <time>2019-07-29T08:17:01.000Z</time>
      </trkpt>
      <trkpt lat="46.66186" lon="5.60186">
        <ele>539</ele>
        <time>2019-07-29T08:17:11.000Z</time>
      </trkpt>
      <trkpt lat="46.66194" lon="5.60191">
        <ele>539.7</ele>
        <time>2019-07-29T08:17:21.000Z</time>
      </trkpt>
      <trkpt lat="46.662" lon="5.60198">
        <ele>547</ele>
        <time>2019-07-29T08:17:31.000Z</time>
      </trkpt>
      <trkpt lat="46.66208" lon="5.60204">
        <ele>542.3</ele>
        <time>2019-07-29T08:17:41.000Z</time>
      </trkpt>
      <trkpt lat="46.6622" lon="5.60218">
        <ele>553</ele>
        <time>2019-07-29T08:17:51.000Z</time>
      </trkpt>
      <trkpt lat="46.66225" lon="5.60227">
        <ele>544.8</ele>
        <time>2019-07-29T08:18:01.000Z</time>
      </trkpt>
      <trkpt lat="46.66231" lon="5.60233">
        <ele>546.1</ele>
        <time>2019-07-29T08:18:11.000Z</time>
      </trkpt>
      <trkpt lat="46.66249" lon="5.60248">
        <ele>553</ele>
        <time>2019-07-29T08:17:52.000Z</time>
      </trkpt>
      <trkpt lat="46.66256" lon="5.60252">
        <ele>548.6</ele>
        <time>2019-07-29T08:18:02.000Z</time>
      </trkpt>
      <trkpt lat="46.66264" lon="5.60259">
        <ele>548.2</ele>
        <time>2019-07-29T08:18:12.000Z</time>
      </trkpt>
      <trkpt lat="46.66269" lon="5.60266">
        <ele>553</ele>
        <time>2019-07-29T08:18:22.000Z</time>
      </trkpt>
      <trkpt lat="46.66273" lon="5.60273">
        <ele>548</ele>
        <time>2019-07-29T08:18:32.000Z</time>
      </trkpt>
      <trkpt lat="46.66279" lon="5.60289">
        <ele>553</ele>
        <time>2019-07-29T08:18:42.000Z</time>
      </trkpt>
      <trkpt lat="46.66291" lon="5.6031">
        <ele>550</ele>
        <time>2019-07-29T08:18:52.000Z</time>
      </trkpt>
      <trkpt lat="46.66298" lon="5.6032">
        <ele>548.7</ele>
        <time>2019-07-29T08:19:02.000Z</time>
      </trkpt>
      <trkpt lat="46.66302" lon="5.60323">
        <ele>548.9</ele>
        <time>2019-07-29T08:19:12.000Z</time>
      </trkpt>
      <trkpt lat="46.66326" lon="5.60359">
        <ele>551</ele>
        <time>2019-07-29T08:19:04.000Z</time>
      </trkpt>
      <trkpt lat="46.66336" lon="5.60379">
        <ele>549.4</ele>
        <time>2019-07-29T08:19:14.000Z</time>
      </trkpt>
      <trkpt lat="46.66349" lon="5.60401">
        <ele>547</ele>
        <time>2019-07-29T08:19:30.000Z</time>
      </trkpt>
      <trkpt lat="46.66359" lon="5.60424">
        <ele>553</ele>
        <time>2019-07-29T08:19:40.000Z</time>
      </trkpt>
      <trkpt lat="46.66379" lon="5.60467">
        <ele>556</ele>
        <time>2019-07-29T08:20:09.000Z</time>
      </trkpt>
      <trkpt lat="46.66396" lon="5.60498">
        <ele>559</ele>
        <time>2019-07-29T08:20:29.000Z</time>
      </trkpt>
      <trkpt lat="46.66428" lon="5.60546">
        <ele>559</ele>
        <time>2019-07-29T08:21:07.000Z</time>
      </trkpt>
      <trkpt lat="46.66435" lon="5.60554">
        <ele>550.4</ele>
        <time>2019-07-29T08:21:17.000Z</time>
      </trkpt>
      <trkpt lat="46.6644" lon="5.60563">
        <ele>550.6</ele>
        <time>2019-07-29T08:21:27.000Z</time>
      </trkpt>
      <trkpt lat="46.66454" lon="5.60585">
        <ele>558</ele>
        <time>2019-07-29T08:21:37.000Z</time>
      </trkpt>
      <trkpt lat="46.66474" lon="5.60615">
        <ele>558</ele>
        <time>2019-07-29T08:22:19.000Z</time>
      </trkpt>
      <trkpt lat="46.66502" lon="5.60591">
        <ele>559</ele>
        <time>2019-07-29T08:22:41.000Z</time>
      </trkpt>
      <trkpt lat="46.6651" lon="5.60581">
        <ele>551.7</ele>
        <time>2019-07-29T08:22:51.000Z</time>
      </trkpt>
      <trkpt lat="46.6653" lon="5.60567">
        <ele>561</ele>
        <time>2019-07-29T08:23:11.000Z</time>
      </trkpt>
      <trkpt lat="46.6654" lon="5.60559">
        <ele>550.1</ele>
        <time>2019-07-29T08:23:21.000Z</time>
      </trkpt>
      <trkpt lat="46.66558" lon="5.60544">
        <ele>561</ele>
        <time>2019-07-29T08:23:30.000Z</time>
      </trkpt>
      <trkpt lat="46.66576" lon="5.60526">
        <ele>562</ele>
        <time>2019-07-29T08:23:40.000Z</time>
      </trkpt>
      <trkpt lat="46.66593" lon="5.60512">
        <ele>563</ele>
        <time>2019-07-29T08:23:50.000Z</time>
      </trkpt>
      <trkpt lat="46.66605" lon="5.60499">
        <ele>545.9</ele>
        <time>2019-07-29T08:24:00.000Z</time>
      </trkpt>
      <trkpt lat="46.66636" lon="5.60463">
        <ele>566</ele>
        <time>2019-07-29T08:24:40.000Z</time>
      </trkpt>
      <trkpt lat="46.66652" lon="5.60443">
        <ele>570</ele>
        <time>2019-07-29T08:24:50.000Z</time>
      </trkpt>
      <trkpt lat="46.66661" lon="5.60438">
        <ele>546.7</ele>
        <time>2019-07-29T08:25:00.000Z</time>
      </trkpt>
      <trkpt lat="46.66672" lon="5.60434">
        <ele>570</ele>
        <time>2019-07-29T08:25:10.000Z</time>
      </trkpt>
      <trkpt lat="46.6668" lon="5.60444">
        <ele>546</ele>
        <time>2019-07-29T08:25:20.000Z</time>
      </trkpt>
      <trkpt lat="46.66687" lon="5.60456">
        <ele>569</ele>
        <time>2019-07-29T08:25:30.000Z</time>
      </trkpt>
      <trkpt lat="46.66695" lon="5.60467">
        <ele>545.2</ele>
        <time>2019-07-29T08:25:40.000Z</time>
      </trkpt>
      <trkpt lat="46.66704" lon="5.60478">
        <ele>568</ele>
        <time>2019-07-29T08:25:50.000Z</time>
      </trkpt>
      <trkpt lat="46.6671" lon="5.60489">
        <ele>544.7</ele>
        <time>2019-07-29T08:26:00.000Z</time>
      </trkpt>
      <trkpt lat="46.66721" lon="5.60518">
        <ele>565</ele>
        <time>2019-07-29T08:26:10.000Z</time>
      </trkpt>
      <trkpt lat="46.66733" lon="5.60543">
        <ele>563</ele>
        <time>2019-07-29T08:26:20.000Z</time>
      </trkpt>
      <trkpt lat="46.66744" lon="5.60569">
        <ele>562</ele>
        <time>2019-07-29T08:26:30.000Z</time>
      </trkpt>
      <trkpt lat="46.66751" lon="5.60582">
        <ele>544</ele>
        <time>2019-07-29T08:26:40.000Z</time>
      </trkpt>
      <trkpt lat="46.66762" lon="5.60605">
        <ele>560</ele>
        <time>2019-07-29T08:26:50.000Z</time>
      </trkpt>
      <trkpt lat="46.66769" lon="5.60616">
        <ele>544.2</ele>
        <time>2019-07-29T08:27:00.000Z</time>
      </trkpt>
      <trkpt lat="46.6678" lon="5.60643">
        <ele>561</ele>
        <time>2019-07-29T08:27:10.000Z</time>
      </trkpt>
      <trkpt lat="46.66792" lon="5.60668">
        <ele>562</ele>
        <time>2019-07-29T08:27:20.000Z</time>
      </trkpt>
      <trkpt lat="46.66806" lon="5.607">
        <ele>563</ele>
        <time>2019-07-29T08:27:40.000Z</time>
      </trkpt>
      <trkpt lat="46.6682" lon="5.60736">
        <ele>564</ele>
        <time>2019-07-29T08:27:58.000Z</time>
      </trkpt>
      <trkpt lat="46.66839" lon="5.60775">
        <ele>567</ele>
        <time>2019-07-29T08:28:17.000Z</time>
      </trkpt>
      <trkpt lat="46.66843" lon="5.60788">
        <ele>549.6</ele>
        <time>2019-07-29T08:28:27.000Z</time>
      </trkpt>
      <trkpt lat="46.66849" lon="5.60801">
        <ele>567</ele>
        <time>2019-07-29T08:28:37.000Z</time>
      </trkpt>
      <trkpt lat="46.66853" lon="5.60816">
        <ele>548.2</ele>
        <time>2019-07-29T08:28:47.000Z</time>
      </trkpt>
      <trkpt lat="46.66864" lon="5.60842">
        <ele>566</ele>
        <time>2019-07-29T08:28:57.000Z</time>
      </trkpt>
      <trkpt lat="46.66874" lon="5.6087">
        <ele>565</ele>
        <time>2019-07-29T08:28:52.000Z</time>
      </trkpt>
      <trkpt lat="46.66886" lon="5.60898">
        <ele>561</ele>
        <time>2019-07-29T08:29:12.000Z</time>
      </trkpt>
      <trkpt lat="46.66893" lon="5.6091">
        <ele>541.9</ele>
        <time>2019-07-29T08:29:22.000Z</time>
      </trkpt>
      <trkpt lat="46.66899" lon="5.60925">
        <ele>560</ele>
        <time>2019-07-29T08:29:32.000Z</time>
      </trkpt>
      <trkpt lat="46.66901" lon="5.60938">
        <ele>542.8</ele>
        <time>2019-07-29T08:29:42.000Z</time>
      </trkpt>
      <trkpt lat="46.66908" lon="5.60951">
        <ele>559</ele>
        <time>2019-07-29T08:29:52.000Z</time>
      </trkpt>
      <trkpt lat="46.6692" lon="5.60977">
        <ele>558</ele>
        <time>2019-07-29T08:30:02.000Z</time>
      </trkpt>
      <trkpt lat="46.66924" lon="5.60989">
        <ele>544.9</ele>
        <time>2019-07-29T08:30:12.000Z</time>
      </trkpt>
      <trkpt lat="46.66931" lon="5.61001">
        <ele>556</ele>
        <time>2019-07-29T08:30:22.000Z</time>
      </trkpt>
      <trkpt lat="46.66941" lon="5.61029">
        <ele>549</ele>
        <time>2019-07-29T08:30:22.000Z</time>
      </trkpt>
      <trkpt lat="46.66947" lon="5.61042">
        <ele>547</ele>
        <time>2019-07-29T08:30:32.000Z</time>
      </trkpt>
      <trkpt lat="46.66952" lon="5.61058">
        <ele>548</ele>
        <time>2019-07-29T08:30:42.000Z</time>
      </trkpt>
      <trkpt lat="46.66961" lon="5.6108">
        <ele>548</ele>
        <time>2019-07-29T08:30:52.000Z</time>
      </trkpt>
      <trkpt lat="46.66974" lon="5.61115">
        <ele>548</ele>
        <time>2019-07-29T08:31:12.000Z</time>
      </trkpt>
      <trkpt lat="46.66981" lon="5.61127">
        <ele>549.3</ele>
        <time>2019-07-29T08:31:22.000Z</time>
      </trkpt>
      <trkpt lat="46.66993" lon="5.61153">
        <ele>548</ele>
        <time>2019-07-29T08:31:32.000Z</time>
      </trkpt>
      <trkpt lat="46.67" lon="5.61164">
        <ele>550.9</ele>
        <time>2019-07-29T08:31:42.000Z</time>
      </trkpt>
      <trkpt lat="46.67006" lon="5.61176">
        <ele>549</ele>
        <time>2019-07-29T08:31:52.000Z</time>
      </trkpt>
      <trkpt lat="46.67013" lon="5.61187">
        <ele>551.8</ele>
        <time>2019-07-29T08:32:02.000Z</time>
      </trkpt>
      <trkpt lat="46.67026" lon="5.61214">
        <ele>556</ele>
        <time>2019-07-29T08:32:12.000Z</time>
      </trkpt>
      <trkpt lat="46.6703" lon="5.61225">
        <ele>553.3</ele>
        <time>2019-07-29T08:32:22.000Z</time>
      </trkpt>
      <trkpt lat="46.67044" lon="5.6125">
        <ele>564</ele>
        <time>2019-07-29T08:32:32.000Z</time>
      </trkpt>
      <trkpt lat="46.67049" lon="5.61261">
        <ele>554.8</ele>
        <time>2019-07-29T08:32:42.000Z</time>
      </trkpt>
      <trkpt lat="46.67062" lon="5.61302">
        <ele>566</ele>
        <time>2019-07-29T08:32:55.000Z</time>
      </trkpt>
      <trkpt lat="46.67068" lon="5.61316">
        <ele>555.4</ele>
        <time>2019-07-29T08:33:05.000Z</time>
      </trkpt>
      <trkpt lat="46.67073" lon="5.61331">
        <ele>567</ele>
        <time>2019-07-29T08:33:15.000Z</time>
      </trkpt>
      <trkpt lat="46.67078" lon="5.61344">
        <ele>555.4</ele>
        <time>2019-07-29T08:33:25.000Z</time>
      </trkpt>
      <trkpt lat="46.67084" lon="5.61355">
        <ele>567</ele>
        <time>2019-07-29T08:33:35.000Z</time>
      </trkpt>
      <trkpt lat="46.67096" lon="5.61384">
        <ele>568</ele>
        <time>2019-07-29T08:33:55.000Z</time>
      </trkpt>
      <trkpt lat="46.67102" lon="5.61395">
        <ele>552.4</ele>
        <time>2019-07-29T08:34:05.000Z</time>
      </trkpt>
      <trkpt lat="46.67115" lon="5.61424">
        <ele>566</ele>
        <time>2019-07-29T08:33:43.000Z</time>
      </trkpt>
      <trkpt lat="46.67122" lon="5.61441">
        <ele>545.6</ele>
        <time>2019-07-29T08:33:53.000Z</time>
      </trkpt>
      <trkpt lat="46.67125" lon="5.61452">
        <ele>565</ele>
        <time>2019-07-29T08:34:03.000Z</time>
      </trkpt>
      <trkpt lat="46.67137" lon="5.61511">
        <ele>553</ele>
        <time>2019-07-29T08:34:33.000Z</time>
      </trkpt>
      <trkpt lat="46.67145" lon="5.61539">
        <ele>552</ele>
        <time>2019-07-29T08:34:53.000Z</time>
      </trkpt>
      <trkpt lat="46.67166" lon="5.6154">
        <ele>552</ele>
        <time>2019-07-29T08:34:50.000Z</time>
      </trkpt>
      <trkpt lat="46.67176" lon="5.61538">
        <ele>535.1</ele>
        <time>2019-07-29T08:35:00.000Z</time>
      </trkpt>
      <trkpt lat="46.67187" lon="5.61539">
        <ele>552</ele>
        <time>2019-07-29T08:35:10.000Z</time>
      </trkpt>
      <trkpt lat="46.67197" lon="5.61542">
        <ele>536.5</ele>
        <time>2019-07-29T08:35:20.000Z</time>
      </trkpt>
      <trkpt lat="46.67208" lon="5.61539">
        <ele>551</ele>
        <time>2019-07-29T08:35:30.000Z</time>
      </trkpt>
      <trkpt lat="46.6722" lon="5.61541">
        <ele>537</ele>
        <time>2019-07-29T08:35:40.000Z</time>
      </trkpt>
      <trkpt lat="46.67231" lon="5.6154">
        <ele>554</ele>
        <time>2019-07-29T08:35:50.000Z</time>
      </trkpt>
      <trkpt lat="46.67243" lon="5.61537">
        <ele>537.1</ele>
        <time>2019-07-29T08:36:00.000Z</time>
      </trkpt>
      <trkpt lat="46.67253" lon="5.6154">
        <ele>557</ele>
        <time>2019-07-29T08:36:10.000Z</time>
      </trkpt>
      <trkpt lat="46.67264" lon="5.6154">
        <ele>537</ele>
        <time>2019-07-29T08:36:20.000Z</time>
      </trkpt>
      <trkpt lat="46.67274" lon="5.61542">
        <ele>557</ele>
        <time>2019-07-29T08:36:30.000Z</time>
      </trkpt>
      <trkpt lat="46.67285" lon="5.61542">
        <ele>536.7</ele>
        <time>2019-07-29T08:36:40.000Z</time>
      </trkpt>
      <trkpt lat="46.67295" lon="5.6154">
        <ele>557</ele>
        <time>2019-07-29T08:36:50.000Z</time>
      </trkpt>
      <trkpt lat="46.67327" lon="5.6154">
        <ele>553</ele>
        <time>2019-07-29T08:37:10.000Z</time>
      </trkpt>
      <trkpt lat="46.67338" lon="5.61542">
        <ele>534.6</ele>
        <time>2019-07-29T08:37:20.000Z</time>
      </trkpt>
      <trkpt lat="46.67348" lon="5.6154">
        <ele>553</ele>
        <time>2019-07-29T08:37:30.000Z</time>
      </trkpt>
      <trkpt lat="46.67359" lon="5.61541">
        <ele>535</ele>
        <time>2019-07-29T08:37:40.000Z</time>
      </trkpt>
      <trkpt lat="46.67369" lon="5.61549">
        <ele>547</ele>
        <time>2019-07-29T08:38:00.000Z</time>
      </trkpt>
      <trkpt lat="46.67371" lon="5.61565">
        <ele>534.9</ele>
        <time>2019-07-29T08:38:10.000Z</time>
      </trkpt>
      <trkpt lat="46.67368" lon="5.61609">
        <ele>546</ele>
        <time>2019-07-29T08:37:41.000Z</time>
      </trkpt>
      <trkpt lat="46.67365" lon="5.61622">
        <ele>533.9</ele>
        <time>2019-07-29T08:37:51.000Z</time>
      </trkpt>
      <trkpt lat="46.67359" lon="5.61636">
        <ele>546</ele>
        <time>2019-07-29T08:38:01.000Z</time>
      </trkpt>
      <trkpt lat="46.67353" lon="5.61646">
        <ele>534.9</ele>
        <time>2019-07-29T08:38:11.000Z</time>
      </trkpt>
      <trkpt lat="46.67351" lon="5.61662">
        <ele>548</ele>
        <time>2019-07-29T08:38:21.000Z</time>
      </trkpt>
      <trkpt lat="46.67355" lon="5.61685">
        <ele>539.2</ele>
        <time>2019-07-29T08:38:31.000Z</time>
      </trkpt>
      <trkpt lat="46.67364" lon="5.61712">
        <ele>546</ele>
        <time>2019-07-29T08:39:16.000Z</time>
      </trkpt>
      <trkpt lat="46.6737" lon="5.61726">
        <ele>545.5</ele>
        <time>2019-07-29T08:39:26.000Z</time>
      </trkpt>
      <trkpt lat="46.67377" lon="5.61751">
        <ele>550</ele>
        <time>2019-07-29T08:39:36.000Z</time>
      </trkpt>
      <trkpt lat="46.6738" lon="5.61777">
        <ele>548.6</ele>
        <time>2019-07-29T08:39:46.000Z</time>
      </trkpt>
      <trkpt lat="46.67388" lon="5.61803">
        <ele>554</ele>
        <time>2019-07-29T08:40:06.000Z</time>
      </trkpt>
      <trkpt lat="46.674" lon="5.61827">
        <ele>554</ele>
        <time>2019-07-29T08:40:18.000Z</time>
      </trkpt>
      <trkpt lat="46.67411" lon="5.61852">
        <ele>555</ele>
        <time>2019-07-29T08:40:28.000Z</time>
      </trkpt>
      <trkpt lat="46.67415" lon="5.61865">
        <ele>542.1</ele>
        <time>2019-07-29T08:40:38.000Z</time>
      </trkpt>
      <trkpt lat="46.6742" lon="5.61878">
        <ele>555</ele>
        <time>2019-07-29T08:40:48.000Z</time>
      </trkpt>
      <trkpt lat="46.67428" lon="5.61893">
        <ele>540.8</ele>
        <time>2019-07-29T08:40:58.000Z</time>
      </trkpt>
      <trkpt lat="46.67443" lon="5.61929">
        <ele>555</ele>
        <time>2019-07-29T08:41:14.000Z</time>
      </trkpt>
      <trkpt lat="46.67448" lon="5.61944">
        <ele>538.6</ele>
        <time>2019-07-29T08:41:24.000Z</time>
      </trkpt>
      <trkpt lat="46.67468" lon="5.61979">
        <ele>555</ele>
        <time>2019-07-29T08:41:47.000Z</time>
      </trkpt>
      <trkpt lat="46.67476" lon="5.61989">
        <ele>534.1</ele>
        <time>2019-07-29T08:41:57.000Z</time>
      </trkpt>
      <trkpt lat="46.67496" lon="5.62025">
        <ele>552</ele>
        <time>2019-07-29T08:42:10.000Z</time>
      </trkpt>
      <trkpt lat="46.67506" lon="5.62026">
        <ele>532</ele>
        <time>2019-07-29T08:42:20.000Z</time>
      </trkpt>
      <trkpt lat="46.67513" lon="5.62031">
        <ele>532.2</ele>
        <time>2019-07-29T08:42:30.000Z</time>
      </trkpt>
      <trkpt lat="46.67525" lon="5.62046">
        <ele>550</ele>
        <time>2019-07-29T08:42:50.000Z</time>
      </trkpt>
      <trkpt lat="46.67537" lon="5.62059">
        <ele>535</ele>
        <time>2019-07-29T08:43:00.000Z</time>
      </trkpt>
      <trkpt lat="46.67547" lon="5.62074">
        <ele>543</ele>
        <time>2019-07-29T08:43:10.000Z</time>
      </trkpt>
      <trkpt lat="46.67551" lon="5.62086">
        <ele>537.1</ele>
        <time>2019-07-29T08:43:20.000Z</time>
      </trkpt>
      <trkpt lat="46.67566" lon="5.62114">
        <ele>544</ele>
        <time>2019-07-29T08:43:50.000Z</time>
      </trkpt>
      <trkpt lat="46.67584" lon="5.62138">
        <ele>546</ele>
        <time>2019-07-29T08:43:33.000Z</time>
      </trkpt>
      <trkpt lat="46.67614" lon="5.62173">
        <ele>547</ele>
        <time>2019-07-29T08:44:03.000Z</time>
      </trkpt>
      <trkpt lat="46.6762" lon="5.62177">
        <ele>535.8</ele>
        <time>2019-07-29T08:44:13.000Z</time>
      </trkpt>
      <trkpt lat="46.67626" lon="5.62185">
        <ele>535.3</ele>
        <time>2019-07-29T08:44:23.000Z</time>
      </trkpt>
      <trkpt lat="46.67639" lon="5.62199">
        <ele>549</ele>
        <time>2019-07-29T08:44:33.000Z</time>
      </trkpt>
      <trkpt lat="46.67646" lon="5.62204">
        <ele>533.9</ele>
        <time>2019-07-29T08:44:43.000Z</time>
      </trkpt>
      <trkpt lat="46.67651" lon="5.62211">
        <ele>533.8</ele>
        <time>2019-07-29T08:44:53.000Z</time>
      </trkpt>
      <trkpt lat="46.67654" lon="5.62217">
        <ele>548</ele>
        <time>2019-07-29T08:45:03.000Z</time>
      </trkpt>
      <trkpt lat="46.6766" lon="5.62222">
        <ele>533.8</ele>
        <time>2019-07-29T08:45:13.000Z</time>
      </trkpt>
      <trkpt lat="46.6767" lon="5.62234">
        <ele>548</ele>
        <time>2019-07-29T08:44:42.000Z</time>
      </trkpt>
      <trkpt lat="46.67676" lon="5.62239">
        <ele>532.9</ele>
        <time>2019-07-29T08:44:52.000Z</time>
      </trkpt>
      <trkpt lat="46.67683" lon="5.62243">
        <ele>532.5</ele>
        <time>2019-07-29T08:45:02.000Z</time>
      </trkpt>
      <trkpt lat="46.67713" lon="5.62242">
        <ele>543</ele>
        <time>2019-07-29T08:45:17.000Z</time>
      </trkpt>
      <trkpt lat="46.6772" lon="5.62244">
        <ele>532.7</ele>
        <time>2019-07-29T08:45:27.000Z</time>
      </trkpt>
      <trkpt lat="46.67728" lon="5.62248">
        <ele>533.1</ele>
        <time>2019-07-29T08:45:37.000Z</time>
      </trkpt>
      <trkpt lat="46.67739" lon="5.62251">
        <ele>543</ele>
        <time>2019-07-29T08:45:32.000Z</time>
      </trkpt>
      <trkpt lat="46.67745" lon="5.62256">
        <ele>533.8</ele>
        <time>2019-07-29T08:45:42.000Z</time>
      </trkpt>
      <trkpt lat="46.67754" lon="5.62267">
        <ele>546</ele>
        <time>2019-07-29T08:45:52.000Z</time>
      </trkpt>
      <trkpt lat="46.67761" lon="5.62281">
        <ele>534.4</ele>
        <time>2019-07-29T08:46:02.000Z</time>
      </trkpt>
      <trkpt lat="46.67774" lon="5.623">
        <ele>547</ele>
        <time>2019-07-29T08:46:22.000Z</time>
      </trkpt>
      <trkpt lat="46.67783" lon="5.62306">
        <ele>535.4</ele>
        <time>2019-07-29T08:46:32.000Z</time>
      </trkpt>
      <trkpt lat="46.67796" lon="5.62319">
        <ele>549</ele>
        <time>2019-07-29T08:46:42.000Z</time>
      </trkpt>
      <trkpt lat="46.67808" lon="5.62325">
        <ele>537.1</ele>
        <time>2019-07-29T08:46:52.000Z</time>
      </trkpt>
      <trkpt lat="46.67824" lon="5.62339">
        <ele>548</ele>
        <time>2019-07-29T08:47:02.000Z</time>
      </trkpt>
      <trkpt lat="46.67831" lon="5.62349">
        <ele>537.9</ele>
        <time>2019-07-29T08:47:12.000Z</time>
      </trkpt>
      <trkpt lat="46.67855" lon="5.6238">
        <ele>548</ele>
        <time>2019-07-29T08:47:06.000Z</time>
      </trkpt>
      <trkpt lat="46.67861" lon="5.62394">
        <ele>538.8</ele>
        <time>2019-07-29T08:47:16.000Z</time>
      </trkpt>
      <trkpt lat="46.67871" lon="5.62406">
        <ele>539</ele>
        <time>2019-07-29T08:47:26.000Z</time>
      </trkpt>
      <trkpt lat="46.67875" lon="5.62412">
        <ele>538.2</ele>
        <time>2019-07-29T08:47:36.000Z</time>
      </trkpt>
      <trkpt lat="46.67887" lon="5.62422">
        <ele>538</ele>
        <time>2019-07-29T08:47:56.000Z</time>
      </trkpt>
      <trkpt lat="46.67911" lon="5.62427">
        <ele>538</ele>
        <time>2019-07-29T08:47:57.000Z</time>
      </trkpt>
      <trkpt lat="46.67918" lon="5.62424">
        <ele>538.7</ele>
        <time>2019-07-29T08:48:07.000Z</time>
      </trkpt>
      <trkpt lat="46.67937" lon="5.62425">
        <ele>538</ele>
        <time>2019-07-29T08:48:11.000Z</time>
      </trkpt>
      <trkpt lat="46.67942" lon="5.62426">
        <ele>539</ele>
        <time>2019-07-29T08:48:21.000Z</time>
      </trkpt>
      <trkpt lat="46.67951" lon="5.62434">
        <ele>539.2</ele>
        <time>2019-07-29T08:48:31.000Z</time>
      </trkpt>
      <trkpt lat="46.67966" lon="5.62438">
        <ele>538</ele>
        <time>2019-07-29T08:48:41.000Z</time>
      </trkpt>
      <trkpt lat="46.67974" lon="5.62445">
        <ele>540.1</ele>
        <time>2019-07-29T08:48:51.000Z</time>
      </trkpt>
      <trkpt lat="46.6798" lon="5.62447">
        <ele>540.3</ele>
        <time>2019-07-29T08:49:01.000Z</time>
      </trkpt>
      <trkpt lat="46.67985" lon="5.62447">
        <ele>539</ele>
        <time>2019-07-29T08:49:11.000Z</time>
      </trkpt>
      <trkpt lat="46.67994" lon="5.62453">
        <ele>540.8</ele>
        <time>2019-07-29T08:49:21.000Z</time>
      </trkpt>
      <trkpt lat="46.68007" lon="5.62459">
        <ele>540</ele>
        <time>2019-07-29T08:49:41.000Z</time>
      </trkpt>
      <trkpt lat="46.68011" lon="5.6246">
        <ele>541</ele>
        <time>2019-07-29T08:49:51.000Z</time>
      </trkpt>
      <trkpt lat="46.68015" lon="5.62459">
        <ele>541</ele>
        <time>2019-07-29T08:50:01.000Z</time>
      </trkpt>
      <trkpt lat="46.68021" lon="5.6246">
        <ele>541</ele>
        <time>2019-07-29T08:50:11.000Z</time>
      </trkpt>
      <trkpt lat="46.6804" lon="5.62461">
        <ele>542</ele>
        <time>2019-07-29T08:50:31.000Z</time>
      </trkpt>
      <trkpt lat="46.68058" lon="5.62466">
        <ele>539.9</ele>
        <time>2019-07-29T08:50:41.000Z</time>
      </trkpt>
      <trkpt lat="46.68069" lon="5.6247">
        <ele>544</ele>
        <time>2019-07-29T08:50:51.000Z</time>
      </trkpt>
      <trkpt lat="46.68074" lon="5.62475">
        <ele>539.3</ele>
        <time>2019-07-29T08:51:01.000Z</time>
      </trkpt>
      <trkpt lat="46.68084" lon="5.62488">
        <ele>551</ele>
        <time>2019-07-29T08:51:11.000Z</time>
      </trkpt>
      <trkpt lat="46.681" lon="5.62499">
        <ele>538</ele>
        <time>2019-07-29T08:51:21.000Z</time>
      </trkpt>
      <trkpt lat="46.68109" lon="5.62509">
        <ele>551</ele>
        <time>2019-07-29T08:51:31.000Z</time>
      </trkpt>
      <trkpt lat="46.68112" lon="5.62514">
        <ele>537.5</ele>
        <time>2019-07-29T08:51:41.000Z</time>
      </trkpt>
      <trkpt lat="46.6812" lon="5.62523">
        <ele>537.2</ele>
        <time>2019-07-29T08:51:51.000Z</time>
      </trkpt>
      <trkpt lat="46.68135" lon="5.62534">
        <ele>550</ele>
        <time>2019-07-29T08:52:11.000Z</time>
      </trkpt>
      <trkpt lat="46.68143" lon="5.62543">
        <ele>537.1</ele>
        <time>2019-07-29T08:52:21.000Z</time>
      </trkpt>
      <trkpt lat="46.68146" lon="5.6255">
        <ele>537.3</ele>
        <time>2019-07-29T08:52:31.000Z</time>
      </trkpt>
      <trkpt lat="46.68159" lon="5.62574">
        <ele>556</ele>
        <time>2019-07-29T08:51:11.000Z</time>
      </trkpt>
      <trkpt lat="46.68168" lon="5.62584">
        <ele>538</ele>
        <time>2019-07-29T08:51:21.000Z</time>
      </trkpt>
      <trkpt lat="46.68172" lon="5.6259">
        <ele>538.2</ele>
        <time>2019-07-29T08:51:31.000Z</time>
      </trkpt>
      <trkpt lat="46.68174" lon="5.62592">
        <ele>555</ele>
        <time>2019-07-29T08:51:41.000Z</time>
      </trkpt>
      <trkpt lat="46.68187" lon="5.62603">
        <ele>538.7</ele>
        <time>2019-07-29T08:51:51.000Z</time>
      </trkpt>
      <trkpt lat="46.682" lon="5.62612">
        <ele>555</ele>
        <time>2019-07-29T08:52:01.000Z</time>
      </trkpt>
      <trkpt lat="46.68223" lon="5.62624">
        <ele>553</ele>
        <time>2019-07-29T08:52:19.000Z</time>
      </trkpt>
      <trkpt lat="46.68229" lon="5.62628">
        <ele>541.2</ele>
        <time>2019-07-29T08:52:29.000Z</time>
      </trkpt>
      <trkpt lat="46.6824" lon="5.62633">
        <ele>541.6</ele>
        <time>2019-07-29T08:52:39.000Z</time>
      </trkpt>
      <trkpt lat="46.68258" lon="5.62643">
        <ele>552</ele>
        <time>2019-07-29T08:53:09.000Z</time>
      </trkpt>
      <trkpt lat="46.68265" lon="5.62648">
        <ele>542.7</ele>
        <time>2019-07-29T08:53:19.000Z</time>
      </trkpt>
      <trkpt lat="46.68271" lon="5.6265">
        <ele>542.9</ele>
        <time>2019-07-29T08:53:29.000Z</time>
      </trkpt>
      <trkpt lat="46.68301" lon="5.62672">
        <ele>547</ele>
        <time>2019-07-29T08:53:59.000Z</time>
      </trkpt>
      <trkpt lat="46.68326" lon="5.62682">
        <ele>547</ele>
        <time>2019-07-29T08:54:09.000Z</time>
      </trkpt>
      <trkpt lat="46.68356" lon="5.62694">
        <ele>545</ele>
        <time>2019-07-29T08:53:56.000Z</time>
      </trkpt>
      <trkpt lat="46.68379" lon="5.62697">
        <ele>545</ele>
        <time>2019-07-29T08:54:06.000Z</time>
      </trkpt>
      <trkpt lat="46.68392" lon="5.62696">
        <ele>544.2</ele>
        <time>2019-07-29T08:54:16.000Z</time>
      </trkpt>
      <trkpt lat="46.68401" lon="5.62694">
        <ele>541</ele>
        <time>2019-07-29T08:54:26.000Z</time>
      </trkpt>
      <trkpt lat="46.6841" lon="5.62693">
        <ele>544.7</ele>
        <time>2019-07-29T08:54:36.000Z</time>
      </trkpt>
      <trkpt lat="46.68416" lon="5.62693">
        <ele>544.9</ele>
        <time>2019-07-29T08:54:46.000Z</time>
      </trkpt>
      <trkpt lat="46.68426" lon="5.62691">
        <ele>543</ele>
        <time>2019-07-29T08:54:43.000Z</time>
      </trkpt>
      <trkpt lat="46.68435" lon="5.62688">
        <ele>544.3</ele>
        <time>2019-07-29T08:54:53.000Z</time>
      </trkpt>
      <trkpt lat="46.6844" lon="5.62685">
        <ele>544.1</ele>
        <time>2019-07-29T08:55:03.000Z</time>
      </trkpt>
      <trkpt lat="46.68446" lon="5.62683">
        <ele>545</ele>
        <time>2019-07-29T08:55:13.000Z</time>
      </trkpt>
      <trkpt lat="46.68464" lon="5.62681">
        <ele>544.7</ele>
        <time>2019-07-29T08:55:23.000Z</time>
      </trkpt>
      <trkpt lat="46.68478" lon="5.62678">
        <ele>544</ele>
        <time>2019-07-29T08:55:33.000Z</time>
      </trkpt>
      <trkpt lat="46.68486" lon="5.62675">
        <ele>545.3</ele>
        <time>2019-07-29T08:55:43.000Z</time>
      </trkpt>
      <trkpt lat="46.68505" lon="5.62684">
        <ele>544</ele>
        <time>2019-07-29T08:55:53.000Z</time>
      </trkpt>
      <trkpt lat="46.68515" lon="5.62686">
        <ele>545.8</ele>
        <time>2019-07-29T08:56:03.000Z</time>
      </trkpt>
      <trkpt lat="46.68523" lon="5.62691">
        <ele>547</ele>
        <time>2019-07-29T08:56:13.000Z</time>
      </trkpt>
      <trkpt lat="46.68529" lon="5.62691">
        <ele>546.1</ele>
        <time>2019-07-29T08:56:23.000Z</time>
      </trkpt>
      <trkpt lat="46.68538" lon="5.62694">
        <ele>546</ele>
        <time>2019-07-29T08:56:33.000Z</time>
      </trkpt>
      <trkpt lat="46.68543" lon="5.62691">
        <ele>547</ele>
        <time>2019-07-29T08:56:43.000Z</time>
      </trkpt>
      <trkpt lat="46.68547" lon="5.62695">
        <ele>546</ele>
        <time>2019-07-29T08:56:53.000Z</time>
      </trkpt>
      <trkpt lat="46.68551" lon="5.62695">
        <ele>546</ele>
        <time>2019-07-29T08:57:03.000Z</time>
      </trkpt>
      <trkpt lat="46.68552" lon="5.62697">
        <ele>546</ele>
        <time>2019-07-29T08:57:13.000Z</time>
      </trkpt>
      <trkpt lat="46.68558" lon="5.62704">
        <ele>546.1</ele>
        <time>2019-07-29T08:57:23.000Z</time>
      </trkpt>
      <trkpt lat="46.68563" lon="5.62702">
        <ele>547</ele>
        <time>2019-07-29T08:57:33.000Z</time>
      </trkpt>
      <trkpt lat="46.68559" lon="5.62724">
        <ele>546</ele>
        <time>2019-07-29T08:57:43.000Z</time>
      </trkpt>
      <trkpt lat="46.68559" lon="5.62738">
        <ele>548</ele>
        <time>2019-07-29T08:58:03.000Z</time>
      </trkpt>
      <trkpt lat="46.68555" lon="5.62754">
        <ele>543.9</ele>
        <time>2019-07-29T08:58:13.000Z</time>
      </trkpt>
      <trkpt lat="46.68554" lon="5.62767">
        <ele>546</ele>
        <time>2019-07-29T08:58:23.000Z</time>
      </trkpt>
      <trkpt lat="46.68542" lon="5.62801">
        <ele>544</ele>
        <time>2019-07-29T08:58:33.000Z</time>
      </trkpt>
      <trkpt lat="46.68536" lon="5.6284">
        <ele>544</ele>
        <time>2019-07-29T08:58:53.000Z</time>
      </trkpt>
      <trkpt lat="46.68543" lon="5.62846">
        <ele>542.8</ele>
        <time>2019-07-29T08:59:03.000Z</time>
      </trkpt>
      <trkpt lat="46.68547" lon="5.62852">
        <ele>542.8</ele>
        <time>2019-07-29T08:59:13.000Z</time>
      </trkpt>
      <trkpt lat="46.68557" lon="5.62861">
        <ele>547</ele>
        <time>2019-07-29T08:59:33.000Z</time>
      </trkpt>
      <trkpt lat="46.68562" lon="5.62863">
        <ele>543.5</ele>
        <time>2019-07-29T08:59:43.000Z</time>
      </trkpt>
      <trkpt lat="46.68575" lon="5.62871">
        <ele>547</ele>
        <time>2019-07-29T08:59:53.000Z</time>
      </trkpt>
      <trkpt lat="46.68579" lon="5.62875">
        <ele>544.3</ele>
        <time>2019-07-29T09:00:03.000Z</time>
      </trkpt>
      <trkpt lat="46.68584" lon="5.62878">
        <ele>544.4</ele>
        <time>2019-07-29T09:00:13.000Z</time>
      </trkpt>
      <trkpt lat="46.68587" lon="5.62882">
        <ele>544.4</ele>
        <time>2019-07-29T09:00:23.000Z</time>
      </trkpt>
      <trkpt lat="46.68591" lon="5.62889">
        <ele>547</ele>
        <time>2019-07-29T09:00:33.000Z</time>
      </trkpt>
      <trkpt lat="46.68599" lon="5.62906">
        <ele>543.9</ele>
        <time>2019-07-29T09:00:43.000Z</time>
      </trkpt>
      <trkpt lat="46.68605" lon="5.62927">
        <ele>547</ele>
        <time>2019-07-29T09:00:53.000Z</time>
      </trkpt>
      <trkpt lat="46.68624" lon="5.62981">
        <ele>546</ele>
        <time>2019-07-29T08:58:00.000Z</time>
      </trkpt>
      <trkpt lat="46.68636" lon="5.63022">
        <ele>545</ele>
        <time>2019-07-29T08:58:12.000Z</time>
      </trkpt>
      <trkpt lat="46.68641" lon="5.63036">
        <ele>539.6</ele>
        <time>2019-07-29T08:58:22.000Z</time>
      </trkpt>
      <trkpt lat="46.68648" lon="5.63047">
        <ele>545</ele>
        <time>2019-07-29T08:58:32.000Z</time>
      </trkpt>
      <trkpt lat="46.68653" lon="5.63051">
        <ele>539.3</ele>
        <time>2019-07-29T08:58:42.000Z</time>
      </trkpt>
      <trkpt lat="46.6866" lon="5.63063">
        <ele>539</ele>
        <time>2019-07-29T08:58:52.000Z</time>
      </trkpt>
      <trkpt lat="46.68664" lon="5.63068">
        <ele>550</ele>
        <time>2019-07-29T08:59:02.000Z</time>
      </trkpt>
      <trkpt lat="46.6869" lon="5.63094">
        <ele>546</ele>
        <time>2019-07-29T08:58:46.000Z</time>
      </trkpt>
      <trkpt lat="46.68707" lon="5.63108">
        <ele>542</ele>
        <time>2019-07-29T08:59:06.000Z</time>
      </trkpt>
      <trkpt lat="46.68716" lon="5.63113">
        <ele>536.2</ele>
        <time>2019-07-29T08:59:16.000Z</time>
      </trkpt>
      <trkpt lat="46.68731" lon="5.63116">
        <ele>532</ele>
        <time>2019-07-29T08:59:26.000Z</time>
      </trkpt>
      <trkpt lat="46.68772" lon="5.63115">
        <ele>526</ele>
        <time>2019-07-29T08:59:18.000Z</time>
      </trkpt>
      <trkpt lat="46.68798" lon="5.63123">
        <ele>526</ele>
        <time>2019-07-29T08:59:38.000Z</time>
      </trkpt>
      <trkpt lat="46.68809" lon="5.63128">
        <ele>531.3</ele>
        <time>2019-07-29T08:59:48.000Z</time>
      </trkpt>
      <trkpt lat="46.68833" lon="5.63133">
        <ele>531</ele>
        <time>2019-07-29T08:59:58.000Z</time>
      </trkpt>
      <trkpt lat="46.68841" lon="5.63137">
        <ele>531.4</ele>
        <time>2019-07-29T09:00:08.000Z</time>
      </trkpt>
      <trkpt lat="46.68847" lon="5.63141">
        <ele>531.3</ele>
        <time>2019-07-29T09:00:18.000Z</time>
      </trkpt>
      <trkpt lat="46.68854" lon="5.6315">
        <ele>536</ele>
        <time>2019-07-29T09:00:28.000Z</time>
      </trkpt>
      <trkpt lat="46.68858" lon="5.63162">
        <ele>530.1</ele>
        <time>2019-07-29T09:00:38.000Z</time>
      </trkpt>
      <trkpt lat="46.6886" lon="5.63171">
        <ele>529.6</ele>
        <time>2019-07-29T09:00:48.000Z</time>
      </trkpt>
      <trkpt lat="46.68861" lon="5.63183">
        <ele>534</ele>
        <time>2019-07-29T09:00:58.000Z</time>
      </trkpt>
      <trkpt lat="46.6886" lon="5.63193">
        <ele>528</ele>
        <time>2019-07-29T09:01:08.000Z</time>
      </trkpt>
      <trkpt lat="46.68843" lon="5.63213">
        <ele>533</ele>
        <time>2019-07-29T09:00:10.000Z</time>
      </trkpt>
      <trkpt lat="46.68836" lon="5.63219">
        <ele>523.4</ele>
        <time>2019-07-29T09:00:20.000Z</time>
      </trkpt>
      <trkpt lat="46.68809" lon="5.63247">
        <ele>531</ele>
        <time>2019-07-29T09:00:33.000Z</time>
      </trkpt>
      <trkpt lat="46.688" lon="5.63249">
        <ele>519.3</ele>
        <time>2019-07-29T09:00:43.000Z</time>
      </trkpt>
      <trkpt lat="46.6879" lon="5.63246">
        <ele>525</ele>
        <time>2019-07-29T09:00:53.000Z</time>
      </trkpt>
      <trkpt lat="46.68783" lon="5.6324">
        <ele>520.8</ele>
        <time>2019-07-29T09:01:03.000Z</time>
      </trkpt>
      <trkpt lat="46.68775" lon="5.63239">
        <ele>521.6</ele>
        <time>2019-07-29T09:01:13.000Z</time>
      </trkpt>
      <trkpt lat="46.68762" lon="5.63264">
        <ele>524</ele>
        <time>2019-07-29T09:01:11.000Z</time>
      </trkpt>
      <trkpt lat="46.68759" lon="5.63275">
        <ele>520.3</ele>
        <time>2019-07-29T09:01:21.000Z</time>
      </trkpt>
      <trkpt lat="46.68755" lon="5.63284">
        <ele>519.8</ele>
        <time>2019-07-29T09:01:31.000Z</time>
      </trkpt>
      <trkpt lat="46.68751" lon="5.63308">
        <ele>524</ele>
        <time>2019-07-29T09:01:29.000Z</time>
      </trkpt>
      <trkpt lat="46.6875" lon="5.63319">
        <ele>516.5</ele>
        <time>2019-07-29T09:01:39.000Z</time>
      </trkpt>
      <trkpt lat="46.68751" lon="5.6333">
        <ele>515.4</ele>
        <time>2019-07-29T09:01:49.000Z</time>
      </trkpt>
      <trkpt lat="46.68751" lon="5.63354">
        <ele>526</ele>
        <time>2019-07-29T09:02:09.000Z</time>
      </trkpt>
      <trkpt lat="46.68759" lon="5.63381">
        <ele>527</ele>
        <time>2019-07-29T09:02:29.000Z</time>
      </trkpt>
      <trkpt lat="46.68761" lon="5.6339">
        <ele>514.6</ele>
        <time>2019-07-29T09:02:39.000Z</time>
      </trkpt>
      <trkpt lat="46.68767" lon="5.63406">
        <ele>527</ele>
        <time>2019-07-29T09:02:49.000Z</time>
      </trkpt>
      <trkpt lat="46.68775" lon="5.63433">
        <ele>527</ele>
        <time>2019-07-29T09:03:09.000Z</time>
      </trkpt>
      <trkpt lat="46.6878" lon="5.63437">
        <ele>512.3</ele>
        <time>2019-07-29T09:03:19.000Z</time>
      </trkpt>
      <trkpt lat="46.68791" lon="5.63448">
        <ele>527</ele>
        <time>2019-07-29T09:02:21.000Z</time>
      </trkpt>
      <trkpt lat="46.688" lon="5.63463">
        <ele>512</ele>
        <time>2019-07-29T09:02:31.000Z</time>
      </trkpt>
      <trkpt lat="46.68804" lon="5.63459">
        <ele>527</ele>
        <time>2019-07-29T09:02:51.000Z</time>
      </trkpt>
      <trkpt lat="46.68811" lon="5.63462">
        <ele>512.2</ele>
        <time>2019-07-29T09:03:01.000Z</time>
      </trkpt>
      <trkpt lat="46.68822" lon="5.63469">
        <ele>527</ele>
        <time>2019-07-29T09:03:11.000Z</time>
      </trkpt>
      <trkpt lat="46.68829" lon="5.63469">
        <ele>512.8</ele>
        <time>2019-07-29T09:03:21.000Z</time>
      </trkpt>
      <trkpt lat="46.68832" lon="5.63468">
        <ele>513</ele>
        <time>2019-07-29T09:03:31.000Z</time>
      </trkpt>
      <trkpt lat="46.68839" lon="5.63462">
        <ele>513.2</ele>
        <time>2019-07-29T09:03:41.000Z</time>
      </trkpt>
      <trkpt lat="46.6885" lon="5.63457">
        <ele>527</ele>
        <time>2019-07-29T09:04:01.000Z</time>
      </trkpt>
      <trkpt lat="46.68857" lon="5.63458">
        <ele>513.9</ele>
        <time>2019-07-29T09:04:11.000Z</time>
      </trkpt>
      <trkpt lat="46.68862" lon="5.63457">
        <ele>514</ele>
        <time>2019-07-29T09:04:21.000Z</time>
      </trkpt>
      <trkpt lat="46.68868" lon="5.63458">
        <ele>514.1</ele>
        <time>2019-07-29T09:04:31.000Z</time>
      </trkpt>
      <trkpt lat="46.68874" lon="5.6346">
        <ele>522</ele>
        <time>2019-07-29T09:04:41.000Z</time>
      </trkpt>
      <trkpt lat="46.68878" lon="5.63468">
        <ele>514.1</ele>
        <time>2019-07-29T09:04:51.000Z</time>
      </trkpt>
      <trkpt lat="46.68889" lon="5.63481">
        <ele>520</ele>
        <time>2019-07-29T09:05:11.000Z</time>
      </trkpt>
      <trkpt lat="46.68894" lon="5.63492">
        <ele>513.2</ele>
        <time>2019-07-29T09:05:21.000Z</time>
      </trkpt>
      <trkpt lat="46.68897" lon="5.63503">
        <ele>513</ele>
        <time>2019-07-29T09:05:31.000Z</time>
      </trkpt>
      <trkpt lat="46.68903" lon="5.63532">
        <ele>518</ele>
        <time>2019-07-29T09:05:41.000Z</time>
      </trkpt>
      <trkpt lat="46.689" lon="5.63567">
        <ele>517</ele>
        <time>2019-07-29T09:06:01.000Z</time>
      </trkpt>
      <trkpt lat="46.68898" lon="5.63579">
        <ele>509.9</ele>
        <time>2019-07-29T09:06:11.000Z</time>
      </trkpt>
      <trkpt lat="46.68894" lon="5.6359">
        <ele>509.1</ele>
        <time>2019-07-29T09:06:21.000Z</time>
      </trkpt>
      <trkpt lat="46.68887" lon="5.63626">
        <ele>517</ele>
        <time>2019-07-29T09:04:44.000Z</time>
      </trkpt>
      <trkpt lat="46.68882" lon="5.63657">
        <ele>512</ele>
        <time>2019-07-29T09:04:54.000Z</time>
      </trkpt>
      <trkpt lat="46.68882" lon="5.63668">
        <ele>506.8</ele>
        <time>2019-07-29T09:05:04.000Z</time>
      </trkpt>
      <trkpt lat="46.6888" lon="5.63677">
        <ele>506.7</ele>
        <time>2019-07-29T09:05:14.000Z</time>
      </trkpt>
      <trkpt lat="46.68874" lon="5.63695">
        <ele>499</ele>
        <time>2019-07-29T09:05:24.000Z</time>
      </trkpt>
      <trkpt lat="46.68872" lon="5.63703">
        <ele>501.5</ele>
        <time>2019-07-29T09:05:34.000Z</time>
      </trkpt>
      <trkpt lat="46.68871" lon="5.63711">
        <ele>497.6</ele>
        <time>2019-07-29T09:05:44.000Z</time>
      </trkpt>
      <trkpt lat="46.68868" lon="5.63719">
        <ele>496.1</ele>
        <time>2019-07-29T09:05:54.000Z</time>
      </trkpt>
      <trkpt lat="46.68863" lon="5.63724">
        <ele>492</ele>
        <time>2019-07-29T09:06:04.000Z</time>
      </trkpt>
      <trkpt lat="46.68858" lon="5.63727">
        <ele>494.7</ele>
        <time>2019-07-29T09:06:14.000Z</time>
      </trkpt>
      <trkpt lat="46.68839" lon="5.63743">
        <ele>492</ele>
        <time>2019-07-29T09:06:34.000Z</time>
      </trkpt>
      <trkpt lat="46.68833" lon="5.63749">
        <ele>496.4</ele>
        <time>2019-07-29T09:06:44.000Z</time>
      </trkpt>
      <trkpt lat="46.68824" lon="5.63762">
        <ele>492</ele>
        <time>2019-07-29T09:06:54.000Z</time>
      </trkpt>
      <trkpt lat="46.6882" lon="5.63769">
        <ele>487.2</ele>
        <time>2019-07-29T09:07:04.000Z</time>
      </trkpt>
      <trkpt lat="46.68817" lon="5.63777">
        <ele>486.5</ele>
        <time>2019-07-29T09:07:14.000Z</time>
      </trkpt>
      <trkpt lat="46.68814" lon="5.63797">
        <ele>494</ele>
        <time>2019-07-29T09:07:24.000Z</time>
      </trkpt>
      <trkpt lat="46.68814" lon="5.63807">
        <ele>488.9</ele>
        <time>2019-07-29T09:07:34.000Z</time>
      </trkpt>
      <trkpt lat="46.68815" lon="5.63823">
        <ele>486.3</ele>
        <time>2019-07-29T09:07:44.000Z</time>
      </trkpt>
      <trkpt lat="46.68815" lon="5.63837">
        <ele>496</ele>
        <time>2019-07-29T09:07:54.000Z</time>
      </trkpt>
      <trkpt lat="46.68813" lon="5.63854">
        <ele>490.2</ele>
        <time>2019-07-29T09:08:04.000Z</time>
      </trkpt>
      <trkpt lat="46.68814" lon="5.63859">
        <ele>487.9</ele>
        <time>2019-07-29T09:08:14.000Z</time>
      </trkpt>
      <trkpt lat="46.68813" lon="5.63869">
        <ele>499</ele>
        <time>2019-07-29T09:08:24.000Z</time>
      </trkpt>
      <trkpt lat="46.68811" lon="5.63875">
        <ele>494.6</ele>
        <time>2019-07-29T09:08:34.000Z</time>
      </trkpt>
      <trkpt lat="46.68807" lon="5.63907">
        <ele>503</ele>
        <time>2019-07-29T09:08:54.000Z</time>
      </trkpt>
      <trkpt lat="46.68806" lon="5.63912">
        <ele>505.2</ele>
        <time>2019-07-29T09:09:04.000Z</time>
      </trkpt>
      <trkpt lat="46.68802" lon="5.63923">
        <ele>503.9</ele>
        <time>2019-07-29T09:09:14.000Z</time>
      </trkpt>
      <trkpt lat="46.68793" lon="5.63955">
        <ele>511</ele>
        <time>2019-07-29T09:07:29.000Z</time>
      </trkpt>
      <trkpt lat="46.68792" lon="5.6397">
        <ele>504.1</ele>
        <time>2019-07-29T09:07:39.000Z</time>
        <extensions>
          <visugpx:TrkExtension xmlns:visugpx="https://www.visugpx.com/editgpx/">
            <visugpx:node>1</visugpx:node>
            </visugpx:TrkExtension>
        </extensions>
      </trkpt>
      <trkpt lat="46.68788" lon="5.63974">
        <ele>504.9</ele>
      </trkpt>
      <trkpt lat="46.6879" lon="5.63982">
        <ele>505</ele>
      </trkpt>
      <trkpt lat="46.68796" lon="5.6401">
        <ele>505.2</ele>
      </trkpt>
      <trkpt lat="46.68801" lon="5.64036">
        <ele>504.7</ele>
      </trkpt>
      <trkpt lat="46.68805" lon="5.64055">
        <ele>504</ele>
      </trkpt>
      <trkpt lat="46.68808" lon="5.6407">
        <ele>503.3</ele>
      </trkpt>
      <trkpt lat="46.68818" lon="5.64124">
        <ele>502.8</ele>
      </trkpt>
      <trkpt lat="46.68822" lon="5.6415">
        <ele>503.2</ele>
      </trkpt>
      <trkpt lat="46.68827" lon="5.64177">
        <ele>504.1</ele>
      </trkpt>
      <trkpt lat="46.68829" lon="5.642">
        <ele>504.8</ele>
      </trkpt>
      <trkpt lat="46.68829" lon="5.64222">
        <ele>504.8</ele>
      </trkpt>
      <trkpt lat="46.68827" lon="5.64229">
        <ele>505</ele>
      </trkpt>
      <trkpt lat="46.68846" lon="5.64238">
        <ele>506.5</ele>
      </trkpt>
      <trkpt lat="46.68861" lon="5.64248">
        <ele>507.9</ele>
      </trkpt>
      <trkpt lat="46.6887" lon="5.64257">
        <ele>508.6</ele>
      </trkpt>
      <trkpt lat="46.68878" lon="5.64268">
        <ele>509.2</ele>
        <extensions>
          <visugpx:TrkExtension xmlns:visugpx="https://www.visugpx.com/editgpx/">
            <visugpx:node>4</visugpx:node>
            </visugpx:TrkExtension>
        </extensions>
      </trkpt>
      <trkpt lat="46.68897" lon="5.64265">
        <ele>510.6</ele>
      </trkpt>
      <trkpt lat="46.68919" lon="5.64261">
        <ele>512.2</ele>
      </trkpt>
      <trkpt lat="46.68932" lon="5.64257">
        <ele>513.1</ele>
      </trkpt>
      <trkpt lat="46.68953" lon="5.64244">
        <ele>514.5</ele>
      </trkpt>
      <trkpt lat="46.68974" lon="5.64242">
        <ele>516.1</ele>
      </trkpt>
      <trkpt lat="46.68993" lon="5.64249">
        <ele>517.5</ele>
      </trkpt>
      <trkpt lat="46.69009" lon="5.64255">
        <ele>518.3</ele>
      </trkpt>
      <trkpt lat="46.69035" lon="5.64275">
        <ele>519</ele>
      </trkpt>
      <trkpt lat="46.69051" lon="5.64288">
        <ele>518.9</ele>
      </trkpt>
      <trkpt lat="46.69072" lon="5.64314">
        <ele>519.3</ele>
      </trkpt>
      <trkpt lat="46.69097" lon="5.64356">
        <ele>519.6</ele>
      </trkpt>
      <trkpt lat="46.69128" lon="5.64401">
        <ele>518.6</ele>
      </trkpt>
      <trkpt lat="46.69145" lon="5.64425">
        <ele>517.5</ele>
      </trkpt>
      <trkpt lat="46.69155" lon="5.64438">
        <ele>516.7</ele>
        <extensions>
          <visugpx:TrkExtension xmlns:visugpx="https://www.visugpx.com/editgpx/">
            <visugpx:node>5</visugpx:node>
            </visugpx:TrkExtension>
        </extensions>
      </trkpt>
      <trkpt lat="46.69158" lon="5.64442">
        <ele>516.4</ele>
      </trkpt>
      <trkpt lat="46.69166" lon="5.64445">
        <ele>516</ele>
      </trkpt>
      <trkpt lat="46.69176" lon="5.64448">
        <ele>514.3</ele>
      </trkpt>
      <trkpt lat="46.69199" lon="5.64446">
        <ele>511.6</ele>
      </trkpt>
      <trkpt lat="46.69222" lon="5.64446">
        <ele>511</ele>
      </trkpt>
      <trkpt lat="46.69238" lon="5.64455">
        <ele>512</ele>
      </trkpt>
      <trkpt lat="46.69275" lon="5.64483">
        <ele>516.6</ele>
      </trkpt>
      <trkpt lat="46.69317" lon="5.64504">
        <ele>520.8</ele>
      </trkpt>
      <trkpt lat="46.69336" lon="5.64504">
        <ele>522</ele>
      </trkpt>
      <trkpt lat="46.69353" lon="5.64493">
        <ele>522</ele>
      </trkpt>
      <trkpt lat="46.69365" lon="5.64485">
        <ele>522</ele>
      </trkpt>
      <trkpt lat="46.69397" lon="5.64448">
        <ele>520.5</ele>
      </trkpt>
      <trkpt lat="46.69422" lon="5.64435">
        <ele>520.9</ele>
      </trkpt>
      <trkpt lat="46.69441" lon="5.64433">
        <ele>520.3</ele>
      </trkpt>
      <trkpt lat="46.69457" lon="5.64444">
        <ele>519.7</ele>
      </trkpt>
      <trkpt lat="46.69472" lon="5.64478">
        <ele>516.8</ele>
      </trkpt>
      <trkpt lat="46.69473" lon="5.64483">
        <ele>516.4</ele>
        <extensions>
          <visugpx:TrkExtension xmlns:visugpx="https://www.visugpx.com/editgpx/">
            <visugpx:node>6</visugpx:node>
            </visugpx:TrkExtension>
        </extensions>
      </trkpt>
      <trkpt lat="46.69479" lon="5.6451">
        <ele>513.5</ele>
      </trkpt>
      <trkpt lat="46.69487" lon="5.64524">
        <ele>512.6</ele>
      </trkpt>
      <trkpt lat="46.69507" lon="5.64529">
        <ele>512.3</ele>
      </trkpt>
      <trkpt lat="46.69528" lon="5.6453">
        <ele>513.2</ele>
      </trkpt>
      <trkpt lat="46.69566" lon="5.64545">
        <ele>515.2</ele>
      </trkpt>
      <trkpt lat="46.69594" lon="5.64557">
        <ele>518.4</ele>
      </trkpt>
      <trkpt lat="46.69625" lon="5.64567">
        <ele>520</ele>
      </trkpt>
      <trkpt lat="46.69649" lon="5.64568">
        <ele>520.8</ele>
      </trkpt>
      <trkpt lat="46.69668" lon="5.64565">
        <ele>520</ele>
      </trkpt>
      <trkpt lat="46.69693" lon="5.64575">
        <ele>517.5</ele>
      </trkpt>
      <trkpt lat="46.69717" lon="5.64592">
        <ele>518.3</ele>
      </trkpt>
      <trkpt lat="46.69753" lon="5.646">
        <ele>518.1</ele>
      </trkpt>
      <trkpt lat="46.69752" lon="5.64603">
        <ele>518.3</ele>
        <extensions>
          <visugpx:TrkExtension xmlns:visugpx="https://www.visugpx.com/editgpx/">
            <visugpx:node>7</visugpx:node>
            </visugpx:TrkExtension>
        </extensions>
      </trkpt>
      <trkpt lat="46.69753" lon="5.646">
        <ele>518.1</ele>
      </trkpt>
      <trkpt lat="46.69791" lon="5.64605">
        <ele>516.7</ele>
      </trkpt>
      <trkpt lat="46.69812" lon="5.64612">
        <ele>515.3</ele>
      </trkpt>
      <trkpt lat="46.69828" lon="5.64616">
        <ele>513.8</ele>
      </trkpt>
      <trkpt lat="46.69845" lon="5.64619">
        <ele>512.4</ele>
      </trkpt>
      <trkpt lat="46.69865" lon="5.64615">
        <ele>511.6</ele>
      </trkpt>
      <trkpt lat="46.69879" lon="5.64616">
        <ele>511.5</ele>
      </trkpt>
      <trkpt lat="46.69892" lon="5.64619">
        <ele>510.9</ele>
      </trkpt>
      <trkpt lat="46.69908" lon="5.64634">
        <ele>509.7</ele>
      </trkpt>
      <trkpt lat="46.69928" lon="5.64639">
        <ele>508.8</ele>
      </trkpt>
      <trkpt lat="46.69949" lon="5.64645">
        <ele>501.6</ele>
      </trkpt>
      <trkpt lat="46.69966" lon="5.64655">
        <ele>494</ele>
      </trkpt>
      <trkpt lat="46.69985" lon="5.64674">
        <ele>491.7</ele>
      </trkpt>
      <trkpt lat="46.70005" lon="5.64701">
        <ele>498.1</ele>
      </trkpt>
      <trkpt lat="46.70016" lon="5.64728">
        <ele>503</ele>
      </trkpt>
      <trkpt lat="46.70026" lon="5.64754">
        <ele>503.2</ele>
      </trkpt>
      <trkpt lat="46.70038" lon="5.64773">
        <ele>498.3</ele>
      </trkpt>
      <trkpt lat="46.70053" lon="5.64778">
        <ele>497.5</ele>
      </trkpt>
      <trkpt lat="46.70065" lon="5.64783">
        <ele>488</ele>
      </trkpt>
      <trkpt lat="46.70073" lon="5.64795">
        <ele>483.4</ele>
      </trkpt>
      <trkpt lat="46.70073" lon="5.64796">
        <ele>483.7</ele>
        <extensions>
          <visugpx:TrkExtension xmlns:visugpx="https://www.visugpx.com/editgpx/">
            <visugpx:node>8</visugpx:node>
            </visugpx:TrkExtension>
        </extensions>
      </trkpt>
      <trkpt lat="46.70073" lon="5.64803">
        <ele>485.8</ele>
      </trkpt>
      <trkpt lat="46.7007" lon="5.64813">
        <ele>485.3</ele>
      </trkpt>
      <trkpt lat="46.70047" lon="5.64832">
        <ele>502.3</ele>
      </trkpt>
      <trkpt lat="46.70037" lon="5.64841">
        <ele>498.9</ele>
      </trkpt>
      <trkpt lat="46.70025" lon="5.64867">
        <ele>500.8</ele>
      </trkpt>
      <trkpt lat="46.70015" lon="5.64886">
        <ele>497.3</ele>
      </trkpt>
      <trkpt lat="46.69989" lon="5.6491">
        <ele>505.3</ele>
      </trkpt>
      <trkpt lat="46.69965" lon="5.64936">
        <ele>506.7</ele>
      </trkpt>
      <trkpt lat="46.69944" lon="5.64938">
        <ele>505.8</ele>
      </trkpt>
      <trkpt lat="46.69923" lon="5.64941">
        <ele>507.4</ele>
      </trkpt>
      <trkpt lat="46.69917" lon="5.64945">
        <ele>508</ele>
      </trkpt>
      <trkpt lat="46.6991" lon="5.64957">
        <ele>508.3</ele>
      </trkpt>
      <trkpt lat="46.69906" lon="5.64982">
        <ele>509</ele>
      </trkpt>
      <trkpt lat="46.69896" lon="5.6502">
        <ele>510.5</ele>
      </trkpt>
      <trkpt lat="46.69878" lon="5.65059">
        <ele>510.7</ele>
      </trkpt>
      <trkpt lat="46.6985" lon="5.65098">
        <ele>508.4</ele>
      </trkpt>
      <trkpt lat="46.69819" lon="5.65125">
        <ele>507.2</ele>
      </trkpt>
      <trkpt lat="46.69783" lon="5.65143">
        <ele>506.9</ele>
      </trkpt>
      <trkpt lat="46.69758" lon="5.65164">
        <ele>505.6</ele>
      </trkpt>
      <trkpt lat="46.69742" lon="5.65176">
        <ele>505.1</ele>
      </trkpt>
      <trkpt lat="46.69681" lon="5.65193">
        <ele>505</ele>
      </trkpt>
      <trkpt lat="46.6966" lon="5.65202">
        <ele>502.7</ele>
        <extensions>
          <visugpx:TrkExtension xmlns:visugpx="https://www.visugpx.com/editgpx/">
            <visugpx:node>9</visugpx:node>
            </visugpx:TrkExtension>
        </extensions>
      </trkpt>
      <trkpt lat="46.69636" lon="5.65212">
        <ele>503.9</ele>
      </trkpt>
      <trkpt lat="46.69619" lon="5.65235">
        <ele>499</ele>
      </trkpt>
      <trkpt lat="46.69614" lon="5.65239">
        <ele>502</ele>
      </trkpt>
      <trkpt lat="46.69607" lon="5.6525">
        <ele>505</ele>
      </trkpt>
      <trkpt lat="46.696" lon="5.65256">
        <ele>499.8</ele>
      </trkpt>
      <trkpt lat="46.69591" lon="5.65261">
        <ele>500.8</ele>
      </trkpt>
      <trkpt lat="46.69567" lon="5.65333">
        <ele>493.9</ele>
        <extensions>
          <visugpx:TrkExtension xmlns:visugpx="https://www.visugpx.com/editgpx/">
            <visugpx:node>10</visugpx:node>
            </visugpx:TrkExtension>
        </extensions>
      </trkpt>
      <trkpt lat="46.69563" lon="5.65344">
        <ele>497.7</ele>
      </trkpt>
      <trkpt lat="46.69551" lon="5.65435">
        <ele>500.6</ele>
      </trkpt>
      <trkpt lat="46.69566" lon="5.65512">
        <ele>503</ele>
      </trkpt>
      <trkpt lat="46.69566" lon="5.65542">
        <ele>495.8</ele>
      </trkpt>
      <trkpt lat="46.69555" lon="5.6558">
        <ele>508.9</ele>
      </trkpt>
      <trkpt lat="46.69548" lon="5.65599">
        <ele>509.4</ele>
      </trkpt>
      <trkpt lat="46.69549" lon="5.65633">
        <ele>503</ele>
      </trkpt>
      <trkpt lat="46.69544" lon="5.65736">
        <ele>506.7</ele>
      </trkpt>
      <trkpt lat="46.69542" lon="5.65802">
        <ele>495.5</ele>
      </trkpt>
      <trkpt lat="46.6954" lon="5.65879">
        <ele>497.3</ele>
      </trkpt>
      <trkpt lat="46.69557" lon="5.6595">
        <ele>506.1</ele>
      </trkpt>
      <trkpt lat="46.69597" lon="5.66001">
        <ele>506.5</ele>
      </trkpt>
      <trkpt lat="46.69599" lon="5.66002">
        <ele>506.8</ele>
        <extensions>
          <visugpx:TrkExtension xmlns:visugpx="https://www.visugpx.com/editgpx/">
            <visugpx:node>4</visugpx:node>
            </visugpx:TrkExtension>
        </extensions>
      </trkpt>
      <trkpt lat="46.69597" lon="5.66001">
        <ele>506.5</ele>
      </trkpt>
      <trkpt lat="46.69637" lon="5.66003">
        <ele>503.1</ele>
      </trkpt>
      <trkpt lat="46.69676" lon="5.66003">
        <ele>504.3</ele>
      </trkpt>
      <trkpt lat="46.69706" lon="5.66002">
        <ele>512.5</ele>
      </trkpt>
      <trkpt lat="46.69725" lon="5.66008">
        <ele>508.6</ele>
      </trkpt>
      <trkpt lat="46.69732" lon="5.6602">
        <ele>500.1</ele>
        <extensions>
          <visugpx:TrkExtension xmlns:visugpx="https://www.visugpx.com/editgpx/">
            <visugpx:node>5</visugpx:node>
            </visugpx:TrkExtension>
        </extensions>
      </trkpt>
      <trkpt lat="46.69738" lon="5.66029">
        <ele>495.5</ele>
      </trkpt>
      <trkpt lat="46.69758" lon="5.66064">
        <ele>505</ele>
      </trkpt>
      <trkpt lat="46.6977" lon="5.6607">
        <ele>500.2</ele>
      </trkpt>
      <trkpt lat="46.69788" lon="5.66072">
        <ele>496.4</ele>
      </trkpt>
      <trkpt lat="46.69812" lon="5.66071">
        <ele>494.4</ele>
      </trkpt>
      <trkpt lat="46.69834" lon="5.66059">
        <ele>496.6</ele>
      </trkpt>
      <trkpt lat="46.69859" lon="5.66038">
        <ele>492</ele>
      </trkpt>
      <trkpt lat="46.69866" lon="5.66031">
        <ele>491.6</ele>
      </trkpt>
      <trkpt lat="46.69878" lon="5.66031">
        <ele>501.2</ele>
      </trkpt>
      <trkpt lat="46.6989" lon="5.66028">
        <ele>509.9</ele>
        <extensions>
          <visugpx:TrkExtension xmlns:visugpx="https://www.visugpx.com/editgpx/">
            <visugpx:node>6</visugpx:node>
            </visugpx:TrkExtension>
        </extensions>
      </trkpt>
      <trkpt lat="46.69912" lon="5.66021">
        <ele>505.2</ele>
      </trkpt>
      <trkpt lat="46.69936" lon="5.66007">
        <ele>507.1</ele>
      </trkpt>
      <trkpt lat="46.69946" lon="5.65981">
        <ele>509.8</ele>
      </trkpt>
      <trkpt lat="46.69964" lon="5.65925">
        <ele>502.7</ele>
      </trkpt>
      <trkpt lat="46.69985" lon="5.65881">
        <ele>495.3</ele>
      </trkpt>
      <trkpt lat="46.69986" lon="5.65853">
        <ele>488.8</ele>
      </trkpt>
      <trkpt lat="46.69993" lon="5.65844">
        <ele>500.1</ele>
      </trkpt>
      <trkpt lat="46.70034" lon="5.65802">
        <ele>506.2</ele>
      </trkpt>
      <trkpt lat="46.7007" lon="5.65773">
        <ele>510.2</ele>
      </trkpt>
      <trkpt lat="46.70089" lon="5.65764">
        <ele>506.6</ele>
      </trkpt>
      <trkpt lat="46.70108" lon="5.65748">
        <ele>511.2</ele>
      </trkpt>
      <trkpt lat="46.70133" lon="5.65709">
        <ele>499.8</ele>
      </trkpt>
      <trkpt lat="46.70148" lon="5.65693">
        <ele>504.3</ele>
      </trkpt>
      <trkpt lat="46.70178" lon="5.65673">
        <ele>504.4</ele>
      </trkpt>
      <trkpt lat="46.70184" lon="5.65662">
        <ele>503.6</ele>
      </trkpt>
      <trkpt lat="46.70189" lon="5.65651">
        <ele>504.4</ele>
        <extensions>
          <visugpx:TrkExtension xmlns:visugpx="https://www.visugpx.com/editgpx/">
            <visugpx:node>7</visugpx:node>
            </visugpx:TrkExtension>
        </extensions>
      </trkpt>
      <trkpt lat="46.70195" lon="5.65638">
        <ele>510</ele>
      </trkpt>
      <trkpt lat="46.7021" lon="5.65591">
        <ele>497.9</ele>
      </trkpt>
      <trkpt lat="46.7023" lon="5.65553">
        <ele>504.5</ele>
      </trkpt>
      <trkpt lat="46.70242" lon="5.65527">
        <ele>497.6</ele>
      </trkpt>
      <trkpt lat="46.70244" lon="5.65515">
        <ele>498.9</ele>
      </trkpt>
      <trkpt lat="46.70252" lon="5.65499">
        <ele>506.3</ele>
      </trkpt>
      <trkpt lat="46.70272" lon="5.65488">
        <ele>501</ele>
      </trkpt>
      <trkpt lat="46.70293" lon="5.65472">
        <ele>504.1</ele>
      </trkpt>
      <trkpt lat="46.70301" lon="5.65454">
        <ele>501.7</ele>
      </trkpt>
      <trkpt lat="46.70306" lon="5.65439">
        <ele>500</ele>
      </trkpt>
      <trkpt lat="46.7032" lon="5.65419">
        <ele>491.9</ele>
      </trkpt>
      <trkpt lat="46.70333" lon="5.65401">
        <ele>503.4</ele>
      </trkpt>
      <trkpt lat="46.7035" lon="5.65382">
        <ele>499.2</ele>
      </trkpt>
      <trkpt lat="46.70367" lon="5.65349">
        <ele>494.1</ele>
      </trkpt>
      <trkpt lat="46.70387" lon="5.65319">
        <ele>494.8</ele>
      </trkpt>
      <trkpt lat="46.70411" lon="5.65283">
        <ele>494.6</ele>
      </trkpt>
      <trkpt lat="46.70418" lon="5.65267">
        <ele>495</ele>
      </trkpt>
      <trkpt lat="46.70429" lon="5.65252">
        <ele>491.8</ele>
      </trkpt>
      <trkpt lat="46.70429" lon="5.65253">
        <ele>492.1</ele>
        <extensions>
          <visugpx:TrkExtension xmlns:visugpx="https://www.visugpx.com/editgpx/">
            <visugpx:node>8</visugpx:node>
            </visugpx:TrkExtension>
        </extensions>
      </trkpt>
      <trkpt lat="46.7043" lon="5.65264">
        <ele>495.7</ele>
      </trkpt>
      <trkpt lat="46.70432" lon="5.65271">
        <ele>497.7</ele>
      </trkpt>
      <trkpt lat="46.70432" lon="5.65276">
        <ele>498.9</ele>
      </trkpt>
      <trkpt lat="46.70433" lon="5.65282">
        <ele>499.3</ele>
      </trkpt>
      <trkpt lat="46.70438" lon="5.65292">
        <ele>498.8</ele>
      </trkpt>
      <trkpt lat="46.70442" lon="5.65298">
        <ele>498.3</ele>
      </trkpt>
      <trkpt lat="46.70448" lon="5.65304">
        <ele>498</ele>
      </trkpt>
      <trkpt lat="46.70451" lon="5.65311">
        <ele>498.2</ele>
      </trkpt>
      <trkpt lat="46.70454" lon="5.65319">
        <ele>498.5</ele>
      </trkpt>
      <trkpt lat="46.70454" lon="5.6533">
        <ele>498.9</ele>
      </trkpt>
      <trkpt lat="46.70453" lon="5.6534">
        <ele>499</ele>
      </trkpt>
      <trkpt lat="46.7045" lon="5.65359">
        <ele>499</ele>
      </trkpt>
      <trkpt lat="46.70448" lon="5.65377">
        <ele>498.5</ele>
      </trkpt>
      <trkpt lat="46.70446" lon="5.6539">
        <ele>498.1</ele>
      </trkpt>
      <trkpt lat="46.70444" lon="5.65398">
        <ele>498</ele>
      </trkpt>
      <trkpt lat="46.70444" lon="5.65405">
        <ele>498</ele>
      </trkpt>
      <trkpt lat="46.70443" lon="5.65418">
        <ele>498.1</ele>
      </trkpt>
      <trkpt lat="46.70442" lon="5.65438">
        <ele>498.8</ele>
      </trkpt>
      <trkpt lat="46.70441" lon="5.65446">
        <ele>499.1</ele>
      </trkpt>
      <trkpt lat="46.70441" lon="5.65454">
        <ele>499.3</ele>
      </trkpt>
      <trkpt lat="46.70445" lon="5.65468">
        <ele>499.9</ele>
      </trkpt>
      <trkpt lat="46.70446" lon="5.65487">
        <ele>501.1</ele>
      </trkpt>
      <trkpt lat="46.70449" lon="5.65497">
        <ele>501.7</ele>
      </trkpt>
      <trkpt lat="46.70452" lon="5.65507">
        <ele>501.8</ele>
      </trkpt>
      <trkpt lat="46.70455" lon="5.6552">
        <ele>501.5</ele>
      </trkpt>
      <trkpt lat="46.70455" lon="5.6553">
        <ele>501.6</ele>
      </trkpt>
      <trkpt lat="46.70455" lon="5.65542">
        <ele>502.2</ele>
      </trkpt>
      <trkpt lat="46.70459" lon="5.65548">
        <ele>502</ele>
      </trkpt>
      <trkpt lat="46.70463" lon="5.65553">
        <ele>501.8</ele>
      </trkpt>
      <trkpt lat="46.70468" lon="5.65558">
        <ele>501.5</ele>
      </trkpt>
      <trkpt lat="46.70473" lon="5.65561">
        <ele>501.2</ele>
      </trkpt>
      <trkpt lat="46.70478" lon="5.65566">
        <ele>501.6</ele>
      </trkpt>
      <trkpt lat="46.70485" lon="5.65572">
        <ele>502.1</ele>
      </trkpt>
      <trkpt lat="46.70488" lon="5.6558">
        <ele>502.4</ele>
      </trkpt>
      <trkpt lat="46.70491" lon="5.65588">
        <ele>502.6</ele>
      </trkpt>
      <trkpt lat="46.70493" lon="5.65595">
        <ele>502.6</ele>
      </trkpt>
      <trkpt lat="46.70495" lon="5.65602">
        <ele>502.7</ele>
      </trkpt>
      <trkpt lat="46.70497" lon="5.6561">
        <ele>502.8</ele>
      </trkpt>
      <trkpt lat="46.70497" lon="5.65614">
        <ele>502.8</ele>
      </trkpt>
      <trkpt lat="46.70497" lon="5.65622">
        <ele>502.8</ele>
      </trkpt>
      <trkpt lat="46.70496" lon="5.6563">
        <ele>502.8</ele>
      </trkpt>
      <trkpt lat="46.70496" lon="5.65639">
        <ele>502.9</ele>
      </trkpt>
      <trkpt lat="46.70495" lon="5.65651">
        <ele>503.1</ele>
      </trkpt>
      <trkpt lat="46.70494" lon="5.65661">
        <ele>503.3</ele>
      </trkpt>
      <trkpt lat="46.70495" lon="5.65669">
        <ele>503.5</ele>
      </trkpt>
      <trkpt lat="46.70495" lon="5.65676">
        <ele>503.8</ele>
      </trkpt>
      <trkpt lat="46.70497" lon="5.65681">
        <ele>503.8</ele>
      </trkpt>
      <trkpt lat="46.705" lon="5.65684">
        <ele>503.6</ele>
      </trkpt>
      <trkpt lat="46.70504" lon="5.65688">
        <ele>503.3</ele>
      </trkpt>
      <trkpt lat="46.70506" lon="5.65691">
        <ele>503.1</ele>
      </trkpt>
      <trkpt lat="46.70508" lon="5.65694">
        <ele>502.9</ele>
      </trkpt>
      <trkpt lat="46.70512" lon="5.65698">
        <ele>502.2</ele>
      </trkpt>
      <trkpt lat="46.70516" lon="5.65701">
        <ele>501.8</ele>
      </trkpt>
      <trkpt lat="46.70518" lon="5.65705">
        <ele>501.6</ele>
      </trkpt>
      <trkpt lat="46.70518" lon="5.65709">
        <ele>501.7</ele>
      </trkpt>
      <trkpt lat="46.70518" lon="5.65714">
        <ele>501.8</ele>
      </trkpt>
      <trkpt lat="46.70516" lon="5.65717">
        <ele>501.9</ele>
      </trkpt>
      <trkpt lat="46.70515" lon="5.65718">
        <ele>502</ele>
        <extensions>
          <visugpx:TrkExtension xmlns:visugpx="https://www.visugpx.com/editgpx/">
            <visugpx:node>9</visugpx:node>
            </visugpx:TrkExtension>
        </extensions>
      </trkpt>
      <trkpt lat="46.70516" lon="5.65717">
        <ele>501.9</ele>
      </trkpt>
      <trkpt lat="46.70518" lon="5.65714">
        <ele>501.8</ele>
      </trkpt>
      <trkpt lat="46.70518" lon="5.65709">
        <ele>501.7</ele>
      </trkpt>
      <trkpt lat="46.70518" lon="5.65705">
        <ele>501.6</ele>
      </trkpt>
      <trkpt lat="46.70543" lon="5.65709">
        <ele>501.6</ele>
      </trkpt>
      <trkpt lat="46.70563" lon="5.65724">
        <ele>501</ele>
      </trkpt>
      <trkpt lat="46.70584" lon="5.6574">
        <ele>498.8</ele>
      </trkpt>
      <trkpt lat="46.70598" lon="5.65763">
        <ele>495.3</ele>
      </trkpt>
      <trkpt lat="46.70613" lon="5.65793">
        <ele>497.3</ele>
      </trkpt>
      <trkpt lat="46.70618" lon="5.65814">
        <ele>497.6</ele>
      </trkpt>
      <trkpt lat="46.70622" lon="5.65837">
        <ele>497.4</ele>
      </trkpt>
      <trkpt lat="46.70628" lon="5.65855">
        <ele>497.6</ele>
      </trkpt>
      <trkpt lat="46.70632" lon="5.65869">
        <ele>497.5</ele>
      </trkpt>
      <trkpt lat="46.70639" lon="5.65887">
        <ele>497.1</ele>
      </trkpt>
      <trkpt lat="46.70645" lon="5.65905">
        <ele>496.9</ele>
      </trkpt>
      <trkpt lat="46.70649" lon="5.65915">
        <ele>497.3</ele>
      </trkpt>
      <trkpt lat="46.70645" lon="5.65921">
        <ele>497.2</ele>
        <extensions>
          <visugpx:TrkExtension xmlns:visugpx="https://www.visugpx.com/editgpx/">
            <visugpx:node>10</visugpx:node>
            </visugpx:TrkExtension>
        </extensions>
      </trkpt>
      <trkpt lat="46.70649" lon="5.65915">
        <ele>497.3</ele>
      </trkpt>
      <trkpt lat="46.7066" lon="5.659">
        <ele>495.9</ele>
      </trkpt>
      <trkpt lat="46.7067" lon="5.65892">
        <ele>494</ele>
      </trkpt>
      <trkpt lat="46.70687" lon="5.65883">
        <ele>489.7</ele>
      </trkpt>
      <trkpt lat="46.70708" lon="5.65881">
        <ele>482.7</ele>
      </trkpt>
      <trkpt lat="46.70739" lon="5.65882">
        <ele>473.5</ele>
      </trkpt>
      <trkpt lat="46.70768" lon="5.65873">
        <ele>466</ele>
      </trkpt>
      <trkpt lat="46.70793" lon="5.65862">
        <ele>463.4</ele>
      </trkpt>
      <trkpt lat="46.70817" lon="5.65832">
        <ele>454.9</ele>
      </trkpt>
      <trkpt lat="46.70845" lon="5.65786">
        <ele>446.9</ele>
      </trkpt>
      <trkpt lat="46.7086" lon="5.65735">
        <ele>436.4</ele>
      </trkpt>
      <trkpt lat="46.7087" lon="5.657">
        <ele>431.9</ele>
      </trkpt>
      <trkpt lat="46.70876" lon="5.65671">
        <ele>427.9</ele>
      </trkpt>
      <trkpt lat="46.70881" lon="5.6563">
        <ele>424</ele>
      </trkpt>
      <trkpt lat="46.70874" lon="5.65586">
        <ele>414.9</ele>
      </trkpt>
      <trkpt lat="46.70855" lon="5.65521">
        <ele>401.1</ele>
      </trkpt>
      <trkpt lat="46.70842" lon="5.6548">
        <ele>391.4</ele>
      </trkpt>
      <trkpt lat="46.70835" lon="5.65446">
        <ele>388.3</ele>
      </trkpt>
      <trkpt lat="46.70837" lon="5.65412">
        <ele>393</ele>
      </trkpt>
      <trkpt lat="46.70833" lon="5.65371">
        <ele>389.1</ele>
      </trkpt>
      <trkpt lat="46.70821" lon="5.65322">
        <ele>383.1</ele>
      </trkpt>
      <trkpt lat="46.70795" lon="5.6525">
        <ele>370.9</ele>
      </trkpt>
      <trkpt lat="46.70791" lon="5.65184">
        <ele>363.3</ele>
      </trkpt>
      <trkpt lat="46.70795" lon="5.65177">
        <ele>363</ele>
      </trkpt>
      <trkpt lat="46.70799" lon="5.65169">
        <ele>362</ele>
      </trkpt>
      <trkpt lat="46.70803" lon="5.6516">
        <ele>361.7</ele>
      </trkpt>
      <trkpt lat="46.70807" lon="5.65151">
        <ele>362</ele>
      </trkpt>
      <trkpt lat="46.70809" lon="5.65144">
        <ele>361.9</ele>
      </trkpt>
      <trkpt lat="46.70812" lon="5.65138">
        <ele>362</ele>
      </trkpt>
      <trkpt lat="46.70815" lon="5.65128">
        <ele>361.9</ele>
      </trkpt>
      <trkpt lat="46.70817" lon="5.65118">
        <ele>361.1</ele>
      </trkpt>
      <trkpt lat="46.7082" lon="5.65105">
        <ele>360.1</ele>
      </trkpt>
      <trkpt lat="46.70823" lon="5.65091">
        <ele>359.3</ele>
      </trkpt>
      <trkpt lat="46.70825" lon="5.65077">
        <ele>358.5</ele>
      </trkpt>
      <trkpt lat="46.70826" lon="5.65065">
        <ele>358.2</ele>
      </trkpt>
      <trkpt lat="46.70828" lon="5.65057">
        <ele>358.3</ele>
      </trkpt>
      <trkpt lat="46.70831" lon="5.65041">
        <ele>357.5</ele>
      </trkpt>
      <trkpt lat="46.70832" lon="5.65023">
        <ele>356.2</ele>
      </trkpt>
      <trkpt lat="46.70832" lon="5.65001">
        <ele>353.6</ele>
      </trkpt>
      <trkpt lat="46.70836" lon="5.64978">
        <ele>350.2</ele>
      </trkpt>
      <trkpt lat="46.70838" lon="5.6497">
        <ele>348.6</ele>
      </trkpt>
      <trkpt lat="46.70838" lon="5.64968">
        <ele>347.9</ele>
        <extensions>
          <visugpx:TrkExtension xmlns:visugpx="https://www.visugpx.com/editgpx/">
            <visugpx:node>11</visugpx:node>
            </visugpx:TrkExtension>
        </extensions>
      </trkpt>
      <trkpt lat="46.70839" lon="5.64959">
        <ele>344.7</ele>
      </trkpt>
      <trkpt lat="46.70833" lon="5.6495">
        <ele>339.1</ele>
      </trkpt>
      <trkpt lat="46.70824" lon="5.64934">
        <ele>332.4</ele>
      </trkpt>
      <trkpt lat="46.70829" lon="5.64925">
        <ele>331.5</ele>
      </trkpt>
      <trkpt lat="46.70825" lon="5.64927">
        <ele>330.8</ele>
        <extensions>
          <visugpx:TrkExtension xmlns:visugpx="https://www.visugpx.com/editgpx/">
            <visugpx:node>12</visugpx:node>
            </visugpx:TrkExtension>
        </extensions>
      </trkpt>
      <trkpt lat="46.70819" lon="5.64929">
        <ele>329.6</ele>
      </trkpt>
      <trkpt lat="46.70811" lon="5.6493">
        <ele>327.8</ele>
      </trkpt>
      <trkpt lat="46.70804" lon="5.6493">
        <ele>326.2</ele>
      </trkpt>
      <trkpt lat="46.708" lon="5.6493">
        <ele>326</ele>
      </trkpt>
      <trkpt lat="46.70796" lon="5.64929">
        <ele>325.5</ele>
      </trkpt>
      <trkpt lat="46.70788" lon="5.64925">
        <ele>324</ele>
      </trkpt>
      <trkpt lat="46.70777" lon="5.64919">
        <ele>322.4</ele>
      </trkpt>
      <trkpt lat="46.70765" lon="5.64913">
        <ele>320.5</ele>
        <extensions>
          <visugpx:TrkExtension xmlns:visugpx="https://www.visugpx.com/editgpx/">
            <visugpx:node>13</visugpx:node>
            </visugpx:TrkExtension>
        </extensions>
      </trkpt>
      <trkpt lat="46.70778" lon="5.64878">
        <ele>316.6</ele>
      </trkpt>
      <trkpt lat="46.7079" lon="5.6487">
        <ele>316</ele>
      </trkpt>
      <trkpt lat="46.7082" lon="5.64797">
        <ele>314.7</ele>
      </trkpt>
      <trkpt lat="46.70805" lon="5.64762">
        <ele>309.2</ele>
        <extensions>
          <visugpx:TrkExtension xmlns:visugpx="https://www.visugpx.com/editgpx/">
            <visugpx:node>14</visugpx:node>
            </visugpx:TrkExtension>
        </extensions>
      </trkpt>
      <trkpt lat="46.70798" lon="5.64761">
        <ele>308.1</ele>
      </trkpt>
      <trkpt lat="46.70792" lon="5.64759">
        <ele>307.2</ele>
      </trkpt>
      <trkpt lat="46.70786" lon="5.64754">
        <ele>306</ele>
      </trkpt>
      <trkpt lat="46.70783" lon="5.6475">
        <ele>305.4</ele>
      </trkpt>
      <trkpt lat="46.70781" lon="5.64744">
        <ele>304.8</ele>
      </trkpt>
      <trkpt lat="46.7078" lon="5.64737">
        <ele>304.3</ele>
      </trkpt>
      <trkpt lat="46.7078" lon="5.64727">
        <ele>303.6</ele>
      </trkpt>
      <trkpt lat="46.70781" lon="5.64714">
        <ele>302.6</ele>
      </trkpt>
      <trkpt lat="46.70782" lon="5.64705">
        <ele>301.9</ele>
      </trkpt>
      <trkpt lat="46.70782" lon="5.647">
        <ele>301.4</ele>
      </trkpt>
      <trkpt lat="46.70779" lon="5.64687">
        <ele>300.7</ele>
      </trkpt>
      <trkpt lat="46.70777" lon="5.64678">
        <ele>301.2</ele>
      </trkpt>
      <trkpt lat="46.70775" lon="5.64664">
        <ele>302</ele>
      </trkpt>
      <trkpt lat="46.70772" lon="5.64648">
        <ele>302.3</ele>
      </trkpt>
      <trkpt lat="46.70769" lon="5.64633">
        <ele>303.5</ele>
      </trkpt>
      <trkpt lat="46.70767" lon="5.64626">
        <ele>304.8</ele>
      </trkpt>
      <trkpt lat="46.70755" lon="5.64631">
        <ele>305</ele>
      </trkpt>
      <trkpt lat="46.70748" lon="5.64636">
        <ele>304.8</ele>
      </trkpt>
      <trkpt lat="46.70731" lon="5.64646">
        <ele>306</ele>
      </trkpt>
      <trkpt lat="46.70719" lon="5.64653">
        <ele>306.7</ele>
      </trkpt>
      <trkpt lat="46.70707" lon="5.64657">
        <ele>306.9</ele>
      </trkpt>
      <trkpt lat="46.70687" lon="5.64662">
        <ele>307.4</ele>
      </trkpt>
      <trkpt lat="46.70668" lon="5.64664">
        <ele>307.3</ele>
      </trkpt>
      <trkpt lat="46.70661" lon="5.64664">
        <ele>307.1</ele>
      </trkpt>
      <trkpt lat="46.70656" lon="5.64662">
        <ele>307.2</ele>
      </trkpt>
      <trkpt lat="46.70652" lon="5.64661">
        <ele>307.2</ele>
      </trkpt>
      <trkpt lat="46.70643" lon="5.64658">
        <ele>307.3</ele>
      </trkpt>
      <trkpt lat="46.70632" lon="5.64654">
        <ele>308</ele>
      </trkpt>
      <trkpt lat="46.7062" lon="5.64651">
        <ele>308.5</ele>
      </trkpt>
      <trkpt lat="46.70611" lon="5.6465">
        <ele>308.6</ele>
      </trkpt>
      <trkpt lat="46.706" lon="5.64652">
        <ele>309.8</ele>
      </trkpt>
      <trkpt lat="46.70595" lon="5.64653">
        <ele>310.2</ele>
      </trkpt>
      <trkpt lat="46.70592" lon="5.64653">
        <ele>310.5</ele>
        <extensions>
          <visugpx:TrkExtension xmlns:visugpx="https://www.visugpx.com/editgpx/">
            <visugpx:node>15</visugpx:node>
            </visugpx:TrkExtension>
        </extensions>
      </trkpt>
      <trkpt lat="46.70592" lon="5.64649">
        <ele>321</ele>
        <time>2019-07-29T09:35:07.000Z</time>
      </trkpt>
      <trkpt lat="46.70592" lon="5.64636">
        <ele>312.6</ele>
        <time>2019-07-29T09:35:17.000Z</time>
      </trkpt>
      <trkpt lat="46.70595" lon="5.64629">
        <ele>314.3</ele>
        <time>2019-07-29T09:35:27.000Z</time>
      </trkpt>
      <trkpt lat="46.70595" lon="5.64622">
        <ele>320</ele>
        <time>2019-07-29T09:35:47.000Z</time>
      </trkpt>
      <trkpt lat="46.70598" lon="5.64614">
        <ele>318.5</ele>
        <time>2019-07-29T09:35:57.000Z</time>
      </trkpt>
      <trkpt lat="46.70603" lon="5.64613">
        <ele>318.3</ele>
        <time>2019-07-29T09:36:07.000Z</time>
      </trkpt>
      <trkpt lat="46.70606" lon="5.64608">
        <ele>319.3</ele>
        <time>2019-07-29T09:36:17.000Z</time>
      </trkpt>
      <trkpt lat="46.7061" lon="5.64603">
        <ele>323</ele>
        <time>2019-07-29T09:36:27.000Z</time>
      </trkpt>
      <trkpt lat="46.70618" lon="5.64596">
        <ele>322.4</ele>
        <time>2019-07-29T09:36:37.000Z</time>
      </trkpt>
      <trkpt lat="46.70621" lon="5.64591">
        <ele>323.8</ele>
        <time>2019-07-29T09:36:47.000Z</time>
      </trkpt>
      <trkpt lat="46.70629" lon="5.64584">
        <ele>326</ele>
        <time>2019-07-29T09:37:17.000Z</time>
      </trkpt>
      <trkpt lat="46.70637" lon="5.6458">
        <ele>327.3</ele>
        <time>2019-07-29T09:37:27.000Z</time>
      </trkpt>
      <trkpt lat="46.70643" lon="5.64579">
        <ele>327.9</ele>
        <time>2019-07-29T09:37:37.000Z</time>
      </trkpt>
      <trkpt lat="46.70648" lon="5.64574">
        <ele>327</ele>
        <time>2019-07-29T09:37:47.000Z</time>
      </trkpt>
      <trkpt lat="46.70657" lon="5.64571">
        <ele>331.3</ele>
        <time>2019-07-29T09:37:57.000Z</time>
      </trkpt>
      <trkpt lat="46.70665" lon="5.64567">
        <ele>332.7</ele>
        <time>2019-07-29T09:38:07.000Z</time>
      </trkpt>
      <trkpt lat="46.70665" lon="5.64557">
        <ele>337</ele>
        <time>2019-07-29T09:38:17.000Z</time>
      </trkpt>
      <trkpt lat="46.70659" lon="5.64552">
        <ele>337</ele>
        <time>2019-07-29T09:38:27.000Z</time>
      </trkpt>
      <trkpt lat="46.70655" lon="5.64545">
        <ele>338.5</ele>
        <time>2019-07-29T09:38:37.000Z</time>
      </trkpt>
      <trkpt lat="46.70649" lon="5.64528">
        <ele>347</ele>
        <time>2019-07-29T09:38:47.000Z</time>
      </trkpt>
      <trkpt lat="46.70643" lon="5.64521">
        <ele>343.7</ele>
        <time>2019-07-29T09:38:57.000Z</time>
      </trkpt>
      <trkpt lat="46.70641" lon="5.64513">
        <ele>345</ele>
        <time>2019-07-29T09:39:07.000Z</time>
      </trkpt>
      <trkpt lat="46.70636" lon="5.64506">
        <ele>357</ele>
        <time>2019-07-29T09:39:17.000Z</time>
      </trkpt>
      <trkpt lat="46.7063" lon="5.64494">
        <ele>348.5</ele>
        <time>2019-07-29T09:39:27.000Z</time>
      </trkpt>
      <trkpt lat="46.70629" lon="5.64478">
        <ele>365</ele>
        <time>2019-07-29T09:39:37.000Z</time>
      </trkpt>
      <trkpt lat="46.70625" lon="5.64465">
        <ele>357.2</ele>
        <time>2019-07-29T09:39:47.000Z</time>
      </trkpt>
      <trkpt lat="46.70619" lon="5.64453">
        <ele>377</ele>
        <time>2019-07-29T09:39:57.000Z</time>
      </trkpt>
      <trkpt lat="46.70623" lon="5.64439">
        <ele>367.2</ele>
        <time>2019-07-29T09:40:07.000Z</time>
      </trkpt>
      <trkpt lat="46.70633" lon="5.64433">
        <ele>395</ele>
        <time>2019-07-29T09:40:17.000Z</time>
      </trkpt>
      <trkpt lat="46.70641" lon="5.64424">
        <ele>375</ele>
        <time>2019-07-29T09:40:27.000Z</time>
      </trkpt>
      <trkpt lat="46.70652" lon="5.64424">
        <ele>395</ele>
        <time>2019-07-29T09:40:37.000Z</time>
      </trkpt>
      <trkpt lat="46.70661" lon="5.64417">
        <ele>377.1</ele>
        <time>2019-07-29T09:40:47.000Z</time>
      </trkpt>
      <trkpt lat="46.70669" lon="5.64408">
        <ele>433</ele>
        <time>2019-07-29T09:40:57.000Z</time>
      </trkpt>
      <trkpt lat="46.70674" lon="5.64395">
        <ele>384.8</ele>
        <time>2019-07-29T09:41:07.000Z</time>
      </trkpt>
      <trkpt lat="46.70678" lon="5.64381">
        <ele>433</ele>
        <time>2019-07-29T09:41:17.000Z</time>
      </trkpt>
      <trkpt lat="46.70684" lon="5.64368">
        <ele>411.7</ele>
        <time>2019-07-29T09:41:27.000Z</time>
      </trkpt>
      <trkpt lat="46.70703" lon="5.64376">
        <ele>447</ele>
        <time>2019-07-29T09:41:47.000Z</time>
      </trkpt>
      <trkpt lat="46.70723" lon="5.64377">
        <ele>461</ele>
        <time>2019-07-29T09:41:43.000Z</time>
      </trkpt>
      <trkpt lat="46.70734" lon="5.64374">
        <ele>418.6</ele>
        <time>2019-07-29T09:41:53.000Z</time>
      </trkpt>
      <trkpt lat="46.70742" lon="5.64366">
        <ele>461</ele>
        <time>2019-07-29T09:42:03.000Z</time>
      </trkpt>
      <trkpt lat="46.70725" lon="5.64351">
        <ele>461</ele>
        <time>2019-07-29T09:43:21.000Z</time>
      </trkpt>
      <trkpt lat="46.70705" lon="5.64343">
        <ele>480</ele>
        <time>2019-07-29T09:43:31.000Z</time>
      </trkpt>
      <trkpt lat="46.70695" lon="5.64338">
        <ele>447.1</ele>
        <time>2019-07-29T09:43:41.000Z</time>
      </trkpt>
      <trkpt lat="46.70685" lon="5.64338">
        <ele>478</ele>
        <time>2019-07-29T09:43:51.000Z</time>
      </trkpt>
      <trkpt lat="46.70675" lon="5.6434">
        <ele>444.5</ele>
        <time>2019-07-29T09:44:01.000Z</time>
      </trkpt>
      <trkpt lat="46.70654" lon="5.64336">
        <ele>483</ele>
        <time>2019-07-29T09:45:08.000Z</time>
      </trkpt>
      <trkpt lat="46.70656" lon="5.6432">
        <ele>466.4</ele>
        <time>2019-07-29T09:45:18.000Z</time>
      </trkpt>
      <trkpt lat="46.7068" lon="5.64292">
        <ele>483</ele>
        <time>2019-07-29T09:46:05.000Z</time>
      </trkpt>
      <trkpt lat="46.70688" lon="5.64281">
        <ele>483.5</ele>
        <time>2019-07-29T09:46:15.000Z</time>
      </trkpt>
      <trkpt lat="46.70698" lon="5.64279">
        <ele>484</ele>
        <time>2019-07-29T09:46:25.000Z</time>
      </trkpt>
      <trkpt lat="46.7072" lon="5.64284">
        <ele>493</ele>
        <time>2019-07-29T09:46:55.000Z</time>
      </trkpt>
      <trkpt lat="46.70731" lon="5.64284">
        <ele>482.8</ele>
        <time>2019-07-29T09:47:05.000Z</time>
      </trkpt>
      <trkpt lat="46.70753" lon="5.64292">
        <ele>493</ele>
        <time>2019-07-29T09:47:19.000Z</time>
      </trkpt>
      <trkpt lat="46.70762" lon="5.64294">
        <ele>483.1</ele>
        <time>2019-07-29T09:47:29.000Z</time>
      </trkpt>
      <trkpt lat="46.7077" lon="5.64304">
        <ele>494</ele>
        <time>2019-07-29T09:47:39.000Z</time>
      </trkpt>
      <trkpt lat="46.7078" lon="5.64309">
        <ele>484.4</ele>
        <time>2019-07-29T09:47:49.000Z</time>
      </trkpt>
      <trkpt lat="46.7079" lon="5.64307">
        <ele>492</ele>
        <time>2019-07-29T09:47:59.000Z</time>
      </trkpt>
      <trkpt lat="46.708" lon="5.64312">
        <ele>483.4</ele>
        <time>2019-07-29T09:48:09.000Z</time>
      </trkpt>
      <trkpt lat="46.70819" lon="5.64318">
        <ele>490</ele>
        <time>2019-07-29T09:48:08.000Z</time>
      </trkpt>
      <trkpt lat="46.70839" lon="5.64326">
        <ele>479</ele>
        <time>2019-07-29T09:48:18.000Z</time>
      </trkpt>
      <trkpt lat="46.7086" lon="5.64327">
        <ele>472</ele>
        <time>2019-07-29T09:48:34.000Z</time>
      </trkpt>
      <trkpt lat="46.70881" lon="5.64331">
        <ele>475</ele>
        <time>2019-07-29T09:48:44.000Z</time>
      </trkpt>
      <trkpt lat="46.70899" lon="5.64316">
        <ele>479</ele>
        <time>2019-07-29T09:49:04.000Z</time>
      </trkpt>
      <trkpt lat="46.7091" lon="5.64311">
        <ele>487.7</ele>
        <time>2019-07-29T09:49:14.000Z</time>
      </trkpt>
      <trkpt lat="46.70919" lon="5.64304">
        <ele>479</ele>
        <time>2019-07-29T09:49:20.000Z</time>
      </trkpt>
      <trkpt lat="46.70928" lon="5.64294">
        <ele>475.2</ele>
        <time>2019-07-29T09:49:30.000Z</time>
      </trkpt>
      <trkpt lat="46.70937" lon="5.64286">
        <ele>486</ele>
        <time>2019-07-29T09:49:40.000Z</time>
      </trkpt>
      <trkpt lat="46.70944" lon="5.64275">
        <ele>495.2</ele>
        <time>2019-07-29T09:49:50.000Z</time>
      </trkpt>
      <trkpt lat="46.70947" lon="5.64259">
        <ele>491</ele>
        <time>2019-07-29T09:50:00.000Z</time>
      </trkpt>
      <trkpt lat="46.70953" lon="5.64246">
        <ele>471.8</ele>
        <time>2019-07-29T09:50:10.000Z</time>
      </trkpt>
      <trkpt lat="46.70955" lon="5.64233">
        <ele>496</ele>
        <time>2019-07-29T09:50:20.000Z</time>
      </trkpt>
      <trkpt lat="46.70944" lon="5.64227">
        <ele>497</ele>
        <time>2019-07-29T09:50:30.000Z</time>
      </trkpt>
      <trkpt lat="46.70923" lon="5.64225">
        <ele>496</ele>
        <time>2019-07-29T09:50:38.000Z</time>
      </trkpt>
      <trkpt lat="46.70912" lon="5.64222">
        <ele>496.8</ele>
        <time>2019-07-29T09:50:48.000Z</time>
      </trkpt>
      <trkpt lat="46.70903" lon="5.64215">
        <ele>497</ele>
        <time>2019-07-29T09:50:58.000Z</time>
      </trkpt>
      <trkpt lat="46.70898" lon="5.64202">
        <ele>497.5</ele>
        <time>2019-07-29T09:51:08.000Z</time>
      </trkpt>
      <trkpt lat="46.7089" lon="5.64189">
        <ele>499</ele>
        <time>2019-07-29T09:51:18.000Z</time>
      </trkpt>
      <trkpt lat="46.70887" lon="5.64174">
        <ele>499.4</ele>
        <time>2019-07-29T09:51:28.000Z</time>
      </trkpt>
      <trkpt lat="46.70887" lon="5.6416">
        <ele>501</ele>
        <time>2019-07-29T09:51:38.000Z</time>
      </trkpt>
      <trkpt lat="46.70893" lon="5.64146">
        <ele>500.7</ele>
        <time>2019-07-29T09:51:48.000Z</time>
      </trkpt>
      <trkpt lat="46.70906" lon="5.64123">
        <ele>504</ele>
        <time>2019-07-29T09:51:37.000Z</time>
      </trkpt>
      <trkpt lat="46.70911" lon="5.64109">
        <ele>504.1</ele>
        <time>2019-07-29T09:51:47.000Z</time>
      </trkpt>
      <trkpt lat="46.70913" lon="5.64094">
        <ele>507</ele>
        <time>2019-07-29T09:51:57.000Z</time>
      </trkpt>
      <trkpt lat="46.7091" lon="5.6408">
        <ele>505.1</ele>
        <time>2019-07-29T09:52:07.000Z</time>
      </trkpt>
      <trkpt lat="46.70907" lon="5.64049">
        <ele>511</ele>
        <time>2019-07-29T09:52:17.000Z</time>
      </trkpt>
      <trkpt lat="46.70908" lon="5.64018">
        <ele>511</ele>
        <time>2019-07-29T09:52:31.000Z</time>
      </trkpt>
      <trkpt lat="46.70904" lon="5.64003">
        <ele>506</ele>
        <time>2019-07-29T09:52:41.000Z</time>
      </trkpt>
      <trkpt lat="46.70901" lon="5.63987">
        <ele>512</ele>
        <time>2019-07-29T09:52:51.000Z</time>
      </trkpt>
      <trkpt lat="46.70901" lon="5.6398">
        <ele>505.6</ele>
        <time>2019-07-29T09:53:01.000Z</time>
      </trkpt>
      <trkpt lat="46.709" lon="5.63971">
        <ele>505.4</ele>
        <time>2019-07-29T09:53:11.000Z</time>
      </trkpt>
      <trkpt lat="46.70904" lon="5.63956">
        <ele>514</ele>
        <time>2019-07-29T09:53:21.000Z</time>
      </trkpt>
      <trkpt lat="46.70905" lon="5.63942">
        <ele>504.3</ele>
        <time>2019-07-29T09:53:31.000Z</time>
      </trkpt>
      <trkpt lat="46.70904" lon="5.63926">
        <ele>514</ele>
        <time>2019-07-29T09:53:41.000Z</time>
      </trkpt>
      <trkpt lat="46.70902" lon="5.6391">
        <ele>500.6</ele>
        <time>2019-07-29T09:53:51.000Z</time>
      </trkpt>
      <trkpt lat="46.70902" lon="5.6388">
        <ele>514</ele>
        <time>2019-07-29T09:54:01.000Z</time>
      </trkpt>
      <trkpt lat="46.70903" lon="5.63865">
        <ele>498.5</ele>
        <time>2019-07-29T09:54:11.000Z</time>
      </trkpt>
      <trkpt lat="46.70903" lon="5.63851">
        <ele>514</ele>
        <time>2019-07-29T09:54:21.000Z</time>
      </trkpt>
      <trkpt lat="46.70901" lon="5.63835">
        <ele>501</ele>
        <time>2019-07-29T09:54:31.000Z</time>
      </trkpt>
      <trkpt lat="46.70894" lon="5.63824">
        <ele>511</ele>
        <time>2019-07-29T09:54:41.000Z</time>
      </trkpt>
      <trkpt lat="46.70876" lon="5.63809">
        <ele>510</ele>
        <time>2019-07-29T09:54:51.000Z</time>
      </trkpt>
      <trkpt lat="46.70867" lon="5.63799">
        <ele>501.8</ele>
        <time>2019-07-29T09:55:01.000Z</time>
      </trkpt>
      <trkpt lat="46.70851" lon="5.63778">
        <ele>510</ele>
        <time>2019-07-29T09:55:11.000Z</time>
      </trkpt>
      <trkpt lat="46.70842" lon="5.63769">
        <ele>502.4</ele>
        <time>2019-07-29T09:55:21.000Z</time>
      </trkpt>
      <trkpt lat="46.70834" lon="5.63757">
        <ele>508</ele>
        <time>2019-07-29T09:55:31.000Z</time>
      </trkpt>
      <trkpt lat="46.70826" lon="5.63747">
        <ele>502.5</ele>
        <time>2019-07-29T09:55:41.000Z</time>
      </trkpt>
      <trkpt lat="46.70816" lon="5.6374">
        <ele>508</ele>
        <time>2019-07-29T09:55:51.000Z</time>
      </trkpt>
      <trkpt lat="46.70795" lon="5.63733">
        <ele>508</ele>
        <time>2019-07-29T09:55:13.000Z</time>
      </trkpt>
      <trkpt lat="46.70787" lon="5.63729">
        <ele>501.7</ele>
        <time>2019-07-29T09:55:23.000Z</time>
      </trkpt>
      <trkpt lat="46.70769" lon="5.63717">
        <ele>508</ele>
        <time>2019-07-29T09:55:27.000Z</time>
      </trkpt>
      <trkpt lat="46.7075" lon="5.63709">
        <ele>507</ele>
        <time>2019-07-29T09:55:37.000Z</time>
      </trkpt>
      <trkpt lat="46.7074" lon="5.63707">
        <ele>501.8</ele>
        <time>2019-07-29T09:55:47.000Z</time>
      </trkpt>
      <trkpt lat="46.7073" lon="5.63709">
        <ele>506</ele>
        <time>2019-07-29T09:55:57.000Z</time>
      </trkpt>
      <trkpt lat="46.70719" lon="5.6371">
        <ele>501.3</ele>
        <time>2019-07-29T09:56:07.000Z</time>
      </trkpt>
      <trkpt lat="46.70707" lon="5.63706">
        <ele>504</ele>
        <time>2019-07-29T09:56:12.000Z</time>
      </trkpt>
      <trkpt lat="46.70676" lon="5.63693">
        <ele>503</ele>
        <time>2019-07-29T09:56:40.000Z</time>
      </trkpt>
      <trkpt lat="46.70666" lon="5.63692">
        <ele>501</ele>
        <time>2019-07-29T09:56:50.000Z</time>
      </trkpt>
      <trkpt lat="46.70657" lon="5.63688">
        <ele>503</ele>
        <time>2019-07-29T09:57:00.000Z</time>
      </trkpt>
      <trkpt lat="46.70646" lon="5.63681">
        <ele>501.4</ele>
        <time>2019-07-29T09:57:10.000Z</time>
      </trkpt>
      <trkpt lat="46.70616" lon="5.63665">
        <ele>497</ele>
        <time>2019-07-29T09:57:11.000Z</time>
      </trkpt>
      <trkpt lat="46.70606" lon="5.63658">
        <ele>502.3</ele>
        <time>2019-07-29T09:57:21.000Z</time>
      </trkpt>
      <trkpt lat="46.70588" lon="5.63647">
        <ele>492</ele>
        <time>2019-07-29T09:57:32.000Z</time>
      </trkpt>
      <trkpt lat="46.70579" lon="5.63643">
        <ele>503.3</ele>
        <time>2019-07-29T09:57:42.000Z</time>
      </trkpt>
      <trkpt lat="46.70569" lon="5.6364">
        <ele>492</ele>
        <time>2019-07-29T09:57:52.000Z</time>
      </trkpt>
      <trkpt lat="46.70549" lon="5.63637">
        <ele>492</ele>
        <time>2019-07-29T09:58:02.000Z</time>
      </trkpt>
      <trkpt lat="46.70527" lon="5.63631">
        <ele>492</ele>
        <time>2019-07-29T09:58:12.000Z</time>
      </trkpt>
      <trkpt lat="46.70487" lon="5.63616">
        <ele>500</ele>
        <time>2019-07-29T09:58:41.000Z</time>
      </trkpt>
      <trkpt lat="46.70468" lon="5.63604">
        <ele>500</ele>
        <time>2019-07-29T09:58:51.000Z</time>
      </trkpt>
      <trkpt lat="46.70458" lon="5.63599">
        <ele>504.9</ele>
        <time>2019-07-29T09:59:01.000Z</time>
      </trkpt>
      <trkpt lat="46.70448" lon="5.63596">
        <ele>500</ele>
        <time>2019-07-29T09:59:11.000Z</time>
      </trkpt>
      <trkpt lat="46.70429" lon="5.63586">
        <ele>500</ele>
        <time>2019-07-29T09:59:21.000Z</time>
      </trkpt>
      <trkpt lat="46.70399" lon="5.63564">
        <ele>501</ele>
        <time>2019-07-29T09:59:45.000Z</time>
      </trkpt>
      <trkpt lat="46.7038" lon="5.63552">
        <ele>500</ele>
        <time>2019-07-29T09:59:55.000Z</time>
      </trkpt>
      <trkpt lat="46.70368" lon="5.63547">
        <ele>506.1</ele>
        <time>2019-07-29T10:00:05.000Z</time>
      </trkpt>
      <trkpt lat="46.70348" lon="5.63544">
        <ele>500</ele>
        <time>2019-07-29T10:00:25.000Z</time>
      </trkpt>
      <trkpt lat="46.70338" lon="5.63544">
        <ele>507</ele>
        <time>2019-07-29T10:00:35.000Z</time>
      </trkpt>
      <trkpt lat="46.70317" lon="5.63541">
        <ele>501</ele>
        <time>2019-07-29T10:00:45.000Z</time>
      </trkpt>
      <trkpt lat="46.70296" lon="5.63536">
        <ele>502</ele>
        <time>2019-07-29T10:00:55.000Z</time>
      </trkpt>
      <trkpt lat="46.70287" lon="5.63535">
        <ele>508</ele>
        <time>2019-07-29T10:01:05.000Z</time>
      </trkpt>
      <trkpt lat="46.70265" lon="5.63538">
        <ele>505</ele>
        <time>2019-07-29T10:01:20.000Z</time>
      </trkpt>
      <trkpt lat="46.70221" lon="5.63537">
        <ele>513</ele>
        <time>2019-07-29T10:01:48.000Z</time>
      </trkpt>
      <trkpt lat="46.70192" lon="5.635">
        <ele>513</ele>
        <time>2019-07-29T10:01:58.000Z</time>
      </trkpt>
      <trkpt lat="46.70154" lon="5.63502">
        <ele>508</ele>
        <time>2019-07-29T10:02:08.000Z</time>
      </trkpt>
      <trkpt lat="46.70126" lon="5.63486">
        <ele>503</ele>
        <time>2019-07-29T10:02:18.000Z</time>
      </trkpt>
      <trkpt lat="46.70116" lon="5.63467">
        <ele>506.2</ele>
        <time>2019-07-29T10:02:28.000Z</time>
      </trkpt>
      <trkpt lat="46.70124" lon="5.63458">
        <ele>500</ele>
        <time>2019-07-29T10:02:38.000Z</time>
      </trkpt>
      <trkpt lat="46.70134" lon="5.6345">
        <ele>503.8</ele>
        <time>2019-07-29T10:02:48.000Z</time>
      </trkpt>
      <trkpt lat="46.70145" lon="5.63444">
        <ele>498</ele>
        <time>2019-07-29T10:02:58.000Z</time>
      </trkpt>
      <trkpt lat="46.70167" lon="5.63435">
        <ele>493</ele>
        <time>2019-07-29T10:03:08.000Z</time>
      </trkpt>
      <trkpt lat="46.70179" lon="5.63428">
        <ele>496.7</ele>
        <time>2019-07-29T10:03:18.000Z</time>
      </trkpt>
      <trkpt lat="46.7019" lon="5.63424">
        <ele>493</ele>
        <time>2019-07-29T10:03:28.000Z</time>
      </trkpt>
      <trkpt lat="46.70217" lon="5.63423">
        <ele>491</ele>
        <time>2019-07-29T10:03:38.000Z</time>
      </trkpt>
      <trkpt lat="46.70254" lon="5.63421">
        <ele>489</ele>
        <time>2019-07-29T10:07:50.000Z</time>
      </trkpt>
      <trkpt lat="46.70266" lon="5.63423">
        <ele>479.8</ele>
        <time>2019-07-29T10:08:00.000Z</time>
      </trkpt>
      <trkpt lat="46.70278" lon="5.63422">
        <ele>489</ele>
        <time>2019-07-29T10:08:00.000Z</time>
      </trkpt>
      <trkpt lat="46.7031" lon="5.63423">
        <ele>478</ele>
        <time>2019-07-29T10:08:20.000Z</time>
      </trkpt>
      <trkpt lat="46.7032" lon="5.63422">
        <ele>470.1</ele>
        <time>2019-07-29T10:08:30.000Z</time>
      </trkpt>
      <trkpt lat="46.70342" lon="5.63425">
        <ele>468</ele>
        <time>2019-07-29T10:08:29.000Z</time>
      </trkpt>
      <trkpt lat="46.70354" lon="5.63423">
        <ele>464.6</ele>
        <time>2019-07-29T10:08:39.000Z</time>
      </trkpt>
      <trkpt lat="46.70375" lon="5.63424">
        <ele>461</ele>
        <time>2019-07-29T10:08:44.000Z</time>
      </trkpt>
      <trkpt lat="46.70387" lon="5.63422">
        <ele>459.2</ele>
        <time>2019-07-29T10:08:54.000Z</time>
      </trkpt>
      <trkpt lat="46.70399" lon="5.63422">
        <ele>461</ele>
        <time>2019-07-29T10:09:04.000Z</time>
      </trkpt>
      <trkpt lat="46.7041" lon="5.63421">
        <ele>455.9</ele>
        <time>2019-07-29T10:09:14.000Z</time>
      </trkpt>
      <trkpt lat="46.70421" lon="5.63422">
        <ele>460</ele>
        <time>2019-07-29T10:09:24.000Z</time>
      </trkpt>
      <trkpt lat="46.70434" lon="5.63422">
        <ele>452.6</ele>
        <time>2019-07-29T10:09:34.000Z</time>
      </trkpt>
      <trkpt lat="46.70464" lon="5.63425">
        <ele>449</ele>
        <time>2019-07-29T10:09:25.000Z</time>
      </trkpt>
      <trkpt lat="46.70475" lon="5.63425">
        <ele>444.4</ele>
        <time>2019-07-29T10:09:35.000Z</time>
      </trkpt>
      <trkpt lat="46.70487" lon="5.63428">
        <ele>449</ele>
        <time>2019-07-29T10:09:45.000Z</time>
      </trkpt>
      <trkpt lat="46.70499" lon="5.63429">
        <ele>439.5</ele>
        <time>2019-07-29T10:09:55.000Z</time>
      </trkpt>
      <trkpt lat="46.7052" lon="5.63435">
        <ele>441</ele>
        <time>2019-07-29T10:10:15.000Z</time>
      </trkpt>
      <trkpt lat="46.70529" lon="5.63435">
        <ele>435</ele>
        <time>2019-07-29T10:10:25.000Z</time>
      </trkpt>
      <trkpt lat="46.70541" lon="5.63437">
        <ele>444</ele>
        <time>2019-07-29T10:10:35.000Z</time>
      </trkpt>
      <trkpt lat="46.7055" lon="5.63436">
        <ele>431.2</ele>
        <time>2019-07-29T10:10:45.000Z</time>
      </trkpt>
      <trkpt lat="46.70566" lon="5.63443">
        <ele>440</ele>
        <time>2019-07-29T10:10:55.000Z</time>
      </trkpt>
      <trkpt lat="46.70585" lon="5.63444">
        <ele>437</ele>
        <time>2019-07-29T10:11:05.000Z</time>
      </trkpt>
      <trkpt lat="46.70629" lon="5.63451">
        <ele>431</ele>
        <time>2019-07-29T10:10:37.000Z</time>
      </trkpt>
      <trkpt lat="46.70674" lon="5.63453">
        <ele>422</ele>
        <time>2019-07-29T10:10:57.000Z</time>
      </trkpt>
      <trkpt lat="46.70698" lon="5.63453">
        <ele>414</ele>
        <time>2019-07-29T10:11:07.000Z</time>
      </trkpt>
      <trkpt lat="46.70718" lon="5.63457">
        <ele>409</ele>
        <time>2019-07-29T10:11:17.000Z</time>
      </trkpt>
      <trkpt lat="46.70729" lon="5.63457">
        <ele>413.3</ele>
        <time>2019-07-29T10:11:27.000Z</time>
      </trkpt>
      <trkpt lat="46.7074" lon="5.63456">
        <ele>409</ele>
        <time>2019-07-29T10:11:37.000Z</time>
      </trkpt>
      <trkpt lat="46.70762" lon="5.63457">
        <ele>409</ele>
        <time>2019-07-29T10:11:40.000Z</time>
      </trkpt>
      <trkpt lat="46.70773" lon="5.63454">
        <ele>405.7</ele>
        <time>2019-07-29T10:11:50.000Z</time>
      </trkpt>
      <trkpt lat="46.70784" lon="5.63455">
        <ele>405</ele>
        <time>2019-07-29T10:12:00.000Z</time>
      </trkpt>
      <trkpt lat="46.70793" lon="5.63452">
        <ele>402.1</ele>
        <time>2019-07-29T10:12:10.000Z</time>
      </trkpt>
      <trkpt lat="46.70805" lon="5.63451">
        <ele>401</ele>
        <time>2019-07-29T10:12:20.000Z</time>
      </trkpt>
      <trkpt lat="46.70818" lon="5.63452">
        <ele>398.5</ele>
        <time>2019-07-29T10:12:30.000Z</time>
      </trkpt>
      <trkpt lat="46.7084" lon="5.63456">
        <ele>399</ele>
        <time>2019-07-29T10:12:40.000Z</time>
      </trkpt>
      <trkpt lat="46.70852" lon="5.63455">
        <ele>394.6</ele>
        <time>2019-07-29T10:12:50.000Z</time>
      </trkpt>
      <trkpt lat="46.70864" lon="5.63457">
        <ele>387</ele>
        <time>2019-07-29T10:13:00.000Z</time>
      </trkpt>
      <trkpt lat="46.70886" lon="5.63458">
        <ele>391</ele>
        <time>2019-07-29T10:12:34.000Z</time>
      </trkpt>
      <trkpt lat="46.70907" lon="5.63461">
        <ele>390</ele>
        <time>2019-07-29T10:12:54.000Z</time>
      </trkpt>
      <trkpt lat="46.7093" lon="5.63469">
        <ele>390</ele>
        <time>2019-07-29T10:12:52.000Z</time>
      </trkpt>
      <trkpt lat="46.70942" lon="5.6347">
        <ele>383.5</ele>
        <time>2019-07-29T10:13:02.000Z</time>
      </trkpt>
      <trkpt lat="46.70951" lon="5.63473">
        <ele>383</ele>
        <time>2019-07-29T10:13:12.000Z</time>
      </trkpt>
      <trkpt lat="46.7096" lon="5.63478">
        <ele>382.1</ele>
        <time>2019-07-29T10:13:22.000Z</time>
      </trkpt>
      <trkpt lat="46.70951" lon="5.63466">
        <ele>383</ele>
        <time>2019-07-29T10:13:32.000Z</time>
      </trkpt>
      <trkpt lat="46.70922" lon="5.63447">
        <ele>378</ele>
        <time>2019-07-29T10:13:37.000Z</time>
      </trkpt>
      <trkpt lat="46.70917" lon="5.63434">
        <ele>373.9</ele>
        <time>2019-07-29T10:13:47.000Z</time>
      </trkpt>
      <trkpt lat="46.70927" lon="5.63426">
        <ele>368</ele>
        <time>2019-07-29T10:13:57.000Z</time>
      </trkpt>
      <trkpt lat="46.70958" lon="5.6341">
        <ele>367</ele>
        <time>2019-07-29T10:14:13.000Z</time>
      </trkpt>
      <trkpt lat="46.70967" lon="5.63403">
        <ele>355.2</ele>
        <time>2019-07-29T10:14:23.000Z</time>
      </trkpt>
      <trkpt lat="46.70977" lon="5.63407">
        <ele>366</ele>
        <time>2019-07-29T10:14:33.000Z</time>
      </trkpt>
      <trkpt lat="46.70988" lon="5.63406">
        <ele>351.6</ele>
        <time>2019-07-29T10:14:43.000Z</time>
      </trkpt>
      <trkpt lat="46.70999" lon="5.63402">
        <ele>362</ele>
        <time>2019-07-29T10:14:53.000Z</time>
      </trkpt>
      <trkpt lat="46.71009" lon="5.63407">
        <ele>347.5</ele>
        <time>2019-07-29T10:15:03.000Z</time>
      </trkpt>
      <trkpt lat="46.71019" lon="5.63421">
        <ele>359</ele>
        <time>2019-07-29T10:15:33.000Z</time>
      </trkpt>
      <trkpt lat="46.71028" lon="5.63436">
        <ele>345.6</ele>
        <time>2019-07-29T10:15:43.000Z</time>
      </trkpt>
      <trkpt lat="46.71044" lon="5.63474">
        <ele>358</ele>
        <time>2019-07-29T10:16:13.000Z</time>
      </trkpt>
      <trkpt lat="46.71047" lon="5.63485">
        <ele>337.1</ele>
        <time>2019-07-29T10:16:23.000Z</time>
      </trkpt>
      <trkpt lat="46.71053" lon="5.63498">
        <ele>350</ele>
        <time>2019-07-29T10:16:33.000Z</time>
      </trkpt>
      <trkpt lat="46.7106" lon="5.63509">
        <ele>335.2</ele>
        <time>2019-07-29T10:16:43.000Z</time>
      </trkpt>
      <trkpt lat="46.71092" lon="5.63525">
        <ele>342</ele>
        <time>2019-07-29T10:15:51.000Z</time>
      </trkpt>
      <trkpt lat="46.71103" lon="5.63533">
        <ele>324.9</ele>
        <time>2019-07-29T10:16:01.000Z</time>
      </trkpt>
      <trkpt lat="46.71111" lon="5.63545">
        <ele>337</ele>
        <time>2019-07-29T10:16:11.000Z</time>
      </trkpt>
      <trkpt lat="46.7113" lon="5.63566">
        <ele>333</ele>
        <time>2019-07-29T10:16:08.000Z</time>
      </trkpt>
      <trkpt lat="46.71143" lon="5.63596">
        <ele>327</ele>
        <time>2019-07-29T10:16:18.000Z</time>
      </trkpt>
      <trkpt lat="46.71147" lon="5.6361">
        <ele>315.9</ele>
        <time>2019-07-29T10:16:28.000Z</time>
      </trkpt>
      <trkpt lat="46.71148" lon="5.63625">
        <ele>329</ele>
        <time>2019-07-29T10:16:38.000Z</time>
      </trkpt>
      <trkpt lat="46.71146" lon="5.63641">
        <ele>315.3</ele>
        <time>2019-07-29T10:16:48.000Z</time>
      </trkpt>
      <trkpt lat="46.71142" lon="5.63659">
        <ele>331</ele>
        <time>2019-07-29T10:16:58.000Z</time>
      </trkpt>
      <trkpt lat="46.71134" lon="5.63685">
        <ele>323</ele>
        <time>2019-07-29T10:17:08.000Z</time>
      </trkpt>
      <trkpt lat="46.71131" lon="5.63701">
        <ele>316.9</ele>
        <time>2019-07-29T10:17:18.000Z</time>
      </trkpt>
      <trkpt lat="46.71131" lon="5.63716">
        <ele>336</ele>
        <time>2019-07-29T10:17:28.000Z</time>
      </trkpt>
      <trkpt lat="46.71127" lon="5.63735">
        <ele>314.5</ele>
        <time>2019-07-29T10:17:38.000Z</time>
      </trkpt>
      <trkpt lat="46.71127" lon="5.6375">
        <ele>342</ele>
        <time>2019-07-29T10:17:48.000Z</time>
      </trkpt>
      <trkpt lat="46.71125" lon="5.63798">
        <ele>348</ele>
        <time>2019-07-29T10:18:08.000Z</time>
      </trkpt>
      <trkpt lat="46.71124" lon="5.63802">
        <ele>307.8</ele>
        <time>2019-07-29T10:18:18.000Z</time>
      </trkpt>
      <trkpt lat="46.71125" lon="5.63808">
        <ele>306.4</ele>
        <time>2019-07-29T10:18:28.000Z</time>
      </trkpt>
      <trkpt lat="46.71124" lon="5.63821">
        <ele>306.4</ele>
        <time>2019-07-29T10:18:38.000Z</time>
      </trkpt>
      <trkpt lat="46.71124" lon="5.63838">
        <ele>352</ele>
        <time>2019-07-29T10:18:48.000Z</time>
      </trkpt>
      <trkpt lat="46.71121" lon="5.63857">
        <ele>307.1</ele>
        <time>2019-07-29T10:18:58.000Z</time>
      </trkpt>
      <trkpt lat="46.71122" lon="5.63875">
        <ele>352</ele>
        <time>2019-07-29T10:19:08.000Z</time>
      </trkpt>
      <trkpt lat="46.71125" lon="5.63911">
        <ele>353</ele>
        <time>2019-07-29T10:19:18.000Z</time>
      </trkpt>
      <trkpt lat="46.71125" lon="5.63962">
        <ele>366</ele>
        <time>2019-07-29T10:19:48.000Z</time>
      </trkpt>
      <trkpt lat="46.71126" lon="5.63974">
        <ele>300</ele>
        <time>2019-07-29T10:19:58.000Z</time>
      </trkpt>
      <trkpt lat="46.71123" lon="5.63993">
        <ele>371</ele>
        <time>2019-07-29T10:20:08.000Z</time>
      </trkpt>
      <trkpt lat="46.71124" lon="5.64018">
        <ele>301.3</ele>
        <time>2019-07-29T10:20:18.000Z</time>
      </trkpt>
      <trkpt lat="46.71124" lon="5.64034">
        <ele>373</ele>
        <time>2019-07-29T10:20:28.000Z</time>
      </trkpt>
      <trkpt lat="46.71125" lon="5.64052">
        <ele>301.4</ele>
        <time>2019-07-29T10:20:38.000Z</time>
      </trkpt>
      <trkpt lat="46.71127" lon="5.64072">
        <ele>370</ele>
        <time>2019-07-29T10:20:58.000Z</time>
      </trkpt>
      <trkpt lat="46.71127" lon="5.64086">
        <ele>302.1</ele>
        <time>2019-07-29T10:21:08.000Z</time>
      </trkpt>
      <trkpt lat="46.7113" lon="5.64101">
        <ele>368</ele>
        <time>2019-07-29T10:21:18.000Z</time>
      </trkpt>
      <trkpt lat="46.71138" lon="5.6412">
        <ele>297.1</ele>
        <time>2019-07-29T10:21:28.000Z</time>
      </trkpt>
      <trkpt lat="46.71134" lon="5.64153">
        <ele>366</ele>
        <time>2019-07-29T10:21:48.000Z</time>
      </trkpt>
      <trkpt lat="46.71131" lon="5.64165">
        <ele>297.7</ele>
        <time>2019-07-29T10:21:58.000Z</time>
      </trkpt>
      <trkpt lat="46.71127" lon="5.64194">
        <ele>364</ele>
        <time>2019-07-29T10:20:12.000Z</time>
      </trkpt>
      <trkpt lat="46.7112" lon="5.64226">
        <ele>358</ele>
        <time>2019-07-29T10:20:32.000Z</time>
      </trkpt>
      <trkpt lat="46.71116" lon="5.64255">
        <ele>353</ele>
        <time>2019-07-29T10:20:52.000Z</time>
      </trkpt>
      <trkpt lat="46.71099" lon="5.64315">
        <ele>340</ele>
        <time>2019-07-29T10:21:07.000Z</time>
      </trkpt>
      <trkpt lat="46.71082" lon="5.6435">
        <ele>340</ele>
        <time>2019-07-29T10:21:27.000Z</time>
      </trkpt>
      <trkpt lat="46.71062" lon="5.64379">
        <ele>335</ele>
        <time>2019-07-29T10:21:47.000Z</time>
      </trkpt>
      <trkpt lat="46.71043" lon="5.64418">
        <ele>331</ele>
        <time>2019-07-29T10:22:08.000Z</time>
      </trkpt>
      <trkpt lat="46.71036" lon="5.64428">
        <ele>304</ele>
        <time>2019-07-29T10:22:18.000Z</time>
      </trkpt>
      <trkpt lat="46.71001" lon="5.64465">
        <ele>325</ele>
        <time>2019-07-29T10:22:46.000Z</time>
      </trkpt>
      <trkpt lat="46.70994" lon="5.64474">
        <ele>302.1</ele>
        <time>2019-07-29T10:22:56.000Z</time>
      </trkpt>
      <trkpt lat="46.70987" lon="5.64489">
        <ele>320</ele>
        <time>2019-07-29T10:23:06.000Z</time>
      </trkpt>
      <trkpt lat="46.7098" lon="5.64495">
        <ele>300.1</ele>
        <time>2019-07-29T10:23:16.000Z</time>
      </trkpt>
      <trkpt lat="46.70981" lon="5.64511">
        <ele>311</ele>
        <time>2019-07-29T10:23:26.000Z</time>
      </trkpt>
      <trkpt lat="46.70981" lon="5.64565">
        <ele>307</ele>
        <time>2019-07-29T10:24:06.000Z</time>
        <extensions>
          <visugpx:TrkExtension xmlns:visugpx="https://www.visugpx.com/editgpx/">
            <visugpx:node>2</visugpx:node>
            </visugpx:TrkExtension>
        </extensions>
      </trkpt>
      <trkpt lat="46.70982" lon="5.64557">
        <ele>302.7</ele>
      </trkpt>
      <trkpt lat="46.70989" lon="5.64567">
        <ele>305.5</ele>
      </trkpt>
      <trkpt lat="46.70997" lon="5.64574">
        <ele>307.9</ele>
      </trkpt>
      <trkpt lat="46.71002" lon="5.64575">
        <ele>308.9</ele>
      </trkpt>
      <trkpt lat="46.71008" lon="5.64576">
        <ele>310.1</ele>
      </trkpt>
      <trkpt lat="46.71017" lon="5.64575">
        <ele>311.6</ele>
      </trkpt>
      <trkpt lat="46.71015" lon="5.64577">
        <ele>311.6</ele>
        <extensions>
          <visugpx:TrkExtension xmlns:visugpx="https://www.visugpx.com/editgpx/">
            <visugpx:node>16</visugpx:node>
            </visugpx:TrkExtension>
        </extensions>
      </trkpt>
      <trkpt lat="46.71012" lon="5.64583">
        <ele>312.1</ele>
      </trkpt>
      <trkpt lat="46.71007" lon="5.64595">
        <ele>312.3</ele>
      </trkpt>
      <trkpt lat="46.71004" lon="5.64609">
        <ele>312.8</ele>
      </trkpt>
      <trkpt lat="46.7101" lon="5.64608">
        <ele>314.2</ele>
      </trkpt>
      <trkpt lat="46.71017" lon="5.64609">
        <ele>316</ele>
      </trkpt>
      <trkpt lat="46.71022" lon="5.64608">
        <ele>317.1</ele>
      </trkpt>
      <trkpt lat="46.71028" lon="5.64604">
        <ele>318</ele>
      </trkpt>
      <trkpt lat="46.71033" lon="5.64601">
        <ele>318.6</ele>
      </trkpt>
      <trkpt lat="46.7104" lon="5.64602">
        <ele>320</ele>
      </trkpt>
      <trkpt lat="46.71044" lon="5.64601">
        <ele>320.7</ele>
      </trkpt>
      <trkpt lat="46.71049" lon="5.64599">
        <ele>321.4</ele>
      </trkpt>
      <trkpt lat="46.71047" lon="5.64604">
        <ele>321.6</ele>
        <extensions>
          <visugpx:TrkExtension xmlns:visugpx="https://www.visugpx.com/editgpx/">
            <visugpx:node>17</visugpx:node>
            </visugpx:TrkExtension>
        </extensions>
      </trkpt>
      <trkpt lat="46.71044" lon="5.6461">
        <ele>321.8</ele>
      </trkpt>
      <trkpt lat="46.71037" lon="5.64622">
        <ele>322.1</ele>
      </trkpt>
      <trkpt lat="46.71034" lon="5.64629">
        <ele>322.6</ele>
      </trkpt>
      <trkpt lat="46.71031" lon="5.64641">
        <ele>323.7</ele>
      </trkpt>
      <trkpt lat="46.71029" lon="5.64652">
        <ele>324.6</ele>
      </trkpt>
      <trkpt lat="46.71028" lon="5.6466">
        <ele>325.3</ele>
      </trkpt>
      <trkpt lat="46.71028" lon="5.64669">
        <ele>326</ele>
      </trkpt>
      <trkpt lat="46.71029" lon="5.64677">
        <ele>326.3</ele>
      </trkpt>
      <trkpt lat="46.71032" lon="5.64688">
        <ele>327</ele>
      </trkpt>
      <trkpt lat="46.71034" lon="5.64695">
        <ele>327.6</ele>
      </trkpt>
      <trkpt lat="46.71037" lon="5.64704">
        <ele>329.8</ele>
      </trkpt>
      <trkpt lat="46.71043" lon="5.64719">
        <ele>334.4</ele>
      </trkpt>
      <trkpt lat="46.71043" lon="5.6472">
        <ele>334.6</ele>
      </trkpt>
      <trkpt lat="46.71041" lon="5.64729">
        <ele>335.8</ele>
      </trkpt>
      <trkpt lat="46.7104" lon="5.64738">
        <ele>337.5</ele>
      </trkpt>
      <trkpt lat="46.71038" lon="5.64746">
        <ele>338.5</ele>
      </trkpt>
      <trkpt lat="46.71036" lon="5.64753">
        <ele>339.5</ele>
      </trkpt>
      <trkpt lat="46.71034" lon="5.64757">
        <ele>339.9</ele>
      </trkpt>
      <trkpt lat="46.7103" lon="5.64766">
        <ele>341.1</ele>
      </trkpt>
      <trkpt lat="46.71026" lon="5.64773">
        <ele>342</ele>
      </trkpt>
      <trkpt lat="46.71022" lon="5.6478">
        <ele>343.3</ele>
      </trkpt>
      <trkpt lat="46.71016" lon="5.64788">
        <ele>344.3</ele>
      </trkpt>
      <trkpt lat="46.71011" lon="5.64795">
        <ele>345.4</ele>
      </trkpt>
      <trkpt lat="46.71006" lon="5.648">
        <ele>345.7</ele>
      </trkpt>
      <trkpt lat="46.71002" lon="5.64802">
        <ele>345.4</ele>
      </trkpt>
      <trkpt lat="46.70994" lon="5.64808">
        <ele>346.5</ele>
      </trkpt>
      <trkpt lat="46.70985" lon="5.64811">
        <ele>347</ele>
      </trkpt>
      <trkpt lat="46.7098" lon="5.64815">
        <ele>347.9</ele>
      </trkpt>
      <trkpt lat="46.70977" lon="5.64819">
        <ele>348.7</ele>
        <extensions>
          <visugpx:TrkExtension xmlns:visugpx="https://www.visugpx.com/editgpx/">
            <visugpx:node>18</visugpx:node>
            </visugpx:TrkExtension>
        </extensions>
      </trkpt>
      <trkpt lat="46.70975" lon="5.64821">
        <ele>349.1</ele>
      </trkpt>
      <trkpt lat="46.70985" lon="5.6482">
        <ele>349.6</ele>
      </trkpt>
      <trkpt lat="46.70998" lon="5.64818">
        <ele>349.9</ele>
        <extensions>
          <visugpx:TrkExtension xmlns:visugpx="https://www.visugpx.com/editgpx/">
            <visugpx:node>19</visugpx:node>
            </visugpx:TrkExtension>
        </extensions>
      </trkpt>
      <trkpt lat="46.71" lon="5.64815">
        <ele>349.1</ele>
        <time>2019-07-29T10:33:55.000Z</time>
        <extensions>
          <visugpx:TrkExtension xmlns:visugpx="https://www.visugpx.com/editgpx/">
            <visugpx:node>2</visugpx:node>
            </visugpx:TrkExtension>
        </extensions>
      </trkpt>
      <trkpt lat="46.71002" lon="5.64823">
        <ele>352.2</ele>
        <time>2019-07-29T10:34:05.000Z</time>
      </trkpt>
      <trkpt lat="46.71001" lon="5.64838">
        <ele>355</ele>
        <time>2019-07-29T10:34:15.000Z</time>
      </trkpt>
      <trkpt lat="46.71007" lon="5.64851">
        <ele>362.3</ele>
        <time>2019-07-29T10:34:25.000Z</time>
      </trkpt>
      <trkpt lat="46.71016" lon="5.64861">
        <ele>367</ele>
        <time>2019-07-29T10:34:35.000Z</time>
      </trkpt>
      <trkpt lat="46.71019" lon="5.64875">
        <ele>373.3</ele>
        <time>2019-07-29T10:34:45.000Z</time>
      </trkpt>
      <trkpt lat="46.71027" lon="5.64865">
        <ele>381</ele>
        <time>2019-07-29T10:34:55.000Z</time>
      </trkpt>
      <trkpt lat="46.71037" lon="5.64861">
        <ele>375.9</ele>
        <time>2019-07-29T10:35:05.000Z</time>
      </trkpt>
      <trkpt lat="46.71047" lon="5.6486">
        <ele>381</ele>
        <time>2019-07-29T10:35:15.000Z</time>
      </trkpt>
      <trkpt lat="46.71057" lon="5.64856">
        <ele>382.9</ele>
        <time>2019-07-29T10:35:25.000Z</time>
      </trkpt>
      <trkpt lat="46.71076" lon="5.64842">
        <ele>388</ele>
        <time>2019-07-29T10:35:35.000Z</time>
      </trkpt>
      <trkpt lat="46.71098" lon="5.64829">
        <ele>388</ele>
        <time>2019-07-29T10:37:22.000Z</time>
      </trkpt>
      <trkpt lat="46.71104" lon="5.64823">
        <ele>393.9</ele>
        <time>2019-07-29T10:37:32.000Z</time>
      </trkpt>
      <trkpt lat="46.71112" lon="5.64813">
        <ele>394.1</ele>
        <time>2019-07-29T10:37:42.000Z</time>
      </trkpt>
      <trkpt lat="46.7113" lon="5.64797">
        <ele>389</ele>
        <time>2019-07-29T10:37:56.000Z</time>
      </trkpt>
      <trkpt lat="46.71138" lon="5.64787">
        <ele>397.9</ele>
        <time>2019-07-29T10:38:06.000Z</time>
      </trkpt>
      <trkpt lat="46.71148" lon="5.6478">
        <ele>390</ele>
        <time>2019-07-29T10:38:16.000Z</time>
      </trkpt>
      <trkpt lat="46.71156" lon="5.64772">
        <ele>403.7</ele>
        <time>2019-07-29T10:38:26.000Z</time>
      </trkpt>
      <trkpt lat="46.71166" lon="5.64764">
        <ele>401</ele>
        <time>2019-07-29T10:38:36.000Z</time>
      </trkpt>
      <trkpt lat="46.71182" lon="5.64747">
        <ele>401</ele>
        <time>2019-07-29T10:39:06.000Z</time>
      </trkpt>
      <trkpt lat="46.71192" lon="5.64742">
        <ele>415.9</ele>
        <time>2019-07-29T10:39:16.000Z</time>
      </trkpt>
      <trkpt lat="46.71201" lon="5.64735">
        <ele>408</ele>
        <time>2019-07-29T10:39:26.000Z</time>
      </trkpt>
      <trkpt lat="46.71209" lon="5.64725">
        <ele>421</ele>
        <time>2019-07-29T10:39:36.000Z</time>
      </trkpt>
      <trkpt lat="46.71218" lon="5.6472">
        <ele>430</ele>
        <time>2019-07-29T10:39:46.000Z</time>
      </trkpt>
      <trkpt lat="46.71227" lon="5.64713">
        <ele>427.8</ele>
        <time>2019-07-29T10:39:56.000Z</time>
      </trkpt>
      <trkpt lat="46.71244" lon="5.64696">
        <ele>437</ele>
        <time>2019-07-29T10:40:31.000Z</time>
      </trkpt>
      <trkpt lat="46.71258" lon="5.64673">
        <ele>444</ele>
        <time>2019-07-29T10:40:51.000Z</time>
      </trkpt>
      <trkpt lat="46.71267" lon="5.64667">
        <ele>440.3</ele>
        <time>2019-07-29T10:41:01.000Z</time>
      </trkpt>
      <trkpt lat="46.71275" lon="5.64658">
        <ele>465</ele>
        <time>2019-07-29T10:41:11.000Z</time>
      </trkpt>
      <trkpt lat="46.71282" lon="5.64647">
        <ele>446.3</ele>
        <time>2019-07-29T10:41:21.000Z</time>
      </trkpt>
      <trkpt lat="46.7129" lon="5.64637">
        <ele>465</ele>
        <time>2019-07-29T10:41:39.000Z</time>
      </trkpt>
      <trkpt lat="46.71304" lon="5.64616">
        <ele>483</ele>
        <time>2019-07-29T10:41:59.000Z</time>
      </trkpt>
      <trkpt lat="46.71311" lon="5.64604">
        <ele>460.1</ele>
        <time>2019-07-29T10:42:09.000Z</time>
      </trkpt>
      <trkpt lat="46.71315" lon="5.64591">
        <ele>490</ele>
        <time>2019-07-29T10:42:19.000Z</time>
      </trkpt>
      <trkpt lat="46.71321" lon="5.64578">
        <ele>467.3</ele>
        <time>2019-07-29T10:42:29.000Z</time>
      </trkpt>
      <trkpt lat="46.71317" lon="5.64564">
        <ele>489</ele>
        <time>2019-07-29T10:43:04.000Z</time>
      </trkpt>
      <trkpt lat="46.71309" lon="5.64556">
        <ele>469.3</ele>
        <time>2019-07-29T10:43:14.000Z</time>
      </trkpt>
      <trkpt lat="46.71292" lon="5.64536">
        <ele>489</ele>
        <time>2019-07-29T10:43:43.000Z</time>
      </trkpt>
      <trkpt lat="46.71277" lon="5.64514">
        <ele>489</ele>
        <time>2019-07-29T10:43:53.000Z</time>
      </trkpt>
      <trkpt lat="46.71271" lon="5.64504">
        <ele>473.2</ele>
        <time>2019-07-29T10:44:03.000Z</time>
      </trkpt>
      <trkpt lat="46.71266" lon="5.64491">
        <ele>486</ele>
        <time>2019-07-29T10:44:13.000Z</time>
      </trkpt>
      <trkpt lat="46.71266" lon="5.64475">
        <ele>480.6</ele>
        <time>2019-07-29T10:44:23.000Z</time>
      </trkpt>
      <trkpt lat="46.71271" lon="5.64463">
        <ele>484</ele>
        <time>2019-07-29T10:44:32.000Z</time>
      </trkpt>
      <trkpt lat="46.71281" lon="5.64464">
        <ele>486.5</ele>
        <time>2019-07-29T10:44:42.000Z</time>
      </trkpt>
      <trkpt lat="46.71288" lon="5.64476">
        <ele>484</ele>
        <time>2019-07-29T10:44:52.000Z</time>
      </trkpt>
      <trkpt lat="46.71298" lon="5.6448">
        <ele>492.8</ele>
        <time>2019-07-29T10:45:02.000Z</time>
      </trkpt>
      <trkpt lat="46.7131" lon="5.64489">
        <ele>500</ele>
        <time>2019-07-29T10:45:12.000Z</time>
      </trkpt>
      <trkpt lat="46.71316" lon="5.64501">
        <ele>494.1</ele>
        <time>2019-07-29T10:45:22.000Z</time>
      </trkpt>
      <trkpt lat="46.7133" lon="5.64501">
        <ele>501</ele>
        <time>2019-07-29T10:45:32.000Z</time>
      </trkpt>
      <trkpt lat="46.71352" lon="5.64496">
        <ele>503</ele>
        <time>2019-07-29T10:45:42.000Z</time>
      </trkpt>
      <trkpt lat="46.71379" lon="5.64462">
        <ele>500</ele>
        <time>2019-07-29T10:46:22.000Z</time>
      </trkpt>
      <trkpt lat="46.71384" lon="5.64451">
        <ele>496.8</ele>
        <time>2019-07-29T10:46:32.000Z</time>
      </trkpt>
      <trkpt lat="46.7139" lon="5.64443">
        <ele>497.1</ele>
        <time>2019-07-29T10:46:42.000Z</time>
      </trkpt>
      <trkpt lat="46.71402" lon="5.64425">
        <ele>498</ele>
        <time>2019-07-29T10:46:52.000Z</time>
      </trkpt>
      <trkpt lat="46.71407" lon="5.6442">
        <ele>497.9</ele>
        <time>2019-07-29T10:47:02.000Z</time>
      </trkpt>
      <trkpt lat="46.71417" lon="5.64412">
        <ele>498.2</ele>
        <time>2019-07-29T10:47:12.000Z</time>
      </trkpt>
      <trkpt lat="46.71427" lon="5.64407">
        <ele>498</ele>
        <time>2019-07-29T10:47:22.000Z</time>
      </trkpt>
      <trkpt lat="46.71454" lon="5.64389">
        <ele>500</ele>
        <time>2019-07-29T10:47:24.000Z</time>
      </trkpt>
      <trkpt lat="46.71455" lon="5.64374">
        <ele>498.4</ele>
        <time>2019-07-29T10:47:34.000Z</time>
      </trkpt>
      <trkpt lat="46.71453" lon="5.64359">
        <ele>500</ele>
        <time>2019-07-29T10:47:44.000Z</time>
      </trkpt>
      <trkpt lat="46.71451" lon="5.64352">
        <ele>499</ele>
        <time>2019-07-29T10:47:54.000Z</time>
      </trkpt>
      <trkpt lat="46.71448" lon="5.64345">
        <ele>499</ele>
        <time>2019-07-29T10:48:04.000Z</time>
      </trkpt>
      <trkpt lat="46.71441" lon="5.64333">
        <ele>501</ele>
        <time>2019-07-29T10:48:14.000Z</time>
      </trkpt>
      <trkpt lat="46.71427" lon="5.64318">
        <ele>499.1</ele>
        <time>2019-07-29T10:48:24.000Z</time>
      </trkpt>
      <trkpt lat="46.71421" lon="5.6431">
        <ele>501</ele>
        <time>2019-07-29T10:48:34.000Z</time>
      </trkpt>
      <trkpt lat="46.71416" lon="5.64279">
        <ele>501</ele>
        <time>2019-07-29T10:48:31.000Z</time>
      </trkpt>
      <trkpt lat="46.71411" lon="5.64265">
        <ele>496.3</ele>
        <time>2019-07-29T10:48:41.000Z</time>
      </trkpt>
      <trkpt lat="46.71401" lon="5.64258">
        <ele>492</ele>
        <time>2019-07-29T10:49:01.000Z</time>
      </trkpt>
      <trkpt lat="46.71391" lon="5.64254">
        <ele>496.2</ele>
        <time>2019-07-29T10:49:11.000Z</time>
      </trkpt>
      <trkpt lat="46.71379" lon="5.64253">
        <ele>491</ele>
        <time>2019-07-29T10:49:21.000Z</time>
      </trkpt>
      <trkpt lat="46.71369" lon="5.64253">
        <ele>496.2</ele>
        <time>2019-07-29T10:49:31.000Z</time>
      </trkpt>
      <trkpt lat="46.71358" lon="5.6425">
        <ele>491</ele>
        <time>2019-07-29T10:49:41.000Z</time>
      </trkpt>
      <trkpt lat="46.71351" lon="5.6424">
        <ele>491.9</ele>
        <time>2019-07-29T10:49:51.000Z</time>
      </trkpt>
      <trkpt lat="46.7135" lon="5.64224">
        <ele>486</ele>
        <time>2019-07-29T10:50:01.000Z</time>
      </trkpt>
      <trkpt lat="46.71354" lon="5.64195">
        <ele>481</ele>
        <time>2019-07-29T10:50:11.000Z</time>
      </trkpt>
      <trkpt lat="46.71358" lon="5.6418">
        <ele>490.6</ele>
        <time>2019-07-29T10:50:21.000Z</time>
      </trkpt>
      <trkpt lat="46.71376" lon="5.64156">
        <ele>482</ele>
        <time>2019-07-29T10:49:36.000Z</time>
      </trkpt>
      <trkpt lat="46.71382" lon="5.64146">
        <ele>489.2</ele>
        <time>2019-07-29T10:49:46.000Z</time>
      </trkpt>
      <trkpt lat="46.71394" lon="5.64118">
        <ele>481</ele>
        <time>2019-07-29T10:49:49.000Z</time>
      </trkpt>
      <trkpt lat="46.71396" lon="5.64102">
        <ele>490.5</ele>
        <time>2019-07-29T10:49:59.000Z</time>
      </trkpt>
      <trkpt lat="46.71397" lon="5.64085">
        <ele>481</ele>
        <time>2019-07-29T10:50:09.000Z</time>
      </trkpt>
      <trkpt lat="46.71397" lon="5.64068">
        <ele>490.8</ele>
        <time>2019-07-29T10:50:19.000Z</time>
      </trkpt>
      <trkpt lat="46.71393" lon="5.6405">
        <ele>474</ele>
        <time>2019-07-29T10:50:39.000Z</time>
      </trkpt>
      <trkpt lat="46.71391" lon="5.64038">
        <ele>488.6</ele>
        <time>2019-07-29T10:50:49.000Z</time>
      </trkpt>
      <trkpt lat="46.71395" lon="5.64026">
        <ele>486.2</ele>
        <time>2019-07-29T10:50:59.000Z</time>
      </trkpt>
      <trkpt lat="46.7141" lon="5.64003">
        <ele>473</ele>
        <time>2019-07-29T10:50:26.000Z</time>
      </trkpt>
      <trkpt lat="46.71416" lon="5.63989">
        <ele>483.3</ele>
        <time>2019-07-29T10:50:36.000Z</time>
      </trkpt>
      <trkpt lat="46.7142" lon="5.63974">
        <ele>472</ele>
        <time>2019-07-29T10:50:46.000Z</time>
      </trkpt>
      <trkpt lat="46.71427" lon="5.63959">
        <ele>481.2</ele>
        <time>2019-07-29T10:50:56.000Z</time>
      </trkpt>
      <trkpt lat="46.71435" lon="5.63946">
        <ele>465</ele>
        <time>2019-07-29T10:51:06.000Z</time>
      </trkpt>
      <trkpt lat="46.71452" lon="5.63929">
        <ele>464</ele>
        <time>2019-07-29T10:51:16.000Z</time>
      </trkpt>
      <trkpt lat="46.71453" lon="5.63915">
        <ele>477.5</ele>
        <time>2019-07-29T10:51:26.000Z</time>
      </trkpt>
      <trkpt lat="46.71455" lon="5.63899">
        <ele>443</ele>
        <time>2019-07-29T10:51:36.000Z</time>
      </trkpt>
      <trkpt lat="46.7146" lon="5.63888">
        <ele>471.6</ele>
        <time>2019-07-29T10:51:46.000Z</time>
      </trkpt>
      <trkpt lat="46.71469" lon="5.63879">
        <ele>445</ele>
        <time>2019-07-29T10:51:56.000Z</time>
      </trkpt>
      <trkpt lat="46.71498" lon="5.63859">
        <ele>441</ele>
        <time>2019-07-29T10:51:30.000Z</time>
      </trkpt>
      <trkpt lat="46.71508" lon="5.63851">
        <ele>467.8</ele>
        <time>2019-07-29T10:51:40.000Z</time>
      </trkpt>
      <trkpt lat="46.71519" lon="5.63846">
        <ele>448</ele>
        <time>2019-07-29T10:51:50.000Z</time>
      </trkpt>
      <trkpt lat="46.71531" lon="5.63845">
        <ele>467.6</ele>
        <time>2019-07-29T10:52:00.000Z</time>
      </trkpt>
      <trkpt lat="46.71574" lon="5.63835">
        <ele>455</ele>
        <time>2019-07-29T10:52:04.000Z</time>
      </trkpt>
      <trkpt lat="46.71598" lon="5.63837">
        <ele>455</ele>
        <time>2019-07-29T10:52:24.000Z</time>
      </trkpt>
      <trkpt lat="46.71628" lon="5.63834">
        <ele>455</ele>
        <time>2019-07-29T10:52:44.000Z</time>
      </trkpt>
      <trkpt lat="46.7165" lon="5.63839">
        <ele>456</ele>
        <time>2019-07-29T10:52:38.000Z</time>
      </trkpt>
      <trkpt lat="46.71671" lon="5.63849">
        <ele>458</ele>
        <time>2019-07-29T10:52:48.000Z</time>
      </trkpt>
      <trkpt lat="46.71694" lon="5.63857">
        <ele>455</ele>
        <time>2019-07-29T10:53:00.000Z</time>
      </trkpt>
      <trkpt lat="46.7173" lon="5.63858">
        <ele>452</ele>
        <time>2019-07-29T10:53:17.000Z</time>
      </trkpt>
      <trkpt lat="46.71739" lon="5.63859">
        <ele>461.3</ele>
        <time>2019-07-29T10:53:27.000Z</time>
      </trkpt>
      <trkpt lat="46.71749" lon="5.63862">
        <ele>445</ele>
        <time>2019-07-29T10:53:37.000Z</time>
      </trkpt>
      <trkpt lat="46.71759" lon="5.6386">
        <ele>459.6</ele>
        <time>2019-07-29T10:53:47.000Z</time>
      </trkpt>
      <trkpt lat="46.71771" lon="5.63861">
        <ele>442</ele>
        <time>2019-07-29T10:53:57.000Z</time>
      </trkpt>
      <trkpt lat="46.71785" lon="5.63865">
        <ele>456.4</ele>
        <time>2019-07-29T10:54:07.000Z</time>
      </trkpt>
      <trkpt lat="46.718" lon="5.63872">
        <ele>442</ele>
        <time>2019-07-29T10:54:17.000Z</time>
      </trkpt>
      <trkpt lat="46.71811" lon="5.63871">
        <ele>453.4</ele>
        <time>2019-07-29T10:54:27.000Z</time>
      </trkpt>
      <trkpt lat="46.71816" lon="5.63872">
        <ele>453.1</ele>
        <time>2019-07-29T10:54:37.000Z</time>
      </trkpt>
      <trkpt lat="46.71823" lon="5.63875">
        <ele>447</ele>
        <time>2019-07-29T10:54:47.000Z</time>
      </trkpt>
      <trkpt lat="46.71834" lon="5.63884">
        <ele>457.7</ele>
        <time>2019-07-29T10:54:57.000Z</time>
      </trkpt>
      <trkpt lat="46.71843" lon="5.63887">
        <ele>448</ele>
        <time>2019-07-29T10:55:07.000Z</time>
      </trkpt>
      <trkpt lat="46.71876" lon="5.63893">
        <ele>446</ele>
        <time>2019-07-29T10:54:27.000Z</time>
      </trkpt>
      <trkpt lat="46.71891" lon="5.63898">
        <ele>453.6</ele>
        <time>2019-07-29T10:54:37.000Z</time>
      </trkpt>
      <trkpt lat="46.71906" lon="5.63907">
        <ele>449</ele>
        <time>2019-07-29T10:54:57.000Z</time>
      </trkpt>
      <trkpt lat="46.71915" lon="5.63915">
        <ele>457.5</ele>
        <time>2019-07-29T10:55:07.000Z</time>
      </trkpt>
      <trkpt lat="46.71926" lon="5.63919">
        <ele>449</ele>
        <time>2019-07-29T10:55:17.000Z</time>
      </trkpt>
      <trkpt lat="46.71948" lon="5.63918">
        <ele>448</ele>
        <time>2019-07-29T10:55:06.000Z</time>
      </trkpt>
      <trkpt lat="46.71957" lon="5.63921">
        <ele>456</ele>
        <time>2019-07-29T10:55:16.000Z</time>
      </trkpt>
      <trkpt lat="46.71978" lon="5.63933">
        <ele>447</ele>
        <time>2019-07-29T10:55:36.000Z</time>
      </trkpt>
      <trkpt lat="46.71989" lon="5.63934">
        <ele>456.1</ele>
        <time>2019-07-29T10:55:46.000Z</time>
      </trkpt>
      <trkpt lat="46.71999" lon="5.63934">
        <ele>454</ele>
        <time>2019-07-29T10:55:56.000Z</time>
      </trkpt>
      <trkpt lat="46.7201" lon="5.63936">
        <ele>453.7</ele>
        <time>2019-07-29T10:56:06.000Z</time>
      </trkpt>
      <trkpt lat="46.72026" lon="5.63954">
        <ele>461</ele>
        <time>2019-07-29T10:55:45.000Z</time>
      </trkpt>
      <trkpt lat="46.72036" lon="5.63959">
        <ele>457.3</ele>
        <time>2019-07-29T10:55:55.000Z</time>
      </trkpt>
      <trkpt lat="46.72047" lon="5.6396">
        <ele>461</ele>
        <time>2019-07-29T10:56:05.000Z</time>
      </trkpt>
      <trkpt lat="46.72058" lon="5.63959">
        <ele>453.9</ele>
        <time>2019-07-29T10:56:15.000Z</time>
      </trkpt>
      <trkpt lat="46.72053" lon="5.63945">
        <ele>459</ele>
        <time>2019-07-29T10:56:25.000Z</time>
      </trkpt>
      <trkpt lat="46.72044" lon="5.63936">
        <ele>447.6</ele>
        <time>2019-07-29T10:56:35.000Z</time>
      </trkpt>
      <trkpt lat="46.72024" lon="5.63923">
        <ele>442</ele>
        <time>2019-07-29T10:56:55.000Z</time>
      </trkpt>
      <trkpt lat="46.72015" lon="5.63916">
        <ele>443.5</ele>
        <time>2019-07-29T10:57:05.000Z</time>
      </trkpt>
      <trkpt lat="46.72006" lon="5.63907">
        <ele>434</ele>
        <time>2019-07-29T10:57:15.000Z</time>
      </trkpt>
      <trkpt lat="46.71978" lon="5.63885">
        <ele>426</ele>
        <time>2019-07-29T10:57:35.000Z</time>
      </trkpt>
      <trkpt lat="46.7196" lon="5.63864">
        <ele>426</ele>
        <time>2019-07-29T10:57:20.000Z</time>
      </trkpt>
      <trkpt lat="46.71953" lon="5.63859">
        <ele>428.9</ele>
        <time>2019-07-29T10:57:30.000Z</time>
      </trkpt>
      <trkpt lat="46.71941" lon="5.63852">
        <ele>426</ele>
        <time>2019-07-29T10:57:40.000Z</time>
      </trkpt>
      <trkpt lat="46.71904" lon="5.63821">
        <ele>423</ele>
        <time>2019-07-29T10:57:49.000Z</time>
      </trkpt>
      <trkpt lat="46.71896" lon="5.63812">
        <ele>410.9</ele>
        <time>2019-07-29T10:57:59.000Z</time>
      </trkpt>
      <trkpt lat="46.71858" lon="5.63783">
        <ele>399</ele>
        <time>2019-07-29T10:58:12.000Z</time>
      </trkpt>
      <trkpt lat="46.71849" lon="5.63777">
        <ele>401.9</ele>
        <time>2019-07-29T10:58:22.000Z</time>
      </trkpt>
      <trkpt lat="46.71831" lon="5.63761">
        <ele>395</ele>
        <time>2019-07-29T10:58:24.000Z</time>
      </trkpt>
      <trkpt lat="46.71809" lon="5.63746">
        <ele>392</ele>
        <time>2019-07-29T10:58:34.000Z</time>
      </trkpt>
      <trkpt lat="46.71801" lon="5.63737">
        <ele>389.2</ele>
        <time>2019-07-29T10:58:44.000Z</time>
      </trkpt>
      <trkpt lat="46.71773" lon="5.63712">
        <ele>390</ele>
        <time>2019-07-29T10:58:54.000Z</time>
      </trkpt>
      <trkpt lat="46.71752" lon="5.63698">
        <ele>377</ele>
        <time>2019-07-29T10:59:04.000Z</time>
      </trkpt>
      <trkpt lat="46.7174" lon="5.63693">
        <ele>375.1</ele>
        <time>2019-07-29T10:59:14.000Z</time>
      </trkpt>
      <trkpt lat="46.71719" lon="5.63678">
        <ele>373</ele>
        <time>2019-07-29T10:59:34.000Z</time>
      </trkpt>
      <trkpt lat="46.71699" lon="5.63662">
        <ele>370</ele>
        <time>2019-07-29T10:59:27.000Z</time>
      </trkpt>
      <trkpt lat="46.71681" lon="5.63644">
        <ele>364</ele>
        <time>2019-07-29T10:59:37.000Z</time>
      </trkpt>
      <trkpt lat="46.71671" lon="5.63636">
        <ele>360.8</ele>
        <time>2019-07-29T10:59:47.000Z</time>
      </trkpt>
      <trkpt lat="46.71661" lon="5.63629">
        <ele>358</ele>
        <time>2019-07-29T10:59:57.000Z</time>
      </trkpt>
      <trkpt lat="46.71649" lon="5.63624">
        <ele>356.2</ele>
        <time>2019-07-29T11:00:07.000Z</time>
      </trkpt>
      <trkpt lat="46.71639" lon="5.63615">
        <ele>356</ele>
        <time>2019-07-29T10:59:57.000Z</time>
      </trkpt>
      <trkpt lat="46.71629" lon="5.63608">
        <ele>350.2</ele>
        <time>2019-07-29T11:00:07.000Z</time>
      </trkpt>
      <trkpt lat="46.71617" lon="5.63601">
        <ele>355</ele>
        <time>2019-07-29T11:00:17.000Z</time>
      </trkpt>
      <trkpt lat="46.71585" lon="5.63589">
        <ele>339</ele>
        <time>2019-07-29T11:00:37.000Z</time>
      </trkpt>
      <trkpt lat="46.7155" lon="5.63571">
        <ele>334</ele>
        <time>2019-07-29T11:00:26.000Z</time>
      </trkpt>
      <trkpt lat="46.71547" lon="5.63568">
        <ele>333.3</ele>
        <time>2019-07-29T11:00:36.000Z</time>
      </trkpt>
      <trkpt lat="46.71543" lon="5.63561">
        <ele>331.1</ele>
        <time>2019-07-29T11:00:46.000Z</time>
      </trkpt>
      <trkpt lat="46.71544" lon="5.63544">
        <ele>316</ele>
        <time>2019-07-29T11:00:56.000Z</time>
      </trkpt>
      <trkpt lat="46.71546" lon="5.63524">
        <ele>323.9</ele>
        <time>2019-07-29T11:01:06.000Z</time>
      </trkpt>
      <trkpt lat="46.71544" lon="5.63507">
        <ele>313</ele>
        <time>2019-07-29T11:01:26.000Z</time>
      </trkpt>
      <trkpt lat="46.71521" lon="5.63516">
        <ele>313</ele>
        <time>2019-07-29T11:01:36.000Z</time>
      </trkpt>
      <trkpt lat="46.71495" lon="5.63526">
        <ele>313</ele>
        <time>2019-07-29T11:01:06.000Z</time>
      </trkpt>
      <trkpt lat="46.71474" lon="5.63533">
        <ele>307</ele>
        <time>2019-07-29T11:01:11.000Z</time>
      </trkpt>
      <trkpt lat="46.71435" lon="5.63548">
        <ele>307</ele>
        <time>2019-07-29T11:01:26.000Z</time>
      </trkpt>
      <trkpt lat="46.71417" lon="5.63556">
        <ele>305</ele>
        <time>2019-07-29T11:01:36.000Z</time>
      </trkpt>
      <trkpt lat="46.71408" lon="5.63558">
        <ele>305.7</ele>
        <time>2019-07-29T11:01:46.000Z</time>
      </trkpt>
      <trkpt lat="46.71398" lon="5.63559">
        <ele>304</ele>
        <time>2019-07-29T11:01:56.000Z</time>
      </trkpt>
      <trkpt lat="46.71355" lon="5.63572">
        <ele>302</ele>
        <time>2019-07-29T11:02:01.000Z</time>
      </trkpt>
      <trkpt lat="46.71337" lon="5.63575">
        <ele>295.2</ele>
        <time>2019-07-29T11:02:11.000Z</time>
      </trkpt>
      <trkpt lat="46.71322" lon="5.63571">
        <ele>294</ele>
        <time>2019-07-29T11:02:11.000Z</time>
      </trkpt>
      <trkpt lat="46.71317" lon="5.63574">
        <ele>293.1</ele>
        <time>2019-07-29T11:02:21.000Z</time>
      </trkpt>
      <trkpt lat="46.71308" lon="5.63586">
        <ele>292.4</ele>
        <time>2019-07-29T11:02:31.000Z</time>
      </trkpt>
      <trkpt lat="46.71299" lon="5.63596">
        <ele>291</ele>
        <time>2019-07-29T11:02:41.000Z</time>
      </trkpt>
      <trkpt lat="46.71289" lon="5.63601">
        <ele>292</ele>
        <time>2019-07-29T11:02:51.000Z</time>
      </trkpt>
      <trkpt lat="46.71272" lon="5.63596">
        <ele>291</ele>
        <time>2019-07-29T11:02:27.000Z</time>
      </trkpt>
      <trkpt lat="46.71262" lon="5.63592">
        <ele>291.7</ele>
        <time>2019-07-29T11:02:37.000Z</time>
      </trkpt>
      <trkpt lat="46.71246" lon="5.63585">
        <ele>295</ele>
        <time>2019-07-29T11:02:47.000Z</time>
      </trkpt>
      <trkpt lat="46.71241" lon="5.63581">
        <ele>291.6</ele>
        <time>2019-07-29T11:02:57.000Z</time>
      </trkpt>
      <trkpt lat="46.71231" lon="5.63576">
        <ele>291.4</ele>
        <time>2019-07-29T11:03:07.000Z</time>
      </trkpt>
      <trkpt lat="46.71233" lon="5.6356">
        <ele>298</ele>
        <time>2019-07-29T11:03:17.000Z</time>
      </trkpt>
      <trkpt lat="46.71236" lon="5.63544">
        <ele>291.5</ele>
        <time>2019-07-29T11:03:27.000Z</time>
      </trkpt>
      <trkpt lat="46.71237" lon="5.63528">
        <ele>295</ele>
        <time>2019-07-29T11:03:37.000Z</time>
      </trkpt>
      <trkpt lat="46.71243" lon="5.63488">
        <ele>292</ele>
        <time>2019-07-29T11:03:29.000Z</time>
      </trkpt>
      <trkpt lat="46.71244" lon="5.63473">
        <ele>291.2</ele>
        <time>2019-07-29T11:03:39.000Z</time>
      </trkpt>
      <trkpt lat="46.71243" lon="5.63458">
        <ele>291</ele>
        <time>2019-07-29T11:03:49.000Z</time>
      </trkpt>
      <trkpt lat="46.71235" lon="5.63434">
        <ele>292.1</ele>
        <time>2019-07-29T11:03:59.000Z</time>
      </trkpt>
      <trkpt lat="46.71229" lon="5.63425">
        <ele>290</ele>
        <time>2019-07-29T11:04:09.000Z</time>
      </trkpt>
      <trkpt lat="46.71213" lon="5.63389">
        <ele>290</ele>
        <time>2019-07-29T11:04:21.000Z</time>
      </trkpt>
      <trkpt lat="46.71207" lon="5.63365">
        <ele>292.9</ele>
        <time>2019-07-29T11:04:31.000Z</time>
      </trkpt>
      <trkpt lat="46.71204" lon="5.63344">
        <ele>290</ele>
        <time>2019-07-29T11:04:41.000Z</time>
      </trkpt>
      <trkpt lat="46.71204" lon="5.63333">
        <ele>292.7</ele>
        <time>2019-07-29T11:04:51.000Z</time>
      </trkpt>
      <trkpt lat="46.71205" lon="5.63311">
        <ele>291</ele>
        <time>2019-07-29T11:05:01.000Z</time>
      </trkpt>
      <trkpt lat="46.71208" lon="5.63292">
        <ele>292.5</ele>
        <time>2019-07-29T11:05:11.000Z</time>
      </trkpt>
      <trkpt lat="46.71208" lon="5.63273">
        <ele>293</ele>
        <time>2019-07-29T11:05:31.000Z</time>
      </trkpt>
      <trkpt lat="46.71203" lon="5.63237">
        <ele>296</ele>
        <time>2019-07-29T11:05:32.000Z</time>
      </trkpt>
      <trkpt lat="46.71201" lon="5.63227">
        <ele>293.4</ele>
        <time>2019-07-29T11:05:42.000Z</time>
      </trkpt>
      <trkpt lat="46.71198" lon="5.63217">
        <ele>293.8</ele>
        <time>2019-07-29T11:05:52.000Z</time>
      </trkpt>
      <trkpt lat="46.71181" lon="5.63199">
        <ele>306</ele>
        <time>2019-07-29T11:06:02.000Z</time>
      </trkpt>
      <trkpt lat="46.71153" lon="5.63177">
        <ele>312</ele>
        <time>2019-07-29T11:06:32.000Z</time>
      </trkpt>
      <trkpt lat="46.71151" lon="5.63165">
        <ele>298.2</ele>
        <time>2019-07-29T11:06:42.000Z</time>
      </trkpt>
      <trkpt lat="46.71155" lon="5.63152">
        <ele>300.1</ele>
        <time>2019-07-29T11:06:52.000Z</time>
      </trkpt>
      <trkpt lat="46.71174" lon="5.63116">
        <ele>317</ele>
        <time>2019-07-29T11:07:50.000Z</time>
      </trkpt>
      <trkpt lat="46.71189" lon="5.63095">
        <ele>321</ele>
        <time>2019-07-29T11:08:10.000Z</time>
      </trkpt>
      <trkpt lat="46.71199" lon="5.63091">
        <ele>318.9</ele>
        <time>2019-07-29T11:08:20.000Z</time>
      </trkpt>
      <trkpt lat="46.71209" lon="5.63091">
        <ele>323</ele>
        <time>2019-07-29T11:08:30.000Z</time>
      </trkpt>
      <trkpt lat="46.7121" lon="5.63077">
        <ele>323.8</ele>
        <time>2019-07-29T11:08:40.000Z</time>
      </trkpt>
      <trkpt lat="46.71202" lon="5.63068">
        <ele>330</ele>
        <time>2019-07-29T11:09:35.000Z</time>
      </trkpt>
      <trkpt lat="46.71194" lon="5.63062">
        <ele>327</ele>
        <time>2019-07-29T11:09:45.000Z</time>
      </trkpt>
      <trkpt lat="46.7119" lon="5.63049">
        <ele>330</ele>
        <time>2019-07-29T11:09:55.000Z</time>
      </trkpt>
      <trkpt lat="46.71196" lon="5.63037">
        <ele>335.1</ele>
        <time>2019-07-29T11:10:05.000Z</time>
      </trkpt>
      <trkpt lat="46.71204" lon="5.63027">
        <ele>334</ele>
        <time>2019-07-29T11:10:15.000Z</time>
      </trkpt>
      <trkpt lat="46.71215" lon="5.63029">
        <ele>338.3</ele>
        <time>2019-07-29T11:10:25.000Z</time>
      </trkpt>
      <trkpt lat="46.71231" lon="5.63014">
        <ele>335</ele>
        <time>2019-07-29T11:10:35.000Z</time>
      </trkpt>
      <trkpt lat="46.71226" lon="5.62983">
        <ele>345</ele>
        <time>2019-07-29T11:10:45.000Z</time>
      </trkpt>
      <trkpt lat="46.71228" lon="5.62974">
        <ele>344</ele>
        <time>2019-07-29T11:10:55.000Z</time>
      </trkpt>
      <trkpt lat="46.71225" lon="5.62951">
        <ele>355</ele>
        <time>2019-07-29T11:11:05.000Z</time>
      </trkpt>
      <trkpt lat="46.71211" lon="5.62925">
        <ele>359</ele>
        <time>2019-07-29T11:11:15.000Z</time>
      </trkpt>
      <trkpt lat="46.71211" lon="5.6291">
        <ele>354.1</ele>
        <time>2019-07-29T11:11:25.000Z</time>
      </trkpt>
      <trkpt lat="46.71213" lon="5.6288">
        <ele>364</ele>
        <time>2019-07-29T11:11:45.000Z</time>
      </trkpt>
      <trkpt lat="46.71216" lon="5.62866">
        <ele>359.3</ele>
        <time>2019-07-29T11:11:55.000Z</time>
      </trkpt>
      <trkpt lat="46.71221" lon="5.62853">
        <ele>364</ele>
        <time>2019-07-29T11:12:43.000Z</time>
      </trkpt>
      <trkpt lat="46.71234" lon="5.62828">
        <ele>367</ele>
        <time>2019-07-29T11:13:12.000Z</time>
      </trkpt>
      <trkpt lat="46.71239" lon="5.62803">
        <ele>368.7</ele>
        <time>2019-07-29T11:13:22.000Z</time>
      </trkpt>
      <trkpt lat="46.7124" lon="5.6279">
        <ele>379</ele>
        <time>2019-07-29T11:13:32.000Z</time>
      </trkpt>
      <trkpt lat="46.7124" lon="5.62777">
        <ele>373.5</ele>
        <time>2019-07-29T11:13:42.000Z</time>
      </trkpt>
      <trkpt lat="46.7123" lon="5.62758">
        <ele>380</ele>
        <time>2019-07-29T11:14:15.000Z</time>
      </trkpt>
      <trkpt lat="46.71226" lon="5.62753">
        <ele>378.4</ele>
        <time>2019-07-29T11:14:25.000Z</time>
      </trkpt>
      <trkpt lat="46.7122" lon="5.62754">
        <ele>378.2</ele>
        <time>2019-07-29T11:14:35.000Z</time>
      </trkpt>
      <trkpt lat="46.71213" lon="5.62741">
        <ele>380</ele>
        <time>2019-07-29T11:14:45.000Z</time>
      </trkpt>
      <trkpt lat="46.71207" lon="5.62713">
        <ele>382</ele>
        <time>2019-07-29T11:15:05.000Z</time>
      </trkpt>
      <trkpt lat="46.71208" lon="5.62698">
        <ele>386.8</ele>
        <time>2019-07-29T11:15:15.000Z</time>
      </trkpt>
      <trkpt lat="46.71214" lon="5.6268">
        <ele>383</ele>
        <time>2019-07-29T11:15:25.000Z</time>
      </trkpt>
      <trkpt lat="46.71219" lon="5.6266">
        <ele>390.7</ele>
        <time>2019-07-29T11:15:35.000Z</time>
      </trkpt>
      <trkpt lat="46.71223" lon="5.62631">
        <ele>387</ele>
        <time>2019-07-29T11:15:45.000Z</time>
      </trkpt>
      <trkpt lat="46.71224" lon="5.62616">
        <ele>397</ele>
        <time>2019-07-29T11:15:55.000Z</time>
      </trkpt>
      <trkpt lat="46.71227" lon="5.62601">
        <ele>394</ele>
        <time>2019-07-29T11:16:05.000Z</time>
      </trkpt>
      <trkpt lat="46.71229" lon="5.62572">
        <ele>401</ele>
        <time>2019-07-29T11:16:40.000Z</time>
      </trkpt>
      <trkpt lat="46.71229" lon="5.62557">
        <ele>406.5</ele>
        <time>2019-07-29T11:16:50.000Z</time>
      </trkpt>
      <trkpt lat="46.71226" lon="5.62543">
        <ele>406</ele>
        <time>2019-07-29T11:17:00.000Z</time>
      </trkpt>
      <trkpt lat="46.71233" lon="5.62515">
        <ele>409</ele>
        <time>2019-07-29T11:17:29.000Z</time>
      </trkpt>
      <trkpt lat="46.71238" lon="5.62484">
        <ele>413</ele>
        <time>2019-07-29T11:17:39.000Z</time>
      </trkpt>
      <trkpt lat="46.71244" lon="5.62455">
        <ele>424</ele>
        <time>2019-07-29T11:18:18.000Z</time>
      </trkpt>
      <trkpt lat="46.71251" lon="5.62442">
        <ele>425.4</ele>
        <time>2019-07-29T11:18:28.000Z</time>
      </trkpt>
      <trkpt lat="46.71255" lon="5.62428">
        <ele>430</ele>
        <time>2019-07-29T11:18:38.000Z</time>
      </trkpt>
      <trkpt lat="46.71267" lon="5.62405">
        <ele>435</ele>
        <time>2019-07-29T11:18:48.000Z</time>
      </trkpt>
      <trkpt lat="46.71277" lon="5.62379">
        <ele>441</ele>
        <time>2019-07-29T11:18:58.000Z</time>
      </trkpt>
      <trkpt lat="46.7128" lon="5.62365">
        <ele>439.4</ele>
        <time>2019-07-29T11:19:08.000Z</time>
      </trkpt>
      <trkpt lat="46.71282" lon="5.62349">
        <ele>444</ele>
        <time>2019-07-29T11:19:18.000Z</time>
      </trkpt>
      <trkpt lat="46.71299" lon="5.62311">
        <ele>449</ele>
        <time>2019-07-29T11:20:31.000Z</time>
      </trkpt>
      <trkpt lat="46.71306" lon="5.623">
        <ele>455.7</ele>
        <time>2019-07-29T11:20:41.000Z</time>
      </trkpt>
      <trkpt lat="46.71313" lon="5.62287">
        <ele>457</ele>
        <time>2019-07-29T11:20:51.000Z</time>
      </trkpt>
      <trkpt lat="46.71342" lon="5.62247">
        <ele>461</ele>
        <time>2019-07-29T11:21:39.000Z</time>
      </trkpt>
      <trkpt lat="46.71349" lon="5.62241">
        <ele>463.6</ele>
        <time>2019-07-29T11:21:49.000Z</time>
      </trkpt>
      <trkpt lat="46.71353" lon="5.62228">
        <ele>464.9</ele>
        <time>2019-07-29T11:21:59.000Z</time>
      </trkpt>
      <trkpt lat="46.7136" lon="5.62218">
        <ele>462</ele>
        <time>2019-07-29T11:22:09.000Z</time>
      </trkpt>
      <trkpt lat="46.71373" lon="5.62193">
        <ele>468</ele>
        <time>2019-07-29T11:22:19.000Z</time>
      </trkpt>
      <trkpt lat="46.71379" lon="5.62183">
        <ele>464.8</ele>
        <time>2019-07-29T11:22:29.000Z</time>
      </trkpt>
      <trkpt lat="46.71393" lon="5.6216">
        <ele>475</ele>
        <time>2019-07-29T11:22:49.000Z</time>
      </trkpt>
      <trkpt lat="46.714" lon="5.6215">
        <ele>467.7</ele>
        <time>2019-07-29T11:22:59.000Z</time>
      </trkpt>
      <trkpt lat="46.71379" lon="5.62153">
        <ele>474</ele>
        <time>2019-07-29T11:23:09.000Z</time>
      </trkpt>
      <trkpt lat="46.7137" lon="5.62156">
        <ele>471.7</ele>
        <time>2019-07-29T11:23:19.000Z</time>
      </trkpt>
      <trkpt lat="46.71364" lon="5.62168">
        <ele>474</ele>
        <time>2019-07-29T11:23:29.000Z</time>
      </trkpt>
      <trkpt lat="46.71355" lon="5.62175">
        <ele>471.6</ele>
        <time>2019-07-29T11:23:39.000Z</time>
      </trkpt>
      <trkpt lat="46.71317" lon="5.6219">
        <ele>491</ele>
        <time>2019-07-29T11:24:09.000Z</time>
      </trkpt>
      <trkpt lat="46.71307" lon="5.62193">
        <ele>478.2</ele>
        <time>2019-07-29T11:24:19.000Z</time>
      </trkpt>
      <trkpt lat="46.71299" lon="5.62194">
        <ele>478.8</ele>
        <time>2019-07-29T11:24:29.000Z</time>
      </trkpt>
      <trkpt lat="46.71267" lon="5.62203">
        <ele>496</ele>
        <time>2019-07-29T11:25:03.000Z</time>
      </trkpt>
      <trkpt lat="46.71258" lon="5.62196">
        <ele>482.7</ele>
        <time>2019-07-29T11:25:13.000Z</time>
      </trkpt>
      <trkpt lat="46.71258" lon="5.6218">
        <ele>502</ele>
        <time>2019-07-29T11:25:23.000Z</time>
      </trkpt>
      <trkpt lat="46.71259" lon="5.62166">
        <ele>491.6</ele>
        <time>2019-07-29T11:25:33.000Z</time>
      </trkpt>
      <trkpt lat="46.71263" lon="5.62152">
        <ele>502</ele>
        <time>2019-07-29T11:25:43.000Z</time>
      </trkpt>
      <trkpt lat="46.71264" lon="5.62138">
        <ele>499.9</ele>
        <time>2019-07-29T11:25:53.000Z</time>
      </trkpt>
      <trkpt lat="46.71274" lon="5.62111">
        <ele>494</ele>
        <time>2019-07-29T11:26:13.000Z</time>
      </trkpt>
      <trkpt lat="46.71279" lon="5.62096">
        <ele>493.8</ele>
        <time>2019-07-29T11:26:23.000Z</time>
      </trkpt>
      <trkpt lat="46.71287" lon="5.62087">
        <ele>485</ele>
        <time>2019-07-29T11:26:33.000Z</time>
      </trkpt>
      <trkpt lat="46.71298" lon="5.62087">
        <ele>491.2</ele>
        <time>2019-07-29T11:26:43.000Z</time>
      </trkpt>
      <trkpt lat="46.71363" lon="5.62096">
        <ele>485</ele>
        <time>2019-07-29T11:27:48.000Z</time>
      </trkpt>
      <trkpt lat="46.7137" lon="5.6209">
        <ele>488.9</ele>
        <time>2019-07-29T11:27:58.000Z</time>
      </trkpt>
      <trkpt lat="46.71372" lon="5.62081">
        <ele>489.3</ele>
        <time>2019-07-29T11:28:08.000Z</time>
      </trkpt>
      <trkpt lat="46.71371" lon="5.62062">
        <ele>490</ele>
        <time>2019-07-29T11:28:28.000Z</time>
      </trkpt>
      <trkpt lat="46.71372" lon="5.62047">
        <ele>488.1</ele>
        <time>2019-07-29T11:28:38.000Z</time>
      </trkpt>
      <trkpt lat="46.71372" lon="5.62031">
        <ele>496</ele>
        <time>2019-07-29T11:28:48.000Z</time>
      </trkpt>
      <trkpt lat="46.71371" lon="5.62012">
        <ele>487</ele>
        <time>2019-07-29T11:28:58.000Z</time>
      </trkpt>
      <trkpt lat="46.71369" lon="5.62002">
        <ele>492</ele>
        <time>2019-07-29T11:29:08.000Z</time>
      </trkpt>
      <trkpt lat="46.71366" lon="5.61995">
        <ele>486.4</ele>
        <time>2019-07-29T11:29:18.000Z</time>
      </trkpt>
      <trkpt lat="46.71363" lon="5.61991">
        <ele>486.1</ele>
        <time>2019-07-29T11:29:28.000Z</time>
      </trkpt>
      <trkpt lat="46.71358" lon="5.61986">
        <ele>485.8</ele>
        <time>2019-07-29T11:29:38.000Z</time>
      </trkpt>
      <trkpt lat="46.7135" lon="5.6198">
        <ele>489</ele>
        <time>2019-07-29T11:29:48.000Z</time>
      </trkpt>
      <trkpt lat="46.71341" lon="5.61969">
        <ele>484.4</ele>
        <time>2019-07-29T11:29:58.000Z</time>
      </trkpt>
      <trkpt lat="46.7133" lon="5.6196">
        <ele>481</ele>
        <time>2019-07-29T11:30:28.000Z</time>
      </trkpt>
      <trkpt lat="46.71324" lon="5.61952">
        <ele>482.6</ele>
        <time>2019-07-29T11:30:38.000Z</time>
      </trkpt>
      <trkpt lat="46.7132" lon="5.61943">
        <ele>481.9</ele>
        <time>2019-07-29T11:30:48.000Z</time>
      </trkpt>
      <trkpt lat="46.71312" lon="5.61933">
        <ele>477</ele>
        <time>2019-07-29T11:30:58.000Z</time>
      </trkpt>
      <trkpt lat="46.71296" lon="5.6192">
        <ele>479.7</ele>
        <time>2019-07-29T11:31:08.000Z</time>
      </trkpt>
      <trkpt lat="46.71289" lon="5.61918">
        <ele>476</ele>
        <time>2019-07-29T11:31:18.000Z</time>
      </trkpt>
      <trkpt lat="46.7128" lon="5.61914">
        <ele>478.8</ele>
        <time>2019-07-29T11:31:28.000Z</time>
      </trkpt>
      <trkpt lat="46.71269" lon="5.61907">
        <ele>475</ele>
        <time>2019-07-29T11:31:38.000Z</time>
      </trkpt>
      <trkpt lat="46.71249" lon="5.61899">
        <ele>475</ele>
        <time>2019-07-29T11:31:48.000Z</time>
      </trkpt>
      <trkpt lat="46.71236" lon="5.61897">
        <ele>474.9</ele>
        <time>2019-07-29T11:31:58.000Z</time>
      </trkpt>
      <trkpt lat="46.71225" lon="5.61892">
        <ele>474</ele>
        <time>2019-07-29T11:32:18.000Z</time>
      </trkpt>
      <trkpt lat="46.71221" lon="5.61882">
        <ele>472.4</ele>
        <time>2019-07-29T11:32:28.000Z</time>
      </trkpt>
      <trkpt lat="46.7122" lon="5.61872">
        <ele>471.6</ele>
        <time>2019-07-29T11:32:38.000Z</time>
      </trkpt>
      <trkpt lat="46.71213" lon="5.61838">
        <ele>473</ele>
        <time>2019-07-29T11:30:51.000Z</time>
      </trkpt>
      <trkpt lat="46.71212" lon="5.61829">
        <ele>467.9</ele>
        <time>2019-07-29T11:31:01.000Z</time>
      </trkpt>
      <trkpt lat="46.71212" lon="5.61819">
        <ele>467.1</ele>
        <time>2019-07-29T11:31:11.000Z</time>
      </trkpt>
      <trkpt lat="46.71207" lon="5.61783">
        <ele>476</ele>
        <time>2019-07-29T11:31:17.000Z</time>
      </trkpt>
      <trkpt lat="46.71203" lon="5.61769">
        <ele>467.3</ele>
        <time>2019-07-29T11:31:27.000Z</time>
      </trkpt>
      <trkpt lat="46.712" lon="5.61756">
        <ele>479</ele>
        <time>2019-07-29T11:31:37.000Z</time>
      </trkpt>
      <trkpt lat="46.71194" lon="5.61741">
        <ele>472.7</ele>
        <time>2019-07-29T11:31:47.000Z</time>
      </trkpt>
      <trkpt lat="46.71192" lon="5.61732">
        <ele>474.6</ele>
        <time>2019-07-29T11:31:57.000Z</time>
      </trkpt>
      <trkpt lat="46.71191" lon="5.61717">
        <ele>482</ele>
        <time>2019-07-29T11:32:07.000Z</time>
      </trkpt>
      <trkpt lat="46.71189" lon="5.61698">
        <ele>481.7</ele>
        <time>2019-07-29T11:32:17.000Z</time>
      </trkpt>
      <trkpt lat="46.71186" lon="5.61689">
        <ele>490</ele>
        <time>2019-07-29T11:32:37.000Z</time>
      </trkpt>
      <trkpt lat="46.71185" lon="5.61683">
        <ele>484.2</ele>
        <time>2019-07-29T11:32:47.000Z</time>
      </trkpt>
      <trkpt lat="46.71194" lon="5.61673">
        <ele>485.1</ele>
        <time>2019-07-29T11:32:57.000Z</time>
      </trkpt>
      <trkpt lat="46.71187" lon="5.61644">
        <ele>492</ele>
        <time>2019-07-29T11:33:07.000Z</time>
      </trkpt>
      <trkpt lat="46.71186" lon="5.6163">
        <ele>493.4</ele>
        <time>2019-07-29T11:33:17.000Z</time>
      </trkpt>
      <trkpt lat="46.71182" lon="5.61609">
        <ele>495</ele>
        <time>2019-07-29T11:33:27.000Z</time>
      </trkpt>
      <trkpt lat="46.71179" lon="5.616">
        <ele>497</ele>
        <time>2019-07-29T11:33:37.000Z</time>
      </trkpt>
      <trkpt lat="46.71179" lon="5.6159">
        <ele>497.3</ele>
        <time>2019-07-29T11:33:47.000Z</time>
      </trkpt>
      <trkpt lat="46.71183" lon="5.6158">
        <ele>498</ele>
        <time>2019-07-29T11:33:57.000Z</time>
      </trkpt>
      <trkpt lat="46.7119" lon="5.61574">
        <ele>496.8</ele>
        <time>2019-07-29T11:34:07.000Z</time>
      </trkpt>
      <trkpt lat="46.71197" lon="5.6157">
        <ele>496.4</ele>
        <time>2019-07-29T11:34:17.000Z</time>
      </trkpt>
      <trkpt lat="46.71216" lon="5.61566">
        <ele>502</ele>
        <time>2019-07-29T11:34:37.000Z</time>
      </trkpt>
      <trkpt lat="46.71225" lon="5.6156">
        <ele>495</ele>
        <time>2019-07-29T11:34:47.000Z</time>
      </trkpt>
      <trkpt lat="46.71234" lon="5.61559">
        <ele>502</ele>
        <time>2019-07-29T11:34:57.000Z</time>
      </trkpt>
      <trkpt lat="46.7126" lon="5.61548">
        <ele>497</ele>
        <time>2019-07-29T11:36:07.000Z</time>
      </trkpt>
      <trkpt lat="46.71269" lon="5.61546">
        <ele>490.4</ele>
        <time>2019-07-29T11:36:17.000Z</time>
      </trkpt>
      <trkpt lat="46.71279" lon="5.6154">
        <ele>488</ele>
        <time>2019-07-29T11:36:27.000Z</time>
      </trkpt>
      <trkpt lat="46.71288" lon="5.61537">
        <ele>489.5</ele>
        <time>2019-07-29T11:36:37.000Z</time>
      </trkpt>
      <trkpt lat="46.71296" lon="5.61532">
        <ele>489.3</ele>
        <time>2019-07-29T11:36:47.000Z</time>
      </trkpt>
      <trkpt lat="46.71303" lon="5.61526">
        <ele>488</ele>
        <time>2019-07-29T11:36:57.000Z</time>
      </trkpt>
      <trkpt lat="46.71321" lon="5.61517">
        <ele>494</ele>
        <time>2019-07-29T11:36:50.000Z</time>
      </trkpt>
      <trkpt lat="46.71331" lon="5.61513">
        <ele>488.9</ele>
        <time>2019-07-29T11:37:00.000Z</time>
      </trkpt>
      <trkpt lat="46.7135" lon="5.61502">
        <ele>494</ele>
        <time>2019-07-29T11:37:12.000Z</time>
      </trkpt>
      <trkpt lat="46.71358" lon="5.615">
        <ele>489.9</ele>
        <time>2019-07-29T11:37:22.000Z</time>
      </trkpt>
      <trkpt lat="46.71373" lon="5.61486">
        <ele>497</ele>
        <time>2019-07-29T11:37:42.000Z</time>
      </trkpt>
      <trkpt lat="46.71382" lon="5.6148">
        <ele>490.5</ele>
        <time>2019-07-29T11:37:52.000Z</time>
      </trkpt>
      <trkpt lat="46.7139" lon="5.61473">
        <ele>500</ele>
        <time>2019-07-29T11:38:02.000Z</time>
      </trkpt>
      <trkpt lat="46.71397" lon="5.61464">
        <ele>491.2</ele>
        <time>2019-07-29T11:38:12.000Z</time>
      </trkpt>
      <trkpt lat="46.71401" lon="5.61452">
        <ele>491.9</ele>
        <time>2019-07-29T11:38:22.000Z</time>
      </trkpt>
      <trkpt lat="46.71404" lon="5.61439">
        <ele>506</ele>
        <time>2019-07-29T11:38:32.000Z</time>
      </trkpt>
      <trkpt lat="46.71402" lon="5.61423">
        <ele>494.8</ele>
        <time>2019-07-29T11:38:42.000Z</time>
      </trkpt>
      <trkpt lat="46.71399" lon="5.6141">
        <ele>508</ele>
        <time>2019-07-29T11:38:52.000Z</time>
      </trkpt>
      <trkpt lat="46.71402" lon="5.61369">
        <ele>508</ele>
        <time>2019-07-29T11:38:59.000Z</time>
      </trkpt>
      <trkpt lat="46.71408" lon="5.61354">
        <ele>498.5</ele>
        <time>2019-07-29T11:39:09.000Z</time>
      </trkpt>
      <trkpt lat="46.71415" lon="5.61345">
        <ele>509</ele>
        <time>2019-07-29T11:39:19.000Z</time>
      </trkpt>
      <trkpt lat="46.71425" lon="5.61343">
        <ele>498.3</ele>
        <time>2019-07-29T11:39:29.000Z</time>
      </trkpt>
      <trkpt lat="46.71435" lon="5.61339">
        <ele>509</ele>
        <time>2019-07-29T11:39:39.000Z</time>
      </trkpt>
      <trkpt lat="46.71444" lon="5.61332">
        <ele>498</ele>
        <time>2019-07-29T11:39:49.000Z</time>
      </trkpt>
      <trkpt lat="46.71456" lon="5.61329">
        <ele>503</ele>
        <time>2019-07-29T11:39:43.000Z</time>
      </trkpt>
      <trkpt lat="46.71465" lon="5.61328">
        <ele>498</ele>
        <time>2019-07-29T11:39:53.000Z</time>
      </trkpt>
      <trkpt lat="46.71486" lon="5.61329">
        <ele>499</ele>
        <time>2019-07-29T11:40:01.000Z</time>
      </trkpt>
      <trkpt lat="46.71507" lon="5.61325">
        <ele>502</ele>
        <time>2019-07-29T11:40:11.000Z</time>
      </trkpt>
      <trkpt lat="46.71517" lon="5.61321">
        <ele>497.7</ele>
        <time>2019-07-29T11:40:21.000Z</time>
      </trkpt>
      <trkpt lat="46.71532" lon="5.61296">
        <ele>506</ele>
        <time>2019-07-29T11:40:41.000Z</time>
      </trkpt>
      <trkpt lat="46.71539" lon="5.61286">
        <ele>497.4</ele>
        <time>2019-07-29T11:40:51.000Z</time>
      </trkpt>
      <trkpt lat="46.71552" lon="5.6126">
        <ele>510</ele>
        <time>2019-07-29T11:41:01.000Z</time>
      </trkpt>
      <trkpt lat="46.71567" lon="5.61225">
        <ele>511</ele>
        <time>2019-07-29T11:42:49.000Z</time>
      </trkpt>
      <trkpt lat="46.71577" lon="5.61183">
        <ele>514</ele>
        <time>2019-07-29T11:43:16.000Z</time>
      </trkpt>
      <trkpt lat="46.71582" lon="5.6117">
        <ele>498</ele>
        <time>2019-07-29T11:43:26.000Z</time>
      </trkpt>
      <trkpt lat="46.71591" lon="5.6116">
        <ele>512</ele>
        <time>2019-07-29T11:43:36.000Z</time>
      </trkpt>
      <trkpt lat="46.716" lon="5.61152">
        <ele>498.6</ele>
        <time>2019-07-29T11:43:46.000Z</time>
      </trkpt>
      <trkpt lat="46.71632" lon="5.61141">
        <ele>510</ele>
        <time>2019-07-29T11:44:00.000Z</time>
      </trkpt>
      <trkpt lat="46.71653" lon="5.61127">
        <ele>507</ele>
        <time>2019-07-29T11:44:10.000Z</time>
      </trkpt>
      <trkpt lat="46.71664" lon="5.61128">
        <ele>497.2</ele>
        <time>2019-07-29T11:44:20.000Z</time>
      </trkpt>
      <trkpt lat="46.71675" lon="5.6113">
        <ele>506</ele>
        <time>2019-07-29T11:44:30.000Z</time>
      </trkpt>
      <trkpt lat="46.71685" lon="5.61135">
        <ele>495.6</ele>
        <time>2019-07-29T11:44:40.000Z</time>
      </trkpt>
      <trkpt lat="46.71694" lon="5.61144">
        <ele>505</ele>
        <time>2019-07-29T11:44:50.000Z</time>
      </trkpt>
      <trkpt lat="46.71703" lon="5.6115">
        <ele>494.4</ele>
        <time>2019-07-29T11:45:00.000Z</time>
      </trkpt>
      <trkpt lat="46.71714" lon="5.61155">
        <ele>505</ele>
        <time>2019-07-29T11:45:10.000Z</time>
      </trkpt>
      <trkpt lat="46.71725" lon="5.61156">
        <ele>491.6</ele>
        <time>2019-07-29T11:45:20.000Z</time>
      </trkpt>
      <trkpt lat="46.71735" lon="5.61152">
        <ele>505</ele>
        <time>2019-07-29T11:45:30.000Z</time>
      </trkpt>
      <trkpt lat="46.71753" lon="5.61139">
        <ele>500</ele>
        <time>2019-07-29T11:45:24.000Z</time>
      </trkpt>
      <trkpt lat="46.71764" lon="5.61137">
        <ele>484.7</ele>
        <time>2019-07-29T11:45:34.000Z</time>
      </trkpt>
      <trkpt lat="46.71774" lon="5.61133">
        <ele>492</ele>
        <time>2019-07-29T11:45:44.000Z</time>
      </trkpt>
      <trkpt lat="46.71784" lon="5.61127">
        <ele>481</ele>
        <time>2019-07-29T11:45:54.000Z</time>
      </trkpt>
      <trkpt lat="46.71794" lon="5.61123">
        <ele>492</ele>
        <time>2019-07-29T11:46:04.000Z</time>
      </trkpt>
      <trkpt lat="46.71812" lon="5.61106">
        <ele>489</ele>
        <time>2019-07-29T11:46:02.000Z</time>
      </trkpt>
      <trkpt lat="46.71819" lon="5.61096">
        <ele>475.9</ele>
        <time>2019-07-29T11:46:12.000Z</time>
      </trkpt>
      <trkpt lat="46.71828" lon="5.61088">
        <ele>482</ele>
        <time>2019-07-29T11:46:22.000Z</time>
      </trkpt>
      <trkpt lat="46.71836" lon="5.61084">
        <ele>473.8</ele>
        <time>2019-07-29T11:46:32.000Z</time>
      </trkpt>
      <trkpt lat="46.71844" lon="5.61075">
        <ele>482</ele>
        <time>2019-07-29T11:46:42.000Z</time>
      </trkpt>
      <trkpt lat="46.71851" lon="5.61065">
        <ele>470.1</ele>
        <time>2019-07-29T11:46:52.000Z</time>
      </trkpt>
      <trkpt lat="46.71861" lon="5.61059">
        <ele>481</ele>
        <time>2019-07-29T11:46:40.000Z</time>
      </trkpt>
      <trkpt lat="46.71874" lon="5.61055">
        <ele>467</ele>
        <time>2019-07-29T11:46:50.000Z</time>
      </trkpt>
      <trkpt lat="46.71881" lon="5.61054">
        <ele>472</ele>
        <time>2019-07-29T11:47:00.000Z</time>
      </trkpt>
      <trkpt lat="46.71903" lon="5.61053">
        <ele>472</ele>
        <time>2019-07-29T11:47:05.000Z</time>
      </trkpt>
      <trkpt lat="46.71912" lon="5.61051">
        <ele>465.8</ele>
        <time>2019-07-29T11:47:15.000Z</time>
      </trkpt>
      <trkpt lat="46.7192" lon="5.61054">
        <ele>465.8</ele>
        <time>2019-07-29T11:47:25.000Z</time>
      </trkpt>
      <trkpt lat="46.71933" lon="5.61041">
        <ele>470</ele>
        <time>2019-07-29T11:47:45.000Z</time>
      </trkpt>
      <trkpt lat="46.71938" lon="5.61033">
        <ele>465.7</ele>
        <time>2019-07-29T11:47:55.000Z</time>
      </trkpt>
      <trkpt lat="46.71943" lon="5.6099">
        <ele>471</ele>
        <time>2019-07-29T11:48:25.000Z</time>
      </trkpt>
      <trkpt lat="46.71947" lon="5.60978">
        <ele>466.1</ele>
        <time>2019-07-29T11:48:35.000Z</time>
      </trkpt>
      <trkpt lat="46.7195" lon="5.60974">
        <ele>466.2</ele>
        <time>2019-07-29T11:48:45.000Z</time>
      </trkpt>
      <trkpt lat="46.71953" lon="5.60968">
        <ele>466.3</ele>
        <time>2019-07-29T11:48:55.000Z</time>
      </trkpt>
      <trkpt lat="46.71934" lon="5.60938">
        <ele>473</ele>
        <time>2019-07-29T11:49:33.000Z</time>
      </trkpt>
      <trkpt lat="46.7193" lon="5.6093">
        <ele>465.5</ele>
        <time>2019-07-29T11:49:43.000Z</time>
      </trkpt>
      <trkpt lat="46.7192" lon="5.60915">
        <ele>473</ele>
        <time>2019-07-29T11:50:03.000Z</time>
      </trkpt>
      <trkpt lat="46.71914" lon="5.60892">
        <ele>467.1</ele>
        <time>2019-07-29T11:50:13.000Z</time>
      </trkpt>
      <trkpt lat="46.71912" lon="5.60855">
        <ele>472</ele>
        <time>2019-07-29T11:50:33.000Z</time>
      </trkpt>
      <trkpt lat="46.71915" lon="5.60844">
        <ele>467.8</ele>
        <time>2019-07-29T11:50:43.000Z</time>
      </trkpt>
      <trkpt lat="46.71924" lon="5.60786">
        <ele>472</ele>
        <time>2019-07-29T11:50:58.000Z</time>
      </trkpt>
      <trkpt lat="46.71927" lon="5.60773">
        <ele>472.3</ele>
        <time>2019-07-29T11:51:08.000Z</time>
      </trkpt>
      <trkpt lat="46.71932" lon="5.60761">
        <ele>473</ele>
        <time>2019-07-29T11:51:18.000Z</time>
      </trkpt>
      <trkpt lat="46.71938" lon="5.60734">
        <ele>474</ele>
        <time>2019-07-29T11:51:17.000Z</time>
      </trkpt>
      <trkpt lat="46.71951" lon="5.60696">
        <ele>474</ele>
        <time>2019-07-29T11:51:41.000Z</time>
      </trkpt>
      <trkpt lat="46.71954" lon="5.6068">
        <ele>475.4</ele>
        <time>2019-07-29T11:51:51.000Z</time>
      </trkpt>
      <trkpt lat="46.71958" lon="5.60664">
        <ele>474</ele>
        <time>2019-07-29T11:52:01.000Z</time>
      </trkpt>
      <trkpt lat="46.71957" lon="5.60647">
        <ele>471.2</ele>
        <time>2019-07-29T11:52:11.000Z</time>
      </trkpt>
      <trkpt lat="46.71951" lon="5.60632">
        <ele>473</ele>
        <time>2019-07-29T11:52:21.000Z</time>
      </trkpt>
      <trkpt lat="46.71946" lon="5.60623">
        <ele>470.8</ele>
        <time>2019-07-29T11:52:31.000Z</time>
      </trkpt>
      <trkpt lat="46.71927" lon="5.60609">
        <ele>473</ele>
        <time>2019-07-29T11:52:51.000Z</time>
      </trkpt>
      <trkpt lat="46.71916" lon="5.60603">
        <ele>469.4</ele>
        <time>2019-07-29T11:53:01.000Z</time>
      </trkpt>
      <trkpt lat="46.71907" lon="5.60597">
        <ele>472</ele>
        <time>2019-07-29T11:53:11.000Z</time>
      </trkpt>
      <trkpt lat="46.71894" lon="5.60584">
        <ele>468.4</ele>
        <time>2019-07-29T11:53:21.000Z</time>
      </trkpt>
      <trkpt lat="46.7187" lon="5.60563">
        <ele>472</ele>
        <time>2019-07-29T11:52:46.000Z</time>
      </trkpt>
      <trkpt lat="46.71843" lon="5.60537">
        <ele>466</ele>
        <time>2019-07-29T11:52:59.000Z</time>
      </trkpt>
      <trkpt lat="46.71833" lon="5.60532">
        <ele>463.4</ele>
        <time>2019-07-29T11:53:09.000Z</time>
      </trkpt>
      <trkpt lat="46.71813" lon="5.60517">
        <ele>459</ele>
        <time>2019-07-29T11:53:29.000Z</time>
      </trkpt>
      <trkpt lat="46.71784" lon="5.6049">
        <ele>456</ele>
        <time>2019-07-29T11:53:27.000Z</time>
      </trkpt>
      <trkpt lat="46.71775" lon="5.60479">
        <ele>457.7</ele>
        <time>2019-07-29T11:53:37.000Z</time>
      </trkpt>
      <trkpt lat="46.71757" lon="5.60463">
        <ele>454</ele>
        <time>2019-07-29T11:53:39.000Z</time>
      </trkpt>
      <trkpt lat="46.71741" lon="5.60445">
        <ele>449</ele>
        <time>2019-07-29T11:53:49.000Z</time>
      </trkpt>
      <trkpt lat="46.71728" lon="5.60434">
        <ele>450.5</ele>
        <time>2019-07-29T11:53:59.000Z</time>
      </trkpt>
      <trkpt lat="46.7171" lon="5.60422">
        <ele>450</ele>
        <time>2019-07-29T11:54:09.000Z</time>
      </trkpt>
      <trkpt lat="46.7169" lon="5.60404">
        <ele>451</ele>
        <time>2019-07-29T11:54:12.000Z</time>
      </trkpt>
      <trkpt lat="46.71673" lon="5.60392">
        <ele>451</ele>
        <time>2019-07-29T11:54:22.000Z</time>
      </trkpt>
      <trkpt lat="46.71665" lon="5.60383">
        <ele>439.8</ele>
        <time>2019-07-29T11:54:32.000Z</time>
      </trkpt>
      <trkpt lat="46.71646" lon="5.60366">
        <ele>447</ele>
        <time>2019-07-29T11:54:42.000Z</time>
      </trkpt>
      <trkpt lat="46.71637" lon="5.60359">
        <ele>432.4</ele>
        <time>2019-07-29T11:54:52.000Z</time>
      </trkpt>
      <trkpt lat="46.71619" lon="5.60347">
        <ele>444</ele>
        <time>2019-07-29T11:55:02.000Z</time>
      </trkpt>
      <trkpt lat="46.71609" lon="5.60339">
        <ele>429</ele>
        <time>2019-07-29T11:55:12.000Z</time>
      </trkpt>
      <trkpt lat="46.7159" lon="5.6032">
        <ele>429</ele>
        <time>2019-07-29T11:55:32.000Z</time>
      </trkpt>
      <trkpt lat="46.71581" lon="5.60312">
        <ele>422.8</ele>
        <time>2019-07-29T11:55:42.000Z</time>
      </trkpt>
      <trkpt lat="46.71573" lon="5.60302">
        <ele>429</ele>
        <time>2019-07-29T11:55:52.000Z</time>
      </trkpt>
      <trkpt lat="46.71561" lon="5.60296">
        <ele>421.3</ele>
        <time>2019-07-29T11:56:02.000Z</time>
      </trkpt>
      <trkpt lat="46.71553" lon="5.60291">
        <ele>431</ele>
        <time>2019-07-29T11:56:12.000Z</time>
      </trkpt>
      <trkpt lat="46.71543" lon="5.60282">
        <ele>421.2</ele>
        <time>2019-07-29T11:56:22.000Z</time>
      </trkpt>
      <trkpt lat="46.71534" lon="5.60273">
        <ele>430</ele>
        <time>2019-07-29T11:56:32.000Z</time>
      </trkpt>
      <trkpt lat="46.71518" lon="5.60253">
        <ele>430</ele>
        <time>2019-07-29T11:55:30.000Z</time>
      </trkpt>
      <trkpt lat="46.71486" lon="5.6021">
        <ele>419</ele>
        <time>2019-07-29T11:55:47.000Z</time>
      </trkpt>
      <trkpt lat="46.71475" lon="5.60201">
        <ele>410.5</ele>
        <time>2019-07-29T11:55:57.000Z</time>
      </trkpt>
      <trkpt lat="46.71458" lon="5.60191">
        <ele>413</ele>
        <time>2019-07-29T11:55:58.000Z</time>
      </trkpt>
      <trkpt lat="46.71449" lon="5.60181">
        <ele>411.1</ele>
        <time>2019-07-29T11:56:08.000Z</time>
      </trkpt>
      <trkpt lat="46.71441" lon="5.60171">
        <ele>411</ele>
        <time>2019-07-29T11:56:18.000Z</time>
      </trkpt>
      <trkpt lat="46.71431" lon="5.60157">
        <ele>407.9</ele>
        <time>2019-07-29T11:56:28.000Z</time>
      </trkpt>
      <trkpt lat="46.71414" lon="5.60137">
        <ele>406</ele>
        <time>2019-07-29T11:56:38.000Z</time>
      </trkpt>
      <trkpt lat="46.71404" lon="5.60127">
        <ele>405.1</ele>
        <time>2019-07-29T11:56:48.000Z</time>
      </trkpt>
      <trkpt lat="46.71393" lon="5.6012">
        <ele>407</ele>
        <time>2019-07-29T11:57:08.000Z</time>
      </trkpt>
      <trkpt lat="46.71372" lon="5.6011">
        <ele>404</ele>
        <time>2019-07-29T11:57:28.000Z</time>
      </trkpt>
      <trkpt lat="46.71364" lon="5.60103">
        <ele>405.5</ele>
        <time>2019-07-29T11:57:38.000Z</time>
      </trkpt>
      <trkpt lat="46.71357" lon="5.60093">
        <ele>402</ele>
        <time>2019-07-29T11:57:48.000Z</time>
      </trkpt>
      <trkpt lat="46.71352" lon="5.60081">
        <ele>401.9</ele>
        <time>2019-07-29T11:57:58.000Z</time>
      </trkpt>
      <trkpt lat="46.71346" lon="5.60073">
        <ele>400.9</ele>
        <time>2019-07-29T11:58:08.000Z</time>
      </trkpt>
      <trkpt lat="46.71338" lon="5.60064">
        <ele>397</ele>
        <time>2019-07-29T11:58:18.000Z</time>
      </trkpt>
      <trkpt lat="46.71333" lon="5.60053">
        <ele>396.7</ele>
        <time>2019-07-29T11:58:28.000Z</time>
      </trkpt>
      <trkpt lat="46.7132" lon="5.60036">
        <ele>393</ele>
        <time>2019-07-29T11:58:38.000Z</time>
      </trkpt>
      <trkpt lat="46.71314" lon="5.60024">
        <ele>391.7</ele>
        <time>2019-07-29T11:58:48.000Z</time>
      </trkpt>
      <trkpt lat="46.71315" lon="5.60008">
        <ele>388</ele>
        <time>2019-07-29T11:58:58.000Z</time>
      </trkpt>
      <trkpt lat="46.71315" lon="5.59993">
        <ele>386.8</ele>
        <time>2019-07-29T11:59:08.000Z</time>
      </trkpt>
      <trkpt lat="46.71308" lon="5.5998">
        <ele>385</ele>
        <time>2019-07-29T11:59:18.000Z</time>
      </trkpt>
      <trkpt lat="46.71278" lon="5.59948">
        <ele>376</ele>
        <time>2019-07-29T11:57:40.000Z</time>
      </trkpt>
      <trkpt lat="46.71269" lon="5.59937">
        <ele>381.2</ele>
        <time>2019-07-29T11:57:50.000Z</time>
      </trkpt>
      <trkpt lat="46.7126" lon="5.5993">
        <ele>373</ele>
        <time>2019-07-29T11:58:00.000Z</time>
      </trkpt>
      <trkpt lat="46.71238" lon="5.5992">
        <ele>374</ele>
        <time>2019-07-29T11:58:20.000Z</time>
      </trkpt>
      <trkpt lat="46.71231" lon="5.59908">
        <ele>375.2</ele>
        <time>2019-07-29T11:58:30.000Z</time>
      </trkpt>
      <trkpt lat="46.71227" lon="5.59895">
        <ele>371</ele>
        <time>2019-07-29T11:58:40.000Z</time>
      </trkpt>
      <trkpt lat="46.7122" lon="5.59879">
        <ele>372.7</ele>
        <time>2019-07-29T11:58:50.000Z</time>
      </trkpt>
      <trkpt lat="46.71213" lon="5.59868">
        <ele>369</ele>
        <time>2019-07-29T11:59:00.000Z</time>
      </trkpt>
      <trkpt lat="46.71192" lon="5.5985">
        <ele>369</ele>
        <time>2019-07-29T11:59:20.000Z</time>
      </trkpt>
      <trkpt lat="46.71171" lon="5.5984">
        <ele>368</ele>
        <time>2019-07-29T11:58:34.000Z</time>
      </trkpt>
      <trkpt lat="46.7115" lon="5.59831">
        <ele>368</ele>
        <time>2019-07-29T11:58:44.000Z</time>
      </trkpt>
      <trkpt lat="46.7114" lon="5.5983">
        <ele>366.4</ele>
        <time>2019-07-29T11:58:54.000Z</time>
      </trkpt>
      <trkpt lat="46.71131" lon="5.59826">
        <ele>368</ele>
        <time>2019-07-29T11:59:04.000Z</time>
      </trkpt>
      <trkpt lat="46.71123" lon="5.59826">
        <ele>365.8</ele>
        <time>2019-07-29T11:59:14.000Z</time>
      </trkpt>
      <trkpt lat="46.71109" lon="5.59823">
        <ele>367</ele>
        <time>2019-07-29T11:59:34.000Z</time>
      </trkpt>
      <trkpt lat="46.71103" lon="5.59823">
        <ele>365.7</ele>
        <time>2019-07-29T11:59:44.000Z</time>
      </trkpt>
      <trkpt lat="46.71081" lon="5.59809">
        <ele>367</ele>
        <time>2019-07-29T12:00:04.000Z</time>
      </trkpt>
      <trkpt lat="46.71072" lon="5.59804">
        <ele>363.1</ele>
        <time>2019-07-29T12:00:14.000Z</time>
      </trkpt>
      <trkpt lat="46.71054" lon="5.5978">
        <ele>359</ele>
        <time>2019-07-29T11:59:51.000Z</time>
      </trkpt>
      <trkpt lat="46.71048" lon="5.59766">
        <ele>358.3</ele>
        <time>2019-07-29T12:00:01.000Z</time>
      </trkpt>
      <trkpt lat="46.7104" lon="5.59736">
        <ele>354</ele>
        <time>2019-07-29T12:00:21.000Z</time>
      </trkpt>
      <trkpt lat="46.71037" lon="5.59721">
        <ele>353.8</ele>
        <time>2019-07-29T12:00:31.000Z</time>
      </trkpt>
      <trkpt lat="46.71037" lon="5.59704">
        <ele>350</ele>
        <time>2019-07-29T12:00:41.000Z</time>
      </trkpt>
      <trkpt lat="46.71039" lon="5.5969">
        <ele>347.6</ele>
        <time>2019-07-29T12:00:51.000Z</time>
      </trkpt>
      <trkpt lat="46.71046" lon="5.59676">
        <ele>343</ele>
        <time>2019-07-29T12:01:01.000Z</time>
      </trkpt>
      <trkpt lat="46.71053" lon="5.59668">
        <ele>344.2</ele>
        <time>2019-07-29T12:01:11.000Z</time>
      </trkpt>
      <trkpt lat="46.7105" lon="5.59655">
        <ele>342.9</ele>
        <time>2019-07-29T12:01:21.000Z</time>
      </trkpt>
      <trkpt lat="46.71031" lon="5.59653">
        <ele>343</ele>
        <time>2019-07-29T12:01:41.000Z</time>
      </trkpt>
      <trkpt lat="46.71009" lon="5.59661">
        <ele>343</ele>
        <time>2019-07-29T12:00:49.000Z</time>
      </trkpt>
      <trkpt lat="46.70996" lon="5.59668">
        <ele>342.8</ele>
        <time>2019-07-29T12:00:59.000Z</time>
      </trkpt>
      <trkpt lat="46.7098" lon="5.59678">
        <ele>343</ele>
        <time>2019-07-29T12:01:11.000Z</time>
      </trkpt>
      <trkpt lat="46.70962" lon="5.59699">
        <ele>346</ele>
        <time>2019-07-29T12:01:31.000Z</time>
      </trkpt>
      <trkpt lat="46.70941" lon="5.59713">
        <ele>343</ele>
        <time>2019-07-29T12:01:41.000Z</time>
      </trkpt>
      <trkpt lat="46.70931" lon="5.59716">
        <ele>342.5</ele>
        <time>2019-07-29T12:01:51.000Z</time>
      </trkpt>
      <trkpt lat="46.70922" lon="5.59724">
        <ele>340</ele>
        <time>2019-07-29T12:02:01.000Z</time>
      </trkpt>
      <trkpt lat="46.70902" lon="5.59736">
        <ele>335</ele>
        <time>2019-07-29T12:02:21.000Z</time>
      </trkpt>
      <trkpt lat="46.70875" lon="5.59763">
        <ele>335</ele>
        <time>2019-07-29T12:02:07.000Z</time>
      </trkpt>
      <trkpt lat="46.70866" lon="5.59775">
        <ele>341.3</ele>
        <time>2019-07-29T12:02:17.000Z</time>
      </trkpt>
      <trkpt lat="46.70841" lon="5.598">
        <ele>337</ele>
        <time>2019-07-29T12:02:39.000Z</time>
      </trkpt>
      <trkpt lat="46.70831" lon="5.59806">
        <ele>342.9</ele>
        <time>2019-07-29T12:02:49.000Z</time>
      </trkpt>
      <trkpt lat="46.70821" lon="5.5981">
        <ele>344</ele>
        <time>2019-07-29T12:02:59.000Z</time>
      </trkpt>
      <trkpt lat="46.70812" lon="5.59817">
        <ele>344</ele>
        <time>2019-07-29T12:03:09.000Z</time>
      </trkpt>
      <trkpt lat="46.70802" lon="5.59821">
        <ele>341</ele>
        <time>2019-07-29T12:03:19.000Z</time>
      </trkpt>
      <trkpt lat="46.70792" lon="5.59829">
        <ele>343.7</ele>
        <time>2019-07-29T12:03:29.000Z</time>
      </trkpt>
      <trkpt lat="46.70763" lon="5.5985">
        <ele>345</ele>
        <time>2019-07-29T12:03:27.000Z</time>
      </trkpt>
      <trkpt lat="46.70754" lon="5.59859">
        <ele>343.4</ele>
        <time>2019-07-29T12:03:37.000Z</time>
      </trkpt>
      <trkpt lat="46.70749" lon="5.59871">
        <ele>349</ele>
        <time>2019-07-29T12:03:47.000Z</time>
      </trkpt>
      <trkpt lat="46.7074" lon="5.5988">
        <ele>346.8</ele>
        <time>2019-07-29T12:03:57.000Z</time>
      </trkpt>
      <trkpt lat="46.70731" lon="5.59885">
        <ele>356</ele>
        <time>2019-07-29T12:04:07.000Z</time>
      </trkpt>
      <trkpt lat="46.70718" lon="5.59885">
        <ele>346.6</ele>
        <time>2019-07-29T12:04:17.000Z</time>
      </trkpt>
      <trkpt lat="46.7071" lon="5.59884">
        <ele>356</ele>
        <time>2019-07-29T12:04:27.000Z</time>
      </trkpt>
      <trkpt lat="46.70699" lon="5.59881">
        <ele>347.6</ele>
        <time>2019-07-29T12:04:37.000Z</time>
      </trkpt>
      <trkpt lat="46.70689" lon="5.5988">
        <ele>357</ele>
        <time>2019-07-29T12:04:47.000Z</time>
      </trkpt>
      <trkpt lat="46.70679" lon="5.59877">
        <ele>350.1</ele>
        <time>2019-07-29T12:04:57.000Z</time>
      </trkpt>
      <trkpt lat="46.70658" lon="5.59875">
        <ele>360</ele>
        <time>2019-07-29T12:05:07.000Z</time>
      </trkpt>
      <trkpt lat="46.70638" lon="5.59879">
        <ele>360</ele>
        <time>2019-07-29T12:05:27.000Z</time>
      </trkpt>
      <trkpt lat="46.70618" lon="5.59893">
        <ele>361</ele>
        <time>2019-07-29T12:05:47.000Z</time>
      </trkpt>
      <trkpt lat="46.7061" lon="5.59901">
        <ele>360.1</ele>
        <time>2019-07-29T12:05:57.000Z</time>
      </trkpt>
      <trkpt lat="46.70602" lon="5.59911">
        <ele>361</ele>
        <time>2019-07-29T12:06:07.000Z</time>
      </trkpt>
      <trkpt lat="46.70594" lon="5.59919">
        <ele>362.9</ele>
        <time>2019-07-29T12:06:17.000Z</time>
      </trkpt>
      <trkpt lat="46.70583" lon="5.59923">
        <ele>362</ele>
        <time>2019-07-29T12:06:27.000Z</time>
      </trkpt>
      <trkpt lat="46.70574" lon="5.59929">
        <ele>363.7</ele>
        <time>2019-07-29T12:06:37.000Z</time>
      </trkpt>
      <trkpt lat="46.70568" lon="5.59942">
        <ele>368</ele>
        <time>2019-07-29T12:06:47.000Z</time>
      </trkpt>
      <trkpt lat="46.7056" lon="5.59953">
        <ele>367.4</ele>
        <time>2019-07-29T12:06:57.000Z</time>
      </trkpt>
      <trkpt lat="46.7054" lon="5.59963">
        <ele>375</ele>
        <time>2019-07-29T12:07:07.000Z</time>
      </trkpt>
      <trkpt lat="46.7053" lon="5.59969">
        <ele>366.6</ele>
        <time>2019-07-29T12:07:17.000Z</time>
      </trkpt>
      <trkpt lat="46.70521" lon="5.59976">
        <ele>375</ele>
        <time>2019-07-29T12:07:27.000Z</time>
      </trkpt>
      <trkpt lat="46.70513" lon="5.59986">
        <ele>368.6</ele>
        <time>2019-07-29T12:07:37.000Z</time>
      </trkpt>
      <trkpt lat="46.70505" lon="5.59993">
        <ele>373</ele>
        <time>2019-07-29T12:07:47.000Z</time>
      </trkpt>
      <trkpt lat="46.70486" lon="5.60006">
        <ele>371</ele>
        <time>2019-07-29T12:07:57.000Z</time>
      </trkpt>
      <trkpt lat="46.70476" lon="5.60009">
        <ele>367.4</ele>
        <time>2019-07-29T12:08:07.000Z</time>
      </trkpt>
      <trkpt lat="46.70467" lon="5.60016">
        <ele>371</ele>
        <time>2019-07-29T12:08:17.000Z</time>
      </trkpt>
      <trkpt lat="46.70455" lon="5.60021">
        <ele>366.6</ele>
        <time>2019-07-29T12:08:27.000Z</time>
      </trkpt>
      <trkpt lat="46.70447" lon="5.60027">
        <ele>368</ele>
        <time>2019-07-29T12:08:37.000Z</time>
      </trkpt>
      <trkpt lat="46.70437" lon="5.60032">
        <ele>366.1</ele>
        <time>2019-07-29T12:08:47.000Z</time>
      </trkpt>
      <trkpt lat="46.70417" lon="5.60045">
        <ele>368</ele>
        <time>2019-07-29T12:08:20.000Z</time>
      </trkpt>
      <trkpt lat="46.70405" lon="5.60059">
        <ele>366.8</ele>
        <time>2019-07-29T12:08:30.000Z</time>
      </trkpt>
      <trkpt lat="46.70399" lon="5.60064">
        <ele>368</ele>
        <time>2019-07-29T12:08:50.000Z</time>
      </trkpt>
      <trkpt lat="46.70389" lon="5.60064">
        <ele>365.1</ele>
        <time>2019-07-29T12:09:00.000Z</time>
      </trkpt>
      <trkpt lat="46.70378" lon="5.60063">
        <ele>364</ele>
        <time>2019-07-29T12:09:10.000Z</time>
      </trkpt>
      <trkpt lat="46.70368" lon="5.60064">
        <ele>361.4</ele>
        <time>2019-07-29T12:09:20.000Z</time>
      </trkpt>
      <trkpt lat="46.70347" lon="5.60069">
        <ele>361</ele>
        <time>2019-07-29T12:08:59.000Z</time>
      </trkpt>
      <trkpt lat="46.70314" lon="5.60071">
        <ele>358</ele>
        <time>2019-07-29T12:09:14.000Z</time>
      </trkpt>
      <trkpt lat="46.70293" lon="5.60067">
        <ele>356</ele>
        <time>2019-07-29T12:09:24.000Z</time>
      </trkpt>
      <trkpt lat="46.70282" lon="5.60068">
        <ele>349.3</ele>
        <time>2019-07-29T12:09:34.000Z</time>
      </trkpt>
      <trkpt lat="46.70272" lon="5.60073">
        <ele>355</ele>
        <time>2019-07-29T12:09:44.000Z</time>
      </trkpt>
      <trkpt lat="46.70243" lon="5.60098">
        <ele>354</ele>
        <time>2019-07-29T12:09:59.000Z</time>
      </trkpt>
      <trkpt lat="46.70224" lon="5.60111">
        <ele>353</ele>
        <time>2019-07-29T12:10:19.000Z</time>
      </trkpt>
      <trkpt lat="46.70207" lon="5.60129">
        <ele>353</ele>
        <time>2019-07-29T12:10:30.000Z</time>
      </trkpt>
      <trkpt lat="46.70188" lon="5.60143">
        <ele>353</ele>
        <time>2019-07-29T12:10:40.000Z</time>
      </trkpt>
      <trkpt lat="46.70179" lon="5.60151">
        <ele>355.6</ele>
        <time>2019-07-29T12:10:50.000Z</time>
      </trkpt>
      <trkpt lat="46.7017" lon="5.60156">
        <ele>353</ele>
        <time>2019-07-29T12:11:00.000Z</time>
      </trkpt>
      <trkpt lat="46.70161" lon="5.60155">
        <ele>355.3</ele>
        <time>2019-07-29T12:11:10.000Z</time>
      </trkpt>
      <trkpt lat="46.70139" lon="5.60136">
        <ele>354</ele>
        <time>2019-07-29T12:11:24.000Z</time>
      </trkpt>
      <trkpt lat="46.7012" lon="5.60115">
        <ele>356</ele>
        <time>2019-07-29T12:11:37.000Z</time>
      </trkpt>
      <trkpt lat="46.70111" lon="5.60102">
        <ele>357</ele>
        <time>2019-07-29T12:11:47.000Z</time>
      </trkpt>
      <trkpt lat="46.70106" lon="5.60093">
        <ele>361</ele>
        <time>2019-07-29T12:11:57.000Z</time>
      </trkpt>
      <trkpt lat="46.70105" lon="5.60089">
        <ele>357.2</ele>
        <time>2019-07-29T12:12:07.000Z</time>
      </trkpt>
      <trkpt lat="46.70095" lon="5.60065">
        <ele>367</ele>
        <time>2019-07-29T12:12:17.000Z</time>
      </trkpt>
      <trkpt lat="46.70091" lon="5.60059">
        <ele>358.1</ele>
        <time>2019-07-29T12:12:27.000Z</time>
      </trkpt>
      <trkpt lat="46.70084" lon="5.60053">
        <ele>358.9</ele>
        <time>2019-07-29T12:12:37.000Z</time>
      </trkpt>
      <trkpt lat="46.70076" lon="5.60054">
        <ele>367</ele>
        <time>2019-07-29T12:12:47.000Z</time>
      </trkpt>
      <trkpt lat="46.70067" lon="5.60046">
        <ele>361.6</ele>
        <time>2019-07-29T12:12:57.000Z</time>
      </trkpt>
      <trkpt lat="46.70068" lon="5.60031">
        <ele>375</ele>
        <time>2019-07-29T12:13:07.000Z</time>
      </trkpt>
      <trkpt lat="46.70066" lon="5.60019">
        <ele>365.4</ele>
        <time>2019-07-29T12:13:17.000Z</time>
      </trkpt>
      <trkpt lat="46.70054" lon="5.59993">
        <ele>378</ele>
        <time>2019-07-29T12:13:27.000Z</time>
      </trkpt>
      <trkpt lat="46.70043" lon="5.59981">
        <ele>372.7</ele>
        <time>2019-07-29T12:13:37.000Z</time>
      </trkpt>
      <trkpt lat="46.70039" lon="5.59968">
        <ele>388</ele>
        <time>2019-07-29T12:13:47.000Z</time>
      </trkpt>
      <trkpt lat="46.70034" lon="5.59949">
        <ele>379.1</ele>
        <time>2019-07-29T12:13:57.000Z</time>
      </trkpt>
      <trkpt lat="46.70035" lon="5.59935">
        <ele>392</ele>
        <time>2019-07-29T12:14:07.000Z</time>
      </trkpt>
      <trkpt lat="46.70027" lon="5.59909">
        <ele>393</ele>
        <time>2019-07-29T12:14:30.000Z</time>
      </trkpt>
      <trkpt lat="46.70019" lon="5.59899">
        <ele>388.8</ele>
        <time>2019-07-29T12:14:40.000Z</time>
      </trkpt>
      <trkpt lat="46.70013" lon="5.59873">
        <ele>396</ele>
        <time>2019-07-29T12:15:26.000Z</time>
      </trkpt>
      <trkpt lat="46.70024" lon="5.59852">
        <ele>394.4</ele>
        <time>2019-07-29T12:15:36.000Z</time>
      </trkpt>
      <trkpt lat="46.70029" lon="5.59839">
        <ele>396</ele>
        <time>2019-07-29T12:15:46.000Z</time>
      </trkpt>
      <trkpt lat="46.70031" lon="5.59806">
        <ele>397</ele>
        <time>2019-07-29T12:16:06.000Z</time>
      </trkpt>
      <trkpt lat="46.70029" lon="5.59798">
        <ele>397.9</ele>
        <time>2019-07-29T12:16:16.000Z</time>
      </trkpt>
      <trkpt lat="46.70023" lon="5.59792">
        <ele>399</ele>
        <time>2019-07-29T12:16:26.000Z</time>
      </trkpt>
      <trkpt lat="46.70014" lon="5.59792">
        <ele>398</ele>
        <time>2019-07-29T12:16:36.000Z</time>
      </trkpt>
      <trkpt lat="46.70008" lon="5.5979">
        <ele>400.6</ele>
        <time>2019-07-29T12:16:46.000Z</time>
      </trkpt>
      <trkpt lat="46.70003" lon="5.59783">
        <ele>400.9</ele>
        <time>2019-07-29T12:16:56.000Z</time>
      </trkpt>
      <trkpt lat="46.70001" lon="5.5977">
        <ele>398</ele>
        <time>2019-07-29T12:17:06.000Z</time>
      </trkpt>
      <trkpt lat="46.70002" lon="5.5976">
        <ele>400.9</ele>
        <time>2019-07-29T12:17:16.000Z</time>
      </trkpt>
      <trkpt lat="46.70001" lon="5.59751">
        <ele>400.9</ele>
        <time>2019-07-29T12:17:26.000Z</time>
      </trkpt>
      <trkpt lat="46.69999" lon="5.59744">
        <ele>400.5</ele>
        <time>2019-07-29T12:17:36.000Z</time>
      </trkpt>
      <trkpt lat="46.69998" lon="5.59734">
        <ele>397</ele>
        <time>2019-07-29T12:17:46.000Z</time>
      </trkpt>
      <trkpt lat="46.70002" lon="5.59726">
        <ele>399.3</ele>
        <time>2019-07-29T12:17:56.000Z</time>
      </trkpt>
      <trkpt lat="46.70012" lon="5.59715">
        <ele>397</ele>
        <time>2019-07-29T12:18:06.000Z</time>
      </trkpt>
      <trkpt lat="46.70015" lon="5.59706">
        <ele>400.1</ele>
        <time>2019-07-29T12:18:16.000Z</time>
      </trkpt>
      <trkpt lat="46.70016" lon="5.59697">
        <ele>400.5</ele>
        <time>2019-07-29T12:18:26.000Z</time>
      </trkpt>
      <trkpt lat="46.70017" lon="5.59663">
        <ele>396</ele>
        <time>2019-07-29T12:17:26.000Z</time>
      </trkpt>
      <trkpt lat="46.7002" lon="5.59648">
        <ele>402</ele>
        <time>2019-07-29T12:17:36.000Z</time>
      </trkpt>
      <trkpt lat="46.7002" lon="5.59639">
        <ele>402.2</ele>
        <time>2019-07-29T12:17:46.000Z</time>
      </trkpt>
      <trkpt lat="46.70019" lon="5.5963">
        <ele>394</ele>
        <time>2019-07-29T12:18:06.000Z</time>
      </trkpt>
      <trkpt lat="46.7001" lon="5.59609">
        <ele>398.5</ele>
        <time>2019-07-29T12:18:16.000Z</time>
      </trkpt>
      <trkpt lat="46.70005" lon="5.59589">
        <ele>392</ele>
        <time>2019-07-29T12:18:46.000Z</time>
      </trkpt>
      <trkpt lat="46.70005" lon="5.59574">
        <ele>394.4</ele>
        <time>2019-07-29T12:18:56.000Z</time>
      </trkpt>
      <trkpt lat="46.70007" lon="5.59561">
        <ele>388</ele>
        <time>2019-07-29T12:19:06.000Z</time>
      </trkpt>
      <trkpt lat="46.70007" lon="5.59553">
        <ele>392.7</ele>
        <time>2019-07-29T12:19:16.000Z</time>
      </trkpt>
      <trkpt lat="46.69997" lon="5.59529">
        <ele>385</ele>
        <time>2019-07-29T12:19:26.000Z</time>
      </trkpt>
      <trkpt lat="46.69998" lon="5.59522">
        <ele>389.3</ele>
        <time>2019-07-29T12:19:36.000Z</time>
      </trkpt>
      <trkpt lat="46.70001" lon="5.59511">
        <ele>388.2</ele>
        <time>2019-07-29T12:19:46.000Z</time>
      </trkpt>
      <trkpt lat="46.70004" lon="5.59502">
        <ele>383</ele>
        <time>2019-07-29T12:19:56.000Z</time>
      </trkpt>
      <trkpt lat="46.70007" lon="5.59495">
        <ele>386.2</ele>
        <time>2019-07-29T12:20:06.000Z</time>
      </trkpt>
      <trkpt lat="46.70017" lon="5.59489">
        <ele>385.2</ele>
        <time>2019-07-29T12:20:16.000Z</time>
      </trkpt>
      <trkpt lat="46.70027" lon="5.5948">
        <ele>376</ele>
        <time>2019-07-29T12:20:26.000Z</time>
      </trkpt>
      <trkpt lat="46.70032" lon="5.59471">
        <ele>382.2</ele>
        <time>2019-07-29T12:20:36.000Z</time>
      </trkpt>
      <trkpt lat="46.7004" lon="5.59463">
        <ele>380.1</ele>
        <time>2019-07-29T12:20:46.000Z</time>
      </trkpt>
      <trkpt lat="46.70047" lon="5.59447">
        <ele>371</ele>
        <time>2019-07-29T12:19:44.000Z</time>
      </trkpt>
      <trkpt lat="46.70049" lon="5.5944">
        <ele>376.2</ele>
        <time>2019-07-29T12:19:54.000Z</time>
      </trkpt>
      <trkpt lat="46.70053" lon="5.59434">
        <ele>375.1</ele>
        <time>2019-07-29T12:20:04.000Z</time>
      </trkpt>
      <trkpt lat="46.70061" lon="5.59406">
        <ele>367</ele>
        <time>2019-07-29T12:20:12.000Z</time>
      </trkpt>
      <trkpt lat="46.70071" lon="5.59389">
        <ele>371.9</ele>
        <time>2019-07-29T12:20:22.000Z</time>
      </trkpt>
      <trkpt lat="46.70074" lon="5.59381">
        <ele>367</ele>
        <time>2019-07-29T12:20:42.000Z</time>
      </trkpt>
      <trkpt lat="46.70076" lon="5.59373">
        <ele>372.8</ele>
        <time>2019-07-29T12:20:52.000Z</time>
      </trkpt>
      <trkpt lat="46.70077" lon="5.59366">
        <ele>373.4</ele>
        <time>2019-07-29T12:21:02.000Z</time>
      </trkpt>
      <trkpt lat="46.7008" lon="5.5936">
        <ele>373.9</ele>
        <time>2019-07-29T12:21:12.000Z</time>
      </trkpt>
      <trkpt lat="46.70085" lon="5.59342">
        <ele>367</ele>
        <time>2019-07-29T12:21:32.000Z</time>
      </trkpt>
      <trkpt lat="46.70089" lon="5.59337">
        <ele>374.3</ele>
        <time>2019-07-29T12:21:42.000Z</time>
      </trkpt>
      <trkpt lat="46.70092" lon="5.5933">
        <ele>373.8</ele>
        <time>2019-07-29T12:21:52.000Z</time>
      </trkpt>
      <trkpt lat="46.701" lon="5.5928">
        <ele>366</ele>
        <time>2019-07-29T12:21:21.000Z</time>
      </trkpt>
      <trkpt lat="46.70105" lon="5.5926">
        <ele>368.4</ele>
        <time>2019-07-29T12:21:31.000Z</time>
      </trkpt>
      <trkpt lat="46.70108" lon="5.5924">
        <ele>365</ele>
        <time>2019-07-29T12:21:33.000Z</time>
      </trkpt>
      <trkpt lat="46.70113" lon="5.59217">
        <ele>366.9</ele>
        <time>2019-07-29T12:21:43.000Z</time>
      </trkpt>
      <trkpt lat="46.70119" lon="5.59201">
        <ele>361</ele>
        <time>2019-07-29T12:21:53.000Z</time>
      </trkpt>
      <trkpt lat="46.70119" lon="5.59193">
        <ele>366.5</ele>
        <time>2019-07-29T12:22:03.000Z</time>
      </trkpt>
      <trkpt lat="46.70117" lon="5.5919">
        <ele>366.8</ele>
        <time>2019-07-29T12:22:13.000Z</time>
      </trkpt>
      <trkpt lat="46.70122" lon="5.59174">
        <ele>360</ele>
        <time>2019-07-29T12:22:23.000Z</time>
      </trkpt>
      <trkpt lat="46.70123" lon="5.59165">
        <ele>367.8</ele>
        <time>2019-07-29T12:22:33.000Z</time>
      </trkpt>
      <trkpt lat="46.70122" lon="5.5916">
        <ele>368.5</ele>
        <time>2019-07-29T12:22:43.000Z</time>
      </trkpt>
      <trkpt lat="46.70132" lon="5.5915">
        <ele>358</ele>
        <time>2019-07-29T12:22:53.000Z</time>
      </trkpt>
      <trkpt lat="46.70156" lon="5.59138">
        <ele>358</ele>
        <time>2019-07-29T12:24:01.000Z</time>
      </trkpt>
      <trkpt lat="46.70161" lon="5.59137">
        <ele>368.5</ele>
        <time>2019-07-29T12:24:11.000Z</time>
      </trkpt>
      <trkpt lat="46.70167" lon="5.59133">
        <ele>368.4</ele>
        <time>2019-07-29T12:24:21.000Z</time>
      </trkpt>
      <trkpt lat="46.70172" lon="5.59126">
        <ele>357</ele>
        <time>2019-07-29T12:24:31.000Z</time>
      </trkpt>
      <trkpt lat="46.70175" lon="5.59116">
        <ele>369.3</ele>
        <time>2019-07-29T12:24:41.000Z</time>
      </trkpt>
      <trkpt lat="46.70175" lon="5.59098">
        <ele>357</ele>
        <time>2019-07-29T12:25:01.000Z</time>
      </trkpt>
      <trkpt lat="46.70184" lon="5.59067">
        <ele>358</ele>
        <time>2019-07-29T12:24:38.000Z</time>
      </trkpt>
      <trkpt lat="46.70185" lon="5.5906">
        <ele>367.3</ele>
        <time>2019-07-29T12:24:48.000Z</time>
      </trkpt>
      <trkpt lat="46.70188" lon="5.59054">
        <ele>366.6</ele>
        <time>2019-07-29T12:24:58.000Z</time>
      </trkpt>
      <trkpt lat="46.70188" lon="5.59037">
        <ele>359</ele>
        <time>2019-07-29T12:25:18.000Z</time>
      </trkpt>
      <trkpt lat="46.7019" lon="5.59027">
        <ele>363.7</ele>
        <time>2019-07-29T12:25:28.000Z</time>
      </trkpt>
      <trkpt lat="46.70191" lon="5.59006">
        <ele>358</ele>
        <time>2019-07-29T12:25:38.000Z</time>
      </trkpt>
      <trkpt lat="46.70189" lon="5.58985">
        <ele>361.1</ele>
        <time>2019-07-29T12:25:48.000Z</time>
      </trkpt>
      <trkpt lat="46.70188" lon="5.5896">
        <ele>358</ele>
        <time>2019-07-29T12:25:58.000Z</time>
      </trkpt>
      <trkpt lat="46.70184" lon="5.58949">
        <ele>360.7</ele>
        <time>2019-07-29T12:26:08.000Z</time>
      </trkpt>
      <trkpt lat="46.70181" lon="5.58935">
        <ele>351</ele>
        <time>2019-07-29T12:26:18.000Z</time>
      </trkpt>
      <trkpt lat="46.70176" lon="5.58922">
        <ele>358.7</ele>
        <time>2019-07-29T12:26:28.000Z</time>
      </trkpt>
      <trkpt lat="46.70173" lon="5.58909">
        <ele>345</ele>
        <time>2019-07-29T12:25:36.000Z</time>
      </trkpt>
      <trkpt lat="46.70175" lon="5.58887">
        <ele>353</ele>
        <time>2019-07-29T12:25:46.000Z</time>
      </trkpt>
      <trkpt lat="46.70177" lon="5.5888">
        <ele>339</ele>
        <time>2019-07-29T12:25:56.000Z</time>
      </trkpt>
      <trkpt lat="46.70195" lon="5.58828">
        <ele>336</ele>
        <time>2019-07-29T12:26:03.000Z</time>
      </trkpt>
      <trkpt lat="46.70207" lon="5.58803">
        <ele>333</ele>
        <time>2019-07-29T12:26:07.000Z</time>
      </trkpt>
      <trkpt lat="46.70214" lon="5.58779">
        <ele>341.1</ele>
        <time>2019-07-29T12:26:17.000Z</time>
      </trkpt>
      <trkpt lat="46.70223" lon="5.58754">
        <ele>325</ele>
        <time>2019-07-29T12:26:22.000Z</time>
      </trkpt>
      <trkpt lat="46.70229" lon="5.58742">
        <ele>338.5</ele>
        <time>2019-07-29T12:26:32.000Z</time>
      </trkpt>
      <trkpt lat="46.70232" lon="5.58735">
        <ele>338.3</ele>
        <time>2019-07-29T12:26:42.000Z</time>
      </trkpt>
      <trkpt lat="46.70235" lon="5.58726">
        <ele>326</ele>
        <time>2019-07-29T12:26:52.000Z</time>
      </trkpt>
      <trkpt lat="46.70239" lon="5.58718">
        <ele>337.9</ele>
        <time>2019-07-29T12:27:02.000Z</time>
      </trkpt>
      <trkpt lat="46.70246" lon="5.58711">
        <ele>337.9</ele>
        <time>2019-07-29T12:27:12.000Z</time>
      </trkpt>
      <trkpt lat="46.70251" lon="5.58702">
        <ele>324</ele>
        <time>2019-07-29T12:27:22.000Z</time>
      </trkpt>
      <trkpt lat="46.70263" lon="5.5866">
        <ele>323</ele>
        <time>2019-07-29T12:27:01.000Z</time>
      </trkpt>
      <trkpt lat="46.7027" lon="5.58639">
        <ele>336.7</ele>
        <time>2019-07-29T12:27:11.000Z</time>
      </trkpt>
      <trkpt lat="46.70276" lon="5.58618">
        <ele>324</ele>
        <time>2019-07-29T12:27:21.000Z</time>
      </trkpt>
      <trkpt lat="46.7028" lon="5.58595">
        <ele>334</ele>
        <time>2019-07-29T12:27:31.000Z</time>
      </trkpt>
      <trkpt lat="46.7028" lon="5.5856">
        <ele>325</ele>
        <time>2019-07-29T12:27:22.000Z</time>
      </trkpt>
      <trkpt lat="46.70285" lon="5.58542">
        <ele>336.4</ele>
        <time>2019-07-29T12:27:32.000Z</time>
      </trkpt>
      <trkpt lat="46.70304" lon="5.58504">
        <ele>331</ele>
        <time>2019-07-29T12:27:54.000Z</time>
      </trkpt>
      <trkpt lat="46.70306" lon="5.58494">
        <ele>337.2</ele>
        <time>2019-07-29T12:28:04.000Z</time>
      </trkpt>
      <trkpt lat="46.70311" lon="5.58479">
        <ele>331</ele>
        <time>2019-07-29T12:28:14.000Z</time>
      </trkpt>
      <trkpt lat="46.70316" lon="5.58453">
        <ele>332</ele>
        <time>2019-07-29T12:28:24.000Z</time>
      </trkpt>
      <trkpt lat="46.70316" lon="5.58445">
        <ele>339</ele>
        <time>2019-07-29T12:28:34.000Z</time>
      </trkpt>
      <trkpt lat="46.70321" lon="5.58432">
        <ele>339.2</ele>
        <time>2019-07-29T12:28:44.000Z</time>
      </trkpt>
      <trkpt lat="46.70327" lon="5.58405">
        <ele>332</ele>
        <time>2019-07-29T12:29:04.000Z</time>
      </trkpt>
      <trkpt lat="46.7033" lon="5.58389">
        <ele>340.9</ele>
        <time>2019-07-29T12:29:14.000Z</time>
      </trkpt>
      <trkpt lat="46.70335" lon="5.58357">
        <ele>333</ele>
        <time>2019-07-29T12:29:05.000Z</time>
      </trkpt>
      <trkpt lat="46.70345" lon="5.58307">
        <ele>336</ele>
        <time>2019-07-29T12:29:29.000Z</time>
      </trkpt>
      <trkpt lat="46.70346" lon="5.58295">
        <ele>341.5</ele>
        <time>2019-07-29T12:29:39.000Z</time>
      </trkpt>
      <trkpt lat="46.70346" lon="5.58267">
        <ele>343</ele>
        <time>2019-07-29T12:29:46.000Z</time>
      </trkpt>
      <trkpt lat="46.70341" lon="5.5825">
        <ele>341</ele>
        <time>2019-07-29T12:29:56.000Z</time>
      </trkpt>
      <trkpt lat="46.70335" lon="5.58239">
        <ele>344</ele>
        <time>2019-07-29T12:30:06.000Z</time>
      </trkpt>
      <trkpt lat="46.70313" lon="5.58225">
        <ele>345</ele>
        <time>2019-07-29T12:30:26.000Z</time>
      </trkpt>
      <trkpt lat="46.70307" lon="5.58217">
        <ele>341.2</ele>
        <time>2019-07-29T12:30:36.000Z</time>
      </trkpt>
      <trkpt lat="46.70304" lon="5.58209">
        <ele>341.5</ele>
        <time>2019-07-29T12:30:46.000Z</time>
      </trkpt>
      <trkpt lat="46.70302" lon="5.58198">
        <ele>346</ele>
        <time>2019-07-29T12:30:56.000Z</time>
      </trkpt>
      <trkpt lat="46.70303" lon="5.58185">
        <ele>342</ele>
        <time>2019-07-29T12:31:06.000Z</time>
      </trkpt>
      <trkpt lat="46.703" lon="5.58176">
        <ele>342.1</ele>
        <time>2019-07-29T12:31:16.000Z</time>
      </trkpt>
      <trkpt lat="46.70296" lon="5.58167">
        <ele>347</ele>
        <time>2019-07-29T12:31:26.000Z</time>
      </trkpt>
      <trkpt lat="46.70294" lon="5.58157">
        <ele>342.6</ele>
        <time>2019-07-29T12:31:36.000Z</time>
      </trkpt>
      <trkpt lat="46.70287" lon="5.5814">
        <ele>347</ele>
        <time>2019-07-29T12:31:46.000Z</time>
      </trkpt>
      <trkpt lat="46.70284" lon="5.58131">
        <ele>343.8</ele>
        <time>2019-07-29T12:31:56.000Z</time>
      </trkpt>
      <trkpt lat="46.70283" lon="5.58118">
        <ele>344.4</ele>
        <time>2019-07-29T12:32:06.000Z</time>
      </trkpt>
      <trkpt lat="46.70283" lon="5.58105">
        <ele>346</ele>
        <time>2019-07-29T12:32:16.000Z</time>
      </trkpt>
      <trkpt lat="46.70286" lon="5.58093">
        <ele>345.1</ele>
        <time>2019-07-29T12:32:26.000Z</time>
      </trkpt>
      <trkpt lat="46.70284" lon="5.58082">
        <ele>345.6</ele>
        <time>2019-07-29T12:32:36.000Z</time>
      </trkpt>
      <trkpt lat="46.7028" lon="5.58074">
        <ele>347</ele>
        <time>2019-07-29T12:32:46.000Z</time>
      </trkpt>
      <trkpt lat="46.70266" lon="5.58037">
        <ele>349</ele>
        <time>2019-07-29T12:33:06.000Z</time>
      </trkpt>
      <trkpt lat="46.70247" lon="5.58004">
        <ele>351</ele>
        <time>2019-07-29T12:32:32.000Z</time>
      </trkpt>
      <trkpt lat="46.70241" lon="5.57988">
        <ele>355</ele>
        <time>2019-07-29T12:32:42.000Z</time>
      </trkpt>
      <trkpt lat="46.70238" lon="5.57978">
        <ele>353</ele>
        <time>2019-07-29T12:32:52.000Z</time>
      </trkpt>
      <trkpt lat="46.7023" lon="5.57961">
        <ele>356.8</ele>
        <time>2019-07-29T12:33:02.000Z</time>
      </trkpt>
      <trkpt lat="46.70219" lon="5.57945">
        <ele>354</ele>
        <time>2019-07-29T12:33:12.000Z</time>
      </trkpt>
      <trkpt lat="46.70212" lon="5.5793">
        <ele>359.6</ele>
        <time>2019-07-29T12:33:22.000Z</time>
      </trkpt>
      <trkpt lat="46.70207" lon="5.57923">
        <ele>361</ele>
        <time>2019-07-29T12:33:32.000Z</time>
      </trkpt>
      <trkpt lat="46.70196" lon="5.57911">
        <ele>361.6</ele>
        <time>2019-07-29T12:33:42.000Z</time>
      </trkpt>
      <trkpt lat="46.70189" lon="5.57899">
        <ele>366</ele>
        <time>2019-07-29T12:33:47.000Z</time>
      </trkpt>
      <trkpt lat="46.70183" lon="5.57891">
        <ele>363.8</ele>
        <time>2019-07-29T12:33:57.000Z</time>
      </trkpt>
      <trkpt lat="46.70175" lon="5.57878">
        <ele>369</ele>
        <time>2019-07-29T12:34:07.000Z</time>
      </trkpt>
      <trkpt lat="46.70169" lon="5.57871">
        <ele>366.5</ele>
        <time>2019-07-29T12:34:17.000Z</time>
      </trkpt>
      <trkpt lat="46.70165" lon="5.5786">
        <ele>368.2</ele>
        <time>2019-07-29T12:34:27.000Z</time>
      </trkpt>
      <trkpt lat="46.70149" lon="5.57839">
        <ele>370</ele>
        <time>2019-07-29T12:34:42.000Z</time>
      </trkpt>
      <trkpt lat="46.70145" lon="5.5783">
        <ele>373.3</ele>
        <time>2019-07-29T12:34:52.000Z</time>
      </trkpt>
      <trkpt lat="46.70139" lon="5.57822">
        <ele>374.6</ele>
        <time>2019-07-29T12:35:02.000Z</time>
      </trkpt>
      <trkpt lat="46.70132" lon="5.57817">
        <ele>372</ele>
        <time>2019-07-29T12:35:12.000Z</time>
      </trkpt>
      <trkpt lat="46.70122" lon="5.57804">
        <ele>377.2</ele>
        <time>2019-07-29T12:35:22.000Z</time>
      </trkpt>
      <trkpt lat="46.70119" lon="5.57798">
        <ele>382</ele>
        <time>2019-07-29T12:35:42.000Z</time>
      </trkpt>
      <trkpt lat="46.70116" lon="5.57787">
        <ele>379.7</ele>
        <time>2019-07-29T12:35:52.000Z</time>
      </trkpt>
      <trkpt lat="46.70105" lon="5.57771">
        <ele>382</ele>
        <time>2019-07-29T12:36:02.000Z</time>
      </trkpt>
      <trkpt lat="46.70097" lon="5.57757">
        <ele>380.6</ele>
        <time>2019-07-29T12:36:12.000Z</time>
      </trkpt>
      <trkpt lat="46.70089" lon="5.57741">
        <ele>381</ele>
        <time>2019-07-29T12:36:32.000Z</time>
      </trkpt>
      <trkpt lat="46.70084" lon="5.57734">
        <ele>381.2</ele>
        <time>2019-07-29T12:36:42.000Z</time>
      </trkpt>
      <trkpt lat="46.70077" lon="5.57726">
        <ele>382</ele>
        <time>2019-07-29T12:36:52.000Z</time>
      </trkpt>
      <trkpt lat="46.70064" lon="5.57719">
        <ele>381</ele>
        <time>2019-07-29T12:37:12.000Z</time>
      </trkpt>
      <trkpt lat="46.70059" lon="5.57715">
        <ele>382.9</ele>
        <time>2019-07-29T12:37:22.000Z</time>
      </trkpt>
      <trkpt lat="46.70051" lon="5.57713">
        <ele>383.2</ele>
        <time>2019-07-29T12:37:32.000Z</time>
      </trkpt>
      <trkpt lat="46.70044" lon="5.57709">
        <ele>381</ele>
        <time>2019-07-29T12:38:02.000Z</time>
      </trkpt>
      <trkpt lat="46.7003" lon="5.57703">
        <ele>383.9</ele>
        <time>2019-07-29T12:38:12.000Z</time>
      </trkpt>
      <trkpt lat="46.70018" lon="5.57701">
        <ele>381</ele>
        <time>2019-07-29T12:38:22.000Z</time>
      </trkpt>
      <trkpt lat="46.70013" lon="5.57699">
        <ele>384.4</ele>
        <time>2019-07-29T12:38:32.000Z</time>
      </trkpt>
      <trkpt lat="46.70006" lon="5.57699">
        <ele>384.7</ele>
        <time>2019-07-29T12:38:42.000Z</time>
      </trkpt>
      <trkpt lat="46.69995" lon="5.57695">
        <ele>381</ele>
        <time>2019-07-29T12:38:52.000Z</time>
      </trkpt>
      <trkpt lat="46.69988" lon="5.57696">
        <ele>385.4</ele>
        <time>2019-07-29T12:39:02.000Z</time>
      </trkpt>
      <trkpt lat="46.69983" lon="5.57695">
        <ele>385.6</ele>
        <time>2019-07-29T12:39:12.000Z</time>
      </trkpt>
      <trkpt lat="46.69972" lon="5.5769">
        <ele>380</ele>
        <time>2019-07-29T12:39:22.000Z</time>
      </trkpt>
      <trkpt lat="46.69964" lon="5.57688">
        <ele>386.2</ele>
        <time>2019-07-29T12:39:32.000Z</time>
      </trkpt>
      <trkpt lat="46.69959" lon="5.57689">
        <ele>386.4</ele>
        <time>2019-07-29T12:39:42.000Z</time>
      </trkpt>
      <trkpt lat="46.69947" lon="5.57688">
        <ele>380</ele>
        <time>2019-07-29T12:39:52.000Z</time>
      </trkpt>
      <trkpt lat="46.69934" lon="5.57684">
        <ele>385.9</ele>
        <time>2019-07-29T12:40:02.000Z</time>
      </trkpt>
      <trkpt lat="46.69927" lon="5.57685">
        <ele>381</ele>
        <time>2019-07-29T12:40:12.000Z</time>
      </trkpt>
      <trkpt lat="46.6992" lon="5.57684">
        <ele>385</ele>
        <time>2019-07-29T12:40:22.000Z</time>
      </trkpt>
      <trkpt lat="46.69912" lon="5.57681">
        <ele>384.5</ele>
        <time>2019-07-29T12:40:32.000Z</time>
      </trkpt>
      <trkpt lat="46.69905" lon="5.57677">
        <ele>383</ele>
        <time>2019-07-29T12:40:42.000Z</time>
      </trkpt>
      <trkpt lat="46.69898" lon="5.57669">
        <ele>385</ele>
        <time>2019-07-29T12:40:52.000Z</time>
      </trkpt>
      <trkpt lat="46.69881" lon="5.57659">
        <ele>383</ele>
        <time>2019-07-29T12:38:33.000Z</time>
      </trkpt>
      <trkpt lat="46.69856" lon="5.57649">
        <ele>383</ele>
        <time>2019-07-29T12:38:51.000Z</time>
      </trkpt>
      <trkpt lat="46.69833" lon="5.57636">
        <ele>385</ele>
        <time>2019-07-29T12:39:01.000Z</time>
      </trkpt>
      <trkpt lat="46.69815" lon="5.57628">
        <ele>386</ele>
        <time>2019-07-29T12:39:11.000Z</time>
      </trkpt>
      <trkpt lat="46.69805" lon="5.57625">
        <ele>383.5</ele>
        <time>2019-07-29T12:39:21.000Z</time>
      </trkpt>
      <trkpt lat="46.69795" lon="5.57619">
        <ele>389</ele>
        <time>2019-07-29T12:39:31.000Z</time>
      </trkpt>
      <trkpt lat="46.69786" lon="5.57615">
        <ele>383.8</ele>
        <time>2019-07-29T12:39:41.000Z</time>
      </trkpt>
      <trkpt lat="46.69774" lon="5.57613">
        <ele>389</ele>
        <time>2019-07-29T12:39:51.000Z</time>
      </trkpt>
      <trkpt lat="46.69766" lon="5.5761">
        <ele>384.1</ele>
        <time>2019-07-29T12:40:01.000Z</time>
      </trkpt>
      <trkpt lat="46.69719" lon="5.57596">
        <ele>386</ele>
        <time>2019-07-29T12:40:33.000Z</time>
      </trkpt>
      <trkpt lat="46.6971" lon="5.57587">
        <ele>384.6</ele>
        <time>2019-07-29T12:40:43.000Z</time>
      </trkpt>
      <trkpt lat="46.6971" lon="5.57572">
        <ele>386</ele>
        <time>2019-07-29T12:40:53.000Z</time>
      </trkpt>
      <trkpt lat="46.69719" lon="5.57567">
        <ele>385.8</ele>
        <time>2019-07-29T12:41:03.000Z</time>
      </trkpt>
      <trkpt lat="46.6974" lon="5.57567">
        <ele>386</ele>
        <time>2019-07-29T12:41:07.000Z</time>
      </trkpt>
      <trkpt lat="46.69749" lon="5.57559">
        <ele>386</ele>
        <time>2019-07-29T12:41:17.000Z</time>
      </trkpt>
      <trkpt lat="46.69756" lon="5.5755">
        <ele>381</ele>
        <time>2019-07-29T12:41:27.000Z</time>
      </trkpt>
      <trkpt lat="46.69759" lon="5.57538">
        <ele>383.8</ele>
        <time>2019-07-29T12:41:37.000Z</time>
      </trkpt>
      <trkpt lat="46.69764" lon="5.57514">
        <ele>378</ele>
        <time>2019-07-29T12:41:47.000Z</time>
      </trkpt>
      <trkpt lat="46.69763" lon="5.57506">
        <ele>380.2</ele>
        <time>2019-07-29T12:41:57.000Z</time>
      </trkpt>
      <trkpt lat="46.69758" lon="5.57498">
        <ele>379.7</ele>
        <time>2019-07-29T12:42:07.000Z</time>
      </trkpt>
      <trkpt lat="46.69752" lon="5.5749">
        <ele>374</ele>
        <time>2019-07-29T12:42:17.000Z</time>
      </trkpt>
      <trkpt lat="46.69732" lon="5.57478">
        <ele>371</ele>
        <time>2019-07-29T12:42:27.000Z</time>
      </trkpt>
      <trkpt lat="46.69723" lon="5.57474">
        <ele>374.4</ele>
        <time>2019-07-29T12:42:37.000Z</time>
      </trkpt>
      <trkpt lat="46.69707" lon="5.57474">
        <ele>371</ele>
        <time>2019-07-29T12:42:47.000Z</time>
      </trkpt>
      <trkpt lat="46.69695" lon="5.57479">
        <ele>373.7</ele>
        <time>2019-07-29T12:42:57.000Z</time>
      </trkpt>
      <trkpt lat="46.6968" lon="5.57489">
        <ele>367</ele>
        <time>2019-07-29T12:43:07.000Z</time>
      </trkpt>
      <trkpt lat="46.69665" lon="5.57498">
        <ele>373.2</ele>
        <time>2019-07-29T12:43:17.000Z</time>
      </trkpt>
      <trkpt lat="46.69641" lon="5.57517">
        <ele>366</ele>
        <time>2019-07-29T12:43:37.000Z</time>
      </trkpt>
      <trkpt lat="46.69627" lon="5.57519">
        <ele>367.7</ele>
        <time>2019-07-29T12:43:47.000Z</time>
      </trkpt>
      <trkpt lat="46.69617" lon="5.57523">
        <ele>365</ele>
        <time>2019-07-29T12:43:57.000Z</time>
      </trkpt>
      <trkpt lat="46.69601" lon="5.57521">
        <ele>362.6</ele>
        <time>2019-07-29T12:44:07.000Z</time>
      </trkpt>
      <trkpt lat="46.69585" lon="5.57521">
        <ele>363</ele>
        <time>2019-07-29T12:44:17.000Z</time>
      </trkpt>
      <trkpt lat="46.69577" lon="5.57515">
        <ele>359.5</ele>
        <time>2019-07-29T12:44:27.000Z</time>
      </trkpt>
      <trkpt lat="46.69555" lon="5.57511">
        <ele>360</ele>
        <time>2019-07-29T12:44:37.000Z</time>
      </trkpt>
      <trkpt lat="46.69546" lon="5.57508">
        <ele>355.5</ele>
        <time>2019-07-29T12:44:47.000Z</time>
      </trkpt>
      <trkpt lat="46.69542" lon="5.57522">
        <ele>358</ele>
        <time>2019-07-29T12:44:57.000Z</time>
      </trkpt>
      <trkpt lat="46.69522" lon="5.57516">
        <ele>358</ele>
        <time>2019-07-29T12:45:07.000Z</time>
      </trkpt>
      <trkpt lat="46.69514" lon="5.57512">
        <ele>351.1</ele>
        <time>2019-07-29T12:45:17.000Z</time>
      </trkpt>
      <trkpt lat="46.69487" lon="5.57504">
        <ele>350</ele>
        <time>2019-07-29T12:45:27.000Z</time>
      </trkpt>
      <trkpt lat="46.69467" lon="5.57499">
        <ele>350</ele>
        <time>2019-07-29T12:45:47.000Z</time>
      </trkpt>
      <trkpt lat="46.69459" lon="5.57502">
        <ele>342.2</ele>
        <time>2019-07-29T12:45:57.000Z</time>
      </trkpt>
      <trkpt lat="46.69452" lon="5.57494">
        <ele>341.4</ele>
        <time>2019-07-29T12:46:07.000Z</time>
      </trkpt>
      <trkpt lat="46.69446" lon="5.57493">
        <ele>348</ele>
        <time>2019-07-29T12:46:17.000Z</time>
      </trkpt>
      <trkpt lat="46.69441" lon="5.57489">
        <ele>340.9</ele>
        <time>2019-07-29T12:46:27.000Z</time>
      </trkpt>
      <trkpt lat="46.69439" lon="5.57489">
        <ele>341.1</ele>
        <time>2019-07-29T12:46:37.000Z</time>
      </trkpt>
      <trkpt lat="46.69434" lon="5.57512">
        <ele>341</ele>
        <time>2019-07-29T12:46:57.000Z</time>
      </trkpt>
      <trkpt lat="46.69428" lon="5.57545">
        <ele>341</ele>
        <time>2019-07-29T12:47:27.000Z</time>
      </trkpt>
      <trkpt lat="46.69425" lon="5.57571">
        <ele>343.9</ele>
        <time>2019-07-29T12:47:37.000Z</time>
      </trkpt>
      <trkpt lat="46.69417" lon="5.57606">
        <ele>345</ele>
        <time>2019-07-29T12:48:19.000Z</time>
      </trkpt>
      <trkpt lat="46.69412" lon="5.57618">
        <ele>344</ele>
        <time>2019-07-29T12:48:29.000Z</time>
      </trkpt>
      <trkpt lat="46.69408" lon="5.57646">
        <ele>346</ele>
        <time>2019-07-29T12:48:38.000Z</time>
      </trkpt>
      <trkpt lat="46.69406" lon="5.57652">
        <ele>343</ele>
        <time>2019-07-29T12:48:48.000Z</time>
      </trkpt>
      <trkpt lat="46.69403" lon="5.57657">
        <ele>342.4</ele>
        <time>2019-07-29T12:48:58.000Z</time>
      </trkpt>
      <trkpt lat="46.69398" lon="5.5766">
        <ele>341.7</ele>
        <time>2019-07-29T12:49:08.000Z</time>
      </trkpt>
      <trkpt lat="46.69388" lon="5.5766">
        <ele>346</ele>
        <time>2019-07-29T12:48:53.000Z</time>
      </trkpt>
      <trkpt lat="46.69377" lon="5.57657">
        <ele>341.4</ele>
        <time>2019-07-29T12:49:03.000Z</time>
      </trkpt>
      <trkpt lat="46.69371" lon="5.57657">
        <ele>341.4</ele>
        <time>2019-07-29T12:49:13.000Z</time>
      </trkpt>
      <trkpt lat="46.69352" lon="5.57654">
        <ele>344</ele>
        <time>2019-07-29T12:49:19.000Z</time>
      </trkpt>
      <trkpt lat="46.69336" lon="5.57649">
        <ele>342.9</ele>
        <time>2019-07-29T12:49:29.000Z</time>
      </trkpt>
      <trkpt lat="46.69322" lon="5.57647">
        <ele>342</ele>
        <time>2019-07-29T12:49:49.000Z</time>
      </trkpt>
      <trkpt lat="46.69294" lon="5.57641">
        <ele>338</ele>
        <time>2019-07-29T12:50:00.000Z</time>
      </trkpt>
      <trkpt lat="46.69286" lon="5.57641">
        <ele>344.6</ele>
        <time>2019-07-29T12:50:10.000Z</time>
      </trkpt>
      <trkpt lat="46.69268" lon="5.57648">
        <ele>338</ele>
        <time>2019-07-29T12:50:17.000Z</time>
      </trkpt>
      <trkpt lat="46.69258" lon="5.57649">
        <ele>342.5</ele>
        <time>2019-07-29T12:50:27.000Z</time>
      </trkpt>
      <trkpt lat="46.69248" lon="5.57647">
        <ele>338</ele>
        <time>2019-07-29T12:50:37.000Z</time>
      </trkpt>
      <trkpt lat="46.69224" lon="5.57636">
        <ele>339</ele>
        <time>2019-07-29T12:50:53.000Z</time>
      </trkpt>
      <trkpt lat="46.69207" lon="5.57631">
        <ele>341.4</ele>
        <time>2019-07-29T12:51:03.000Z</time>
      </trkpt>
      <trkpt lat="46.6919" lon="5.57624">
        <ele>341</ele>
        <time>2019-07-29T12:51:30.000Z</time>
      </trkpt>
      <trkpt lat="46.69173" lon="5.57616">
        <ele>339.3</ele>
        <time>2019-07-29T12:51:40.000Z</time>
      </trkpt>
      <trkpt lat="46.69135" lon="5.576">
        <ele>339</ele>
        <time>2019-07-29T12:52:05.000Z</time>
      </trkpt>
      <trkpt lat="46.69127" lon="5.57595">
        <ele>337</ele>
        <time>2019-07-29T12:52:15.000Z</time>
      </trkpt>
      <trkpt lat="46.69119" lon="5.57586">
        <ele>338</ele>
        <time>2019-07-29T12:52:35.000Z</time>
      </trkpt>
      <trkpt lat="46.69103" lon="5.57574">
        <ele>337.2</ele>
        <time>2019-07-29T12:52:45.000Z</time>
      </trkpt>
      <trkpt lat="46.6906" lon="5.57554">
        <ele>336</ele>
        <time>2019-07-29T12:52:45.000Z</time>
      </trkpt>
      <trkpt lat="46.69053" lon="5.57551">
        <ele>333.3</ele>
        <time>2019-07-29T12:52:55.000Z</time>
      </trkpt>
      <trkpt lat="46.69041" lon="5.57548">
        <ele>334</ele>
        <time>2019-07-29T12:53:05.000Z</time>
      </trkpt>
      <trkpt lat="46.69036" lon="5.57548">
        <ele>331.1</ele>
        <time>2019-07-29T12:53:15.000Z</time>
      </trkpt>
      <trkpt lat="46.69031" lon="5.57545">
        <ele>330.6</ele>
        <time>2019-07-29T12:53:25.000Z</time>
      </trkpt>
      <trkpt lat="46.69018" lon="5.57543">
        <ele>326</ele>
        <time>2019-07-29T12:53:35.000Z</time>
      </trkpt>
      <trkpt lat="46.69011" lon="5.5754">
        <ele>327.9</ele>
        <time>2019-07-29T12:53:45.000Z</time>
      </trkpt>
      <trkpt lat="46.68986" lon="5.57533">
        <ele>326</ele>
        <time>2019-07-29T12:54:09.000Z</time>
      </trkpt>
      <trkpt lat="46.68979" lon="5.57529">
        <ele>323.9</ele>
        <time>2019-07-29T12:54:19.000Z</time>
      </trkpt>
      <trkpt lat="46.68966" lon="5.57519">
        <ele>323</ele>
        <time>2019-07-29T12:54:29.000Z</time>
      </trkpt>
      <trkpt lat="46.68961" lon="5.57512">
        <ele>322.3</ele>
        <time>2019-07-29T12:54:39.000Z</time>
      </trkpt>
      <trkpt lat="46.68954" lon="5.57507">
        <ele>321.7</ele>
        <time>2019-07-29T12:54:49.000Z</time>
      </trkpt>
      <trkpt lat="46.68939" lon="5.57489">
        <ele>320</ele>
        <time>2019-07-29T12:54:32.000Z</time>
      </trkpt>
      <trkpt lat="46.68933" lon="5.57485">
        <ele>320</ele>
        <time>2019-07-29T12:54:42.000Z</time>
      </trkpt>
      <trkpt lat="46.68912" lon="5.5748">
        <ele>320</ele>
        <time>2019-07-29T12:54:44.000Z</time>
      </trkpt>
      <trkpt lat="46.68898" lon="5.57482">
        <ele>314.6</ele>
        <time>2019-07-29T12:54:54.000Z</time>
      </trkpt>
      <trkpt lat="46.68891" lon="5.57484">
        <ele>310</ele>
        <time>2019-07-29T12:55:04.000Z</time>
      </trkpt>
      <trkpt lat="46.68869" lon="5.57493">
        <ele>303</ele>
        <time>2019-07-29T12:55:01.000Z</time>
      </trkpt>
      <trkpt lat="46.68837" lon="5.57504">
        <ele>298</ele>
        <time>2019-07-29T12:55:32.000Z</time>
      </trkpt>
      <trkpt lat="46.68833" lon="5.57494">
        <ele>303.9</ele>
        <time>2019-07-29T12:55:42.000Z</time>
      </trkpt>
      <trkpt lat="46.68831" lon="5.57483">
        <ele>303.6</ele>
        <time>2019-07-29T12:55:52.000Z</time>
      </trkpt>
      <trkpt lat="46.68827" lon="5.5747">
        <ele>297</ele>
        <time>2019-07-29T12:56:02.000Z</time>
      </trkpt>
      <trkpt lat="46.68822" lon="5.57463">
        <ele>301.8</ele>
        <time>2019-07-29T12:56:12.000Z</time>
      </trkpt>
      <trkpt lat="46.68816" lon="5.57458">
        <ele>300.6</ele>
        <time>2019-07-29T12:56:22.000Z</time>
      </trkpt>
      <trkpt lat="46.68807" lon="5.57444">
        <ele>298</ele>
        <time>2019-07-29T12:56:32.000Z</time>
      </trkpt>
      <trkpt lat="46.68803" lon="5.57439">
        <ele>297.9</ele>
        <time>2019-07-29T12:56:42.000Z</time>
      </trkpt>
      <trkpt lat="46.68771" lon="5.57407">
        <ele>298</ele>
        <time>2019-07-29T12:55:56.000Z</time>
      </trkpt>
      <trkpt lat="46.68761" lon="5.574">
        <ele>292.4</ele>
        <time>2019-07-29T12:56:06.000Z</time>
      </trkpt>
      <trkpt lat="46.68741" lon="5.57379">
        <ele>298</ele>
        <time>2019-07-29T12:56:26.000Z</time>
      </trkpt>
      <trkpt lat="46.68736" lon="5.57373">
        <ele>290.1</ele>
        <time>2019-07-29T12:56:36.000Z</time>
      </trkpt>
      <trkpt lat="46.68732" lon="5.57365">
        <ele>289.7</ele>
        <time>2019-07-29T12:56:46.000Z</time>
      </trkpt>
      <trkpt lat="46.68726" lon="5.57355">
        <ele>295</ele>
        <time>2019-07-29T12:56:56.000Z</time>
      </trkpt>
      <trkpt lat="46.68718" lon="5.57346">
        <ele>287.5</ele>
        <time>2019-07-29T12:57:06.000Z</time>
      </trkpt>
      <trkpt lat="46.68703" lon="5.57322">
        <ele>293</ele>
        <time>2019-07-29T12:57:16.000Z</time>
      </trkpt>
      <trkpt lat="46.68686" lon="5.57304">
        <ele>289</ele>
        <time>2019-07-29T12:57:26.000Z</time>
      </trkpt>
      <trkpt lat="46.68661" lon="5.57285">
        <ele>286</ele>
        <time>2019-07-29T12:57:36.000Z</time>
      </trkpt>
      <trkpt lat="46.68643" lon="5.57277">
        <ele>287</ele>
        <time>2019-07-29T12:57:46.000Z</time>
      </trkpt>
      <trkpt lat="46.68635" lon="5.57272">
        <ele>278.8</ele>
        <time>2019-07-29T12:57:56.000Z</time>
      </trkpt>
      <trkpt lat="46.68611" lon="5.5726">
        <ele>283</ele>
        <time>2019-07-29T12:58:16.000Z</time>
      </trkpt>
      <trkpt lat="46.68584" lon="5.57248">
        <ele>280</ele>
        <time>2019-07-29T12:57:24.000Z</time>
      </trkpt>
      <trkpt lat="46.68565" lon="5.57238">
        <ele>281</ele>
        <time>2019-07-29T12:57:44.000Z</time>
      </trkpt>
      <trkpt lat="46.68555" lon="5.57229">
        <ele>272</ele>
        <time>2019-07-29T12:57:54.000Z</time>
      </trkpt>
      <trkpt lat="46.68548" lon="5.57221">
        <ele>278</ele>
        <time>2019-07-29T12:58:04.000Z</time>
      </trkpt>
      <trkpt lat="46.68529" lon="5.57184">
        <ele>276</ele>
        <time>2019-07-29T12:57:58.000Z</time>
      </trkpt>
      <trkpt lat="46.68524" lon="5.5717">
        <ele>268.1</ele>
        <time>2019-07-29T12:58:08.000Z</time>
      </trkpt>
      <trkpt lat="46.68517" lon="5.57158">
        <ele>275</ele>
        <time>2019-07-29T12:58:28.000Z</time>
      </trkpt>
      <trkpt lat="46.68512" lon="5.57132">
        <ele>275</ele>
        <time>2019-07-29T12:58:38.000Z</time>
      </trkpt>
      <trkpt lat="46.68493" lon="5.57091">
        <ele>274</ele>
        <time>2019-07-29T12:58:58.000Z</time>
      </trkpt>
      <trkpt lat="46.68487" lon="5.57068">
        <ele>271.1</ele>
        <time>2019-07-29T12:59:08.000Z</time>
      </trkpt>
      <trkpt lat="46.68483" lon="5.57056">
        <ele>274</ele>
        <time>2019-07-29T12:59:18.000Z</time>
      </trkpt>
      <trkpt lat="46.68474" lon="5.5701">
        <ele>274</ele>
        <time>2019-07-29T12:59:38.000Z</time>
      </trkpt>
      <trkpt lat="46.68466" lon="5.56986">
        <ele>270.2</ele>
        <time>2019-07-29T12:59:48.000Z</time>
      </trkpt>
      <trkpt lat="46.68442" lon="5.56933">
        <ele>278</ele>
        <time>2019-07-29T13:00:18.000Z</time>
      </trkpt>
      <trkpt lat="46.68435" lon="5.56906">
        <ele>280</ele>
        <time>2019-07-29T13:00:28.000Z</time>
      </trkpt>
      <trkpt lat="46.68429" lon="5.56894">
        <ele>273.6</ele>
        <time>2019-07-29T13:00:38.000Z</time>
      </trkpt>
      <trkpt lat="46.6842" lon="5.56878">
        <ele>282</ele>
        <time>2019-07-29T13:00:48.000Z</time>
      </trkpt>
      <trkpt lat="46.68416" lon="5.56862">
        <ele>275.1</ele>
        <time>2019-07-29T13:00:58.000Z</time>
      </trkpt>
      <trkpt lat="46.68414" lon="5.56851">
        <ele>282</ele>
        <time>2019-07-29T13:01:08.000Z</time>
      </trkpt>
      <trkpt lat="46.68416" lon="5.56838">
        <ele>275.1</ele>
        <time>2019-07-29T13:01:18.000Z</time>
      </trkpt>
      <trkpt lat="46.68415" lon="5.56823">
        <ele>281</ele>
        <time>2019-07-29T13:01:28.000Z</time>
      </trkpt>
      <trkpt lat="46.68411" lon="5.56809">
        <ele>275.8</ele>
        <time>2019-07-29T13:01:38.000Z</time>
      </trkpt>
      <trkpt lat="46.68404" lon="5.56792">
        <ele>281</ele>
        <time>2019-07-29T13:01:48.000Z</time>
      </trkpt>
      <trkpt lat="46.68402" lon="5.56785">
        <ele>278.6</ele>
        <time>2019-07-29T13:01:58.000Z</time>
      </trkpt>
      <trkpt lat="46.68396" lon="5.56774">
        <ele>279.4</ele>
        <time>2019-07-29T13:02:08.000Z</time>
      </trkpt>
      <trkpt lat="46.68391" lon="5.56762">
        <ele>278</ele>
        <time>2019-07-29T13:02:18.000Z</time>
      </trkpt>
      <trkpt lat="46.68385" lon="5.5675">
        <ele>275.7</ele>
        <time>2019-07-29T13:02:28.000Z</time>
      </trkpt>
      <trkpt lat="46.68377" lon="5.56732">
        <ele>277</ele>
        <time>2019-07-29T13:02:38.000Z</time>
      </trkpt>
      <trkpt lat="46.68367" lon="5.56712">
        <ele>276.1</ele>
        <time>2019-07-29T13:02:48.000Z</time>
      </trkpt>
      <trkpt lat="46.68366" lon="5.56699">
        <ele>274</ele>
        <time>2019-07-29T13:02:58.000Z</time>
      </trkpt>
      <trkpt lat="46.68366" lon="5.56687">
        <ele>273.8</ele>
        <time>2019-07-29T13:03:08.000Z</time>
      </trkpt>
      <trkpt lat="46.6834" lon="5.56609">
        <ele>270</ele>
        <time>2019-07-29T13:01:48.000Z</time>
      </trkpt>
      <trkpt lat="46.68326" lon="5.56579">
        <ele>269</ele>
        <time>2019-07-29T13:02:08.000Z</time>
      </trkpt>
      <trkpt lat="46.68314" lon="5.56562">
        <ele>268.6</ele>
        <time>2019-07-29T13:02:18.000Z</time>
      </trkpt>
      <trkpt lat="46.68308" lon="5.56555">
        <ele>268</ele>
        <time>2019-07-29T13:02:28.000Z</time>
      </trkpt>
      <trkpt lat="46.68298" lon="5.56537">
        <ele>267.7</ele>
        <time>2019-07-29T13:02:38.000Z</time>
      </trkpt>
      <trkpt lat="46.68284" lon="5.56518">
        <ele>270</ele>
        <time>2019-07-29T13:02:48.000Z</time>
      </trkpt>
      <trkpt lat="46.68264" lon="5.56488">
        <ele>272</ele>
        <time>2019-07-29T13:03:08.000Z</time>
      </trkpt>
      <trkpt lat="46.68259" lon="5.56478">
        <ele>268.5</ele>
        <time>2019-07-29T13:03:18.000Z</time>
      </trkpt>
      <trkpt lat="46.68221" lon="5.56437">
        <ele>275</ele>
        <time>2019-07-29T13:03:04.000Z</time>
      </trkpt>
      <trkpt lat="46.68216" lon="5.56424">
        <ele>269.4</ele>
        <time>2019-07-29T13:03:14.000Z</time>
      </trkpt>
      <trkpt lat="46.68211" lon="5.56414">
        <ele>275</ele>
        <time>2019-07-29T13:03:24.000Z</time>
      </trkpt>
      <trkpt lat="46.68204" lon="5.56398">
        <ele>269.7</ele>
        <time>2019-07-29T13:03:34.000Z</time>
      </trkpt>
      <trkpt lat="46.682" lon="5.56393">
        <ele>269.8</ele>
        <time>2019-07-29T13:03:44.000Z</time>
      </trkpt>
      <trkpt lat="46.68195" lon="5.56385">
        <ele>275</ele>
        <time>2019-07-29T13:03:54.000Z</time>
      </trkpt>
      <trkpt lat="46.68192" lon="5.56376">
        <ele>270</ele>
        <time>2019-07-29T13:04:04.000Z</time>
      </trkpt>
      <trkpt lat="46.68182" lon="5.56363">
        <ele>274</ele>
        <time>2019-07-29T13:04:14.000Z</time>
      </trkpt>
      <trkpt lat="46.68179" lon="5.56356">
        <ele>269.5</ele>
        <time>2019-07-29T13:04:24.000Z</time>
      </trkpt>
      <trkpt lat="46.68152" lon="5.56324">
        <ele>273</ele>
        <time>2019-07-29T13:04:03.000Z</time>
      </trkpt>
      <trkpt lat="46.68146" lon="5.56313">
        <ele>269</ele>
        <time>2019-07-29T13:04:13.000Z</time>
      </trkpt>
      <trkpt lat="46.68142" lon="5.56303">
        <ele>269</ele>
        <time>2019-07-29T13:04:23.000Z</time>
      </trkpt>
      <trkpt lat="46.68124" lon="5.56268">
        <ele>268</ele>
        <time>2019-07-29T13:04:43.000Z</time>
      </trkpt>
      <trkpt lat="46.68115" lon="5.56257">
        <ele>268.1</ele>
        <time>2019-07-29T13:04:53.000Z</time>
      </trkpt>
      <trkpt lat="46.68108" lon="5.56244">
        <ele>268</ele>
        <time>2019-07-29T13:05:03.000Z</time>
      </trkpt>
      <trkpt lat="46.68096" lon="5.56219">
        <ele>266</ele>
        <time>2019-07-29T13:05:13.000Z</time>
      </trkpt>
      <trkpt lat="46.68091" lon="5.56203">
        <ele>265.6</ele>
        <time>2019-07-29T13:05:23.000Z</time>
      </trkpt>
      <trkpt lat="46.68084" lon="5.56177">
        <ele>265</ele>
        <time>2019-07-29T13:05:33.000Z</time>
      </trkpt>
      <trkpt lat="46.68078" lon="5.56147">
        <ele>265</ele>
        <time>2019-07-29T13:05:43.000Z</time>
      </trkpt>
      <trkpt lat="46.68064" lon="5.56089">
        <ele>264</ele>
        <time>2019-07-29T13:05:07.000Z</time>
      </trkpt>
      <trkpt lat="46.68062" lon="5.56073">
        <ele>261.7</ele>
        <time>2019-07-29T13:05:17.000Z</time>
      </trkpt>
      <trkpt lat="46.68058" lon="5.56056">
        <ele>264</ele>
        <time>2019-07-29T13:05:27.000Z</time>
      </trkpt>
      <trkpt lat="46.68042" lon="5.56005">
        <ele>264</ele>
        <time>2019-07-29T13:05:31.000Z</time>
      </trkpt>
      <trkpt lat="46.68028" lon="5.55984">
        <ele>265</ele>
        <time>2019-07-29T13:05:41.000Z</time>
      </trkpt>
      <trkpt lat="46.68004" lon="5.55951">
        <ele>272</ele>
        <time>2019-07-29T13:06:11.000Z</time>
      </trkpt>
      <trkpt lat="46.67995" lon="5.55944">
        <ele>263.2</ele>
        <time>2019-07-29T13:06:21.000Z</time>
      </trkpt>
      <trkpt lat="46.67986" lon="5.55938">
        <ele>270</ele>
        <time>2019-07-29T13:06:31.000Z</time>
      </trkpt>
      <trkpt lat="46.67977" lon="5.55933">
        <ele>263.4</ele>
        <time>2019-07-29T13:06:41.000Z</time>
      </trkpt>
      <trkpt lat="46.67945" lon="5.55919">
        <ele>270</ele>
        <time>2019-07-29T13:06:18.000Z</time>
      </trkpt>
      <trkpt lat="46.67937" lon="5.55914">
        <ele>262.9</ele>
        <time>2019-07-29T13:06:28.000Z</time>
      </trkpt>
      <trkpt lat="46.67918" lon="5.55906">
        <ele>270</ele>
        <time>2019-07-29T13:06:29.000Z</time>
      </trkpt>
      <trkpt lat="46.67899" lon="5.55894">
        <ele>270</ele>
        <time>2019-07-29T13:06:39.000Z</time>
      </trkpt>
      <trkpt lat="46.67881" lon="5.55896">
        <ele>261.8</ele>
        <time>2019-07-29T13:06:49.000Z</time>
      </trkpt>
      <trkpt lat="46.67874" lon="5.5589">
        <ele>264</ele>
        <time>2019-07-29T13:06:55.000Z</time>
      </trkpt>
      <trkpt lat="46.67862" lon="5.55873">
        <ele>260.8</ele>
        <time>2019-07-29T13:07:05.000Z</time>
      </trkpt>
      <trkpt lat="46.67856" lon="5.55866">
        <ele>264</ele>
        <time>2019-07-29T13:07:15.000Z</time>
      </trkpt>
      <trkpt lat="46.6784" lon="5.55855">
        <ele>259.6</ele>
        <time>2019-07-29T13:07:25.000Z</time>
      </trkpt>
      <trkpt lat="46.67823" lon="5.55846">
        <ele>264</ele>
        <time>2019-07-29T13:07:35.000Z</time>
      </trkpt>
      <trkpt lat="46.67799" lon="5.55828">
        <ele>264</ele>
        <time>2019-07-29T13:07:22.000Z</time>
      </trkpt>
      <trkpt lat="46.67783" lon="5.55815">
        <ele>258.3</ele>
        <time>2019-07-29T13:07:32.000Z</time>
      </trkpt>
      <trkpt lat="46.67777" lon="5.55806">
        <ele>264</ele>
        <time>2019-07-29T13:07:52.000Z</time>
      </trkpt>
      <trkpt lat="46.67764" lon="5.55777">
        <ele>263</ele>
        <time>2019-07-29T13:08:02.000Z</time>
      </trkpt>
      <trkpt lat="46.6775" lon="5.55746">
        <ele>261</ele>
        <time>2019-07-29T13:07:55.000Z</time>
      </trkpt>
      <trkpt lat="46.67745" lon="5.55737">
        <ele>257.8</ele>
        <time>2019-07-29T13:08:05.000Z</time>
      </trkpt>
      <trkpt lat="46.67736" lon="5.55717">
        <ele>257</ele>
        <time>2019-07-29T13:08:25.000Z</time>
      </trkpt>
      <trkpt lat="46.67726" lon="5.55716">
        <ele>258.5</ele>
        <time>2019-07-29T13:08:35.000Z</time>
      </trkpt>
      <trkpt lat="46.67724" lon="5.55704">
        <ele>257</ele>
        <time>2019-07-29T13:08:55.000Z</time>
      </trkpt>
      <trkpt lat="46.6772" lon="5.55699">
        <ele>258</ele>
        <time>2019-07-29T13:09:05.000Z</time>
      </trkpt>
      <trkpt lat="46.67714" lon="5.55679">
        <ele>257</ele>
        <time>2019-07-29T13:09:25.000Z</time>
      </trkpt>
      <trkpt lat="46.67707" lon="5.55676">
        <ele>256.6</ele>
        <time>2019-07-29T13:09:35.000Z</time>
      </trkpt>
      <trkpt lat="46.67699" lon="5.55676">
        <ele>256.2</ele>
        <time>2019-07-29T13:09:45.000Z</time>
      </trkpt>
      <trkpt lat="46.67685" lon="5.55687">
        <ele>262</ele>
        <time>2019-07-29T13:09:55.000Z</time>
      </trkpt>
      <trkpt lat="46.67667" lon="5.55684">
        <ele>255</ele>
        <time>2019-07-29T13:10:05.000Z</time>
      </trkpt>
      <trkpt lat="46.67651" lon="5.55684">
        <ele>265</ele>
        <time>2019-07-29T13:10:15.000Z</time>
      </trkpt>
      <trkpt lat="46.67643" lon="5.55682">
        <ele>257.9</ele>
        <time>2019-07-29T13:10:25.000Z</time>
      </trkpt>
      <trkpt lat="46.67641" lon="5.55667">
        <ele>265</ele>
        <time>2019-07-29T13:10:35.000Z</time>
      </trkpt>
      <trkpt lat="46.67642" lon="5.55653">
        <ele>259.3</ele>
        <time>2019-07-29T13:10:45.000Z</time>
      </trkpt>
      <trkpt lat="46.67618" lon="5.55656">
        <ele>260</ele>
        <time>2019-07-29T13:09:52.000Z</time>
      </trkpt>
      <trkpt lat="46.67608" lon="5.55656">
        <ele>260.4</ele>
        <time>2019-07-29T13:10:02.000Z</time>
      </trkpt>
      <trkpt lat="46.67587" lon="5.55649">
        <ele>262</ele>
        <time>2019-07-29T13:10:05.000Z</time>
      </trkpt>
      <trkpt lat="46.67565" lon="5.55644">
        <ele>264</ele>
        <time>2019-07-29T13:10:15.000Z</time>
      </trkpt>
      <trkpt lat="46.67562" lon="5.5564">
        <ele>259</ele>
        <time>2019-07-29T13:10:25.000Z</time>
      </trkpt>
      <trkpt lat="46.67563" lon="5.55633">
        <ele>259</ele>
        <time>2019-07-29T13:10:35.000Z</time>
      </trkpt>
      <trkpt lat="46.67566" lon="5.55619">
        <ele>264</ele>
        <time>2019-07-29T13:10:45.000Z</time>
      </trkpt>
      <trkpt lat="46.67569" lon="5.55595">
        <ele>258.4</ele>
        <time>2019-07-29T13:10:55.000Z</time>
      </trkpt>
      <trkpt lat="46.6757" lon="5.5557">
        <ele>264</ele>
        <time>2019-07-29T13:11:05.000Z</time>
      </trkpt>
      <trkpt lat="46.67572" lon="5.55556">
        <ele>258</ele>
        <time>2019-07-29T13:11:15.000Z</time>
      </trkpt>
      <trkpt lat="46.67573" lon="5.55542">
        <ele>259</ele>
        <time>2019-07-29T13:11:25.000Z</time>
      </trkpt>
      <trkpt lat="46.67575" lon="5.55529">
        <ele>257.7</ele>
        <time>2019-07-29T13:11:35.000Z</time>
      </trkpt>
      <trkpt lat="46.67574" lon="5.55495">
        <ele>259</ele>
        <time>2019-07-29T13:10:56.000Z</time>
      </trkpt>
      <trkpt lat="46.67572" lon="5.55479">
        <ele>257</ele>
        <time>2019-07-29T13:11:06.000Z</time>
      </trkpt>
      <trkpt lat="46.67569" lon="5.55464">
        <ele>257</ele>
        <time>2019-07-29T13:11:16.000Z</time>
      </trkpt>
      <trkpt lat="46.67563" lon="5.55449">
        <ele>256.4</ele>
        <time>2019-07-29T13:11:26.000Z</time>
      </trkpt>
      <trkpt lat="46.67558" lon="5.55431">
        <ele>257</ele>
        <time>2019-07-29T13:11:36.000Z</time>
      </trkpt>
      <trkpt lat="46.67553" lon="5.5542">
        <ele>256</ele>
        <time>2019-07-29T13:11:46.000Z</time>
      </trkpt>
      <trkpt lat="46.67546" lon="5.55409">
        <ele>257</ele>
        <time>2019-07-29T13:11:56.000Z</time>
      </trkpt>
      <trkpt lat="46.67519" lon="5.55391">
        <ele>259</ele>
        <time>2019-07-29T13:11:36.000Z</time>
      </trkpt>
      <trkpt lat="46.67496" lon="5.55378">
        <ele>262</ele>
        <time>2019-07-29T13:11:46.000Z</time>
      </trkpt>
      <trkpt lat="46.67468" lon="5.55362">
        <ele>267</ele>
        <time>2019-07-29T13:11:57.000Z</time>
      </trkpt>
      <trkpt lat="46.67459" lon="5.55356">
        <ele>254.9</ele>
        <time>2019-07-29T13:12:07.000Z</time>
      </trkpt>
      <trkpt lat="46.67452" lon="5.55342">
        <ele>269</ele>
        <time>2019-07-29T13:12:17.000Z</time>
      </trkpt>
      <trkpt lat="46.67446" lon="5.55336">
        <ele>254.1</ele>
        <time>2019-07-29T13:12:27.000Z</time>
      </trkpt>
      <trkpt lat="46.67441" lon="5.55321">
        <ele>269</ele>
        <time>2019-07-29T13:12:37.000Z</time>
      </trkpt>
      <trkpt lat="46.67432" lon="5.55309">
        <ele>254</ele>
        <time>2019-07-29T13:12:47.000Z</time>
      </trkpt>
      <trkpt lat="46.67423" lon="5.55294">
        <ele>263</ele>
        <time>2019-07-29T13:13:07.000Z</time>
      </trkpt>
      <trkpt lat="46.67417" lon="5.55282">
        <ele>254</ele>
        <time>2019-07-29T13:13:17.000Z</time>
      </trkpt>
      <trkpt lat="46.67416" lon="5.55278">
        <ele>254</ele>
        <time>2019-07-29T13:13:27.000Z</time>
      </trkpt>
      <trkpt lat="46.67412" lon="5.55269">
        <ele>260</ele>
        <time>2019-07-29T13:13:47.000Z</time>
      </trkpt>
      <trkpt lat="46.67405" lon="5.5526">
        <ele>254</ele>
        <time>2019-07-29T13:13:57.000Z</time>
      </trkpt>
      <trkpt lat="46.674" lon="5.55257">
        <ele>256</ele>
        <time>2019-07-29T13:14:07.000Z</time>
        <extensions>
          <visugpx:TrkExtension xmlns:visugpx="https://www.visugpx.com/editgpx/">
            <visugpx:node>1</visugpx:node>
            </visugpx:TrkExtension>
        </extensions>
      </trkpt>
    </trkseg>
  </trk>
</gpx>